<?xml version="1.0" encoding="UTF-8" standalone="no" ?>
<gpx xmlns="http://www.topografix.com/GPX/1/1" xmlns:xsi="http://www.w3.org/2001/XMLSchema-instance" xsi:schemaLocation="http://www.topografix.com/GPX/1/1 http://www.topografix.com/GPX/1/1/gpx.xsd" version="1.1" creator="VisuGPX - https://www.visugpx.com">
  <metadata>
    <name> Villers la Faye et ses alentours</name>
  </metadata>
  <trk>
    <name><![CDATA[2020 06 14 Villers la Faye seul]]></name>
    <extensions>
      <line xmlns="http://www.topografix.com/GPX/gpx_style/0/2">
        <color>0000FF</color>
        <width>3</width>
      </line>
    </extensions>
    <trkseg>
      <trkpt lat="47.11195" lon="4.87803">
        <ele>381.8</ele>
        <time>2020-06-14T05:58:15.000Z</time>
      </trkpt>
      <trkpt lat="47.11195" lon="4.87803">
        <ele>381.8</ele>
        <time>2020-06-14T05:58:15.000Z</time>
      </trkpt>
      <trkpt lat="47.11195" lon="4.87803">
        <ele>381.9</ele>
        <time>2020-06-14T05:58:16.000Z</time>
      </trkpt>
      <trkpt lat="47.11195" lon="4.87803">
        <ele>381.7</ele>
        <time>2020-06-14T05:58:20.000Z</time>
      </trkpt>
      <trkpt lat="47.11197" lon="4.87804">
        <ele>381.7</ele>
        <time>2020-06-14T05:58:24.000Z</time>
      </trkpt>
      <trkpt lat="47.11197" lon="4.87803">
        <ele>381.7</ele>
        <time>2020-06-14T05:58:25.000Z</time>
      </trkpt>
      <trkpt lat="47.11196" lon="4.87802">
        <ele>381.9</ele>
        <time>2020-06-14T05:58:33.000Z</time>
      </trkpt>
      <trkpt lat="47.11196" lon="4.87802">
        <ele>381.6</ele>
        <time>2020-06-14T05:58:39.000Z</time>
      </trkpt>
      <trkpt lat="47.11196" lon="4.87801">
        <ele>381.6</ele>
        <time>2020-06-14T05:58:41.000Z</time>
      </trkpt>
      <trkpt lat="47.11196" lon="4.87801">
        <ele>381.7</ele>
        <time>2020-06-14T05:58:55.000Z</time>
      </trkpt>
      <trkpt lat="47.11196" lon="4.87802">
        <ele>381.8</ele>
        <time>2020-06-14T05:58:58.000Z</time>
      </trkpt>
      <trkpt lat="47.11196" lon="4.87802">
        <ele>381.7</ele>
        <time>2020-06-14T05:58:59.000Z</time>
      </trkpt>
      <trkpt lat="47.11196" lon="4.87802">
        <ele>381.6</ele>
        <time>2020-06-14T05:59:00.000Z</time>
      </trkpt>
      <trkpt lat="47.11196" lon="4.87802">
        <ele>381.7</ele>
        <time>2020-06-14T05:59:01.000Z</time>
      </trkpt>
      <trkpt lat="47.11187" lon="4.87798">
        <ele>381.4</ele>
        <time>2020-06-14T05:59:11.000Z</time>
      </trkpt>
      <trkpt lat="47.11178" lon="4.87792">
        <ele>381</ele>
        <time>2020-06-14T05:59:21.000Z</time>
      </trkpt>
      <trkpt lat="47.1117" lon="4.87785">
        <ele>380.6</ele>
        <time>2020-06-14T05:59:32.000Z</time>
      </trkpt>
      <trkpt lat="47.11161" lon="4.87779">
        <ele>380.3</ele>
        <time>2020-06-14T05:59:41.000Z</time>
      </trkpt>
      <trkpt lat="47.11152" lon="4.87773">
        <ele>379.7</ele>
        <time>2020-06-14T05:59:48.000Z</time>
      </trkpt>
      <trkpt lat="47.11143" lon="4.87767">
        <ele>379.4</ele>
        <time>2020-06-14T05:59:55.000Z</time>
      </trkpt>
      <trkpt lat="47.11134" lon="4.87763">
        <ele>379.1</ele>
        <time>2020-06-14T06:00:03.000Z</time>
      </trkpt>
      <trkpt lat="47.11126" lon="4.87757">
        <ele>378.7</ele>
        <time>2020-06-14T06:00:12.000Z</time>
      </trkpt>
      <trkpt lat="47.11116" lon="4.87754">
        <ele>377.9</ele>
        <time>2020-06-14T06:00:21.000Z</time>
      </trkpt>
      <trkpt lat="47.11107" lon="4.87752">
        <ele>377.6</ele>
        <time>2020-06-14T06:00:30.000Z</time>
      </trkpt>
      <trkpt lat="47.11097" lon="4.87747">
        <ele>377.1</ele>
        <time>2020-06-14T06:00:40.000Z</time>
      </trkpt>
      <trkpt lat="47.11087" lon="4.87745">
        <ele>376.6</ele>
        <time>2020-06-14T06:00:48.000Z</time>
      </trkpt>
      <trkpt lat="47.11079" lon="4.87742">
        <ele>376.7</ele>
        <time>2020-06-14T06:00:56.000Z</time>
      </trkpt>
      <trkpt lat="47.1107" lon="4.87738">
        <ele>376.7</ele>
        <time>2020-06-14T06:01:06.000Z</time>
      </trkpt>
      <trkpt lat="47.11061" lon="4.87737">
        <ele>376.5</ele>
        <time>2020-06-14T06:01:15.000Z</time>
      </trkpt>
      <trkpt lat="47.11052" lon="4.87735">
        <ele>376.4</ele>
        <time>2020-06-14T06:01:22.000Z</time>
      </trkpt>
      <trkpt lat="47.11043" lon="4.87737">
        <ele>376.3</ele>
        <time>2020-06-14T06:01:30.000Z</time>
      </trkpt>
      <trkpt lat="47.11033" lon="4.87737">
        <ele>376.2</ele>
        <time>2020-06-14T06:01:40.000Z</time>
      </trkpt>
      <trkpt lat="47.11023" lon="4.87736">
        <ele>376.3</ele>
        <time>2020-06-14T06:01:49.000Z</time>
      </trkpt>
      <trkpt lat="47.11014" lon="4.87736">
        <ele>376.6</ele>
        <time>2020-06-14T06:01:57.000Z</time>
      </trkpt>
      <trkpt lat="47.11004" lon="4.87735">
        <ele>376.6</ele>
        <time>2020-06-14T06:02:05.000Z</time>
      </trkpt>
      <trkpt lat="47.10994" lon="4.87736">
        <ele>376.4</ele>
        <time>2020-06-14T06:02:13.000Z</time>
      </trkpt>
      <trkpt lat="47.10984" lon="4.87735">
        <ele>376</ele>
        <time>2020-06-14T06:02:25.000Z</time>
      </trkpt>
      <trkpt lat="47.10974" lon="4.87736">
        <ele>375.2</ele>
        <time>2020-06-14T06:02:32.000Z</time>
      </trkpt>
      <trkpt lat="47.10965" lon="4.87738">
        <ele>375.1</ele>
        <time>2020-06-14T06:02:39.000Z</time>
      </trkpt>
      <trkpt lat="47.10955" lon="4.87738">
        <ele>374.9</ele>
        <time>2020-06-14T06:02:46.000Z</time>
      </trkpt>
      <trkpt lat="47.10945" lon="4.87738">
        <ele>374.7</ele>
        <time>2020-06-14T06:02:53.000Z</time>
      </trkpt>
      <trkpt lat="47.10936" lon="4.8774">
        <ele>374.6</ele>
        <time>2020-06-14T06:03:00.000Z</time>
      </trkpt>
      <trkpt lat="47.10926" lon="4.87743">
        <ele>374.8</ele>
        <time>2020-06-14T06:03:08.000Z</time>
      </trkpt>
      <trkpt lat="47.10917" lon="4.87746">
        <ele>374.3</ele>
        <time>2020-06-14T06:03:15.000Z</time>
      </trkpt>
      <trkpt lat="47.10908" lon="4.87749">
        <ele>374</ele>
        <time>2020-06-14T06:03:23.000Z</time>
      </trkpt>
      <trkpt lat="47.10899" lon="4.87752">
        <ele>373.7</ele>
        <time>2020-06-14T06:03:31.000Z</time>
      </trkpt>
      <trkpt lat="47.10889" lon="4.87754">
        <ele>373.1</ele>
        <time>2020-06-14T06:03:42.000Z</time>
      </trkpt>
      <trkpt lat="47.10879" lon="4.87757">
        <ele>372.6</ele>
        <time>2020-06-14T06:03:50.000Z</time>
      </trkpt>
      <trkpt lat="47.1087" lon="4.87761">
        <ele>372.4</ele>
        <time>2020-06-14T06:03:57.000Z</time>
      </trkpt>
      <trkpt lat="47.10861" lon="4.87765">
        <ele>372.1</ele>
        <time>2020-06-14T06:04:04.000Z</time>
      </trkpt>
      <trkpt lat="47.10851" lon="4.87769">
        <ele>372.1</ele>
        <time>2020-06-14T06:04:12.000Z</time>
      </trkpt>
      <trkpt lat="47.10841" lon="4.87772">
        <ele>371.7</ele>
        <time>2020-06-14T06:04:20.000Z</time>
      </trkpt>
      <trkpt lat="47.10832" lon="4.87775">
        <ele>371.3</ele>
        <time>2020-06-14T06:04:27.000Z</time>
      </trkpt>
      <trkpt lat="47.10823" lon="4.87777">
        <ele>370.8</ele>
        <time>2020-06-14T06:04:34.000Z</time>
      </trkpt>
      <trkpt lat="47.10813" lon="4.87779">
        <ele>370.7</ele>
        <time>2020-06-14T06:04:42.000Z</time>
      </trkpt>
      <trkpt lat="47.10803" lon="4.87781">
        <ele>369.8</ele>
        <time>2020-06-14T06:04:50.000Z</time>
      </trkpt>
      <trkpt lat="47.10798" lon="4.87783">
        <ele>369.8</ele>
        <time>2020-06-14T06:05:00.000Z</time>
      </trkpt>
      <trkpt lat="47.10798" lon="4.87783">
        <ele>369.6</ele>
        <time>2020-06-14T06:05:08.000Z</time>
      </trkpt>
      <trkpt lat="47.10798" lon="4.87783">
        <ele>369.6</ele>
        <time>2020-06-14T06:05:09.000Z</time>
      </trkpt>
      <trkpt lat="47.10798" lon="4.87783">
        <ele>369.6</ele>
        <time>2020-06-14T06:05:14.000Z</time>
      </trkpt>
      <trkpt lat="47.10788" lon="4.87782">
        <ele>369</ele>
        <time>2020-06-14T06:05:20.000Z</time>
      </trkpt>
      <trkpt lat="47.10779" lon="4.87783">
        <ele>368.1</ele>
        <time>2020-06-14T06:05:28.000Z</time>
      </trkpt>
      <trkpt lat="47.1077" lon="4.87789">
        <ele>366.1</ele>
        <time>2020-06-14T06:05:37.000Z</time>
      </trkpt>
      <trkpt lat="47.10762" lon="4.87797">
        <ele>364.2</ele>
        <time>2020-06-14T06:05:46.000Z</time>
      </trkpt>
      <trkpt lat="47.10755" lon="4.87805">
        <ele>362.7</ele>
        <time>2020-06-14T06:05:54.000Z</time>
      </trkpt>
      <trkpt lat="47.10746" lon="4.87812">
        <ele>360.8</ele>
        <time>2020-06-14T06:06:03.000Z</time>
      </trkpt>
      <trkpt lat="47.10738" lon="4.87818">
        <ele>359.6</ele>
        <time>2020-06-14T06:06:11.000Z</time>
      </trkpt>
      <trkpt lat="47.10729" lon="4.8782">
        <ele>358.2</ele>
        <time>2020-06-14T06:06:19.000Z</time>
      </trkpt>
      <trkpt lat="47.1072" lon="4.87816">
        <ele>356.6</ele>
        <time>2020-06-14T06:06:30.000Z</time>
      </trkpt>
      <trkpt lat="47.10712" lon="4.87809">
        <ele>355.4</ele>
        <time>2020-06-14T06:06:40.000Z</time>
      </trkpt>
      <trkpt lat="47.10703" lon="4.87814">
        <ele>354.1</ele>
        <time>2020-06-14T06:06:48.000Z</time>
      </trkpt>
      <trkpt lat="47.10692" lon="4.87816">
        <ele>353.2</ele>
        <time>2020-06-14T06:06:55.000Z</time>
      </trkpt>
      <trkpt lat="47.10683" lon="4.87816">
        <ele>352.1</ele>
        <time>2020-06-14T06:07:00.000Z</time>
      </trkpt>
      <trkpt lat="47.10674" lon="4.87812">
        <ele>350.9</ele>
        <time>2020-06-14T06:07:08.000Z</time>
      </trkpt>
      <trkpt lat="47.10665" lon="4.87813">
        <ele>350.4</ele>
        <time>2020-06-14T06:07:17.000Z</time>
      </trkpt>
      <trkpt lat="47.10658" lon="4.87822">
        <ele>348.7</ele>
        <time>2020-06-14T06:07:25.000Z</time>
      </trkpt>
      <trkpt lat="47.1065" lon="4.87829">
        <ele>347.2</ele>
        <time>2020-06-14T06:07:35.000Z</time>
      </trkpt>
      <trkpt lat="47.10643" lon="4.87839">
        <ele>346.4</ele>
        <time>2020-06-14T06:07:47.000Z</time>
      </trkpt>
      <trkpt lat="47.10638" lon="4.87849">
        <ele>345.6</ele>
        <time>2020-06-14T06:07:54.000Z</time>
      </trkpt>
      <trkpt lat="47.10638" lon="4.87849">
        <ele>345.8</ele>
        <time>2020-06-14T06:08:17.000Z</time>
      </trkpt>
      <trkpt lat="47.10638" lon="4.87849">
        <ele>345.7</ele>
        <time>2020-06-14T06:08:18.000Z</time>
      </trkpt>
      <trkpt lat="47.10637" lon="4.8785">
        <ele>345.5</ele>
        <time>2020-06-14T06:08:27.000Z</time>
      </trkpt>
      <trkpt lat="47.10633" lon="4.87863">
        <ele>344.9</ele>
        <time>2020-06-14T06:08:34.000Z</time>
      </trkpt>
      <trkpt lat="47.10632" lon="4.87877">
        <ele>343.8</ele>
        <time>2020-06-14T06:08:42.000Z</time>
      </trkpt>
      <trkpt lat="47.10632" lon="4.87892">
        <ele>343</ele>
        <time>2020-06-14T06:08:51.000Z</time>
      </trkpt>
      <trkpt lat="47.10632" lon="4.87907">
        <ele>341.7</ele>
        <time>2020-06-14T06:08:59.000Z</time>
      </trkpt>
      <trkpt lat="47.10631" lon="4.87921">
        <ele>340.9</ele>
        <time>2020-06-14T06:09:07.000Z</time>
      </trkpt>
      <trkpt lat="47.10631" lon="4.87935">
        <ele>339.9</ele>
        <time>2020-06-14T06:09:15.000Z</time>
      </trkpt>
      <trkpt lat="47.1063" lon="4.87949">
        <ele>339.6</ele>
        <time>2020-06-14T06:09:23.000Z</time>
      </trkpt>
      <trkpt lat="47.10629" lon="4.87964">
        <ele>338.8</ele>
        <time>2020-06-14T06:09:31.000Z</time>
      </trkpt>
      <trkpt lat="47.10627" lon="4.87978">
        <ele>338.4</ele>
        <time>2020-06-14T06:09:39.000Z</time>
      </trkpt>
      <trkpt lat="47.10625" lon="4.87992">
        <ele>337.8</ele>
        <time>2020-06-14T06:09:47.000Z</time>
      </trkpt>
      <trkpt lat="47.10616" lon="4.87998">
        <ele>338.1</ele>
        <time>2020-06-14T06:09:56.000Z</time>
      </trkpt>
      <trkpt lat="47.10608" lon="4.87994">
        <ele>339.9</ele>
        <time>2020-06-14T06:10:05.000Z</time>
      </trkpt>
      <trkpt lat="47.10598" lon="4.87994">
        <ele>340</ele>
        <time>2020-06-14T06:10:20.000Z</time>
      </trkpt>
      <trkpt lat="47.10589" lon="4.87998">
        <ele>341.2</ele>
        <time>2020-06-14T06:10:30.000Z</time>
      </trkpt>
      <trkpt lat="47.10581" lon="4.88006">
        <ele>341.7</ele>
        <time>2020-06-14T06:10:39.000Z</time>
      </trkpt>
      <trkpt lat="47.10575" lon="4.88017">
        <ele>342.5</ele>
        <time>2020-06-14T06:10:51.000Z</time>
      </trkpt>
      <trkpt lat="47.10573" lon="4.8803">
        <ele>343.1</ele>
        <time>2020-06-14T06:10:59.000Z</time>
      </trkpt>
      <trkpt lat="47.10567" lon="4.88042">
        <ele>343.3</ele>
        <time>2020-06-14T06:11:07.000Z</time>
      </trkpt>
      <trkpt lat="47.10561" lon="4.88052">
        <ele>343.8</ele>
        <time>2020-06-14T06:11:14.000Z</time>
      </trkpt>
      <trkpt lat="47.10556" lon="4.88063">
        <ele>344.4</ele>
        <time>2020-06-14T06:11:22.000Z</time>
      </trkpt>
      <trkpt lat="47.10549" lon="4.88074">
        <ele>345</ele>
        <time>2020-06-14T06:11:29.000Z</time>
      </trkpt>
      <trkpt lat="47.10542" lon="4.88084">
        <ele>344.8</ele>
        <time>2020-06-14T06:11:36.000Z</time>
      </trkpt>
      <trkpt lat="47.10537" lon="4.88096">
        <ele>344.9</ele>
        <time>2020-06-14T06:11:45.000Z</time>
      </trkpt>
      <trkpt lat="47.10534" lon="4.88108">
        <ele>344.9</ele>
        <time>2020-06-14T06:11:54.000Z</time>
      </trkpt>
      <trkpt lat="47.10529" lon="4.88121">
        <ele>345.2</ele>
        <time>2020-06-14T06:12:06.000Z</time>
      </trkpt>
      <trkpt lat="47.10525" lon="4.88133">
        <ele>344.9</ele>
        <time>2020-06-14T06:12:14.000Z</time>
      </trkpt>
      <trkpt lat="47.10521" lon="4.88145">
        <ele>345.3</ele>
        <time>2020-06-14T06:12:21.000Z</time>
      </trkpt>
      <trkpt lat="47.10515" lon="4.88158">
        <ele>345.3</ele>
        <time>2020-06-14T06:12:29.000Z</time>
      </trkpt>
      <trkpt lat="47.1051" lon="4.88169">
        <ele>345.5</ele>
        <time>2020-06-14T06:12:36.000Z</time>
      </trkpt>
      <trkpt lat="47.10506" lon="4.8818">
        <ele>345.4</ele>
        <time>2020-06-14T06:12:43.000Z</time>
      </trkpt>
      <trkpt lat="47.10501" lon="4.88192">
        <ele>345.4</ele>
        <time>2020-06-14T06:12:51.000Z</time>
      </trkpt>
      <trkpt lat="47.10496" lon="4.88205">
        <ele>345.1</ele>
        <time>2020-06-14T06:12:59.000Z</time>
      </trkpt>
      <trkpt lat="47.10491" lon="4.88218">
        <ele>344.7</ele>
        <time>2020-06-14T06:13:07.000Z</time>
      </trkpt>
      <trkpt lat="47.10487" lon="4.8823">
        <ele>344.6</ele>
        <time>2020-06-14T06:13:15.000Z</time>
      </trkpt>
      <trkpt lat="47.10484" lon="4.88243">
        <ele>344.3</ele>
        <time>2020-06-14T06:13:23.000Z</time>
      </trkpt>
      <trkpt lat="47.1048" lon="4.88255">
        <ele>344.4</ele>
        <time>2020-06-14T06:13:32.000Z</time>
      </trkpt>
      <trkpt lat="47.10475" lon="4.88267">
        <ele>343.9</ele>
        <time>2020-06-14T06:13:40.000Z</time>
      </trkpt>
      <trkpt lat="47.10471" lon="4.88281">
        <ele>343.7</ele>
        <time>2020-06-14T06:13:48.000Z</time>
      </trkpt>
      <trkpt lat="47.10467" lon="4.88294">
        <ele>343.7</ele>
        <time>2020-06-14T06:13:56.000Z</time>
      </trkpt>
      <trkpt lat="47.10463" lon="4.88307">
        <ele>343.2</ele>
        <time>2020-06-14T06:14:05.000Z</time>
      </trkpt>
      <trkpt lat="47.10459" lon="4.8832">
        <ele>342.7</ele>
        <time>2020-06-14T06:14:13.000Z</time>
      </trkpt>
      <trkpt lat="47.10455" lon="4.88332">
        <ele>342.4</ele>
        <time>2020-06-14T06:14:20.000Z</time>
      </trkpt>
      <trkpt lat="47.10452" lon="4.88346">
        <ele>342.1</ele>
        <time>2020-06-14T06:14:28.000Z</time>
      </trkpt>
      <trkpt lat="47.10448" lon="4.88358">
        <ele>341.6</ele>
        <time>2020-06-14T06:14:36.000Z</time>
      </trkpt>
      <trkpt lat="47.10445" lon="4.88373">
        <ele>341.5</ele>
        <time>2020-06-14T06:14:44.000Z</time>
      </trkpt>
      <trkpt lat="47.1044" lon="4.88385">
        <ele>341.5</ele>
        <time>2020-06-14T06:14:52.000Z</time>
      </trkpt>
      <trkpt lat="47.1043" lon="4.88384">
        <ele>342</ele>
        <time>2020-06-14T06:15:01.000Z</time>
      </trkpt>
      <trkpt lat="47.10422" lon="4.8838">
        <ele>343.9</ele>
        <time>2020-06-14T06:15:12.000Z</time>
      </trkpt>
      <trkpt lat="47.10412" lon="4.88377">
        <ele>345.4</ele>
        <time>2020-06-14T06:15:24.000Z</time>
      </trkpt>
      <trkpt lat="47.10403" lon="4.88373">
        <ele>347.5</ele>
        <time>2020-06-14T06:15:36.000Z</time>
      </trkpt>
      <trkpt lat="47.10394" lon="4.88372">
        <ele>348.2</ele>
        <time>2020-06-14T06:15:44.000Z</time>
      </trkpt>
      <trkpt lat="47.10387" lon="4.88382">
        <ele>348.2</ele>
        <time>2020-06-14T06:15:55.000Z</time>
      </trkpt>
      <trkpt lat="47.10385" lon="4.88396">
        <ele>347.9</ele>
        <time>2020-06-14T06:16:06.000Z</time>
      </trkpt>
      <trkpt lat="47.10381" lon="4.88411">
        <ele>347.8</ele>
        <time>2020-06-14T06:16:15.000Z</time>
      </trkpt>
      <trkpt lat="47.10378" lon="4.88424">
        <ele>347.1</ele>
        <time>2020-06-14T06:16:24.000Z</time>
      </trkpt>
      <trkpt lat="47.10374" lon="4.88437">
        <ele>346.9</ele>
        <time>2020-06-14T06:16:34.000Z</time>
      </trkpt>
      <trkpt lat="47.10369" lon="4.88449">
        <ele>347.1</ele>
        <time>2020-06-14T06:16:43.000Z</time>
      </trkpt>
      <trkpt lat="47.10361" lon="4.88455">
        <ele>347</ele>
        <time>2020-06-14T06:16:51.000Z</time>
      </trkpt>
      <trkpt lat="47.10351" lon="4.88455">
        <ele>347.1</ele>
        <time>2020-06-14T06:16:59.000Z</time>
      </trkpt>
      <trkpt lat="47.10341" lon="4.88452">
        <ele>347.7</ele>
        <time>2020-06-14T06:17:07.000Z</time>
      </trkpt>
      <trkpt lat="47.10332" lon="4.88449">
        <ele>347.9</ele>
        <time>2020-06-14T06:17:16.000Z</time>
      </trkpt>
      <trkpt lat="47.10324" lon="4.88441">
        <ele>347.4</ele>
        <time>2020-06-14T06:17:25.000Z</time>
      </trkpt>
      <trkpt lat="47.10315" lon="4.88437">
        <ele>347.1</ele>
        <time>2020-06-14T06:17:33.000Z</time>
      </trkpt>
      <trkpt lat="47.10307" lon="4.8843">
        <ele>347.2</ele>
        <time>2020-06-14T06:17:41.000Z</time>
      </trkpt>
      <trkpt lat="47.10299" lon="4.88424">
        <ele>347</ele>
        <time>2020-06-14T06:17:50.000Z</time>
      </trkpt>
      <trkpt lat="47.10291" lon="4.88417">
        <ele>347</ele>
        <time>2020-06-14T06:17:58.000Z</time>
      </trkpt>
      <trkpt lat="47.10283" lon="4.88408">
        <ele>346.6</ele>
        <time>2020-06-14T06:18:06.000Z</time>
      </trkpt>
      <trkpt lat="47.10275" lon="4.884">
        <ele>346.2</ele>
        <time>2020-06-14T06:18:13.000Z</time>
      </trkpt>
      <trkpt lat="47.10268" lon="4.88391">
        <ele>346.1</ele>
        <time>2020-06-14T06:18:21.000Z</time>
      </trkpt>
      <trkpt lat="47.10262" lon="4.8838">
        <ele>346.2</ele>
        <time>2020-06-14T06:18:28.000Z</time>
      </trkpt>
      <trkpt lat="47.10255" lon="4.8837">
        <ele>346.5</ele>
        <time>2020-06-14T06:18:35.000Z</time>
      </trkpt>
      <trkpt lat="47.10248" lon="4.8836">
        <ele>346.7</ele>
        <time>2020-06-14T06:18:43.000Z</time>
      </trkpt>
      <trkpt lat="47.10242" lon="4.88349">
        <ele>346.7</ele>
        <time>2020-06-14T06:18:51.000Z</time>
      </trkpt>
      <trkpt lat="47.1024" lon="4.88336">
        <ele>347.4</ele>
        <time>2020-06-14T06:19:04.000Z</time>
      </trkpt>
      <trkpt lat="47.10247" lon="4.88326">
        <ele>350.6</ele>
        <time>2020-06-14T06:19:24.000Z</time>
      </trkpt>
      <trkpt lat="47.10247" lon="4.88325">
        <ele>351.2</ele>
        <time>2020-06-14T06:19:26.000Z</time>
      </trkpt>
      <trkpt lat="47.10247" lon="4.88324">
        <ele>351.2</ele>
        <time>2020-06-14T06:19:27.000Z</time>
      </trkpt>
      <trkpt lat="47.10252" lon="4.88313">
        <ele>353.1</ele>
        <time>2020-06-14T06:19:41.000Z</time>
      </trkpt>
      <trkpt lat="47.10261" lon="4.88307">
        <ele>354.8</ele>
        <time>2020-06-14T06:19:53.000Z</time>
      </trkpt>
      <trkpt lat="47.10266" lon="4.88295">
        <ele>357.3</ele>
        <time>2020-06-14T06:20:12.000Z</time>
      </trkpt>
      <trkpt lat="47.10269" lon="4.88283">
        <ele>360</ele>
        <time>2020-06-14T06:20:30.000Z</time>
      </trkpt>
      <trkpt lat="47.10274" lon="4.8828">
        <ele>361.6</ele>
        <time>2020-06-14T06:20:40.000Z</time>
      </trkpt>
      <trkpt lat="47.10274" lon="4.88279">
        <ele>361.4</ele>
        <time>2020-06-14T06:20:41.000Z</time>
      </trkpt>
      <trkpt lat="47.10281" lon="4.88269">
        <ele>364.3</ele>
        <time>2020-06-14T06:21:01.000Z</time>
      </trkpt>
      <trkpt lat="47.10281" lon="4.88267">
        <ele>364.7</ele>
        <time>2020-06-14T06:21:05.000Z</time>
      </trkpt>
      <trkpt lat="47.10281" lon="4.88267">
        <ele>364.6</ele>
        <time>2020-06-14T06:21:06.000Z</time>
      </trkpt>
      <trkpt lat="47.10281" lon="4.88266">
        <ele>365.2</ele>
        <time>2020-06-14T06:21:08.000Z</time>
      </trkpt>
      <trkpt lat="47.10281" lon="4.88266">
        <ele>365.5</ele>
        <time>2020-06-14T06:21:09.000Z</time>
      </trkpt>
      <trkpt lat="47.10283" lon="4.88263">
        <ele>366</ele>
        <time>2020-06-14T06:21:16.000Z</time>
      </trkpt>
      <trkpt lat="47.10283" lon="4.88263">
        <ele>366.7</ele>
        <time>2020-06-14T06:21:18.000Z</time>
      </trkpt>
      <trkpt lat="47.10291" lon="4.88254">
        <ele>369.6</ele>
        <time>2020-06-14T06:21:41.000Z</time>
      </trkpt>
      <trkpt lat="47.10298" lon="4.88246">
        <ele>370.5</ele>
        <time>2020-06-14T06:21:51.000Z</time>
      </trkpt>
      <trkpt lat="47.10304" lon="4.88235">
        <ele>371.9</ele>
        <time>2020-06-14T06:22:04.000Z</time>
      </trkpt>
      <trkpt lat="47.10307" lon="4.88231">
        <ele>373</ele>
        <time>2020-06-14T06:22:14.000Z</time>
      </trkpt>
      <trkpt lat="47.10307" lon="4.88231">
        <ele>373.1</ele>
        <time>2020-06-14T06:22:15.000Z</time>
      </trkpt>
      <trkpt lat="47.10312" lon="4.88218">
        <ele>374.9</ele>
        <time>2020-06-14T06:22:39.000Z</time>
      </trkpt>
      <trkpt lat="47.10316" lon="4.88211">
        <ele>375.4</ele>
        <time>2020-06-14T06:22:47.000Z</time>
      </trkpt>
      <trkpt lat="47.10317" lon="4.8821">
        <ele>375.5</ele>
        <time>2020-06-14T06:22:48.000Z</time>
      </trkpt>
      <trkpt lat="47.10323" lon="4.88202">
        <ele>377.5</ele>
        <time>2020-06-14T06:23:01.000Z</time>
      </trkpt>
      <trkpt lat="47.10323" lon="4.88202">
        <ele>377.6</ele>
        <time>2020-06-14T06:23:02.000Z</time>
      </trkpt>
      <trkpt lat="47.10326" lon="4.88197">
        <ele>378.1</ele>
        <time>2020-06-14T06:23:13.000Z</time>
      </trkpt>
      <trkpt lat="47.10327" lon="4.88197">
        <ele>378.1</ele>
        <time>2020-06-14T06:23:14.000Z</time>
      </trkpt>
      <trkpt lat="47.10327" lon="4.88197">
        <ele>378.2</ele>
        <time>2020-06-14T06:23:15.000Z</time>
      </trkpt>
      <trkpt lat="47.10328" lon="4.88196">
        <ele>378.3</ele>
        <time>2020-06-14T06:23:16.000Z</time>
      </trkpt>
      <trkpt lat="47.10335" lon="4.88186">
        <ele>378.8</ele>
        <time>2020-06-14T06:23:27.000Z</time>
      </trkpt>
      <trkpt lat="47.10341" lon="4.88176">
        <ele>379.5</ele>
        <time>2020-06-14T06:23:38.000Z</time>
      </trkpt>
      <trkpt lat="47.10346" lon="4.88164">
        <ele>380.1</ele>
        <time>2020-06-14T06:23:48.000Z</time>
      </trkpt>
      <trkpt lat="47.10344" lon="4.8815">
        <ele>380.8</ele>
        <time>2020-06-14T06:23:55.000Z</time>
      </trkpt>
      <trkpt lat="47.10336" lon="4.88143">
        <ele>380.9</ele>
        <time>2020-06-14T06:24:04.000Z</time>
      </trkpt>
      <trkpt lat="47.10329" lon="4.88144">
        <ele>380.9</ele>
        <time>2020-06-14T06:24:17.000Z</time>
      </trkpt>
      <trkpt lat="47.10329" lon="4.88144">
        <ele>380.8</ele>
        <time>2020-06-14T06:24:18.000Z</time>
      </trkpt>
      <trkpt lat="47.10329" lon="4.88144">
        <ele>380.8</ele>
        <time>2020-06-14T06:24:21.000Z</time>
      </trkpt>
      <trkpt lat="47.10329" lon="4.88144">
        <ele>380.8</ele>
        <time>2020-06-14T06:24:23.000Z</time>
      </trkpt>
      <trkpt lat="47.10328" lon="4.88144">
        <ele>380.8</ele>
        <time>2020-06-14T06:24:26.000Z</time>
      </trkpt>
      <trkpt lat="47.10328" lon="4.88144">
        <ele>380.8</ele>
        <time>2020-06-14T06:24:27.000Z</time>
      </trkpt>
      <trkpt lat="47.10328" lon="4.88144">
        <ele>380.8</ele>
        <time>2020-06-14T06:24:28.000Z</time>
      </trkpt>
      <trkpt lat="47.10328" lon="4.88143">
        <ele>380.7</ele>
        <time>2020-06-14T06:24:35.000Z</time>
      </trkpt>
      <trkpt lat="47.10328" lon="4.88143">
        <ele>380.7</ele>
        <time>2020-06-14T06:24:36.000Z</time>
      </trkpt>
      <trkpt lat="47.10328" lon="4.88143">
        <ele>381</ele>
        <time>2020-06-14T06:24:54.000Z</time>
      </trkpt>
      <trkpt lat="47.10329" lon="4.88133">
        <ele>380.9</ele>
        <time>2020-06-14T06:25:10.000Z</time>
      </trkpt>
      <trkpt lat="47.10329" lon="4.88133">
        <ele>380.7</ele>
        <time>2020-06-14T06:25:13.000Z</time>
      </trkpt>
      <trkpt lat="47.10329" lon="4.88133">
        <ele>380.5</ele>
        <time>2020-06-14T06:25:15.000Z</time>
      </trkpt>
      <trkpt lat="47.10329" lon="4.88132">
        <ele>380.8</ele>
        <time>2020-06-14T06:25:29.000Z</time>
      </trkpt>
      <trkpt lat="47.1033" lon="4.88118">
        <ele>381</ele>
        <time>2020-06-14T06:25:43.000Z</time>
      </trkpt>
      <trkpt lat="47.10332" lon="4.88104">
        <ele>380.9</ele>
        <time>2020-06-14T06:25:52.000Z</time>
      </trkpt>
      <trkpt lat="47.10334" lon="4.8809">
        <ele>381.3</ele>
        <time>2020-06-14T06:26:01.000Z</time>
      </trkpt>
      <trkpt lat="47.10333" lon="4.88085">
        <ele>380.7</ele>
        <time>2020-06-14T06:26:12.000Z</time>
      </trkpt>
      <trkpt lat="47.10333" lon="4.88085">
        <ele>380.7</ele>
        <time>2020-06-14T06:26:13.000Z</time>
      </trkpt>
      <trkpt lat="47.10333" lon="4.88086">
        <ele>380.6</ele>
        <time>2020-06-14T06:26:16.000Z</time>
      </trkpt>
      <trkpt lat="47.10333" lon="4.88086">
        <ele>380.8</ele>
        <time>2020-06-14T06:26:17.000Z</time>
      </trkpt>
      <trkpt lat="47.10333" lon="4.88085">
        <ele>380.8</ele>
        <time>2020-06-14T06:26:21.000Z</time>
      </trkpt>
      <trkpt lat="47.10333" lon="4.88085">
        <ele>380.8</ele>
        <time>2020-06-14T06:26:22.000Z</time>
      </trkpt>
      <trkpt lat="47.10333" lon="4.88085">
        <ele>380.8</ele>
        <time>2020-06-14T06:26:23.000Z</time>
      </trkpt>
      <trkpt lat="47.10333" lon="4.88085">
        <ele>380.8</ele>
        <time>2020-06-14T06:26:24.000Z</time>
      </trkpt>
      <trkpt lat="47.10333" lon="4.88085">
        <ele>381</ele>
        <time>2020-06-14T06:26:25.000Z</time>
      </trkpt>
      <trkpt lat="47.10333" lon="4.88085">
        <ele>380.6</ele>
        <time>2020-06-14T06:26:40.000Z</time>
      </trkpt>
      <trkpt lat="47.10333" lon="4.88093">
        <ele>380.6</ele>
        <time>2020-06-14T06:26:52.000Z</time>
      </trkpt>
      <trkpt lat="47.10332" lon="4.88093">
        <ele>380.6</ele>
        <time>2020-06-14T06:26:53.000Z</time>
      </trkpt>
      <trkpt lat="47.1033" lon="4.88096">
        <ele>380.6</ele>
        <time>2020-06-14T06:27:06.000Z</time>
      </trkpt>
      <trkpt lat="47.1033" lon="4.88096">
        <ele>380.6</ele>
        <time>2020-06-14T06:27:07.000Z</time>
      </trkpt>
      <trkpt lat="47.10335" lon="4.88083">
        <ele>381</ele>
        <time>2020-06-14T06:27:16.000Z</time>
      </trkpt>
      <trkpt lat="47.10338" lon="4.88069">
        <ele>381.2</ele>
        <time>2020-06-14T06:27:25.000Z</time>
      </trkpt>
      <trkpt lat="47.10337" lon="4.88055">
        <ele>381.1</ele>
        <time>2020-06-14T06:27:34.000Z</time>
      </trkpt>
      <trkpt lat="47.10337" lon="4.88041">
        <ele>381.6</ele>
        <time>2020-06-14T06:27:43.000Z</time>
      </trkpt>
      <trkpt lat="47.10339" lon="4.88036">
        <ele>381.8</ele>
        <time>2020-06-14T06:27:52.000Z</time>
      </trkpt>
      <trkpt lat="47.1034" lon="4.88036">
        <ele>382.1</ele>
        <time>2020-06-14T06:27:53.000Z</time>
      </trkpt>
      <trkpt lat="47.10347" lon="4.88027">
        <ele>381.4</ele>
        <time>2020-06-14T06:28:07.000Z</time>
      </trkpt>
      <trkpt lat="47.10356" lon="4.88022">
        <ele>380.6</ele>
        <time>2020-06-14T06:28:18.000Z</time>
      </trkpt>
      <trkpt lat="47.10361" lon="4.88009">
        <ele>380.8</ele>
        <time>2020-06-14T06:28:27.000Z</time>
      </trkpt>
      <trkpt lat="47.10364" lon="4.88002">
        <ele>380.3</ele>
        <time>2020-06-14T06:28:34.000Z</time>
      </trkpt>
      <trkpt lat="47.10365" lon="4.88002">
        <ele>380.7</ele>
        <time>2020-06-14T06:28:35.000Z</time>
      </trkpt>
      <trkpt lat="47.10368" lon="4.87989">
        <ele>380.1</ele>
        <time>2020-06-14T06:28:49.000Z</time>
      </trkpt>
      <trkpt lat="47.10361" lon="4.87978">
        <ele>380.9</ele>
        <time>2020-06-14T06:29:02.000Z</time>
      </trkpt>
      <trkpt lat="47.10353" lon="4.87972">
        <ele>380.2</ele>
        <time>2020-06-14T06:29:11.000Z</time>
      </trkpt>
      <trkpt lat="47.10345" lon="4.87963">
        <ele>379.8</ele>
        <time>2020-06-14T06:29:18.000Z</time>
      </trkpt>
      <trkpt lat="47.10339" lon="4.87951">
        <ele>379.4</ele>
        <time>2020-06-14T06:29:26.000Z</time>
      </trkpt>
      <trkpt lat="47.1033" lon="4.87942">
        <ele>379.3</ele>
        <time>2020-06-14T06:29:35.000Z</time>
      </trkpt>
      <trkpt lat="47.10324" lon="4.87941">
        <ele>378.6</ele>
        <time>2020-06-14T06:29:47.000Z</time>
      </trkpt>
      <trkpt lat="47.10323" lon="4.87941">
        <ele>378.3</ele>
        <time>2020-06-14T06:29:48.000Z</time>
      </trkpt>
      <trkpt lat="47.10317" lon="4.87929">
        <ele>377.7</ele>
        <time>2020-06-14T06:29:57.000Z</time>
      </trkpt>
      <trkpt lat="47.10315" lon="4.87916">
        <ele>376.5</ele>
        <time>2020-06-14T06:30:06.000Z</time>
      </trkpt>
      <trkpt lat="47.1031" lon="4.87904">
        <ele>375.9</ele>
        <time>2020-06-14T06:30:12.000Z</time>
      </trkpt>
      <trkpt lat="47.10304" lon="4.87893">
        <ele>375.2</ele>
        <time>2020-06-14T06:30:19.000Z</time>
      </trkpt>
      <trkpt lat="47.10303" lon="4.87887">
        <ele>374.8</ele>
        <time>2020-06-14T06:30:26.000Z</time>
      </trkpt>
      <trkpt lat="47.10303" lon="4.87886">
        <ele>374.7</ele>
        <time>2020-06-14T06:30:33.000Z</time>
      </trkpt>
      <trkpt lat="47.10303" lon="4.87886">
        <ele>374.8</ele>
        <time>2020-06-14T06:30:35.000Z</time>
      </trkpt>
      <trkpt lat="47.10303" lon="4.87886">
        <ele>374.7</ele>
        <time>2020-06-14T06:30:39.000Z</time>
      </trkpt>
      <trkpt lat="47.10302" lon="4.87885">
        <ele>374.6</ele>
        <time>2020-06-14T06:30:44.000Z</time>
      </trkpt>
      <trkpt lat="47.10302" lon="4.87885">
        <ele>374.6</ele>
        <time>2020-06-14T06:30:48.000Z</time>
      </trkpt>
      <trkpt lat="47.10297" lon="4.87874">
        <ele>373.3</ele>
        <time>2020-06-14T06:31:01.000Z</time>
      </trkpt>
      <trkpt lat="47.10295" lon="4.87861">
        <ele>371.8</ele>
        <time>2020-06-14T06:31:11.000Z</time>
      </trkpt>
      <trkpt lat="47.10294" lon="4.87846">
        <ele>370.3</ele>
        <time>2020-06-14T06:31:20.000Z</time>
      </trkpt>
      <trkpt lat="47.10288" lon="4.87836">
        <ele>366.5</ele>
        <time>2020-06-14T06:31:38.000Z</time>
      </trkpt>
      <trkpt lat="47.10282" lon="4.87837">
        <ele>366.7</ele>
        <time>2020-06-14T06:31:47.000Z</time>
      </trkpt>
      <trkpt lat="47.10282" lon="4.87837">
        <ele>366.6</ele>
        <time>2020-06-14T06:31:48.000Z</time>
      </trkpt>
      <trkpt lat="47.10273" lon="4.87843">
        <ele>364.2</ele>
        <time>2020-06-14T06:32:05.000Z</time>
      </trkpt>
      <trkpt lat="47.10264" lon="4.87847">
        <ele>361.8</ele>
        <time>2020-06-14T06:32:19.000Z</time>
      </trkpt>
      <trkpt lat="47.10255" lon="4.87852">
        <ele>360.7</ele>
        <time>2020-06-14T06:32:30.000Z</time>
      </trkpt>
      <trkpt lat="47.10246" lon="4.87858">
        <ele>358.2</ele>
        <time>2020-06-14T06:32:42.000Z</time>
      </trkpt>
      <trkpt lat="47.10239" lon="4.87866">
        <ele>356.3</ele>
        <time>2020-06-14T06:32:50.000Z</time>
      </trkpt>
      <trkpt lat="47.10235" lon="4.87873">
        <ele>353.9</ele>
        <time>2020-06-14T06:33:02.000Z</time>
      </trkpt>
      <trkpt lat="47.10235" lon="4.87873">
        <ele>353.6</ele>
        <time>2020-06-14T06:33:03.000Z</time>
      </trkpt>
      <trkpt lat="47.10228" lon="4.87885">
        <ele>353.2</ele>
        <time>2020-06-14T06:33:13.000Z</time>
      </trkpt>
      <trkpt lat="47.10224" lon="4.87897">
        <ele>351.9</ele>
        <time>2020-06-14T06:33:22.000Z</time>
      </trkpt>
      <trkpt lat="47.10219" lon="4.87909">
        <ele>350.4</ele>
        <time>2020-06-14T06:33:32.000Z</time>
      </trkpt>
      <trkpt lat="47.10214" lon="4.8792">
        <ele>348.7</ele>
        <time>2020-06-14T06:33:41.000Z</time>
      </trkpt>
      <trkpt lat="47.10205" lon="4.87923">
        <ele>347.3</ele>
        <time>2020-06-14T06:33:46.000Z</time>
      </trkpt>
      <trkpt lat="47.10195" lon="4.87927">
        <ele>345.8</ele>
        <time>2020-06-14T06:33:52.000Z</time>
      </trkpt>
      <trkpt lat="47.10185" lon="4.87928">
        <ele>345</ele>
        <time>2020-06-14T06:33:59.000Z</time>
      </trkpt>
      <trkpt lat="47.1018" lon="4.87929">
        <ele>344.9</ele>
        <time>2020-06-14T06:34:04.000Z</time>
      </trkpt>
      <trkpt lat="47.1018" lon="4.87929">
        <ele>344.3</ele>
        <time>2020-06-14T06:34:06.000Z</time>
      </trkpt>
      <trkpt lat="47.10179" lon="4.87929">
        <ele>344.9</ele>
        <time>2020-06-14T06:34:08.000Z</time>
      </trkpt>
      <trkpt lat="47.1018" lon="4.87929">
        <ele>345.1</ele>
        <time>2020-06-14T06:34:09.000Z</time>
      </trkpt>
      <trkpt lat="47.1018" lon="4.87929">
        <ele>345.3</ele>
        <time>2020-06-14T06:34:10.000Z</time>
      </trkpt>
      <trkpt lat="47.10179" lon="4.87929">
        <ele>345.3</ele>
        <time>2020-06-14T06:34:11.000Z</time>
      </trkpt>
      <trkpt lat="47.10182" lon="4.8793">
        <ele>344.9</ele>
        <time>2020-06-14T06:34:24.000Z</time>
      </trkpt>
      <trkpt lat="47.10183" lon="4.87931">
        <ele>344.8</ele>
        <time>2020-06-14T06:34:26.000Z</time>
      </trkpt>
      <trkpt lat="47.10182" lon="4.87934">
        <ele>345</ele>
        <time>2020-06-14T06:34:50.000Z</time>
      </trkpt>
      <trkpt lat="47.10181" lon="4.87934">
        <ele>344.8</ele>
        <time>2020-06-14T06:34:52.000Z</time>
      </trkpt>
      <trkpt lat="47.10181" lon="4.87934">
        <ele>344.8</ele>
        <time>2020-06-14T06:34:54.000Z</time>
      </trkpt>
      <trkpt lat="47.10181" lon="4.87934">
        <ele>345</ele>
        <time>2020-06-14T06:34:56.000Z</time>
      </trkpt>
      <trkpt lat="47.10178" lon="4.87929">
        <ele>345.1</ele>
        <time>2020-06-14T06:35:04.000Z</time>
      </trkpt>
      <trkpt lat="47.10178" lon="4.87928">
        <ele>344.9</ele>
        <time>2020-06-14T06:35:07.000Z</time>
      </trkpt>
      <trkpt lat="47.10178" lon="4.87927">
        <ele>344.9</ele>
        <time>2020-06-14T06:35:09.000Z</time>
      </trkpt>
      <trkpt lat="47.10178" lon="4.87927">
        <ele>344.7</ele>
        <time>2020-06-14T06:35:18.000Z</time>
      </trkpt>
      <trkpt lat="47.10174" lon="4.87927">
        <ele>344.6</ele>
        <time>2020-06-14T06:35:24.000Z</time>
      </trkpt>
      <trkpt lat="47.10174" lon="4.87926">
        <ele>344.6</ele>
        <time>2020-06-14T06:35:29.000Z</time>
      </trkpt>
      <trkpt lat="47.10174" lon="4.87926">
        <ele>344.8</ele>
        <time>2020-06-14T06:35:30.000Z</time>
      </trkpt>
      <trkpt lat="47.10174" lon="4.87926">
        <ele>344.8</ele>
        <time>2020-06-14T06:35:31.000Z</time>
      </trkpt>
      <trkpt lat="47.10184" lon="4.87922">
        <ele>344.6</ele>
        <time>2020-06-14T06:35:41.000Z</time>
      </trkpt>
      <trkpt lat="47.10191" lon="4.87912">
        <ele>344.9</ele>
        <time>2020-06-14T06:35:50.000Z</time>
      </trkpt>
      <trkpt lat="47.10194" lon="4.87897">
        <ele>344.9</ele>
        <time>2020-06-14T06:35:56.000Z</time>
      </trkpt>
      <trkpt lat="47.10198" lon="4.87883">
        <ele>344.8</ele>
        <time>2020-06-14T06:36:02.000Z</time>
      </trkpt>
      <trkpt lat="47.10203" lon="4.87872">
        <ele>345</ele>
        <time>2020-06-14T06:36:10.000Z</time>
      </trkpt>
      <trkpt lat="47.10206" lon="4.87857">
        <ele>346.1</ele>
        <time>2020-06-14T06:36:20.000Z</time>
      </trkpt>
      <trkpt lat="47.10208" lon="4.87843">
        <ele>346.1</ele>
        <time>2020-06-14T06:36:27.000Z</time>
      </trkpt>
      <trkpt lat="47.10212" lon="4.8783">
        <ele>346.7</ele>
        <time>2020-06-14T06:36:35.000Z</time>
      </trkpt>
      <trkpt lat="47.10218" lon="4.87819">
        <ele>347.2</ele>
        <time>2020-06-14T06:36:44.000Z</time>
      </trkpt>
      <trkpt lat="47.10224" lon="4.87807">
        <ele>347.7</ele>
        <time>2020-06-14T06:36:52.000Z</time>
      </trkpt>
      <trkpt lat="47.10231" lon="4.87797">
        <ele>347.6</ele>
        <time>2020-06-14T06:37:00.000Z</time>
      </trkpt>
      <trkpt lat="47.10235" lon="4.87784">
        <ele>347.2</ele>
        <time>2020-06-14T06:37:08.000Z</time>
      </trkpt>
      <trkpt lat="47.1024" lon="4.87774">
        <ele>347.5</ele>
        <time>2020-06-14T06:37:16.000Z</time>
      </trkpt>
      <trkpt lat="47.10247" lon="4.87764">
        <ele>347.5</ele>
        <time>2020-06-14T06:37:25.000Z</time>
      </trkpt>
      <trkpt lat="47.10255" lon="4.87758">
        <ele>347.1</ele>
        <time>2020-06-14T06:37:34.000Z</time>
      </trkpt>
      <trkpt lat="47.10262" lon="4.8775">
        <ele>346.6</ele>
        <time>2020-06-14T06:37:42.000Z</time>
      </trkpt>
      <trkpt lat="47.10268" lon="4.87739">
        <ele>346.5</ele>
        <time>2020-06-14T06:37:49.000Z</time>
      </trkpt>
      <trkpt lat="47.10275" lon="4.8773">
        <ele>346.6</ele>
        <time>2020-06-14T06:37:57.000Z</time>
      </trkpt>
      <trkpt lat="47.10279" lon="4.87717">
        <ele>346.3</ele>
        <time>2020-06-14T06:38:08.000Z</time>
      </trkpt>
      <trkpt lat="47.10288" lon="4.87715">
        <ele>346.4</ele>
        <time>2020-06-14T06:38:18.000Z</time>
      </trkpt>
      <trkpt lat="47.10297" lon="4.87708">
        <ele>346.2</ele>
        <time>2020-06-14T06:38:26.000Z</time>
      </trkpt>
      <trkpt lat="47.10306" lon="4.87707">
        <ele>346.6</ele>
        <time>2020-06-14T06:38:34.000Z</time>
      </trkpt>
      <trkpt lat="47.10316" lon="4.87704">
        <ele>346.9</ele>
        <time>2020-06-14T06:38:42.000Z</time>
      </trkpt>
      <trkpt lat="47.10326" lon="4.87702">
        <ele>347.3</ele>
        <time>2020-06-14T06:38:49.000Z</time>
      </trkpt>
      <trkpt lat="47.10335" lon="4.87702">
        <ele>347.8</ele>
        <time>2020-06-14T06:38:56.000Z</time>
      </trkpt>
      <trkpt lat="47.10345" lon="4.87706">
        <ele>348.2</ele>
        <time>2020-06-14T06:39:02.000Z</time>
      </trkpt>
      <trkpt lat="47.10346" lon="4.87706">
        <ele>348.3</ele>
        <time>2020-06-14T06:39:07.000Z</time>
      </trkpt>
      <trkpt lat="47.10347" lon="4.87706">
        <ele>348.2</ele>
        <time>2020-06-14T06:39:09.000Z</time>
      </trkpt>
      <trkpt lat="47.10348" lon="4.87706">
        <ele>348.3</ele>
        <time>2020-06-14T06:39:14.000Z</time>
      </trkpt>
      <trkpt lat="47.10348" lon="4.87706">
        <ele>348.2</ele>
        <time>2020-06-14T06:39:15.000Z</time>
      </trkpt>
      <trkpt lat="47.10349" lon="4.87693">
        <ele>345.8</ele>
        <time>2020-06-14T06:39:26.000Z</time>
      </trkpt>
      <trkpt lat="47.10349" lon="4.87678">
        <ele>344.3</ele>
        <time>2020-06-14T06:39:34.000Z</time>
      </trkpt>
      <trkpt lat="47.10348" lon="4.87665">
        <ele>342.5</ele>
        <time>2020-06-14T06:39:42.000Z</time>
      </trkpt>
      <trkpt lat="47.10348" lon="4.8765">
        <ele>341</ele>
        <time>2020-06-14T06:39:51.000Z</time>
      </trkpt>
      <trkpt lat="47.10348" lon="4.87636">
        <ele>338.6</ele>
        <time>2020-06-14T06:40:07.000Z</time>
      </trkpt>
      <trkpt lat="47.10347" lon="4.87636">
        <ele>338.8</ele>
        <time>2020-06-14T06:40:10.000Z</time>
      </trkpt>
      <trkpt lat="47.10347" lon="4.87635">
        <ele>338.8</ele>
        <time>2020-06-14T06:40:21.000Z</time>
      </trkpt>
      <trkpt lat="47.10347" lon="4.87635">
        <ele>338.8</ele>
        <time>2020-06-14T06:40:22.000Z</time>
      </trkpt>
      <trkpt lat="47.10347" lon="4.87635">
        <ele>338.8</ele>
        <time>2020-06-14T06:40:23.000Z</time>
      </trkpt>
      <trkpt lat="47.10347" lon="4.87634">
        <ele>338.8</ele>
        <time>2020-06-14T06:40:26.000Z</time>
      </trkpt>
      <trkpt lat="47.10347" lon="4.87634">
        <ele>338.9</ele>
        <time>2020-06-14T06:40:27.000Z</time>
      </trkpt>
      <trkpt lat="47.10347" lon="4.87634">
        <ele>338.7</ele>
        <time>2020-06-14T06:40:28.000Z</time>
      </trkpt>
      <trkpt lat="47.10348" lon="4.87634">
        <ele>338.7</ele>
        <time>2020-06-14T06:40:33.000Z</time>
      </trkpt>
      <trkpt lat="47.10348" lon="4.87633">
        <ele>338.7</ele>
        <time>2020-06-14T06:40:34.000Z</time>
      </trkpt>
      <trkpt lat="47.10348" lon="4.87633">
        <ele>338.8</ele>
        <time>2020-06-14T06:40:35.000Z</time>
      </trkpt>
      <trkpt lat="47.10348" lon="4.87631">
        <ele>338.4</ele>
        <time>2020-06-14T06:40:39.000Z</time>
      </trkpt>
      <trkpt lat="47.10348" lon="4.8763">
        <ele>338.4</ele>
        <time>2020-06-14T06:40:41.000Z</time>
      </trkpt>
      <trkpt lat="47.10348" lon="4.8763">
        <ele>338.7</ele>
        <time>2020-06-14T06:40:44.000Z</time>
      </trkpt>
      <trkpt lat="47.10348" lon="4.8763">
        <ele>338.6</ele>
        <time>2020-06-14T06:41:18.000Z</time>
      </trkpt>
      <trkpt lat="47.10348" lon="4.8763">
        <ele>338.5</ele>
        <time>2020-06-14T06:41:19.000Z</time>
      </trkpt>
      <trkpt lat="47.10348" lon="4.87631">
        <ele>338.5</ele>
        <time>2020-06-14T06:41:33.000Z</time>
      </trkpt>
      <trkpt lat="47.10348" lon="4.8763">
        <ele>338.3</ele>
        <time>2020-06-14T06:41:37.000Z</time>
      </trkpt>
      <trkpt lat="47.10348" lon="4.87629">
        <ele>338.1</ele>
        <time>2020-06-14T06:41:38.000Z</time>
      </trkpt>
      <trkpt lat="47.10349" lon="4.87614">
        <ele>336.6</ele>
        <time>2020-06-14T06:41:49.000Z</time>
      </trkpt>
      <trkpt lat="47.1035" lon="4.87605">
        <ele>335.8</ele>
        <time>2020-06-14T06:41:58.000Z</time>
      </trkpt>
      <trkpt lat="47.1035" lon="4.87605">
        <ele>336</ele>
        <time>2020-06-14T06:42:02.000Z</time>
      </trkpt>
      <trkpt lat="47.1035" lon="4.87603">
        <ele>335.8</ele>
        <time>2020-06-14T06:42:06.000Z</time>
      </trkpt>
      <trkpt lat="47.1035" lon="4.87603">
        <ele>335.8</ele>
        <time>2020-06-14T06:42:07.000Z</time>
      </trkpt>
      <trkpt lat="47.10349" lon="4.87603">
        <ele>335.7</ele>
        <time>2020-06-14T06:42:09.000Z</time>
      </trkpt>
      <trkpt lat="47.10349" lon="4.87602">
        <ele>335.7</ele>
        <time>2020-06-14T06:42:10.000Z</time>
      </trkpt>
      <trkpt lat="47.10349" lon="4.87602">
        <ele>335.8</ele>
        <time>2020-06-14T06:42:12.000Z</time>
      </trkpt>
      <trkpt lat="47.10349" lon="4.87602">
        <ele>335.9</ele>
        <time>2020-06-14T06:42:22.000Z</time>
      </trkpt>
      <trkpt lat="47.10349" lon="4.87602">
        <ele>335.9</ele>
        <time>2020-06-14T06:42:23.000Z</time>
      </trkpt>
      <trkpt lat="47.10349" lon="4.87601">
        <ele>335.9</ele>
        <time>2020-06-14T06:42:25.000Z</time>
      </trkpt>
      <trkpt lat="47.10349" lon="4.87601">
        <ele>335.9</ele>
        <time>2020-06-14T06:42:26.000Z</time>
      </trkpt>
      <trkpt lat="47.10349" lon="4.87601">
        <ele>335.7</ele>
        <time>2020-06-14T06:42:32.000Z</time>
      </trkpt>
      <trkpt lat="47.10349" lon="4.87601">
        <ele>335.8</ele>
        <time>2020-06-14T06:42:33.000Z</time>
      </trkpt>
      <trkpt lat="47.10349" lon="4.87601">
        <ele>335.9</ele>
        <time>2020-06-14T06:42:34.000Z</time>
      </trkpt>
      <trkpt lat="47.10349" lon="4.876">
        <ele>335.8</ele>
        <time>2020-06-14T06:42:35.000Z</time>
      </trkpt>
      <trkpt lat="47.10349" lon="4.876">
        <ele>335.8</ele>
        <time>2020-06-14T06:42:36.000Z</time>
      </trkpt>
      <trkpt lat="47.10349" lon="4.876">
        <ele>335.8</ele>
        <time>2020-06-14T06:42:37.000Z</time>
      </trkpt>
      <trkpt lat="47.10349" lon="4.876">
        <ele>335.8</ele>
        <time>2020-06-14T06:42:43.000Z</time>
      </trkpt>
      <trkpt lat="47.10349" lon="4.876">
        <ele>335.6</ele>
        <time>2020-06-14T06:42:45.000Z</time>
      </trkpt>
      <trkpt lat="47.10349" lon="4.876">
        <ele>335.7</ele>
        <time>2020-06-14T06:42:46.000Z</time>
      </trkpt>
      <trkpt lat="47.10349" lon="4.876">
        <ele>335.8</ele>
        <time>2020-06-14T06:42:47.000Z</time>
      </trkpt>
      <trkpt lat="47.10349" lon="4.876">
        <ele>335.8</ele>
        <time>2020-06-14T06:42:48.000Z</time>
      </trkpt>
      <trkpt lat="47.10349" lon="4.876">
        <ele>335.9</ele>
        <time>2020-06-14T06:42:49.000Z</time>
      </trkpt>
      <trkpt lat="47.10349" lon="4.876">
        <ele>335.6</ele>
        <time>2020-06-14T06:42:56.000Z</time>
      </trkpt>
      <trkpt lat="47.10349" lon="4.87599">
        <ele>335.7</ele>
        <time>2020-06-14T06:42:59.000Z</time>
      </trkpt>
      <trkpt lat="47.10349" lon="4.87599">
        <ele>335.8</ele>
        <time>2020-06-14T06:43:00.000Z</time>
      </trkpt>
      <trkpt lat="47.10349" lon="4.87599">
        <ele>335.9</ele>
        <time>2020-06-14T06:43:01.000Z</time>
      </trkpt>
      <trkpt lat="47.10349" lon="4.87598">
        <ele>335.7</ele>
        <time>2020-06-14T06:43:04.000Z</time>
      </trkpt>
      <trkpt lat="47.10349" lon="4.87598">
        <ele>335.7</ele>
        <time>2020-06-14T06:43:05.000Z</time>
      </trkpt>
      <trkpt lat="47.10349" lon="4.87598">
        <ele>335.7</ele>
        <time>2020-06-14T06:43:13.000Z</time>
      </trkpt>
      <trkpt lat="47.1035" lon="4.87584">
        <ele>334.6</ele>
        <time>2020-06-14T06:43:24.000Z</time>
      </trkpt>
      <trkpt lat="47.10359" lon="4.87579">
        <ele>333.7</ele>
        <time>2020-06-14T06:43:37.000Z</time>
      </trkpt>
      <trkpt lat="47.10369" lon="4.8758">
        <ele>334</ele>
        <time>2020-06-14T06:43:45.000Z</time>
      </trkpt>
      <trkpt lat="47.10379" lon="4.87582">
        <ele>334.3</ele>
        <time>2020-06-14T06:43:53.000Z</time>
      </trkpt>
      <trkpt lat="47.10388" lon="4.87583">
        <ele>334.4</ele>
        <time>2020-06-14T06:44:00.000Z</time>
      </trkpt>
      <trkpt lat="47.10397" lon="4.87584">
        <ele>334.5</ele>
        <time>2020-06-14T06:44:08.000Z</time>
      </trkpt>
      <trkpt lat="47.10407" lon="4.87585">
        <ele>334.9</ele>
        <time>2020-06-14T06:44:17.000Z</time>
      </trkpt>
      <trkpt lat="47.10417" lon="4.87586">
        <ele>335</ele>
        <time>2020-06-14T06:44:25.000Z</time>
      </trkpt>
      <trkpt lat="47.10426" lon="4.87589">
        <ele>335.7</ele>
        <time>2020-06-14T06:44:34.000Z</time>
      </trkpt>
      <trkpt lat="47.10435" lon="4.87594">
        <ele>335.7</ele>
        <time>2020-06-14T06:44:42.000Z</time>
      </trkpt>
      <trkpt lat="47.10444" lon="4.876">
        <ele>335.8</ele>
        <time>2020-06-14T06:44:51.000Z</time>
      </trkpt>
      <trkpt lat="47.10454" lon="4.87603">
        <ele>336.2</ele>
        <time>2020-06-14T06:44:59.000Z</time>
      </trkpt>
      <trkpt lat="47.10463" lon="4.87607">
        <ele>336.7</ele>
        <time>2020-06-14T06:45:07.000Z</time>
      </trkpt>
      <trkpt lat="47.10472" lon="4.87612">
        <ele>336.8</ele>
        <time>2020-06-14T06:45:16.000Z</time>
      </trkpt>
      <trkpt lat="47.10481" lon="4.87617">
        <ele>337.3</ele>
        <time>2020-06-14T06:45:24.000Z</time>
      </trkpt>
      <trkpt lat="47.1049" lon="4.8762">
        <ele>337.6</ele>
        <time>2020-06-14T06:45:35.000Z</time>
      </trkpt>
      <trkpt lat="47.10499" lon="4.87625">
        <ele>338.1</ele>
        <time>2020-06-14T06:45:44.000Z</time>
      </trkpt>
      <trkpt lat="47.10507" lon="4.87631">
        <ele>338.5</ele>
        <time>2020-06-14T06:45:52.000Z</time>
      </trkpt>
      <trkpt lat="47.10517" lon="4.87632">
        <ele>339.1</ele>
        <time>2020-06-14T06:45:59.000Z</time>
      </trkpt>
      <trkpt lat="47.10526" lon="4.87633">
        <ele>339.5</ele>
        <time>2020-06-14T06:46:07.000Z</time>
      </trkpt>
      <trkpt lat="47.10533" lon="4.87623">
        <ele>339.5</ele>
        <time>2020-06-14T06:46:15.000Z</time>
      </trkpt>
      <trkpt lat="47.10538" lon="4.87612">
        <ele>339.4</ele>
        <time>2020-06-14T06:46:22.000Z</time>
      </trkpt>
      <trkpt lat="47.10543" lon="4.87601">
        <ele>339.4</ele>
        <time>2020-06-14T06:46:29.000Z</time>
      </trkpt>
      <trkpt lat="47.10545" lon="4.87588">
        <ele>339.4</ele>
        <time>2020-06-14T06:46:39.000Z</time>
      </trkpt>
      <trkpt lat="47.10539" lon="4.87576">
        <ele>338.6</ele>
        <time>2020-06-14T06:46:47.000Z</time>
      </trkpt>
      <trkpt lat="47.10539" lon="4.87562">
        <ele>338.5</ele>
        <time>2020-06-14T06:46:55.000Z</time>
      </trkpt>
      <trkpt lat="47.1054" lon="4.87549">
        <ele>338.6</ele>
        <time>2020-06-14T06:47:03.000Z</time>
      </trkpt>
      <trkpt lat="47.1054" lon="4.87546">
        <ele>338.9</ele>
        <time>2020-06-14T06:47:07.000Z</time>
      </trkpt>
      <trkpt lat="47.1054" lon="4.87546">
        <ele>338.6</ele>
        <time>2020-06-14T06:47:10.000Z</time>
      </trkpt>
      <trkpt lat="47.10543" lon="4.87532">
        <ele>338.9</ele>
        <time>2020-06-14T06:47:18.000Z</time>
      </trkpt>
      <trkpt lat="47.10545" lon="4.87519">
        <ele>338.8</ele>
        <time>2020-06-14T06:47:25.000Z</time>
      </trkpt>
      <trkpt lat="47.10549" lon="4.87505">
        <ele>338.6</ele>
        <time>2020-06-14T06:47:34.000Z</time>
      </trkpt>
      <trkpt lat="47.10551" lon="4.87496">
        <ele>339</ele>
        <time>2020-06-14T06:47:43.000Z</time>
      </trkpt>
      <trkpt lat="47.10551" lon="4.87496">
        <ele>338.8</ele>
        <time>2020-06-14T06:47:44.000Z</time>
      </trkpt>
      <trkpt lat="47.10551" lon="4.87497">
        <ele>339</ele>
        <time>2020-06-14T06:47:47.000Z</time>
      </trkpt>
      <trkpt lat="47.10551" lon="4.87496">
        <ele>338.9</ele>
        <time>2020-06-14T06:47:48.000Z</time>
      </trkpt>
      <trkpt lat="47.10545" lon="4.87508">
        <ele>338.9</ele>
        <time>2020-06-14T06:48:03.000Z</time>
      </trkpt>
      <trkpt lat="47.10537" lon="4.87516">
        <ele>338.7</ele>
        <time>2020-06-14T06:48:13.000Z</time>
      </trkpt>
      <trkpt lat="47.10527" lon="4.87511">
        <ele>338.5</ele>
        <time>2020-06-14T06:48:26.000Z</time>
      </trkpt>
      <trkpt lat="47.1052" lon="4.87502">
        <ele>338.4</ele>
        <time>2020-06-14T06:48:31.000Z</time>
      </trkpt>
      <trkpt lat="47.1052" lon="4.87496">
        <ele>338.4</ele>
        <time>2020-06-14T06:48:37.000Z</time>
      </trkpt>
      <trkpt lat="47.1052" lon="4.87496">
        <ele>338.4</ele>
        <time>2020-06-14T06:48:45.000Z</time>
      </trkpt>
      <trkpt lat="47.1052" lon="4.87494">
        <ele>338.3</ele>
        <time>2020-06-14T06:48:50.000Z</time>
      </trkpt>
      <trkpt lat="47.10521" lon="4.87494">
        <ele>338.2</ele>
        <time>2020-06-14T06:48:53.000Z</time>
      </trkpt>
      <trkpt lat="47.10523" lon="4.8748">
        <ele>337.9</ele>
        <time>2020-06-14T06:49:04.000Z</time>
      </trkpt>
      <trkpt lat="47.10524" lon="4.87466">
        <ele>338.1</ele>
        <time>2020-06-14T06:49:13.000Z</time>
      </trkpt>
      <trkpt lat="47.10523" lon="4.87452">
        <ele>338.3</ele>
        <time>2020-06-14T06:49:20.000Z</time>
      </trkpt>
      <trkpt lat="47.10524" lon="4.87437">
        <ele>338.2</ele>
        <time>2020-06-14T06:49:28.000Z</time>
      </trkpt>
      <trkpt lat="47.10524" lon="4.87424">
        <ele>338.1</ele>
        <time>2020-06-14T06:49:35.000Z</time>
      </trkpt>
      <trkpt lat="47.10524" lon="4.87409">
        <ele>337.9</ele>
        <time>2020-06-14T06:49:43.000Z</time>
      </trkpt>
      <trkpt lat="47.10524" lon="4.87394">
        <ele>337.9</ele>
        <time>2020-06-14T06:49:50.000Z</time>
      </trkpt>
      <trkpt lat="47.10524" lon="4.87379">
        <ele>338.1</ele>
        <time>2020-06-14T06:49:57.000Z</time>
      </trkpt>
      <trkpt lat="47.10523" lon="4.87364">
        <ele>338</ele>
        <time>2020-06-14T06:50:05.000Z</time>
      </trkpt>
      <trkpt lat="47.10523" lon="4.8735">
        <ele>338.4</ele>
        <time>2020-06-14T06:50:14.000Z</time>
      </trkpt>
      <trkpt lat="47.10523" lon="4.87337">
        <ele>339.2</ele>
        <time>2020-06-14T06:50:23.000Z</time>
      </trkpt>
      <trkpt lat="47.10524" lon="4.87324">
        <ele>340.3</ele>
        <time>2020-06-14T06:50:33.000Z</time>
      </trkpt>
      <trkpt lat="47.10524" lon="4.8731">
        <ele>341.3</ele>
        <time>2020-06-14T06:50:43.000Z</time>
      </trkpt>
      <trkpt lat="47.10524" lon="4.87296">
        <ele>342.1</ele>
        <time>2020-06-14T06:50:52.000Z</time>
      </trkpt>
      <trkpt lat="47.1052" lon="4.87285">
        <ele>343</ele>
        <time>2020-06-14T06:51:05.000Z</time>
      </trkpt>
      <trkpt lat="47.1051" lon="4.87286">
        <ele>342.7</ele>
        <time>2020-06-14T06:51:13.000Z</time>
      </trkpt>
      <trkpt lat="47.105" lon="4.87287">
        <ele>342.4</ele>
        <time>2020-06-14T06:51:21.000Z</time>
      </trkpt>
      <trkpt lat="47.1049" lon="4.87287">
        <ele>342</ele>
        <time>2020-06-14T06:51:29.000Z</time>
      </trkpt>
      <trkpt lat="47.1048" lon="4.87288">
        <ele>341.6</ele>
        <time>2020-06-14T06:51:37.000Z</time>
      </trkpt>
      <trkpt lat="47.1047" lon="4.87288">
        <ele>340.8</ele>
        <time>2020-06-14T06:51:45.000Z</time>
      </trkpt>
      <trkpt lat="47.10461" lon="4.87287">
        <ele>340.4</ele>
        <time>2020-06-14T06:51:53.000Z</time>
      </trkpt>
      <trkpt lat="47.10456" lon="4.87274">
        <ele>340.4</ele>
        <time>2020-06-14T06:52:02.000Z</time>
      </trkpt>
      <trkpt lat="47.10458" lon="4.8726">
        <ele>340.7</ele>
        <time>2020-06-14T06:52:08.000Z</time>
      </trkpt>
      <trkpt lat="47.10459" lon="4.87246">
        <ele>341.1</ele>
        <time>2020-06-14T06:52:15.000Z</time>
      </trkpt>
      <trkpt lat="47.10461" lon="4.87232">
        <ele>341.4</ele>
        <time>2020-06-14T06:52:23.000Z</time>
      </trkpt>
      <trkpt lat="47.10462" lon="4.87218">
        <ele>341.8</ele>
        <time>2020-06-14T06:52:31.000Z</time>
      </trkpt>
      <trkpt lat="47.10464" lon="4.87204">
        <ele>342.4</ele>
        <time>2020-06-14T06:52:39.000Z</time>
      </trkpt>
      <trkpt lat="47.10465" lon="4.8719">
        <ele>342.9</ele>
        <time>2020-06-14T06:52:47.000Z</time>
      </trkpt>
      <trkpt lat="47.10466" lon="4.87175">
        <ele>343</ele>
        <time>2020-06-14T06:52:55.000Z</time>
      </trkpt>
      <trkpt lat="47.10467" lon="4.87162">
        <ele>343.8</ele>
        <time>2020-06-14T06:53:03.000Z</time>
      </trkpt>
      <trkpt lat="47.10468" lon="4.87148">
        <ele>344.2</ele>
        <time>2020-06-14T06:53:11.000Z</time>
      </trkpt>
      <trkpt lat="47.10468" lon="4.87134">
        <ele>344.3</ele>
        <time>2020-06-14T06:53:19.000Z</time>
      </trkpt>
      <trkpt lat="47.10469" lon="4.87119">
        <ele>344.9</ele>
        <time>2020-06-14T06:53:27.000Z</time>
      </trkpt>
      <trkpt lat="47.1047" lon="4.87106">
        <ele>345.6</ele>
        <time>2020-06-14T06:53:35.000Z</time>
      </trkpt>
      <trkpt lat="47.10472" lon="4.87092">
        <ele>346.3</ele>
        <time>2020-06-14T06:53:44.000Z</time>
      </trkpt>
      <trkpt lat="47.10472" lon="4.87079">
        <ele>346.4</ele>
        <time>2020-06-14T06:53:52.000Z</time>
      </trkpt>
      <trkpt lat="47.10466" lon="4.87068">
        <ele>346.5</ele>
        <time>2020-06-14T06:54:01.000Z</time>
      </trkpt>
      <trkpt lat="47.10457" lon="4.87065">
        <ele>345.5</ele>
        <time>2020-06-14T06:54:10.000Z</time>
      </trkpt>
      <trkpt lat="47.10447" lon="4.87065">
        <ele>345</ele>
        <time>2020-06-14T06:54:16.000Z</time>
      </trkpt>
      <trkpt lat="47.10438" lon="4.87063">
        <ele>344.6</ele>
        <time>2020-06-14T06:54:23.000Z</time>
      </trkpt>
      <trkpt lat="47.10429" lon="4.87061">
        <ele>343.7</ele>
        <time>2020-06-14T06:54:31.000Z</time>
      </trkpt>
      <trkpt lat="47.10419" lon="4.87059">
        <ele>343.3</ele>
        <time>2020-06-14T06:54:39.000Z</time>
      </trkpt>
      <trkpt lat="47.10409" lon="4.87056">
        <ele>342.6</ele>
        <time>2020-06-14T06:54:47.000Z</time>
      </trkpt>
      <trkpt lat="47.104" lon="4.87054">
        <ele>342.1</ele>
        <time>2020-06-14T06:54:54.000Z</time>
      </trkpt>
      <trkpt lat="47.10391" lon="4.87051">
        <ele>341.4</ele>
        <time>2020-06-14T06:55:01.000Z</time>
      </trkpt>
      <trkpt lat="47.10381" lon="4.87047">
        <ele>340.7</ele>
        <time>2020-06-14T06:55:10.000Z</time>
      </trkpt>
      <trkpt lat="47.10372" lon="4.87042">
        <ele>339.7</ele>
        <time>2020-06-14T06:55:18.000Z</time>
      </trkpt>
      <trkpt lat="47.10363" lon="4.87038">
        <ele>339</ele>
        <time>2020-06-14T06:55:26.000Z</time>
      </trkpt>
      <trkpt lat="47.10354" lon="4.87034">
        <ele>337.9</ele>
        <time>2020-06-14T06:55:34.000Z</time>
      </trkpt>
      <trkpt lat="47.10344" lon="4.8703">
        <ele>337.2</ele>
        <time>2020-06-14T06:55:42.000Z</time>
      </trkpt>
      <trkpt lat="47.10335" lon="4.87025">
        <ele>336.5</ele>
        <time>2020-06-14T06:55:50.000Z</time>
      </trkpt>
      <trkpt lat="47.10325" lon="4.87021">
        <ele>335.7</ele>
        <time>2020-06-14T06:55:58.000Z</time>
      </trkpt>
      <trkpt lat="47.10316" lon="4.87017">
        <ele>335.2</ele>
        <time>2020-06-14T06:56:06.000Z</time>
      </trkpt>
      <trkpt lat="47.10308" lon="4.8701">
        <ele>335</ele>
        <time>2020-06-14T06:56:14.000Z</time>
      </trkpt>
      <trkpt lat="47.10299" lon="4.87005">
        <ele>335.2</ele>
        <time>2020-06-14T06:56:22.000Z</time>
      </trkpt>
      <trkpt lat="47.1029" lon="4.87001">
        <ele>336.2</ele>
        <time>2020-06-14T06:56:31.000Z</time>
      </trkpt>
      <trkpt lat="47.1028" lon="4.87">
        <ele>337</ele>
        <time>2020-06-14T06:56:40.000Z</time>
      </trkpt>
      <trkpt lat="47.10272" lon="4.87008">
        <ele>337.1</ele>
        <time>2020-06-14T06:56:49.000Z</time>
      </trkpt>
      <trkpt lat="47.10266" lon="4.8702">
        <ele>336.3</ele>
        <time>2020-06-14T06:56:58.000Z</time>
      </trkpt>
      <trkpt lat="47.10261" lon="4.87031">
        <ele>335.7</ele>
        <time>2020-06-14T06:57:06.000Z</time>
      </trkpt>
      <trkpt lat="47.10257" lon="4.87044">
        <ele>335.2</ele>
        <time>2020-06-14T06:57:14.000Z</time>
      </trkpt>
      <trkpt lat="47.10253" lon="4.87057">
        <ele>335.1</ele>
        <time>2020-06-14T06:57:21.000Z</time>
      </trkpt>
      <trkpt lat="47.10249" lon="4.87069">
        <ele>334.3</ele>
        <time>2020-06-14T06:57:29.000Z</time>
      </trkpt>
      <trkpt lat="47.10241" lon="4.87075">
        <ele>334.2</ele>
        <time>2020-06-14T06:57:37.000Z</time>
      </trkpt>
      <trkpt lat="47.10231" lon="4.87073">
        <ele>335.5</ele>
        <time>2020-06-14T06:57:45.000Z</time>
      </trkpt>
      <trkpt lat="47.10222" lon="4.8707">
        <ele>336.2</ele>
        <time>2020-06-14T06:57:54.000Z</time>
      </trkpt>
      <trkpt lat="47.10212" lon="4.87068">
        <ele>336.5</ele>
        <time>2020-06-14T06:58:03.000Z</time>
      </trkpt>
      <trkpt lat="47.10202" lon="4.87067">
        <ele>337</ele>
        <time>2020-06-14T06:58:13.000Z</time>
      </trkpt>
      <trkpt lat="47.10192" lon="4.87066">
        <ele>336.8</ele>
        <time>2020-06-14T06:58:21.000Z</time>
      </trkpt>
      <trkpt lat="47.10183" lon="4.87065">
        <ele>336.2</ele>
        <time>2020-06-14T06:58:30.000Z</time>
      </trkpt>
      <trkpt lat="47.10174" lon="4.87059">
        <ele>336.3</ele>
        <time>2020-06-14T06:58:38.000Z</time>
      </trkpt>
      <trkpt lat="47.10164" lon="4.87058">
        <ele>336.3</ele>
        <time>2020-06-14T06:58:46.000Z</time>
      </trkpt>
      <trkpt lat="47.10155" lon="4.87061">
        <ele>336.7</ele>
        <time>2020-06-14T06:58:56.000Z</time>
      </trkpt>
      <trkpt lat="47.10146" lon="4.87059">
        <ele>336.8</ele>
        <time>2020-06-14T06:59:04.000Z</time>
      </trkpt>
      <trkpt lat="47.10136" lon="4.87057">
        <ele>337.2</ele>
        <time>2020-06-14T06:59:13.000Z</time>
      </trkpt>
      <trkpt lat="47.10126" lon="4.87055">
        <ele>337.9</ele>
        <time>2020-06-14T06:59:21.000Z</time>
      </trkpt>
      <trkpt lat="47.10117" lon="4.87053">
        <ele>338.6</ele>
        <time>2020-06-14T06:59:29.000Z</time>
      </trkpt>
      <trkpt lat="47.10107" lon="4.87051">
        <ele>339.4</ele>
        <time>2020-06-14T06:59:38.000Z</time>
      </trkpt>
      <trkpt lat="47.10098" lon="4.87049">
        <ele>340.5</ele>
        <time>2020-06-14T06:59:48.000Z</time>
      </trkpt>
      <trkpt lat="47.10089" lon="4.87049">
        <ele>341.3</ele>
        <time>2020-06-14T06:59:57.000Z</time>
      </trkpt>
      <trkpt lat="47.1008" lon="4.8705">
        <ele>342.2</ele>
        <time>2020-06-14T07:00:06.000Z</time>
      </trkpt>
      <trkpt lat="47.10071" lon="4.87053">
        <ele>343.1</ele>
        <time>2020-06-14T07:00:14.000Z</time>
      </trkpt>
      <trkpt lat="47.10062" lon="4.87055">
        <ele>343.7</ele>
        <time>2020-06-14T07:00:23.000Z</time>
      </trkpt>
      <trkpt lat="47.10053" lon="4.87059">
        <ele>344.9</ele>
        <time>2020-06-14T07:00:32.000Z</time>
      </trkpt>
      <trkpt lat="47.10044" lon="4.87062">
        <ele>345.8</ele>
        <time>2020-06-14T07:00:41.000Z</time>
      </trkpt>
      <trkpt lat="47.10035" lon="4.87066">
        <ele>346.6</ele>
        <time>2020-06-14T07:00:50.000Z</time>
      </trkpt>
      <trkpt lat="47.10026" lon="4.87069">
        <ele>347.1</ele>
        <time>2020-06-14T07:00:58.000Z</time>
      </trkpt>
      <trkpt lat="47.10017" lon="4.87072">
        <ele>347.8</ele>
        <time>2020-06-14T07:01:07.000Z</time>
      </trkpt>
      <trkpt lat="47.10007" lon="4.87076">
        <ele>348.5</ele>
        <time>2020-06-14T07:01:16.000Z</time>
      </trkpt>
      <trkpt lat="47.09998" lon="4.8708">
        <ele>348.8</ele>
        <time>2020-06-14T07:01:24.000Z</time>
      </trkpt>
      <trkpt lat="47.0999" lon="4.87084">
        <ele>349</ele>
        <time>2020-06-14T07:01:32.000Z</time>
      </trkpt>
      <trkpt lat="47.0998" lon="4.87088">
        <ele>348.8</ele>
        <time>2020-06-14T07:01:40.000Z</time>
      </trkpt>
      <trkpt lat="47.09971" lon="4.87092">
        <ele>348.3</ele>
        <time>2020-06-14T07:01:48.000Z</time>
      </trkpt>
      <trkpt lat="47.09961" lon="4.87096">
        <ele>348.3</ele>
        <time>2020-06-14T07:01:56.000Z</time>
      </trkpt>
      <trkpt lat="47.09952" lon="4.87099">
        <ele>348.2</ele>
        <time>2020-06-14T07:02:04.000Z</time>
      </trkpt>
      <trkpt lat="47.09942" lon="4.87103">
        <ele>347.7</ele>
        <time>2020-06-14T07:02:12.000Z</time>
      </trkpt>
      <trkpt lat="47.09933" lon="4.87107">
        <ele>347.4</ele>
        <time>2020-06-14T07:02:20.000Z</time>
      </trkpt>
      <trkpt lat="47.09923" lon="4.8711">
        <ele>347.7</ele>
        <time>2020-06-14T07:02:28.000Z</time>
      </trkpt>
      <trkpt lat="47.09914" lon="4.87114">
        <ele>348</ele>
        <time>2020-06-14T07:02:36.000Z</time>
      </trkpt>
      <trkpt lat="47.09904" lon="4.87118">
        <ele>348.2</ele>
        <time>2020-06-14T07:02:45.000Z</time>
      </trkpt>
      <trkpt lat="47.09895" lon="4.87123">
        <ele>348.7</ele>
        <time>2020-06-14T07:02:54.000Z</time>
      </trkpt>
      <trkpt lat="47.09885" lon="4.87126">
        <ele>349.1</ele>
        <time>2020-06-14T07:03:02.000Z</time>
      </trkpt>
      <trkpt lat="47.09876" lon="4.8713">
        <ele>349.4</ele>
        <time>2020-06-14T07:03:10.000Z</time>
      </trkpt>
      <trkpt lat="47.09867" lon="4.87133">
        <ele>349.4</ele>
        <time>2020-06-14T07:03:18.000Z</time>
      </trkpt>
      <trkpt lat="47.09857" lon="4.87137">
        <ele>349.9</ele>
        <time>2020-06-14T07:03:27.000Z</time>
      </trkpt>
      <trkpt lat="47.09848" lon="4.87142">
        <ele>350.1</ele>
        <time>2020-06-14T07:03:36.000Z</time>
      </trkpt>
      <trkpt lat="47.09839" lon="4.87145">
        <ele>350.4</ele>
        <time>2020-06-14T07:03:43.000Z</time>
      </trkpt>
      <trkpt lat="47.0983" lon="4.87152">
        <ele>349.9</ele>
        <time>2020-06-14T07:03:51.000Z</time>
      </trkpt>
      <trkpt lat="47.09822" lon="4.8716">
        <ele>349.5</ele>
        <time>2020-06-14T07:03:59.000Z</time>
      </trkpt>
      <trkpt lat="47.09814" lon="4.87166">
        <ele>349.6</ele>
        <time>2020-06-14T07:04:07.000Z</time>
      </trkpt>
      <trkpt lat="47.09805" lon="4.87174">
        <ele>348.4</ele>
        <time>2020-06-14T07:04:16.000Z</time>
      </trkpt>
      <trkpt lat="47.09797" lon="4.87182">
        <ele>347.8</ele>
        <time>2020-06-14T07:04:25.000Z</time>
      </trkpt>
      <trkpt lat="47.0979" lon="4.87192">
        <ele>347.3</ele>
        <time>2020-06-14T07:04:32.000Z</time>
      </trkpt>
      <trkpt lat="47.09783" lon="4.87201">
        <ele>346.6</ele>
        <time>2020-06-14T07:04:39.000Z</time>
      </trkpt>
      <trkpt lat="47.09778" lon="4.87213">
        <ele>345.6</ele>
        <time>2020-06-14T07:04:47.000Z</time>
      </trkpt>
      <trkpt lat="47.09773" lon="4.87225">
        <ele>344.7</ele>
        <time>2020-06-14T07:04:55.000Z</time>
      </trkpt>
      <trkpt lat="47.0977" lon="4.87238">
        <ele>343.7</ele>
        <time>2020-06-14T07:05:03.000Z</time>
      </trkpt>
      <trkpt lat="47.09767" lon="4.87252">
        <ele>342.8</ele>
        <time>2020-06-14T07:05:12.000Z</time>
      </trkpt>
      <trkpt lat="47.09758" lon="4.87259">
        <ele>341.4</ele>
        <time>2020-06-14T07:05:20.000Z</time>
      </trkpt>
      <trkpt lat="47.09749" lon="4.87263">
        <ele>339.7</ele>
        <time>2020-06-14T07:05:28.000Z</time>
      </trkpt>
      <trkpt lat="47.09741" lon="4.87267">
        <ele>338.4</ele>
        <time>2020-06-14T07:05:35.000Z</time>
      </trkpt>
      <trkpt lat="47.09732" lon="4.87271">
        <ele>337.1</ele>
        <time>2020-06-14T07:05:43.000Z</time>
      </trkpt>
      <trkpt lat="47.09723" lon="4.87275">
        <ele>335.6</ele>
        <time>2020-06-14T07:05:51.000Z</time>
      </trkpt>
      <trkpt lat="47.09714" lon="4.87279">
        <ele>334.3</ele>
        <time>2020-06-14T07:06:00.000Z</time>
      </trkpt>
      <trkpt lat="47.09706" lon="4.87284">
        <ele>332.9</ele>
        <time>2020-06-14T07:06:08.000Z</time>
      </trkpt>
      <trkpt lat="47.09696" lon="4.8729">
        <ele>331.7</ele>
        <time>2020-06-14T07:06:17.000Z</time>
      </trkpt>
      <trkpt lat="47.09688" lon="4.87296">
        <ele>330.2</ele>
        <time>2020-06-14T07:06:26.000Z</time>
      </trkpt>
      <trkpt lat="47.09678" lon="4.87301">
        <ele>328.9</ele>
        <time>2020-06-14T07:06:35.000Z</time>
      </trkpt>
      <trkpt lat="47.0967" lon="4.87308">
        <ele>328.1</ele>
        <time>2020-06-14T07:06:46.000Z</time>
      </trkpt>
      <trkpt lat="47.09661" lon="4.87315">
        <ele>327.2</ele>
        <time>2020-06-14T07:06:55.000Z</time>
      </trkpt>
      <trkpt lat="47.09653" lon="4.87323">
        <ele>326.8</ele>
        <time>2020-06-14T07:07:03.000Z</time>
      </trkpt>
      <trkpt lat="47.09643" lon="4.87327">
        <ele>326.5</ele>
        <time>2020-06-14T07:07:12.000Z</time>
      </trkpt>
      <trkpt lat="47.09634" lon="4.87324">
        <ele>326.7</ele>
        <time>2020-06-14T07:07:19.000Z</time>
      </trkpt>
      <trkpt lat="47.09624" lon="4.87322">
        <ele>326.4</ele>
        <time>2020-06-14T07:07:28.000Z</time>
      </trkpt>
      <trkpt lat="47.09615" lon="4.87324">
        <ele>326.5</ele>
        <time>2020-06-14T07:07:36.000Z</time>
      </trkpt>
      <trkpt lat="47.09606" lon="4.87328">
        <ele>326.3</ele>
        <time>2020-06-14T07:07:44.000Z</time>
      </trkpt>
      <trkpt lat="47.09597" lon="4.87336">
        <ele>325.7</ele>
        <time>2020-06-14T07:07:53.000Z</time>
      </trkpt>
      <trkpt lat="47.09596" lon="4.87338">
        <ele>325.7</ele>
        <time>2020-06-14T07:07:56.000Z</time>
      </trkpt>
      <trkpt lat="47.09596" lon="4.87337">
        <ele>325.7</ele>
        <time>2020-06-14T07:07:57.000Z</time>
      </trkpt>
      <trkpt lat="47.09596" lon="4.87337">
        <ele>325.7</ele>
        <time>2020-06-14T07:08:00.000Z</time>
      </trkpt>
      <trkpt lat="47.09596" lon="4.87337">
        <ele>326.1</ele>
        <time>2020-06-14T07:08:06.000Z</time>
      </trkpt>
      <trkpt lat="47.09596" lon="4.87336">
        <ele>326.1</ele>
        <time>2020-06-14T07:08:07.000Z</time>
      </trkpt>
      <trkpt lat="47.09595" lon="4.87336">
        <ele>326.1</ele>
        <time>2020-06-14T07:08:21.000Z</time>
      </trkpt>
      <trkpt lat="47.09589" lon="4.87348">
        <ele>325.8</ele>
        <time>2020-06-14T07:08:30.000Z</time>
      </trkpt>
      <trkpt lat="47.09584" lon="4.87359">
        <ele>325.7</ele>
        <time>2020-06-14T07:08:38.000Z</time>
      </trkpt>
      <trkpt lat="47.09578" lon="4.8737">
        <ele>324.9</ele>
        <time>2020-06-14T07:08:46.000Z</time>
      </trkpt>
      <trkpt lat="47.09573" lon="4.87381">
        <ele>324.4</ele>
        <time>2020-06-14T07:08:54.000Z</time>
      </trkpt>
      <trkpt lat="47.09568" lon="4.87393">
        <ele>323.1</ele>
        <time>2020-06-14T07:09:02.000Z</time>
      </trkpt>
      <trkpt lat="47.09562" lon="4.87405">
        <ele>322.9</ele>
        <time>2020-06-14T07:09:10.000Z</time>
      </trkpt>
      <trkpt lat="47.09557" lon="4.87417">
        <ele>322</ele>
        <time>2020-06-14T07:09:18.000Z</time>
      </trkpt>
      <trkpt lat="47.09551" lon="4.87429">
        <ele>321.3</ele>
        <time>2020-06-14T07:09:26.000Z</time>
      </trkpt>
      <trkpt lat="47.09546" lon="4.87441">
        <ele>320.6</ele>
        <time>2020-06-14T07:09:34.000Z</time>
      </trkpt>
      <trkpt lat="47.0954" lon="4.87451">
        <ele>318.3</ele>
        <time>2020-06-14T07:09:42.000Z</time>
      </trkpt>
      <trkpt lat="47.09535" lon="4.87463">
        <ele>318.5</ele>
        <time>2020-06-14T07:09:51.000Z</time>
      </trkpt>
      <trkpt lat="47.0953" lon="4.87474">
        <ele>317.6</ele>
        <time>2020-06-14T07:09:59.000Z</time>
      </trkpt>
      <trkpt lat="47.09521" lon="4.8748">
        <ele>317.1</ele>
        <time>2020-06-14T07:10:07.000Z</time>
      </trkpt>
      <trkpt lat="47.09512" lon="4.87473">
        <ele>317</ele>
        <time>2020-06-14T07:10:15.000Z</time>
      </trkpt>
      <trkpt lat="47.09505" lon="4.87464">
        <ele>316.9</ele>
        <time>2020-06-14T07:10:23.000Z</time>
      </trkpt>
      <trkpt lat="47.09497" lon="4.87457">
        <ele>317</ele>
        <time>2020-06-14T07:10:32.000Z</time>
      </trkpt>
      <trkpt lat="47.09489" lon="4.8745">
        <ele>317.4</ele>
        <time>2020-06-14T07:10:42.000Z</time>
      </trkpt>
      <trkpt lat="47.09481" lon="4.87443">
        <ele>317.6</ele>
        <time>2020-06-14T07:10:49.000Z</time>
      </trkpt>
      <trkpt lat="47.09473" lon="4.87437">
        <ele>318.1</ele>
        <time>2020-06-14T07:10:56.000Z</time>
      </trkpt>
      <trkpt lat="47.09464" lon="4.8743">
        <ele>318.2</ele>
        <time>2020-06-14T07:11:04.000Z</time>
      </trkpt>
      <trkpt lat="47.09455" lon="4.87425">
        <ele>318.7</ele>
        <time>2020-06-14T07:11:12.000Z</time>
      </trkpt>
      <trkpt lat="47.09449" lon="4.87424">
        <ele>318.8</ele>
        <time>2020-06-14T07:11:22.000Z</time>
      </trkpt>
      <trkpt lat="47.09448" lon="4.87424">
        <ele>318.7</ele>
        <time>2020-06-14T07:11:39.000Z</time>
      </trkpt>
      <trkpt lat="47.09439" lon="4.87424">
        <ele>319</ele>
        <time>2020-06-14T07:11:51.000Z</time>
      </trkpt>
      <trkpt lat="47.09435" lon="4.87424">
        <ele>319.2</ele>
        <time>2020-06-14T07:11:57.000Z</time>
      </trkpt>
      <trkpt lat="47.09435" lon="4.87424">
        <ele>319</ele>
        <time>2020-06-14T07:12:36.000Z</time>
      </trkpt>
      <trkpt lat="47.09435" lon="4.87424">
        <ele>318.9</ele>
        <time>2020-06-14T07:12:37.000Z</time>
      </trkpt>
      <trkpt lat="47.09435" lon="4.87424">
        <ele>319</ele>
        <time>2020-06-14T07:13:42.000Z</time>
      </trkpt>
      <trkpt lat="47.09435" lon="4.87424">
        <ele>319</ele>
        <time>2020-06-14T07:13:43.000Z</time>
      </trkpt>
      <trkpt lat="47.09435" lon="4.87424">
        <ele>319</ele>
        <time>2020-06-14T07:13:57.000Z</time>
      </trkpt>
      <trkpt lat="47.09435" lon="4.87424">
        <ele>318.9</ele>
        <time>2020-06-14T07:13:58.000Z</time>
      </trkpt>
      <trkpt lat="47.09434" lon="4.87424">
        <ele>318.9</ele>
        <time>2020-06-14T07:14:01.000Z</time>
      </trkpt>
      <trkpt lat="47.09434" lon="4.87424">
        <ele>318.9</ele>
        <time>2020-06-14T07:14:02.000Z</time>
      </trkpt>
      <trkpt lat="47.09434" lon="4.87424">
        <ele>318.9</ele>
        <time>2020-06-14T07:14:07.000Z</time>
      </trkpt>
      <trkpt lat="47.09434" lon="4.87424">
        <ele>318.8</ele>
        <time>2020-06-14T07:14:08.000Z</time>
      </trkpt>
      <trkpt lat="47.09434" lon="4.87424">
        <ele>318.7</ele>
        <time>2020-06-14T07:14:10.000Z</time>
      </trkpt>
      <trkpt lat="47.09434" lon="4.87424">
        <ele>318.7</ele>
        <time>2020-06-14T07:14:11.000Z</time>
      </trkpt>
      <trkpt lat="47.09434" lon="4.87424">
        <ele>318.8</ele>
        <time>2020-06-14T07:15:05.000Z</time>
      </trkpt>
      <trkpt lat="47.09432" lon="4.87426">
        <ele>319.1</ele>
        <time>2020-06-14T07:15:12.000Z</time>
      </trkpt>
      <trkpt lat="47.09432" lon="4.87426">
        <ele>319.2</ele>
        <time>2020-06-14T07:15:13.000Z</time>
      </trkpt>
      <trkpt lat="47.09433" lon="4.87425">
        <ele>319.2</ele>
        <time>2020-06-14T07:15:18.000Z</time>
      </trkpt>
      <trkpt lat="47.09434" lon="4.87425">
        <ele>319.3</ele>
        <time>2020-06-14T07:15:19.000Z</time>
      </trkpt>
      <trkpt lat="47.09435" lon="4.87425">
        <ele>319.1</ele>
        <time>2020-06-14T07:15:26.000Z</time>
      </trkpt>
      <trkpt lat="47.09435" lon="4.87424">
        <ele>319.3</ele>
        <time>2020-06-14T07:15:28.000Z</time>
      </trkpt>
      <trkpt lat="47.09435" lon="4.87425">
        <ele>319.2</ele>
        <time>2020-06-14T07:15:29.000Z</time>
      </trkpt>
      <trkpt lat="47.09435" lon="4.87425">
        <ele>319.1</ele>
        <time>2020-06-14T07:15:30.000Z</time>
      </trkpt>
      <trkpt lat="47.09435" lon="4.87425">
        <ele>319.1</ele>
        <time>2020-06-14T07:15:31.000Z</time>
      </trkpt>
      <trkpt lat="47.09435" lon="4.87425">
        <ele>319.2</ele>
        <time>2020-06-14T07:15:32.000Z</time>
      </trkpt>
      <trkpt lat="47.09435" lon="4.87425">
        <ele>319.1</ele>
        <time>2020-06-14T07:15:33.000Z</time>
      </trkpt>
      <trkpt lat="47.09435" lon="4.87426">
        <ele>319</ele>
        <time>2020-06-14T07:15:34.000Z</time>
      </trkpt>
      <trkpt lat="47.09435" lon="4.87427">
        <ele>319</ele>
        <time>2020-06-14T07:15:39.000Z</time>
      </trkpt>
      <trkpt lat="47.09435" lon="4.87427">
        <ele>319.1</ele>
        <time>2020-06-14T07:15:41.000Z</time>
      </trkpt>
      <trkpt lat="47.09435" lon="4.87427">
        <ele>319.1</ele>
        <time>2020-06-14T07:15:43.000Z</time>
      </trkpt>
      <trkpt lat="47.09434" lon="4.87427">
        <ele>319</ele>
        <time>2020-06-14T07:15:53.000Z</time>
      </trkpt>
      <trkpt lat="47.09434" lon="4.87427">
        <ele>319</ele>
        <time>2020-06-14T07:15:54.000Z</time>
      </trkpt>
      <trkpt lat="47.09434" lon="4.87427">
        <ele>319.3</ele>
        <time>2020-06-14T07:16:24.000Z</time>
      </trkpt>
      <trkpt lat="47.09434" lon="4.87427">
        <ele>319.3</ele>
        <time>2020-06-14T07:16:25.000Z</time>
      </trkpt>
      <trkpt lat="47.09434" lon="4.87427">
        <ele>319.2</ele>
        <time>2020-06-14T07:17:20.000Z</time>
      </trkpt>
      <trkpt lat="47.09434" lon="4.87427">
        <ele>319.3</ele>
        <time>2020-06-14T07:17:21.000Z</time>
      </trkpt>
      <trkpt lat="47.09434" lon="4.87426">
        <ele>319.3</ele>
        <time>2020-06-14T07:17:28.000Z</time>
      </trkpt>
      <trkpt lat="47.09434" lon="4.87426">
        <ele>319.2</ele>
        <time>2020-06-14T07:17:29.000Z</time>
      </trkpt>
      <trkpt lat="47.09434" lon="4.87426">
        <ele>319.2</ele>
        <time>2020-06-14T07:17:47.000Z</time>
      </trkpt>
      <trkpt lat="47.09434" lon="4.87426">
        <ele>319.3</ele>
        <time>2020-06-14T07:17:48.000Z</time>
      </trkpt>
      <trkpt lat="47.09433" lon="4.87426">
        <ele>319.3</ele>
        <time>2020-06-14T07:17:55.000Z</time>
      </trkpt>
      <trkpt lat="47.09433" lon="4.87426">
        <ele>319</ele>
        <time>2020-06-14T07:17:57.000Z</time>
      </trkpt>
      <trkpt lat="47.09432" lon="4.87426">
        <ele>319.2</ele>
        <time>2020-06-14T07:18:00.000Z</time>
      </trkpt>
      <trkpt lat="47.09432" lon="4.87426">
        <ele>319.2</ele>
        <time>2020-06-14T07:18:01.000Z</time>
      </trkpt>
      <trkpt lat="47.09432" lon="4.87426">
        <ele>319.2</ele>
        <time>2020-06-14T07:18:03.000Z</time>
      </trkpt>
      <trkpt lat="47.09432" lon="4.87426">
        <ele>319.2</ele>
        <time>2020-06-14T07:18:04.000Z</time>
      </trkpt>
      <trkpt lat="47.09432" lon="4.87426">
        <ele>319.2</ele>
        <time>2020-06-14T07:18:06.000Z</time>
      </trkpt>
      <trkpt lat="47.09432" lon="4.87426">
        <ele>319.3</ele>
        <time>2020-06-14T07:18:07.000Z</time>
      </trkpt>
      <trkpt lat="47.09432" lon="4.87426">
        <ele>319.2</ele>
        <time>2020-06-14T07:18:08.000Z</time>
      </trkpt>
      <trkpt lat="47.09432" lon="4.87426">
        <ele>319.1</ele>
        <time>2020-06-14T07:18:09.000Z</time>
      </trkpt>
      <trkpt lat="47.09432" lon="4.87426">
        <ele>319.3</ele>
        <time>2020-06-14T07:18:12.000Z</time>
      </trkpt>
      <trkpt lat="47.09432" lon="4.87426">
        <ele>319.3</ele>
        <time>2020-06-14T07:18:13.000Z</time>
      </trkpt>
      <trkpt lat="47.09432" lon="4.87425">
        <ele>319.3</ele>
        <time>2020-06-14T07:18:14.000Z</time>
      </trkpt>
      <trkpt lat="47.09432" lon="4.87425">
        <ele>319.2</ele>
        <time>2020-06-14T07:18:15.000Z</time>
      </trkpt>
      <trkpt lat="47.09431" lon="4.87425">
        <ele>319.2</ele>
        <time>2020-06-14T07:18:27.000Z</time>
      </trkpt>
      <trkpt lat="47.0943" lon="4.87424">
        <ele>319.2</ele>
        <time>2020-06-14T07:18:36.000Z</time>
      </trkpt>
      <trkpt lat="47.09429" lon="4.87424">
        <ele>319.3</ele>
        <time>2020-06-14T07:18:49.000Z</time>
      </trkpt>
      <trkpt lat="47.09429" lon="4.87424">
        <ele>319.2</ele>
        <time>2020-06-14T07:18:50.000Z</time>
      </trkpt>
      <trkpt lat="47.09429" lon="4.87424">
        <ele>319.2</ele>
        <time>2020-06-14T07:19:55.000Z</time>
      </trkpt>
      <trkpt lat="47.0943" lon="4.87425">
        <ele>319.2</ele>
        <time>2020-06-14T07:19:58.000Z</time>
      </trkpt>
      <trkpt lat="47.0943" lon="4.87425">
        <ele>319.3</ele>
        <time>2020-06-14T07:19:59.000Z</time>
      </trkpt>
      <trkpt lat="47.0943" lon="4.87426">
        <ele>319.1</ele>
        <time>2020-06-14T07:20:02.000Z</time>
      </trkpt>
      <trkpt lat="47.0943" lon="4.87426">
        <ele>319.4</ele>
        <time>2020-06-14T07:20:20.000Z</time>
      </trkpt>
      <trkpt lat="47.09427" lon="4.87428">
        <ele>319.1</ele>
        <time>2020-06-14T07:20:32.000Z</time>
      </trkpt>
      <trkpt lat="47.09427" lon="4.87427">
        <ele>319.1</ele>
        <time>2020-06-14T07:20:33.000Z</time>
      </trkpt>
      <trkpt lat="47.09426" lon="4.87427">
        <ele>319.3</ele>
        <time>2020-06-14T07:20:38.000Z</time>
      </trkpt>
      <trkpt lat="47.09426" lon="4.87426">
        <ele>319.2</ele>
        <time>2020-06-14T07:20:39.000Z</time>
      </trkpt>
      <trkpt lat="47.09426" lon="4.87426">
        <ele>319.2</ele>
        <time>2020-06-14T07:20:40.000Z</time>
      </trkpt>
      <trkpt lat="47.09425" lon="4.87426">
        <ele>319</ele>
        <time>2020-06-14T07:20:49.000Z</time>
      </trkpt>
      <trkpt lat="47.09425" lon="4.87426">
        <ele>319.1</ele>
        <time>2020-06-14T07:20:52.000Z</time>
      </trkpt>
      <trkpt lat="47.09425" lon="4.87426">
        <ele>319.1</ele>
        <time>2020-06-14T07:20:54.000Z</time>
      </trkpt>
      <trkpt lat="47.09427" lon="4.87427">
        <ele>319</ele>
        <time>2020-06-14T07:20:59.000Z</time>
      </trkpt>
      <trkpt lat="47.09427" lon="4.87427">
        <ele>319.1</ele>
        <time>2020-06-14T07:21:13.000Z</time>
      </trkpt>
      <trkpt lat="47.09427" lon="4.87427">
        <ele>319.1</ele>
        <time>2020-06-14T07:21:14.000Z</time>
      </trkpt>
      <trkpt lat="47.09427" lon="4.87427">
        <ele>319.2</ele>
        <time>2020-06-14T07:21:42.000Z</time>
      </trkpt>
      <trkpt lat="47.09427" lon="4.87427">
        <ele>319.2</ele>
        <time>2020-06-14T07:21:43.000Z</time>
      </trkpt>
      <trkpt lat="47.09427" lon="4.87427">
        <ele>319.1</ele>
        <time>2020-06-14T07:21:54.000Z</time>
      </trkpt>
      <trkpt lat="47.09427" lon="4.87427">
        <ele>319.1</ele>
        <time>2020-06-14T07:21:55.000Z</time>
      </trkpt>
      <trkpt lat="47.09427" lon="4.87427">
        <ele>319.3</ele>
        <time>2020-06-14T07:22:11.000Z</time>
      </trkpt>
      <trkpt lat="47.09427" lon="4.87427">
        <ele>319.5</ele>
        <time>2020-06-14T07:22:12.000Z</time>
      </trkpt>
      <trkpt lat="47.09428" lon="4.87427">
        <ele>319.1</ele>
        <time>2020-06-14T07:22:28.000Z</time>
      </trkpt>
      <trkpt lat="47.09428" lon="4.87427">
        <ele>319.2</ele>
        <time>2020-06-14T07:22:29.000Z</time>
      </trkpt>
      <trkpt lat="47.09428" lon="4.87427">
        <ele>319.2</ele>
        <time>2020-06-14T07:22:45.000Z</time>
      </trkpt>
      <trkpt lat="47.09428" lon="4.87427">
        <ele>319.1</ele>
        <time>2020-06-14T07:22:46.000Z</time>
      </trkpt>
      <trkpt lat="47.09428" lon="4.87428">
        <ele>319.3</ele>
        <time>2020-06-14T07:22:59.000Z</time>
      </trkpt>
      <trkpt lat="47.09419" lon="4.87425">
        <ele>319.1</ele>
        <time>2020-06-14T07:23:12.000Z</time>
      </trkpt>
      <trkpt lat="47.09419" lon="4.87425">
        <ele>319.2</ele>
        <time>2020-06-14T07:23:17.000Z</time>
      </trkpt>
      <trkpt lat="47.09419" lon="4.87425">
        <ele>319.3</ele>
        <time>2020-06-14T07:23:20.000Z</time>
      </trkpt>
      <trkpt lat="47.0941" lon="4.87425">
        <ele>319</ele>
        <time>2020-06-14T07:23:30.000Z</time>
      </trkpt>
      <trkpt lat="47.09401" lon="4.87425">
        <ele>318.8</ele>
        <time>2020-06-14T07:23:38.000Z</time>
      </trkpt>
      <trkpt lat="47.09392" lon="4.87427">
        <ele>319.2</ele>
        <time>2020-06-14T07:23:47.000Z</time>
      </trkpt>
      <trkpt lat="47.09386" lon="4.87431">
        <ele>319.1</ele>
        <time>2020-06-14T07:23:56.000Z</time>
      </trkpt>
      <trkpt lat="47.09386" lon="4.87431">
        <ele>319.1</ele>
        <time>2020-06-14T07:23:57.000Z</time>
      </trkpt>
      <trkpt lat="47.09386" lon="4.87431">
        <ele>319</ele>
        <time>2020-06-14T07:23:58.000Z</time>
      </trkpt>
      <trkpt lat="47.09386" lon="4.87431">
        <ele>318.9</ele>
        <time>2020-06-14T07:24:31.000Z</time>
      </trkpt>
      <trkpt lat="47.09376" lon="4.87431">
        <ele>318.8</ele>
        <time>2020-06-14T07:24:44.000Z</time>
      </trkpt>
      <trkpt lat="47.09373" lon="4.87432">
        <ele>318.7</ele>
        <time>2020-06-14T07:24:50.000Z</time>
      </trkpt>
      <trkpt lat="47.09373" lon="4.87432">
        <ele>318.8</ele>
        <time>2020-06-14T07:24:51.000Z</time>
      </trkpt>
      <trkpt lat="47.09363" lon="4.87432">
        <ele>318.5</ele>
        <time>2020-06-14T07:24:59.000Z</time>
      </trkpt>
      <trkpt lat="47.09353" lon="4.87431">
        <ele>318.7</ele>
        <time>2020-06-14T07:25:07.000Z</time>
      </trkpt>
      <trkpt lat="47.09344" lon="4.87429">
        <ele>318.8</ele>
        <time>2020-06-14T07:25:14.000Z</time>
      </trkpt>
      <trkpt lat="47.09334" lon="4.87427">
        <ele>318.8</ele>
        <time>2020-06-14T07:25:20.000Z</time>
      </trkpt>
      <trkpt lat="47.09325" lon="4.87426">
        <ele>318.8</ele>
        <time>2020-06-14T07:25:27.000Z</time>
      </trkpt>
      <trkpt lat="47.09316" lon="4.87426">
        <ele>318.7</ele>
        <time>2020-06-14T07:25:33.000Z</time>
      </trkpt>
      <trkpt lat="47.09307" lon="4.87428">
        <ele>318.3</ele>
        <time>2020-06-14T07:25:40.000Z</time>
      </trkpt>
      <trkpt lat="47.09298" lon="4.87432">
        <ele>317.4</ele>
        <time>2020-06-14T07:25:48.000Z</time>
      </trkpt>
      <trkpt lat="47.09288" lon="4.87434">
        <ele>317.3</ele>
        <time>2020-06-14T07:25:57.000Z</time>
      </trkpt>
      <trkpt lat="47.09279" lon="4.87439">
        <ele>317.1</ele>
        <time>2020-06-14T07:26:06.000Z</time>
      </trkpt>
      <trkpt lat="47.0927" lon="4.87441">
        <ele>317.1</ele>
        <time>2020-06-14T07:26:13.000Z</time>
      </trkpt>
      <trkpt lat="47.0926" lon="4.87442">
        <ele>316.5</ele>
        <time>2020-06-14T07:26:20.000Z</time>
      </trkpt>
      <trkpt lat="47.0925" lon="4.87441">
        <ele>316.4</ele>
        <time>2020-06-14T07:26:27.000Z</time>
      </trkpt>
      <trkpt lat="47.09241" lon="4.8744">
        <ele>316.1</ele>
        <time>2020-06-14T07:26:34.000Z</time>
      </trkpt>
      <trkpt lat="47.09232" lon="4.87438">
        <ele>315.4</ele>
        <time>2020-06-14T07:26:42.000Z</time>
      </trkpt>
      <trkpt lat="47.09222" lon="4.87436">
        <ele>315.3</ele>
        <time>2020-06-14T07:26:50.000Z</time>
      </trkpt>
      <trkpt lat="47.09213" lon="4.87433">
        <ele>314.9</ele>
        <time>2020-06-14T07:26:58.000Z</time>
      </trkpt>
      <trkpt lat="47.09203" lon="4.87429">
        <ele>314.7</ele>
        <time>2020-06-14T07:27:06.000Z</time>
      </trkpt>
      <trkpt lat="47.09194" lon="4.87426">
        <ele>314.4</ele>
        <time>2020-06-14T07:27:14.000Z</time>
      </trkpt>
      <trkpt lat="47.09184" lon="4.87423">
        <ele>314</ele>
        <time>2020-06-14T07:27:22.000Z</time>
      </trkpt>
      <trkpt lat="47.09175" lon="4.8742">
        <ele>313.9</ele>
        <time>2020-06-14T07:27:30.000Z</time>
      </trkpt>
      <trkpt lat="47.09165" lon="4.87418">
        <ele>313.3</ele>
        <time>2020-06-14T07:27:38.000Z</time>
      </trkpt>
      <trkpt lat="47.09155" lon="4.87415">
        <ele>312.5</ele>
        <time>2020-06-14T07:27:46.000Z</time>
      </trkpt>
      <trkpt lat="47.09145" lon="4.87413">
        <ele>312.5</ele>
        <time>2020-06-14T07:27:54.000Z</time>
      </trkpt>
      <trkpt lat="47.09136" lon="4.8741">
        <ele>312.2</ele>
        <time>2020-06-14T07:28:01.000Z</time>
      </trkpt>
      <trkpt lat="47.09126" lon="4.87406">
        <ele>311.6</ele>
        <time>2020-06-14T07:28:09.000Z</time>
      </trkpt>
      <trkpt lat="47.09117" lon="4.87401">
        <ele>311.3</ele>
        <time>2020-06-14T07:28:17.000Z</time>
      </trkpt>
      <trkpt lat="47.09109" lon="4.87394">
        <ele>311</ele>
        <time>2020-06-14T07:28:26.000Z</time>
      </trkpt>
      <trkpt lat="47.091" lon="4.87387">
        <ele>310.5</ele>
        <time>2020-06-14T07:28:34.000Z</time>
      </trkpt>
      <trkpt lat="47.09093" lon="4.87379">
        <ele>310</ele>
        <time>2020-06-14T07:28:42.000Z</time>
      </trkpt>
      <trkpt lat="47.09084" lon="4.87371">
        <ele>309.5</ele>
        <time>2020-06-14T07:28:51.000Z</time>
      </trkpt>
      <trkpt lat="47.09077" lon="4.87362">
        <ele>309.1</ele>
        <time>2020-06-14T07:28:59.000Z</time>
      </trkpt>
      <trkpt lat="47.0907" lon="4.87353">
        <ele>308.7</ele>
        <time>2020-06-14T07:29:06.000Z</time>
      </trkpt>
      <trkpt lat="47.09063" lon="4.87345">
        <ele>308.3</ele>
        <time>2020-06-14T07:29:13.000Z</time>
      </trkpt>
      <trkpt lat="47.09055" lon="4.87334">
        <ele>307.7</ele>
        <time>2020-06-14T07:29:21.000Z</time>
      </trkpt>
      <trkpt lat="47.09049" lon="4.87324">
        <ele>307.2</ele>
        <time>2020-06-14T07:29:29.000Z</time>
      </trkpt>
      <trkpt lat="47.09043" lon="4.87313">
        <ele>306.8</ele>
        <time>2020-06-14T07:29:38.000Z</time>
      </trkpt>
      <trkpt lat="47.09038" lon="4.87301">
        <ele>306.6</ele>
        <time>2020-06-14T07:29:46.000Z</time>
      </trkpt>
      <trkpt lat="47.09031" lon="4.87291">
        <ele>306.6</ele>
        <time>2020-06-14T07:29:54.000Z</time>
      </trkpt>
      <trkpt lat="47.09028" lon="4.87279">
        <ele>306.4</ele>
        <time>2020-06-14T07:30:01.000Z</time>
      </trkpt>
      <trkpt lat="47.09024" lon="4.87265">
        <ele>305.9</ele>
        <time>2020-06-14T07:30:09.000Z</time>
      </trkpt>
      <trkpt lat="47.0902" lon="4.87253">
        <ele>306</ele>
        <time>2020-06-14T07:30:17.000Z</time>
      </trkpt>
      <trkpt lat="47.09017" lon="4.87239">
        <ele>305.6</ele>
        <time>2020-06-14T07:30:25.000Z</time>
      </trkpt>
      <trkpt lat="47.09013" lon="4.87225">
        <ele>305.3</ele>
        <time>2020-06-14T07:30:33.000Z</time>
      </trkpt>
      <trkpt lat="47.0901" lon="4.87211">
        <ele>305.3</ele>
        <time>2020-06-14T07:30:40.000Z</time>
      </trkpt>
      <trkpt lat="47.09007" lon="4.87197">
        <ele>305.1</ele>
        <time>2020-06-14T07:30:48.000Z</time>
      </trkpt>
      <trkpt lat="47.09004" lon="4.87184">
        <ele>304.8</ele>
        <time>2020-06-14T07:30:56.000Z</time>
      </trkpt>
      <trkpt lat="47.09" lon="4.8717">
        <ele>304.8</ele>
        <time>2020-06-14T07:31:03.000Z</time>
      </trkpt>
      <trkpt lat="47.08997" lon="4.87156">
        <ele>304.8</ele>
        <time>2020-06-14T07:31:11.000Z</time>
      </trkpt>
      <trkpt lat="47.08992" lon="4.87143">
        <ele>304.6</ele>
        <time>2020-06-14T07:31:18.000Z</time>
      </trkpt>
      <trkpt lat="47.08989" lon="4.87131">
        <ele>304.7</ele>
        <time>2020-06-14T07:31:25.000Z</time>
      </trkpt>
      <trkpt lat="47.08986" lon="4.87117">
        <ele>304.9</ele>
        <time>2020-06-14T07:31:33.000Z</time>
      </trkpt>
      <trkpt lat="47.08983" lon="4.87103">
        <ele>305</ele>
        <time>2020-06-14T07:31:40.000Z</time>
      </trkpt>
      <trkpt lat="47.08981" lon="4.87089">
        <ele>305</ele>
        <time>2020-06-14T07:31:48.000Z</time>
      </trkpt>
      <trkpt lat="47.08978" lon="4.87076">
        <ele>304.9</ele>
        <time>2020-06-14T07:31:55.000Z</time>
      </trkpt>
      <trkpt lat="47.08976" lon="4.87062">
        <ele>305</ele>
        <time>2020-06-14T07:32:03.000Z</time>
      </trkpt>
      <trkpt lat="47.08974" lon="4.87049">
        <ele>304.7</ele>
        <time>2020-06-14T07:32:10.000Z</time>
      </trkpt>
      <trkpt lat="47.08971" lon="4.87035">
        <ele>305.1</ele>
        <time>2020-06-14T07:32:18.000Z</time>
      </trkpt>
      <trkpt lat="47.0897" lon="4.87021">
        <ele>304.6</ele>
        <time>2020-06-14T07:32:26.000Z</time>
      </trkpt>
      <trkpt lat="47.08968" lon="4.87008">
        <ele>304.1</ele>
        <time>2020-06-14T07:32:34.000Z</time>
      </trkpt>
      <trkpt lat="47.08963" lon="4.86996">
        <ele>304</ele>
        <time>2020-06-14T07:32:47.000Z</time>
      </trkpt>
      <trkpt lat="47.08954" lon="4.86997">
        <ele>303.5</ele>
        <time>2020-06-14T07:32:57.000Z</time>
      </trkpt>
      <trkpt lat="47.08953" lon="4.86997">
        <ele>304</ele>
        <time>2020-06-14T07:32:59.000Z</time>
      </trkpt>
      <trkpt lat="47.08953" lon="4.86997">
        <ele>303.9</ele>
        <time>2020-06-14T07:33:00.000Z</time>
      </trkpt>
      <trkpt lat="47.08945" lon="4.86992">
        <ele>303.5</ele>
        <time>2020-06-14T07:33:09.000Z</time>
      </trkpt>
      <trkpt lat="47.08943" lon="4.86988">
        <ele>303.9</ele>
        <time>2020-06-14T07:33:16.000Z</time>
      </trkpt>
      <trkpt lat="47.08943" lon="4.86988">
        <ele>303.9</ele>
        <time>2020-06-14T07:33:17.000Z</time>
      </trkpt>
      <trkpt lat="47.08944" lon="4.86974">
        <ele>303.9</ele>
        <time>2020-06-14T07:33:27.000Z</time>
      </trkpt>
      <trkpt lat="47.08945" lon="4.8696">
        <ele>304.6</ele>
        <time>2020-06-14T07:33:35.000Z</time>
      </trkpt>
      <trkpt lat="47.08946" lon="4.86947">
        <ele>305.5</ele>
        <time>2020-06-14T07:33:44.000Z</time>
      </trkpt>
      <trkpt lat="47.08945" lon="4.86933">
        <ele>306.8</ele>
        <time>2020-06-14T07:33:53.000Z</time>
      </trkpt>
      <trkpt lat="47.08945" lon="4.86919">
        <ele>308.1</ele>
        <time>2020-06-14T07:34:05.000Z</time>
      </trkpt>
      <trkpt lat="47.08945" lon="4.86909">
        <ele>308.6</ele>
        <time>2020-06-14T07:34:17.000Z</time>
      </trkpt>
      <trkpt lat="47.08945" lon="4.86909">
        <ele>308.5</ele>
        <time>2020-06-14T07:34:20.000Z</time>
      </trkpt>
      <trkpt lat="47.08945" lon="4.86909">
        <ele>308.3</ele>
        <time>2020-06-14T07:34:21.000Z</time>
      </trkpt>
      <trkpt lat="47.08944" lon="4.86909">
        <ele>307.6</ele>
        <time>2020-06-14T07:34:22.000Z</time>
      </trkpt>
      <trkpt lat="47.08944" lon="4.86908">
        <ele>307.2</ele>
        <time>2020-06-14T07:34:23.000Z</time>
      </trkpt>
      <trkpt lat="47.08944" lon="4.86909">
        <ele>308.7</ele>
        <time>2020-06-14T07:34:24.000Z</time>
      </trkpt>
      <trkpt lat="47.08944" lon="4.86903">
        <ele>308.9</ele>
        <time>2020-06-14T07:34:43.000Z</time>
      </trkpt>
      <trkpt lat="47.08943" lon="4.86903">
        <ele>309</ele>
        <time>2020-06-14T07:34:44.000Z</time>
      </trkpt>
      <trkpt lat="47.08941" lon="4.8689">
        <ele>312</ele>
        <time>2020-06-14T07:35:06.000Z</time>
      </trkpt>
      <trkpt lat="47.08942" lon="4.86878">
        <ele>314</ele>
        <time>2020-06-14T07:35:29.000Z</time>
      </trkpt>
      <trkpt lat="47.08943" lon="4.86877">
        <ele>313.9</ele>
        <time>2020-06-14T07:35:34.000Z</time>
      </trkpt>
      <trkpt lat="47.0895" lon="4.86869">
        <ele>315.1</ele>
        <time>2020-06-14T07:35:48.000Z</time>
      </trkpt>
      <trkpt lat="47.08951" lon="4.86856">
        <ele>319.1</ele>
        <time>2020-06-14T07:36:14.000Z</time>
      </trkpt>
      <trkpt lat="47.08946" lon="4.86845">
        <ele>322.2</ele>
        <time>2020-06-14T07:36:35.000Z</time>
      </trkpt>
      <trkpt lat="47.08946" lon="4.86831">
        <ele>324.2</ele>
        <time>2020-06-14T07:36:48.000Z</time>
      </trkpt>
      <trkpt lat="47.08945" lon="4.86817">
        <ele>327.7</ele>
        <time>2020-06-14T07:37:08.000Z</time>
      </trkpt>
      <trkpt lat="47.08936" lon="4.86812">
        <ele>330</ele>
        <time>2020-06-14T07:37:32.000Z</time>
      </trkpt>
      <trkpt lat="47.08927" lon="4.86816">
        <ele>330.8</ele>
        <time>2020-06-14T07:37:41.000Z</time>
      </trkpt>
      <trkpt lat="47.08918" lon="4.86816">
        <ele>333</ele>
        <time>2020-06-14T07:37:57.000Z</time>
      </trkpt>
      <trkpt lat="47.08911" lon="4.86818">
        <ele>334.4</ele>
        <time>2020-06-14T07:38:11.000Z</time>
      </trkpt>
      <trkpt lat="47.08911" lon="4.86818">
        <ele>334.6</ele>
        <time>2020-06-14T07:38:12.000Z</time>
      </trkpt>
      <trkpt lat="47.08902" lon="4.86819">
        <ele>336.6</ele>
        <time>2020-06-14T07:38:26.000Z</time>
      </trkpt>
      <trkpt lat="47.08893" lon="4.86821">
        <ele>338</ele>
        <time>2020-06-14T07:38:35.000Z</time>
      </trkpt>
      <trkpt lat="47.08886" lon="4.86813">
        <ele>340.4</ele>
        <time>2020-06-14T07:38:51.000Z</time>
      </trkpt>
      <trkpt lat="47.08883" lon="4.86807">
        <ele>342</ele>
        <time>2020-06-14T07:39:01.000Z</time>
      </trkpt>
      <trkpt lat="47.08882" lon="4.86807">
        <ele>341.9</ele>
        <time>2020-06-14T07:39:02.000Z</time>
      </trkpt>
      <trkpt lat="47.08874" lon="4.86813">
        <ele>343.5</ele>
        <time>2020-06-14T07:39:16.000Z</time>
      </trkpt>
      <trkpt lat="47.08869" lon="4.86825">
        <ele>343.7</ele>
        <time>2020-06-14T07:39:33.000Z</time>
      </trkpt>
      <trkpt lat="47.08864" lon="4.86836">
        <ele>343.5</ele>
        <time>2020-06-14T07:39:45.000Z</time>
      </trkpt>
      <trkpt lat="47.08859" lon="4.86848">
        <ele>343.4</ele>
        <time>2020-06-14T07:39:54.000Z</time>
      </trkpt>
      <trkpt lat="47.08854" lon="4.86861">
        <ele>343.1</ele>
        <time>2020-06-14T07:40:04.000Z</time>
      </trkpt>
      <trkpt lat="47.08851" lon="4.86866">
        <ele>343.3</ele>
        <time>2020-06-14T07:40:13.000Z</time>
      </trkpt>
      <trkpt lat="47.08851" lon="4.86867">
        <ele>343.3</ele>
        <time>2020-06-14T07:40:14.000Z</time>
      </trkpt>
      <trkpt lat="47.08847" lon="4.8688">
        <ele>343.8</ele>
        <time>2020-06-14T07:40:30.000Z</time>
      </trkpt>
      <trkpt lat="47.08843" lon="4.86893">
        <ele>343.7</ele>
        <time>2020-06-14T07:40:41.000Z</time>
      </trkpt>
      <trkpt lat="47.0884" lon="4.86905">
        <ele>343.8</ele>
        <time>2020-06-14T07:40:53.000Z</time>
      </trkpt>
      <trkpt lat="47.08839" lon="4.8692">
        <ele>343.6</ele>
        <time>2020-06-14T07:41:09.000Z</time>
      </trkpt>
      <trkpt lat="47.08833" lon="4.86931">
        <ele>344</ele>
        <time>2020-06-14T07:41:16.000Z</time>
      </trkpt>
      <trkpt lat="47.08828" lon="4.86942">
        <ele>344.1</ele>
        <time>2020-06-14T07:41:23.000Z</time>
      </trkpt>
      <trkpt lat="47.08825" lon="4.86954">
        <ele>344.1</ele>
        <time>2020-06-14T07:41:31.000Z</time>
      </trkpt>
      <trkpt lat="47.08822" lon="4.86968">
        <ele>344</ele>
        <time>2020-06-14T07:41:42.000Z</time>
      </trkpt>
      <trkpt lat="47.08821" lon="4.8697">
        <ele>343.9</ele>
        <time>2020-06-14T07:41:45.000Z</time>
      </trkpt>
      <trkpt lat="47.08821" lon="4.8697">
        <ele>344</ele>
        <time>2020-06-14T07:41:46.000Z</time>
      </trkpt>
      <trkpt lat="47.08821" lon="4.86974">
        <ele>344</ele>
        <time>2020-06-14T07:41:51.000Z</time>
      </trkpt>
      <trkpt lat="47.08821" lon="4.86974">
        <ele>344.3</ele>
        <time>2020-06-14T07:41:52.000Z</time>
      </trkpt>
      <trkpt lat="47.08821" lon="4.86975">
        <ele>344.2</ele>
        <time>2020-06-14T07:41:55.000Z</time>
      </trkpt>
      <trkpt lat="47.08821" lon="4.86974">
        <ele>344.2</ele>
        <time>2020-06-14T07:41:56.000Z</time>
      </trkpt>
      <trkpt lat="47.08821" lon="4.86981">
        <ele>344.4</ele>
        <time>2020-06-14T07:42:04.000Z</time>
      </trkpt>
      <trkpt lat="47.08821" lon="4.86982">
        <ele>344.4</ele>
        <time>2020-06-14T07:42:08.000Z</time>
      </trkpt>
      <trkpt lat="47.08814" lon="4.86991">
        <ele>344.5</ele>
        <time>2020-06-14T07:42:17.000Z</time>
      </trkpt>
      <trkpt lat="47.08808" lon="4.87003">
        <ele>344.4</ele>
        <time>2020-06-14T07:42:25.000Z</time>
      </trkpt>
      <trkpt lat="47.08803" lon="4.87015">
        <ele>344.2</ele>
        <time>2020-06-14T07:42:33.000Z</time>
      </trkpt>
      <trkpt lat="47.08797" lon="4.87026">
        <ele>344.4</ele>
        <time>2020-06-14T07:42:41.000Z</time>
      </trkpt>
      <trkpt lat="47.08792" lon="4.87038">
        <ele>344.4</ele>
        <time>2020-06-14T07:42:50.000Z</time>
      </trkpt>
      <trkpt lat="47.08786" lon="4.87049">
        <ele>344.6</ele>
        <time>2020-06-14T07:42:58.000Z</time>
      </trkpt>
      <trkpt lat="47.08782" lon="4.87062">
        <ele>344.2</ele>
        <time>2020-06-14T07:43:06.000Z</time>
      </trkpt>
      <trkpt lat="47.08777" lon="4.87074">
        <ele>344.4</ele>
        <time>2020-06-14T07:43:14.000Z</time>
      </trkpt>
      <trkpt lat="47.08772" lon="4.87086">
        <ele>344.1</ele>
        <time>2020-06-14T07:43:21.000Z</time>
      </trkpt>
      <trkpt lat="47.08765" lon="4.87096">
        <ele>344.5</ele>
        <time>2020-06-14T07:43:31.000Z</time>
      </trkpt>
      <trkpt lat="47.08763" lon="4.871">
        <ele>344.5</ele>
        <time>2020-06-14T07:43:36.000Z</time>
      </trkpt>
      <trkpt lat="47.08763" lon="4.871">
        <ele>345.6</ele>
        <time>2020-06-14T07:43:45.000Z</time>
      </trkpt>
      <trkpt lat="47.08768" lon="4.87095">
        <ele>344.2</ele>
        <time>2020-06-14T07:44:03.000Z</time>
      </trkpt>
      <trkpt lat="47.08768" lon="4.87095">
        <ele>344.3</ele>
        <time>2020-06-14T07:44:04.000Z</time>
      </trkpt>
      <trkpt lat="47.0877" lon="4.87095">
        <ele>344.1</ele>
        <time>2020-06-14T07:44:11.000Z</time>
      </trkpt>
      <trkpt lat="47.0877" lon="4.87095">
        <ele>344.1</ele>
        <time>2020-06-14T07:44:12.000Z</time>
      </trkpt>
      <trkpt lat="47.08772" lon="4.87092">
        <ele>344.2</ele>
        <time>2020-06-14T07:44:23.000Z</time>
      </trkpt>
      <trkpt lat="47.08773" lon="4.87091">
        <ele>344.1</ele>
        <time>2020-06-14T07:44:24.000Z</time>
      </trkpt>
      <trkpt lat="47.08774" lon="4.87091">
        <ele>344.2</ele>
        <time>2020-06-14T07:44:28.000Z</time>
      </trkpt>
      <trkpt lat="47.08774" lon="4.87091">
        <ele>344.1</ele>
        <time>2020-06-14T07:44:32.000Z</time>
      </trkpt>
      <trkpt lat="47.08772" lon="4.87091">
        <ele>344.3</ele>
        <time>2020-06-14T07:44:35.000Z</time>
      </trkpt>
      <trkpt lat="47.08772" lon="4.87091">
        <ele>344.4</ele>
        <time>2020-06-14T07:44:36.000Z</time>
      </trkpt>
      <trkpt lat="47.08772" lon="4.87091">
        <ele>344.2</ele>
        <time>2020-06-14T07:44:39.000Z</time>
      </trkpt>
      <trkpt lat="47.08772" lon="4.87091">
        <ele>344.1</ele>
        <time>2020-06-14T07:44:40.000Z</time>
      </trkpt>
      <trkpt lat="47.08771" lon="4.87092">
        <ele>344</ele>
        <time>2020-06-14T07:44:46.000Z</time>
      </trkpt>
      <trkpt lat="47.0877" lon="4.87092">
        <ele>344.2</ele>
        <time>2020-06-14T07:44:48.000Z</time>
      </trkpt>
      <trkpt lat="47.08769" lon="4.87096">
        <ele>344.2</ele>
        <time>2020-06-14T07:44:55.000Z</time>
      </trkpt>
      <trkpt lat="47.08768" lon="4.87096">
        <ele>344.1</ele>
        <time>2020-06-14T07:44:56.000Z</time>
      </trkpt>
      <trkpt lat="47.08766" lon="4.87097">
        <ele>344.3</ele>
        <time>2020-06-14T07:45:02.000Z</time>
      </trkpt>
      <trkpt lat="47.08766" lon="4.87097">
        <ele>344.2</ele>
        <time>2020-06-14T07:45:05.000Z</time>
      </trkpt>
      <trkpt lat="47.08766" lon="4.87097">
        <ele>344.4</ele>
        <time>2020-06-14T07:45:08.000Z</time>
      </trkpt>
      <trkpt lat="47.08766" lon="4.87098">
        <ele>344.2</ele>
        <time>2020-06-14T07:45:17.000Z</time>
      </trkpt>
      <trkpt lat="47.08766" lon="4.87098">
        <ele>344.1</ele>
        <time>2020-06-14T07:45:19.000Z</time>
      </trkpt>
      <trkpt lat="47.08765" lon="4.87098">
        <ele>344.4</ele>
        <time>2020-06-14T07:45:38.000Z</time>
      </trkpt>
      <trkpt lat="47.08763" lon="4.87103">
        <ele>344.5</ele>
        <time>2020-06-14T07:45:46.000Z</time>
      </trkpt>
      <trkpt lat="47.08764" lon="4.87102">
        <ele>344.4</ele>
        <time>2020-06-14T07:45:52.000Z</time>
      </trkpt>
      <trkpt lat="47.08757" lon="4.87112">
        <ele>344.5</ele>
        <time>2020-06-14T07:46:04.000Z</time>
      </trkpt>
      <trkpt lat="47.08748" lon="4.87118">
        <ele>345.3</ele>
        <time>2020-06-14T07:46:14.000Z</time>
      </trkpt>
      <trkpt lat="47.08739" lon="4.87121">
        <ele>345.8</ele>
        <time>2020-06-14T07:46:22.000Z</time>
      </trkpt>
      <trkpt lat="47.08733" lon="4.8713">
        <ele>346.1</ele>
        <time>2020-06-14T07:46:35.000Z</time>
      </trkpt>
      <trkpt lat="47.08733" lon="4.87129">
        <ele>346.2</ele>
        <time>2020-06-14T07:46:42.000Z</time>
      </trkpt>
      <trkpt lat="47.08733" lon="4.87129">
        <ele>346.3</ele>
        <time>2020-06-14T07:46:44.000Z</time>
      </trkpt>
      <trkpt lat="47.08733" lon="4.87129">
        <ele>346.3</ele>
        <time>2020-06-14T07:46:45.000Z</time>
      </trkpt>
      <trkpt lat="47.08733" lon="4.87129">
        <ele>346.1</ele>
        <time>2020-06-14T07:46:58.000Z</time>
      </trkpt>
      <trkpt lat="47.08733" lon="4.87129">
        <ele>346.2</ele>
        <time>2020-06-14T07:46:59.000Z</time>
      </trkpt>
      <trkpt lat="47.08732" lon="4.87129">
        <ele>346.1</ele>
        <time>2020-06-14T07:47:06.000Z</time>
      </trkpt>
      <trkpt lat="47.08732" lon="4.87129">
        <ele>346.1</ele>
        <time>2020-06-14T07:47:09.000Z</time>
      </trkpt>
      <trkpt lat="47.08731" lon="4.87128">
        <ele>346</ele>
        <time>2020-06-14T07:47:13.000Z</time>
      </trkpt>
      <trkpt lat="47.08721" lon="4.87129">
        <ele>346</ele>
        <time>2020-06-14T07:47:20.000Z</time>
      </trkpt>
      <trkpt lat="47.08712" lon="4.87128">
        <ele>346.2</ele>
        <time>2020-06-14T07:47:27.000Z</time>
      </trkpt>
      <trkpt lat="47.08703" lon="4.87122">
        <ele>346.9</ele>
        <time>2020-06-14T07:47:38.000Z</time>
      </trkpt>
      <trkpt lat="47.08699" lon="4.87119">
        <ele>346.8</ele>
        <time>2020-06-14T07:47:47.000Z</time>
      </trkpt>
      <trkpt lat="47.08699" lon="4.87119">
        <ele>346.7</ele>
        <time>2020-06-14T07:47:48.000Z</time>
      </trkpt>
      <trkpt lat="47.08689" lon="4.87123">
        <ele>346.9</ele>
        <time>2020-06-14T07:47:57.000Z</time>
      </trkpt>
      <trkpt lat="47.08679" lon="4.87124">
        <ele>346.7</ele>
        <time>2020-06-14T07:48:05.000Z</time>
      </trkpt>
      <trkpt lat="47.0867" lon="4.8712">
        <ele>346.9</ele>
        <time>2020-06-14T07:48:12.000Z</time>
      </trkpt>
      <trkpt lat="47.08661" lon="4.87117">
        <ele>347.2</ele>
        <time>2020-06-14T07:48:20.000Z</time>
      </trkpt>
      <trkpt lat="47.08652" lon="4.87115">
        <ele>347.2</ele>
        <time>2020-06-14T07:48:28.000Z</time>
      </trkpt>
      <trkpt lat="47.08643" lon="4.87116">
        <ele>347.1</ele>
        <time>2020-06-14T07:48:36.000Z</time>
      </trkpt>
      <trkpt lat="47.08633" lon="4.87116">
        <ele>346.8</ele>
        <time>2020-06-14T07:48:44.000Z</time>
      </trkpt>
      <trkpt lat="47.08624" lon="4.87114">
        <ele>346.7</ele>
        <time>2020-06-14T07:48:52.000Z</time>
      </trkpt>
      <trkpt lat="47.08614" lon="4.87112">
        <ele>346.4</ele>
        <time>2020-06-14T07:49:00.000Z</time>
      </trkpt>
      <trkpt lat="47.08605" lon="4.87109">
        <ele>346.1</ele>
        <time>2020-06-14T07:49:07.000Z</time>
      </trkpt>
      <trkpt lat="47.08595" lon="4.87107">
        <ele>346</ele>
        <time>2020-06-14T07:49:15.000Z</time>
      </trkpt>
      <trkpt lat="47.08585" lon="4.87104">
        <ele>345.8</ele>
        <time>2020-06-14T07:49:23.000Z</time>
      </trkpt>
      <trkpt lat="47.08575" lon="4.87102">
        <ele>345.5</ele>
        <time>2020-06-14T07:49:31.000Z</time>
      </trkpt>
      <trkpt lat="47.08565" lon="4.87099">
        <ele>345.2</ele>
        <time>2020-06-14T07:49:40.000Z</time>
      </trkpt>
      <trkpt lat="47.08556" lon="4.87096">
        <ele>344.9</ele>
        <time>2020-06-14T07:49:48.000Z</time>
      </trkpt>
      <trkpt lat="47.08547" lon="4.87092">
        <ele>345.1</ele>
        <time>2020-06-14T07:49:56.000Z</time>
      </trkpt>
      <trkpt lat="47.08539" lon="4.87088">
        <ele>344.3</ele>
        <time>2020-06-14T07:50:04.000Z</time>
      </trkpt>
      <trkpt lat="47.0853" lon="4.87082">
        <ele>344.2</ele>
        <time>2020-06-14T07:50:13.000Z</time>
      </trkpt>
      <trkpt lat="47.08521" lon="4.87078">
        <ele>344</ele>
        <time>2020-06-14T07:50:21.000Z</time>
      </trkpt>
      <trkpt lat="47.08511" lon="4.87074">
        <ele>343.3</ele>
        <time>2020-06-14T07:50:30.000Z</time>
      </trkpt>
      <trkpt lat="47.08502" lon="4.87071">
        <ele>342.2</ele>
        <time>2020-06-14T07:50:38.000Z</time>
      </trkpt>
      <trkpt lat="47.08493" lon="4.87068">
        <ele>342.2</ele>
        <time>2020-06-14T07:50:46.000Z</time>
      </trkpt>
      <trkpt lat="47.08483" lon="4.87065">
        <ele>341.6</ele>
        <time>2020-06-14T07:50:55.000Z</time>
      </trkpt>
      <trkpt lat="47.08474" lon="4.87061">
        <ele>341.1</ele>
        <time>2020-06-14T07:51:03.000Z</time>
      </trkpt>
      <trkpt lat="47.08465" lon="4.87056">
        <ele>340.2</ele>
        <time>2020-06-14T07:51:10.000Z</time>
      </trkpt>
      <trkpt lat="47.08457" lon="4.8705">
        <ele>339.7</ele>
        <time>2020-06-14T07:51:17.000Z</time>
      </trkpt>
      <trkpt lat="47.08448" lon="4.87044">
        <ele>339.1</ele>
        <time>2020-06-14T07:51:24.000Z</time>
      </trkpt>
      <trkpt lat="47.0844" lon="4.87037">
        <ele>338.5</ele>
        <time>2020-06-14T07:51:31.000Z</time>
      </trkpt>
      <trkpt lat="47.08431" lon="4.87029">
        <ele>338.1</ele>
        <time>2020-06-14T07:51:39.000Z</time>
      </trkpt>
      <trkpt lat="47.08423" lon="4.8702">
        <ele>338.1</ele>
        <time>2020-06-14T07:51:47.000Z</time>
      </trkpt>
      <trkpt lat="47.08416" lon="4.87011">
        <ele>338.9</ele>
        <time>2020-06-14T07:51:55.000Z</time>
      </trkpt>
      <trkpt lat="47.0841" lon="4.87001">
        <ele>337.4</ele>
        <time>2020-06-14T07:52:04.000Z</time>
      </trkpt>
      <trkpt lat="47.08403" lon="4.86992">
        <ele>336.5</ele>
        <time>2020-06-14T07:52:13.000Z</time>
      </trkpt>
      <trkpt lat="47.08395" lon="4.86981">
        <ele>336.3</ele>
        <time>2020-06-14T07:52:22.000Z</time>
      </trkpt>
      <trkpt lat="47.08389" lon="4.86969">
        <ele>335.7</ele>
        <time>2020-06-14T07:52:29.000Z</time>
      </trkpt>
      <trkpt lat="47.08384" lon="4.86959">
        <ele>335.4</ele>
        <time>2020-06-14T07:52:36.000Z</time>
      </trkpt>
      <trkpt lat="47.08376" lon="4.86949">
        <ele>334.7</ele>
        <time>2020-06-14T07:52:44.000Z</time>
      </trkpt>
      <trkpt lat="47.08369" lon="4.86938">
        <ele>334.1</ele>
        <time>2020-06-14T07:52:52.000Z</time>
      </trkpt>
      <trkpt lat="47.08363" lon="4.86927">
        <ele>333.7</ele>
        <time>2020-06-14T07:53:00.000Z</time>
      </trkpt>
      <trkpt lat="47.08357" lon="4.86916">
        <ele>333.2</ele>
        <time>2020-06-14T07:53:07.000Z</time>
      </trkpt>
      <trkpt lat="47.08351" lon="4.86905">
        <ele>332.8</ele>
        <time>2020-06-14T07:53:14.000Z</time>
      </trkpt>
      <trkpt lat="47.08346" lon="4.86894">
        <ele>332.1</ele>
        <time>2020-06-14T07:53:22.000Z</time>
      </trkpt>
      <trkpt lat="47.08342" lon="4.86881">
        <ele>331.5</ele>
        <time>2020-06-14T07:53:30.000Z</time>
      </trkpt>
      <trkpt lat="47.08337" lon="4.8687">
        <ele>331.3</ele>
        <time>2020-06-14T07:53:38.000Z</time>
      </trkpt>
      <trkpt lat="47.08331" lon="4.86858">
        <ele>331.3</ele>
        <time>2020-06-14T07:53:46.000Z</time>
      </trkpt>
      <trkpt lat="47.08327" lon="4.86846">
        <ele>331.5</ele>
        <time>2020-06-14T07:53:55.000Z</time>
      </trkpt>
      <trkpt lat="47.0832" lon="4.86836">
        <ele>332.1</ele>
        <time>2020-06-14T07:54:02.000Z</time>
      </trkpt>
      <trkpt lat="47.08314" lon="4.86824">
        <ele>332.4</ele>
        <time>2020-06-14T07:54:10.000Z</time>
      </trkpt>
      <trkpt lat="47.08308" lon="4.86814">
        <ele>333</ele>
        <time>2020-06-14T07:54:18.000Z</time>
      </trkpt>
      <trkpt lat="47.08301" lon="4.86805">
        <ele>333.6</ele>
        <time>2020-06-14T07:54:26.000Z</time>
      </trkpt>
      <trkpt lat="47.08295" lon="4.86795">
        <ele>334.9</ele>
        <time>2020-06-14T07:54:36.000Z</time>
      </trkpt>
      <trkpt lat="47.08293" lon="4.86782">
        <ele>335.7</ele>
        <time>2020-06-14T07:54:48.000Z</time>
      </trkpt>
      <trkpt lat="47.08292" lon="4.86768">
        <ele>337</ele>
        <time>2020-06-14T07:55:00.000Z</time>
      </trkpt>
      <trkpt lat="47.08294" lon="4.86756">
        <ele>337.7</ele>
        <time>2020-06-14T07:55:10.000Z</time>
      </trkpt>
      <trkpt lat="47.08298" lon="4.86743">
        <ele>338.2</ele>
        <time>2020-06-14T07:55:18.000Z</time>
      </trkpt>
      <trkpt lat="47.08302" lon="4.86731">
        <ele>338.4</ele>
        <time>2020-06-14T07:55:24.000Z</time>
      </trkpt>
      <trkpt lat="47.08306" lon="4.86717">
        <ele>338.8</ele>
        <time>2020-06-14T07:55:31.000Z</time>
      </trkpt>
      <trkpt lat="47.0831" lon="4.86706">
        <ele>339.2</ele>
        <time>2020-06-14T07:55:37.000Z</time>
      </trkpt>
      <trkpt lat="47.08315" lon="4.86693">
        <ele>339.3</ele>
        <time>2020-06-14T07:55:45.000Z</time>
      </trkpt>
      <trkpt lat="47.0832" lon="4.86679">
        <ele>339.5</ele>
        <time>2020-06-14T07:55:53.000Z</time>
      </trkpt>
      <trkpt lat="47.08326" lon="4.86668">
        <ele>339.7</ele>
        <time>2020-06-14T07:56:00.000Z</time>
      </trkpt>
      <trkpt lat="47.08333" lon="4.8666">
        <ele>339.5</ele>
        <time>2020-06-14T07:56:08.000Z</time>
      </trkpt>
      <trkpt lat="47.08339" lon="4.86649">
        <ele>339</ele>
        <time>2020-06-14T07:56:17.000Z</time>
      </trkpt>
      <trkpt lat="47.08345" lon="4.86638">
        <ele>339.2</ele>
        <time>2020-06-14T07:56:26.000Z</time>
      </trkpt>
      <trkpt lat="47.08346" lon="4.86623">
        <ele>339</ele>
        <time>2020-06-14T07:56:35.000Z</time>
      </trkpt>
      <trkpt lat="47.08347" lon="4.86609">
        <ele>338.8</ele>
        <time>2020-06-14T07:56:42.000Z</time>
      </trkpt>
      <trkpt lat="47.08351" lon="4.86596">
        <ele>338.4</ele>
        <time>2020-06-14T07:56:50.000Z</time>
      </trkpt>
      <trkpt lat="47.08353" lon="4.86583">
        <ele>338.1</ele>
        <time>2020-06-14T07:56:58.000Z</time>
      </trkpt>
      <trkpt lat="47.08355" lon="4.8657">
        <ele>338</ele>
        <time>2020-06-14T07:57:06.000Z</time>
      </trkpt>
      <trkpt lat="47.08357" lon="4.86555">
        <ele>337.6</ele>
        <time>2020-06-14T07:57:14.000Z</time>
      </trkpt>
      <trkpt lat="47.08356" lon="4.86542">
        <ele>337.3</ele>
        <time>2020-06-14T07:57:23.000Z</time>
      </trkpt>
      <trkpt lat="47.08353" lon="4.86527">
        <ele>337.3</ele>
        <time>2020-06-14T07:57:31.000Z</time>
      </trkpt>
      <trkpt lat="47.0835" lon="4.86513">
        <ele>337.3</ele>
        <time>2020-06-14T07:57:39.000Z</time>
      </trkpt>
      <trkpt lat="47.08346" lon="4.865">
        <ele>338</ele>
        <time>2020-06-14T07:57:46.000Z</time>
      </trkpt>
      <trkpt lat="47.08341" lon="4.86488">
        <ele>338</ele>
        <time>2020-06-14T07:57:54.000Z</time>
      </trkpt>
      <trkpt lat="47.08341" lon="4.86474">
        <ele>338.1</ele>
        <time>2020-06-14T07:58:02.000Z</time>
      </trkpt>
      <trkpt lat="47.08336" lon="4.86463">
        <ele>338</ele>
        <time>2020-06-14T07:58:12.000Z</time>
      </trkpt>
      <trkpt lat="47.08335" lon="4.86449">
        <ele>337.3</ele>
        <time>2020-06-14T07:58:20.000Z</time>
      </trkpt>
      <trkpt lat="47.08334" lon="4.86434">
        <ele>337.1</ele>
        <time>2020-06-14T07:58:27.000Z</time>
      </trkpt>
      <trkpt lat="47.08335" lon="4.86421">
        <ele>336.9</ele>
        <time>2020-06-14T07:58:35.000Z</time>
      </trkpt>
      <trkpt lat="47.08335" lon="4.8642">
        <ele>337.6</ele>
        <time>2020-06-14T07:58:44.000Z</time>
      </trkpt>
      <trkpt lat="47.08335" lon="4.8642">
        <ele>337.4</ele>
        <time>2020-06-14T07:59:05.000Z</time>
      </trkpt>
      <trkpt lat="47.08335" lon="4.8642">
        <ele>337.5</ele>
        <time>2020-06-14T07:59:07.000Z</time>
      </trkpt>
      <trkpt lat="47.08335" lon="4.8642">
        <ele>337.6</ele>
        <time>2020-06-14T07:59:09.000Z</time>
      </trkpt>
      <trkpt lat="47.08335" lon="4.8642">
        <ele>337.6</ele>
        <time>2020-06-14T07:59:10.000Z</time>
      </trkpt>
      <trkpt lat="47.08335" lon="4.86419">
        <ele>337.5</ele>
        <time>2020-06-14T07:59:19.000Z</time>
      </trkpt>
      <trkpt lat="47.08335" lon="4.86419">
        <ele>337.4</ele>
        <time>2020-06-14T07:59:22.000Z</time>
      </trkpt>
      <trkpt lat="47.08335" lon="4.86419">
        <ele>337.2</ele>
        <time>2020-06-14T07:59:23.000Z</time>
      </trkpt>
      <trkpt lat="47.08333" lon="4.86422">
        <ele>337.4</ele>
        <time>2020-06-14T07:59:32.000Z</time>
      </trkpt>
      <trkpt lat="47.08333" lon="4.86422">
        <ele>337.4</ele>
        <time>2020-06-14T07:59:33.000Z</time>
      </trkpt>
      <trkpt lat="47.0833" lon="4.86422">
        <ele>337.4</ele>
        <time>2020-06-14T07:59:43.000Z</time>
      </trkpt>
      <trkpt lat="47.0833" lon="4.86421">
        <ele>337.5</ele>
        <time>2020-06-14T07:59:44.000Z</time>
      </trkpt>
      <trkpt lat="47.0833" lon="4.86421">
        <ele>337.5</ele>
        <time>2020-06-14T07:59:47.000Z</time>
      </trkpt>
      <trkpt lat="47.0833" lon="4.8642">
        <ele>337.7</ele>
        <time>2020-06-14T08:00:01.000Z</time>
      </trkpt>
      <trkpt lat="47.08331" lon="4.8642">
        <ele>337.6</ele>
        <time>2020-06-14T08:00:03.000Z</time>
      </trkpt>
      <trkpt lat="47.08331" lon="4.8642">
        <ele>337.4</ele>
        <time>2020-06-14T08:00:04.000Z</time>
      </trkpt>
      <trkpt lat="47.08331" lon="4.86419">
        <ele>337.3</ele>
        <time>2020-06-14T08:00:07.000Z</time>
      </trkpt>
      <trkpt lat="47.08331" lon="4.8642">
        <ele>337.4</ele>
        <time>2020-06-14T08:00:08.000Z</time>
      </trkpt>
      <trkpt lat="47.08329" lon="4.86423">
        <ele>337.6</ele>
        <time>2020-06-14T08:00:16.000Z</time>
      </trkpt>
      <trkpt lat="47.0833" lon="4.86422">
        <ele>337.6</ele>
        <time>2020-06-14T08:00:17.000Z</time>
      </trkpt>
      <trkpt lat="47.08336" lon="4.86416">
        <ele>337.3</ele>
        <time>2020-06-14T08:00:35.000Z</time>
      </trkpt>
      <trkpt lat="47.08336" lon="4.86417">
        <ele>337.3</ele>
        <time>2020-06-14T08:00:36.000Z</time>
      </trkpt>
      <trkpt lat="47.08332" lon="4.86419">
        <ele>337.6</ele>
        <time>2020-06-14T08:00:49.000Z</time>
      </trkpt>
      <trkpt lat="47.08332" lon="4.86419">
        <ele>337.5</ele>
        <time>2020-06-14T08:00:50.000Z</time>
      </trkpt>
      <trkpt lat="47.08334" lon="4.86418">
        <ele>337.5</ele>
        <time>2020-06-14T08:00:54.000Z</time>
      </trkpt>
      <trkpt lat="47.08335" lon="4.86418">
        <ele>337.6</ele>
        <time>2020-06-14T08:00:55.000Z</time>
      </trkpt>
      <trkpt lat="47.08335" lon="4.86418">
        <ele>337.6</ele>
        <time>2020-06-14T08:00:58.000Z</time>
      </trkpt>
      <trkpt lat="47.08335" lon="4.86418">
        <ele>337.3</ele>
        <time>2020-06-14T08:01:01.000Z</time>
      </trkpt>
      <trkpt lat="47.08335" lon="4.86418">
        <ele>337.2</ele>
        <time>2020-06-14T08:01:02.000Z</time>
      </trkpt>
      <trkpt lat="47.08335" lon="4.86418">
        <ele>337.1</ele>
        <time>2020-06-14T08:01:03.000Z</time>
      </trkpt>
      <trkpt lat="47.08335" lon="4.86417">
        <ele>337.2</ele>
        <time>2020-06-14T08:01:04.000Z</time>
      </trkpt>
      <trkpt lat="47.08335" lon="4.86417">
        <ele>337.3</ele>
        <time>2020-06-14T08:01:05.000Z</time>
      </trkpt>
      <trkpt lat="47.08335" lon="4.86417">
        <ele>337.5</ele>
        <time>2020-06-14T08:01:07.000Z</time>
      </trkpt>
      <trkpt lat="47.08335" lon="4.86416">
        <ele>337.3</ele>
        <time>2020-06-14T08:01:09.000Z</time>
      </trkpt>
      <trkpt lat="47.08335" lon="4.86416">
        <ele>337.3</ele>
        <time>2020-06-14T08:01:10.000Z</time>
      </trkpt>
      <trkpt lat="47.08335" lon="4.86416">
        <ele>337.3</ele>
        <time>2020-06-14T08:01:11.000Z</time>
      </trkpt>
      <trkpt lat="47.08336" lon="4.86415">
        <ele>337.3</ele>
        <time>2020-06-14T08:01:21.000Z</time>
      </trkpt>
      <trkpt lat="47.08335" lon="4.86415">
        <ele>337.2</ele>
        <time>2020-06-14T08:01:22.000Z</time>
      </trkpt>
      <trkpt lat="47.08334" lon="4.86414">
        <ele>337.6</ele>
        <time>2020-06-14T08:01:28.000Z</time>
      </trkpt>
      <trkpt lat="47.08334" lon="4.86414">
        <ele>337.5</ele>
        <time>2020-06-14T08:01:30.000Z</time>
      </trkpt>
      <trkpt lat="47.08334" lon="4.86414">
        <ele>337.4</ele>
        <time>2020-06-14T08:01:32.000Z</time>
      </trkpt>
      <trkpt lat="47.08334" lon="4.86413">
        <ele>337.4</ele>
        <time>2020-06-14T08:01:33.000Z</time>
      </trkpt>
      <trkpt lat="47.08335" lon="4.86412">
        <ele>337.5</ele>
        <time>2020-06-14T08:01:39.000Z</time>
      </trkpt>
      <trkpt lat="47.08335" lon="4.86412">
        <ele>337.4</ele>
        <time>2020-06-14T08:01:40.000Z</time>
      </trkpt>
      <trkpt lat="47.08335" lon="4.86411">
        <ele>337.2</ele>
        <time>2020-06-14T08:01:47.000Z</time>
      </trkpt>
      <trkpt lat="47.08335" lon="4.86411">
        <ele>337.2</ele>
        <time>2020-06-14T08:01:48.000Z</time>
      </trkpt>
      <trkpt lat="47.08335" lon="4.86407">
        <ele>337.3</ele>
        <time>2020-06-14T08:02:01.000Z</time>
      </trkpt>
      <trkpt lat="47.08335" lon="4.86407">
        <ele>337.5</ele>
        <time>2020-06-14T08:02:02.000Z</time>
      </trkpt>
      <trkpt lat="47.08335" lon="4.86407">
        <ele>337.5</ele>
        <time>2020-06-14T08:02:03.000Z</time>
      </trkpt>
      <trkpt lat="47.08335" lon="4.86408">
        <ele>337.4</ele>
        <time>2020-06-14T08:02:04.000Z</time>
      </trkpt>
      <trkpt lat="47.08335" lon="4.86409">
        <ele>337.2</ele>
        <time>2020-06-14T08:02:07.000Z</time>
      </trkpt>
      <trkpt lat="47.08335" lon="4.86409">
        <ele>337.4</ele>
        <time>2020-06-14T08:02:09.000Z</time>
      </trkpt>
      <trkpt lat="47.08336" lon="4.86408">
        <ele>337.4</ele>
        <time>2020-06-14T08:02:15.000Z</time>
      </trkpt>
      <trkpt lat="47.08336" lon="4.86408">
        <ele>337.2</ele>
        <time>2020-06-14T08:02:18.000Z</time>
      </trkpt>
      <trkpt lat="47.08335" lon="4.86409">
        <ele>337.4</ele>
        <time>2020-06-14T08:02:21.000Z</time>
      </trkpt>
      <trkpt lat="47.08335" lon="4.86408">
        <ele>337.2</ele>
        <time>2020-06-14T08:02:30.000Z</time>
      </trkpt>
      <trkpt lat="47.08335" lon="4.86407">
        <ele>337.1</ele>
        <time>2020-06-14T08:02:36.000Z</time>
      </trkpt>
      <trkpt lat="47.08335" lon="4.86407">
        <ele>337.2</ele>
        <time>2020-06-14T08:02:44.000Z</time>
      </trkpt>
      <trkpt lat="47.08334" lon="4.86407">
        <ele>337</ele>
        <time>2020-06-14T08:02:48.000Z</time>
      </trkpt>
      <trkpt lat="47.08334" lon="4.86408">
        <ele>337.2</ele>
        <time>2020-06-14T08:02:49.000Z</time>
      </trkpt>
      <trkpt lat="47.08332" lon="4.86408">
        <ele>337.2</ele>
        <time>2020-06-14T08:02:54.000Z</time>
      </trkpt>
      <trkpt lat="47.08333" lon="4.86408">
        <ele>337.3</ele>
        <time>2020-06-14T08:02:55.000Z</time>
      </trkpt>
      <trkpt lat="47.08333" lon="4.86408">
        <ele>337.3</ele>
        <time>2020-06-14T08:02:56.000Z</time>
      </trkpt>
      <trkpt lat="47.08333" lon="4.86407">
        <ele>337.3</ele>
        <time>2020-06-14T08:02:57.000Z</time>
      </trkpt>
      <trkpt lat="47.08335" lon="4.86407">
        <ele>337.1</ele>
        <time>2020-06-14T08:03:03.000Z</time>
      </trkpt>
      <trkpt lat="47.08335" lon="4.86407">
        <ele>337.3</ele>
        <time>2020-06-14T08:03:10.000Z</time>
      </trkpt>
      <trkpt lat="47.08336" lon="4.86405">
        <ele>337.2</ele>
        <time>2020-06-14T08:03:19.000Z</time>
      </trkpt>
      <trkpt lat="47.08336" lon="4.86406">
        <ele>337.2</ele>
        <time>2020-06-14T08:03:20.000Z</time>
      </trkpt>
      <trkpt lat="47.08336" lon="4.86406">
        <ele>337.3</ele>
        <time>2020-06-14T08:03:23.000Z</time>
      </trkpt>
      <trkpt lat="47.08336" lon="4.86406">
        <ele>337.2</ele>
        <time>2020-06-14T08:03:24.000Z</time>
      </trkpt>
      <trkpt lat="47.08333" lon="4.86408">
        <ele>337.1</ele>
        <time>2020-06-14T08:03:36.000Z</time>
      </trkpt>
      <trkpt lat="47.08333" lon="4.86409">
        <ele>337.2</ele>
        <time>2020-06-14T08:03:37.000Z</time>
      </trkpt>
      <trkpt lat="47.08329" lon="4.86412">
        <ele>337.2</ele>
        <time>2020-06-14T08:03:54.000Z</time>
      </trkpt>
      <trkpt lat="47.08329" lon="4.86411">
        <ele>337.1</ele>
        <time>2020-06-14T08:03:56.000Z</time>
      </trkpt>
      <trkpt lat="47.08328" lon="4.86413">
        <ele>337.2</ele>
        <time>2020-06-14T08:04:04.000Z</time>
      </trkpt>
      <trkpt lat="47.08327" lon="4.86414">
        <ele>337.1</ele>
        <time>2020-06-14T08:04:05.000Z</time>
      </trkpt>
      <trkpt lat="47.08327" lon="4.86414">
        <ele>337.1</ele>
        <time>2020-06-14T08:04:08.000Z</time>
      </trkpt>
      <trkpt lat="47.08327" lon="4.86414">
        <ele>337.2</ele>
        <time>2020-06-14T08:04:09.000Z</time>
      </trkpt>
      <trkpt lat="47.08327" lon="4.86414">
        <ele>337.1</ele>
        <time>2020-06-14T08:04:10.000Z</time>
      </trkpt>
      <trkpt lat="47.08328" lon="4.86414">
        <ele>337.2</ele>
        <time>2020-06-14T08:04:11.000Z</time>
      </trkpt>
      <trkpt lat="47.08328" lon="4.86414">
        <ele>337.3</ele>
        <time>2020-06-14T08:04:12.000Z</time>
      </trkpt>
      <trkpt lat="47.08327" lon="4.86415">
        <ele>337.2</ele>
        <time>2020-06-14T08:04:13.000Z</time>
      </trkpt>
      <trkpt lat="47.08326" lon="4.86416">
        <ele>337.1</ele>
        <time>2020-06-14T08:04:20.000Z</time>
      </trkpt>
      <trkpt lat="47.08326" lon="4.86416">
        <ele>337</ele>
        <time>2020-06-14T08:04:21.000Z</time>
      </trkpt>
      <trkpt lat="47.08325" lon="4.86418">
        <ele>337.4</ele>
        <time>2020-06-14T08:04:26.000Z</time>
      </trkpt>
      <trkpt lat="47.08325" lon="4.86418">
        <ele>337.4</ele>
        <time>2020-06-14T08:04:27.000Z</time>
      </trkpt>
      <trkpt lat="47.08325" lon="4.86418">
        <ele>337.4</ele>
        <time>2020-06-14T08:04:28.000Z</time>
      </trkpt>
      <trkpt lat="47.08324" lon="4.86418">
        <ele>337.3</ele>
        <time>2020-06-14T08:04:29.000Z</time>
      </trkpt>
      <trkpt lat="47.08324" lon="4.86418">
        <ele>337.4</ele>
        <time>2020-06-14T08:04:30.000Z</time>
      </trkpt>
      <trkpt lat="47.08324" lon="4.86418">
        <ele>337.3</ele>
        <time>2020-06-14T08:04:32.000Z</time>
      </trkpt>
      <trkpt lat="47.08324" lon="4.86418">
        <ele>337.3</ele>
        <time>2020-06-14T08:04:33.000Z</time>
      </trkpt>
      <trkpt lat="47.08324" lon="4.86418">
        <ele>337.4</ele>
        <time>2020-06-14T08:04:34.000Z</time>
      </trkpt>
      <trkpt lat="47.08322" lon="4.86419">
        <ele>337.5</ele>
        <time>2020-06-14T08:04:49.000Z</time>
      </trkpt>
      <trkpt lat="47.08321" lon="4.86419">
        <ele>337.4</ele>
        <time>2020-06-14T08:04:50.000Z</time>
      </trkpt>
      <trkpt lat="47.08321" lon="4.86419">
        <ele>337.6</ele>
        <time>2020-06-14T08:04:54.000Z</time>
      </trkpt>
      <trkpt lat="47.08321" lon="4.86419">
        <ele>337.6</ele>
        <time>2020-06-14T08:04:56.000Z</time>
      </trkpt>
      <trkpt lat="47.08321" lon="4.86419">
        <ele>337.4</ele>
        <time>2020-06-14T08:04:58.000Z</time>
      </trkpt>
      <trkpt lat="47.08321" lon="4.86419">
        <ele>337.2</ele>
        <time>2020-06-14T08:04:59.000Z</time>
      </trkpt>
      <trkpt lat="47.08321" lon="4.86419">
        <ele>337.3</ele>
        <time>2020-06-14T08:05:00.000Z</time>
      </trkpt>
      <trkpt lat="47.08321" lon="4.86419">
        <ele>337.3</ele>
        <time>2020-06-14T08:05:01.000Z</time>
      </trkpt>
      <trkpt lat="47.08321" lon="4.86419">
        <ele>337.2</ele>
        <time>2020-06-14T08:05:02.000Z</time>
      </trkpt>
      <trkpt lat="47.08321" lon="4.86419">
        <ele>337.3</ele>
        <time>2020-06-14T08:05:03.000Z</time>
      </trkpt>
      <trkpt lat="47.08322" lon="4.86418">
        <ele>337.4</ele>
        <time>2020-06-14T08:05:06.000Z</time>
      </trkpt>
      <trkpt lat="47.08321" lon="4.86418">
        <ele>337.5</ele>
        <time>2020-06-14T08:05:08.000Z</time>
      </trkpt>
      <trkpt lat="47.08321" lon="4.86418">
        <ele>337.4</ele>
        <time>2020-06-14T08:05:09.000Z</time>
      </trkpt>
      <trkpt lat="47.08322" lon="4.86418">
        <ele>337.4</ele>
        <time>2020-06-14T08:05:10.000Z</time>
      </trkpt>
      <trkpt lat="47.08322" lon="4.86418">
        <ele>337.5</ele>
        <time>2020-06-14T08:05:11.000Z</time>
      </trkpt>
      <trkpt lat="47.08322" lon="4.86418">
        <ele>337.5</ele>
        <time>2020-06-14T08:05:12.000Z</time>
      </trkpt>
      <trkpt lat="47.08322" lon="4.86418">
        <ele>337.5</ele>
        <time>2020-06-14T08:05:13.000Z</time>
      </trkpt>
      <trkpt lat="47.08322" lon="4.86418">
        <ele>337.5</ele>
        <time>2020-06-14T08:05:14.000Z</time>
      </trkpt>
      <trkpt lat="47.08322" lon="4.86417">
        <ele>337.4</ele>
        <time>2020-06-14T08:05:15.000Z</time>
      </trkpt>
      <trkpt lat="47.08322" lon="4.86417">
        <ele>337.5</ele>
        <time>2020-06-14T08:05:17.000Z</time>
      </trkpt>
      <trkpt lat="47.08322" lon="4.86417">
        <ele>337.5</ele>
        <time>2020-06-14T08:05:18.000Z</time>
      </trkpt>
      <trkpt lat="47.08322" lon="4.86417">
        <ele>337.3</ele>
        <time>2020-06-14T08:05:24.000Z</time>
      </trkpt>
      <trkpt lat="47.08322" lon="4.86417">
        <ele>337.5</ele>
        <time>2020-06-14T08:05:25.000Z</time>
      </trkpt>
      <trkpt lat="47.08322" lon="4.86417">
        <ele>337.3</ele>
        <time>2020-06-14T08:05:29.000Z</time>
      </trkpt>
      <trkpt lat="47.08322" lon="4.86418">
        <ele>337.2</ele>
        <time>2020-06-14T08:05:30.000Z</time>
      </trkpt>
      <trkpt lat="47.08322" lon="4.86418">
        <ele>337.2</ele>
        <time>2020-06-14T08:05:34.000Z</time>
      </trkpt>
      <trkpt lat="47.08322" lon="4.86418">
        <ele>337.2</ele>
        <time>2020-06-14T08:05:35.000Z</time>
      </trkpt>
      <trkpt lat="47.08322" lon="4.86418">
        <ele>337.1</ele>
        <time>2020-06-14T08:05:38.000Z</time>
      </trkpt>
      <trkpt lat="47.08322" lon="4.86418">
        <ele>337.2</ele>
        <time>2020-06-14T08:05:39.000Z</time>
      </trkpt>
      <trkpt lat="47.08322" lon="4.86418">
        <ele>337.4</ele>
        <time>2020-06-14T08:05:40.000Z</time>
      </trkpt>
      <trkpt lat="47.08317" lon="4.86406">
        <ele>336.5</ele>
        <time>2020-06-14T08:05:54.000Z</time>
      </trkpt>
      <trkpt lat="47.08315" lon="4.86391">
        <ele>335.8</ele>
        <time>2020-06-14T08:06:05.000Z</time>
      </trkpt>
      <trkpt lat="47.08313" lon="4.86377">
        <ele>335.6</ele>
        <time>2020-06-14T08:06:13.000Z</time>
      </trkpt>
      <trkpt lat="47.08313" lon="4.86363">
        <ele>335</ele>
        <time>2020-06-14T08:06:22.000Z</time>
      </trkpt>
      <trkpt lat="47.08309" lon="4.86351">
        <ele>335.3</ele>
        <time>2020-06-14T08:06:32.000Z</time>
      </trkpt>
      <trkpt lat="47.08303" lon="4.86341">
        <ele>334.8</ele>
        <time>2020-06-14T08:06:41.000Z</time>
      </trkpt>
      <trkpt lat="47.08297" lon="4.8633">
        <ele>334.1</ele>
        <time>2020-06-14T08:06:48.000Z</time>
      </trkpt>
      <trkpt lat="47.08293" lon="4.86318">
        <ele>332.5</ele>
        <time>2020-06-14T08:06:56.000Z</time>
      </trkpt>
      <trkpt lat="47.08294" lon="4.86304">
        <ele>330.7</ele>
        <time>2020-06-14T08:07:04.000Z</time>
      </trkpt>
      <trkpt lat="47.08296" lon="4.86289">
        <ele>329.5</ele>
        <time>2020-06-14T08:07:12.000Z</time>
      </trkpt>
      <trkpt lat="47.08295" lon="4.86276">
        <ele>328.4</ele>
        <time>2020-06-14T08:07:19.000Z</time>
      </trkpt>
      <trkpt lat="47.08294" lon="4.86262">
        <ele>326.5</ele>
        <time>2020-06-14T08:07:27.000Z</time>
      </trkpt>
      <trkpt lat="47.08295" lon="4.86247">
        <ele>324.9</ele>
        <time>2020-06-14T08:07:35.000Z</time>
      </trkpt>
      <trkpt lat="47.08295" lon="4.86233">
        <ele>323.4</ele>
        <time>2020-06-14T08:07:43.000Z</time>
      </trkpt>
      <trkpt lat="47.08296" lon="4.86219">
        <ele>321.9</ele>
        <time>2020-06-14T08:07:51.000Z</time>
      </trkpt>
      <trkpt lat="47.08297" lon="4.86205">
        <ele>319.8</ele>
        <time>2020-06-14T08:08:00.000Z</time>
      </trkpt>
      <trkpt lat="47.08299" lon="4.86191">
        <ele>317.9</ele>
        <time>2020-06-14T08:08:08.000Z</time>
      </trkpt>
      <trkpt lat="47.08301" lon="4.86177">
        <ele>316</ele>
        <time>2020-06-14T08:08:17.000Z</time>
      </trkpt>
      <trkpt lat="47.08303" lon="4.86164">
        <ele>314.5</ele>
        <time>2020-06-14T08:08:25.000Z</time>
      </trkpt>
      <trkpt lat="47.08305" lon="4.86151">
        <ele>313</ele>
        <time>2020-06-14T08:08:34.000Z</time>
      </trkpt>
      <trkpt lat="47.08308" lon="4.86138">
        <ele>311.4</ele>
        <time>2020-06-14T08:08:42.000Z</time>
      </trkpt>
      <trkpt lat="47.08311" lon="4.86124">
        <ele>310.2</ele>
        <time>2020-06-14T08:08:50.000Z</time>
      </trkpt>
      <trkpt lat="47.08316" lon="4.86111">
        <ele>308.2</ele>
        <time>2020-06-14T08:09:00.000Z</time>
      </trkpt>
      <trkpt lat="47.08316" lon="4.86097">
        <ele>305.7</ele>
        <time>2020-06-14T08:09:10.000Z</time>
      </trkpt>
      <trkpt lat="47.08311" lon="4.86084">
        <ele>303.4</ele>
        <time>2020-06-14T08:09:20.000Z</time>
      </trkpt>
      <trkpt lat="47.08303" lon="4.86077">
        <ele>301.7</ele>
        <time>2020-06-14T08:09:28.000Z</time>
      </trkpt>
      <trkpt lat="47.08294" lon="4.86069">
        <ele>299.8</ele>
        <time>2020-06-14T08:09:37.000Z</time>
      </trkpt>
      <trkpt lat="47.08289" lon="4.86057">
        <ele>298.3</ele>
        <time>2020-06-14T08:09:45.000Z</time>
      </trkpt>
      <trkpt lat="47.0829" lon="4.86044">
        <ele>297.5</ele>
        <time>2020-06-14T08:09:52.000Z</time>
      </trkpt>
      <trkpt lat="47.08294" lon="4.86031">
        <ele>297.1</ele>
        <time>2020-06-14T08:10:00.000Z</time>
      </trkpt>
      <trkpt lat="47.08302" lon="4.86025">
        <ele>297.7</ele>
        <time>2020-06-14T08:10:07.000Z</time>
      </trkpt>
      <trkpt lat="47.08305" lon="4.86023">
        <ele>298.5</ele>
        <time>2020-06-14T08:10:12.000Z</time>
      </trkpt>
      <trkpt lat="47.08305" lon="4.86022">
        <ele>298.6</ele>
        <time>2020-06-14T08:10:13.000Z</time>
      </trkpt>
      <trkpt lat="47.0831" lon="4.86011">
        <ele>299.6</ele>
        <time>2020-06-14T08:10:26.000Z</time>
      </trkpt>
      <trkpt lat="47.08318" lon="4.86002">
        <ele>300</ele>
        <time>2020-06-14T08:10:35.000Z</time>
      </trkpt>
      <trkpt lat="47.08327" lon="4.85996">
        <ele>301</ele>
        <time>2020-06-14T08:10:45.000Z</time>
      </trkpt>
      <trkpt lat="47.08334" lon="4.85987">
        <ele>301.9</ele>
        <time>2020-06-14T08:10:57.000Z</time>
      </trkpt>
      <trkpt lat="47.08341" lon="4.85978">
        <ele>302.4</ele>
        <time>2020-06-14T08:11:07.000Z</time>
      </trkpt>
      <trkpt lat="47.08347" lon="4.85967">
        <ele>303.5</ele>
        <time>2020-06-14T08:11:19.000Z</time>
      </trkpt>
      <trkpt lat="47.08353" lon="4.85956">
        <ele>304.7</ele>
        <time>2020-06-14T08:11:30.000Z</time>
      </trkpt>
      <trkpt lat="47.08358" lon="4.85946">
        <ele>305.6</ele>
        <time>2020-06-14T08:11:40.000Z</time>
      </trkpt>
      <trkpt lat="47.08364" lon="4.85934">
        <ele>306.5</ele>
        <time>2020-06-14T08:11:51.000Z</time>
      </trkpt>
      <trkpt lat="47.08369" lon="4.85923">
        <ele>307.7</ele>
        <time>2020-06-14T08:12:02.000Z</time>
      </trkpt>
      <trkpt lat="47.08375" lon="4.85913">
        <ele>308.7</ele>
        <time>2020-06-14T08:12:12.000Z</time>
      </trkpt>
      <trkpt lat="47.08381" lon="4.85902">
        <ele>309.4</ele>
        <time>2020-06-14T08:12:22.000Z</time>
      </trkpt>
      <trkpt lat="47.08388" lon="4.85891">
        <ele>310.3</ele>
        <time>2020-06-14T08:12:32.000Z</time>
      </trkpt>
      <trkpt lat="47.08393" lon="4.85879">
        <ele>311.5</ele>
        <time>2020-06-14T08:12:44.000Z</time>
      </trkpt>
      <trkpt lat="47.08397" lon="4.85866">
        <ele>312.6</ele>
        <time>2020-06-14T08:12:56.000Z</time>
      </trkpt>
      <trkpt lat="47.08401" lon="4.85854">
        <ele>313.8</ele>
        <time>2020-06-14T08:13:08.000Z</time>
      </trkpt>
      <trkpt lat="47.08405" lon="4.85841">
        <ele>314.7</ele>
        <time>2020-06-14T08:13:17.000Z</time>
      </trkpt>
      <trkpt lat="47.08408" lon="4.85828">
        <ele>315.8</ele>
        <time>2020-06-14T08:13:28.000Z</time>
      </trkpt>
      <trkpt lat="47.08411" lon="4.85815">
        <ele>316.8</ele>
        <time>2020-06-14T08:13:41.000Z</time>
      </trkpt>
      <trkpt lat="47.08414" lon="4.85802">
        <ele>318.3</ele>
        <time>2020-06-14T08:13:52.000Z</time>
      </trkpt>
      <trkpt lat="47.08419" lon="4.85791">
        <ele>319.3</ele>
        <time>2020-06-14T08:14:00.000Z</time>
      </trkpt>
      <trkpt lat="47.08425" lon="4.85779">
        <ele>320.1</ele>
        <time>2020-06-14T08:14:09.000Z</time>
      </trkpt>
      <trkpt lat="47.08429" lon="4.85767">
        <ele>321</ele>
        <time>2020-06-14T08:14:18.000Z</time>
      </trkpt>
      <trkpt lat="47.08433" lon="4.85755">
        <ele>321.7</ele>
        <time>2020-06-14T08:14:28.000Z</time>
      </trkpt>
      <trkpt lat="47.08436" lon="4.85742">
        <ele>323</ele>
        <time>2020-06-14T08:14:38.000Z</time>
      </trkpt>
      <trkpt lat="47.0844" lon="4.8573">
        <ele>324.2</ele>
        <time>2020-06-14T08:14:49.000Z</time>
      </trkpt>
      <trkpt lat="47.08445" lon="4.85718">
        <ele>325.1</ele>
        <time>2020-06-14T08:14:58.000Z</time>
      </trkpt>
      <trkpt lat="47.08446" lon="4.85704">
        <ele>326.4</ele>
        <time>2020-06-14T08:15:10.000Z</time>
      </trkpt>
      <trkpt lat="47.08445" lon="4.85691">
        <ele>328</ele>
        <time>2020-06-14T08:15:22.000Z</time>
      </trkpt>
      <trkpt lat="47.08446" lon="4.85677">
        <ele>329.1</ele>
        <time>2020-06-14T08:15:33.000Z</time>
      </trkpt>
      <trkpt lat="47.08449" lon="4.85662">
        <ele>330.3</ele>
        <time>2020-06-14T08:15:44.000Z</time>
      </trkpt>
      <trkpt lat="47.08451" lon="4.85649">
        <ele>331.2</ele>
        <time>2020-06-14T08:15:55.000Z</time>
      </trkpt>
      <trkpt lat="47.08453" lon="4.85635">
        <ele>332.8</ele>
        <time>2020-06-14T08:16:07.000Z</time>
      </trkpt>
      <trkpt lat="47.08458" lon="4.85623">
        <ele>333.3</ele>
        <time>2020-06-14T08:16:17.000Z</time>
      </trkpt>
      <trkpt lat="47.08463" lon="4.85612">
        <ele>334.4</ele>
        <time>2020-06-14T08:16:25.000Z</time>
      </trkpt>
      <trkpt lat="47.08463" lon="4.85598">
        <ele>335.4</ele>
        <time>2020-06-14T08:16:35.000Z</time>
      </trkpt>
      <trkpt lat="47.08465" lon="4.85585">
        <ele>336.7</ele>
        <time>2020-06-14T08:16:47.000Z</time>
      </trkpt>
      <trkpt lat="47.08469" lon="4.85572">
        <ele>337.4</ele>
        <time>2020-06-14T08:16:58.000Z</time>
      </trkpt>
      <trkpt lat="47.08472" lon="4.85558">
        <ele>338.8</ele>
        <time>2020-06-14T08:17:10.000Z</time>
      </trkpt>
      <trkpt lat="47.08478" lon="4.85546">
        <ele>339.4</ele>
        <time>2020-06-14T08:17:19.000Z</time>
      </trkpt>
      <trkpt lat="47.08481" lon="4.85533">
        <ele>340.5</ele>
        <time>2020-06-14T08:17:29.000Z</time>
      </trkpt>
      <trkpt lat="47.08485" lon="4.8552">
        <ele>341.6</ele>
        <time>2020-06-14T08:17:40.000Z</time>
      </trkpt>
      <trkpt lat="47.08488" lon="4.85506">
        <ele>342.8</ele>
        <time>2020-06-14T08:17:52.000Z</time>
      </trkpt>
      <trkpt lat="47.08494" lon="4.85496">
        <ele>343.6</ele>
        <time>2020-06-14T08:17:59.000Z</time>
      </trkpt>
      <trkpt lat="47.085" lon="4.85485">
        <ele>344.1</ele>
        <time>2020-06-14T08:18:07.000Z</time>
      </trkpt>
      <trkpt lat="47.08505" lon="4.85474">
        <ele>345.6</ele>
        <time>2020-06-14T08:18:16.000Z</time>
      </trkpt>
      <trkpt lat="47.08507" lon="4.8546">
        <ele>346.9</ele>
        <time>2020-06-14T08:18:29.000Z</time>
      </trkpt>
      <trkpt lat="47.08509" lon="4.85447">
        <ele>348.3</ele>
        <time>2020-06-14T08:18:40.000Z</time>
      </trkpt>
      <trkpt lat="47.08512" lon="4.85434">
        <ele>349</ele>
        <time>2020-06-14T08:18:51.000Z</time>
      </trkpt>
      <trkpt lat="47.08516" lon="4.85421">
        <ele>350</ele>
        <time>2020-06-14T08:19:00.000Z</time>
      </trkpt>
      <trkpt lat="47.08521" lon="4.85409">
        <ele>351.1</ele>
        <time>2020-06-14T08:19:09.000Z</time>
      </trkpt>
      <trkpt lat="47.08524" lon="4.85395">
        <ele>352.7</ele>
        <time>2020-06-14T08:19:22.000Z</time>
      </trkpt>
      <trkpt lat="47.08528" lon="4.85383">
        <ele>353.7</ele>
        <time>2020-06-14T08:19:31.000Z</time>
      </trkpt>
      <trkpt lat="47.08531" lon="4.85369">
        <ele>355</ele>
        <time>2020-06-14T08:19:43.000Z</time>
      </trkpt>
      <trkpt lat="47.08531" lon="4.85356">
        <ele>356.3</ele>
        <time>2020-06-14T08:19:56.000Z</time>
      </trkpt>
      <trkpt lat="47.08535" lon="4.85343">
        <ele>357.1</ele>
        <time>2020-06-14T08:20:06.000Z</time>
      </trkpt>
      <trkpt lat="47.08536" lon="4.8533">
        <ele>357.8</ele>
        <time>2020-06-14T08:20:14.000Z</time>
      </trkpt>
      <trkpt lat="47.08531" lon="4.85318">
        <ele>358.5</ele>
        <time>2020-06-14T08:20:25.000Z</time>
      </trkpt>
      <trkpt lat="47.08522" lon="4.85314">
        <ele>358.3</ele>
        <time>2020-06-14T08:20:33.000Z</time>
      </trkpt>
      <trkpt lat="47.08513" lon="4.85314">
        <ele>357.8</ele>
        <time>2020-06-14T08:20:41.000Z</time>
      </trkpt>
      <trkpt lat="47.08507" lon="4.85323">
        <ele>358.1</ele>
        <time>2020-06-14T08:20:55.000Z</time>
      </trkpt>
      <trkpt lat="47.08507" lon="4.85323">
        <ele>358</ele>
        <time>2020-06-14T08:20:56.000Z</time>
      </trkpt>
      <trkpt lat="47.08507" lon="4.85323">
        <ele>358.1</ele>
        <time>2020-06-14T08:20:57.000Z</time>
      </trkpt>
      <trkpt lat="47.08498" lon="4.85327">
        <ele>358.9</ele>
        <time>2020-06-14T08:21:12.000Z</time>
      </trkpt>
      <trkpt lat="47.08488" lon="4.85325">
        <ele>359.2</ele>
        <time>2020-06-14T08:21:23.000Z</time>
      </trkpt>
      <trkpt lat="47.08479" lon="4.85325">
        <ele>359.5</ele>
        <time>2020-06-14T08:21:35.000Z</time>
      </trkpt>
      <trkpt lat="47.08469" lon="4.85322">
        <ele>359.9</ele>
        <time>2020-06-14T08:21:48.000Z</time>
      </trkpt>
      <trkpt lat="47.08459" lon="4.85321">
        <ele>360.3</ele>
        <time>2020-06-14T08:21:55.000Z</time>
      </trkpt>
      <trkpt lat="47.0845" lon="4.85329">
        <ele>361.8</ele>
        <time>2020-06-14T08:22:02.000Z</time>
      </trkpt>
      <trkpt lat="47.08441" lon="4.85335">
        <ele>362.7</ele>
        <time>2020-06-14T08:22:08.000Z</time>
      </trkpt>
      <trkpt lat="47.08432" lon="4.85341">
        <ele>364</ele>
        <time>2020-06-14T08:22:17.000Z</time>
      </trkpt>
      <trkpt lat="47.08423" lon="4.85347">
        <ele>364.8</ele>
        <time>2020-06-14T08:22:27.000Z</time>
      </trkpt>
      <trkpt lat="47.08415" lon="4.85353">
        <ele>365.5</ele>
        <time>2020-06-14T08:22:37.000Z</time>
      </trkpt>
      <trkpt lat="47.08406" lon="4.85358">
        <ele>365.8</ele>
        <time>2020-06-14T08:22:44.000Z</time>
      </trkpt>
      <trkpt lat="47.08396" lon="4.85363">
        <ele>366.2</ele>
        <time>2020-06-14T08:22:52.000Z</time>
      </trkpt>
      <trkpt lat="47.08387" lon="4.85366">
        <ele>366.3</ele>
        <time>2020-06-14T08:22:59.000Z</time>
      </trkpt>
      <trkpt lat="47.08377" lon="4.85369">
        <ele>366.1</ele>
        <time>2020-06-14T08:23:04.000Z</time>
      </trkpt>
      <trkpt lat="47.08368" lon="4.85373">
        <ele>366.1</ele>
        <time>2020-06-14T08:23:12.000Z</time>
      </trkpt>
      <trkpt lat="47.08361" lon="4.85383">
        <ele>366.5</ele>
        <time>2020-06-14T08:23:23.000Z</time>
      </trkpt>
      <trkpt lat="47.08353" lon="4.8539">
        <ele>366.7</ele>
        <time>2020-06-14T08:23:32.000Z</time>
      </trkpt>
      <trkpt lat="47.08343" lon="4.85393">
        <ele>366.2</ele>
        <time>2020-06-14T08:23:42.000Z</time>
      </trkpt>
      <trkpt lat="47.08334" lon="4.85393">
        <ele>366.1</ele>
        <time>2020-06-14T08:23:51.000Z</time>
      </trkpt>
      <trkpt lat="47.08325" lon="4.85397">
        <ele>365.7</ele>
        <time>2020-06-14T08:24:02.000Z</time>
      </trkpt>
      <trkpt lat="47.08315" lon="4.85401">
        <ele>365.7</ele>
        <time>2020-06-14T08:24:10.000Z</time>
      </trkpt>
      <trkpt lat="47.08306" lon="4.85406">
        <ele>365.6</ele>
        <time>2020-06-14T08:24:20.000Z</time>
      </trkpt>
      <trkpt lat="47.08297" lon="4.85412">
        <ele>364.7</ele>
        <time>2020-06-14T08:24:28.000Z</time>
      </trkpt>
      <trkpt lat="47.0829" lon="4.85415">
        <ele>364.6</ele>
        <time>2020-06-14T08:24:36.000Z</time>
      </trkpt>
      <trkpt lat="47.0829" lon="4.85416">
        <ele>364.6</ele>
        <time>2020-06-14T08:24:52.000Z</time>
      </trkpt>
      <trkpt lat="47.08285" lon="4.85415">
        <ele>364.3</ele>
        <time>2020-06-14T08:25:02.000Z</time>
      </trkpt>
      <trkpt lat="47.08286" lon="4.85415">
        <ele>364.2</ele>
        <time>2020-06-14T08:25:04.000Z</time>
      </trkpt>
      <trkpt lat="47.08286" lon="4.85416">
        <ele>364.3</ele>
        <time>2020-06-14T08:25:07.000Z</time>
      </trkpt>
      <trkpt lat="47.08286" lon="4.85416">
        <ele>364.3</ele>
        <time>2020-06-14T08:25:08.000Z</time>
      </trkpt>
      <trkpt lat="47.08286" lon="4.85416">
        <ele>364.3</ele>
        <time>2020-06-14T08:25:09.000Z</time>
      </trkpt>
      <trkpt lat="47.08286" lon="4.85416">
        <ele>364.3</ele>
        <time>2020-06-14T08:25:10.000Z</time>
      </trkpt>
      <trkpt lat="47.08286" lon="4.85417">
        <ele>364.6</ele>
        <time>2020-06-14T08:25:16.000Z</time>
      </trkpt>
      <trkpt lat="47.08286" lon="4.85418">
        <ele>364.4</ele>
        <time>2020-06-14T08:25:21.000Z</time>
      </trkpt>
      <trkpt lat="47.08277" lon="4.8542">
        <ele>364</ele>
        <time>2020-06-14T08:25:33.000Z</time>
      </trkpt>
      <trkpt lat="47.08272" lon="4.8542">
        <ele>364.1</ele>
        <time>2020-06-14T08:25:41.000Z</time>
      </trkpt>
      <trkpt lat="47.08272" lon="4.8542">
        <ele>363.6</ele>
        <time>2020-06-14T08:25:55.000Z</time>
      </trkpt>
      <trkpt lat="47.08264" lon="4.85415">
        <ele>362.8</ele>
        <time>2020-06-14T08:26:07.000Z</time>
      </trkpt>
      <trkpt lat="47.08256" lon="4.85422">
        <ele>362.1</ele>
        <time>2020-06-14T08:26:26.000Z</time>
      </trkpt>
      <trkpt lat="47.08256" lon="4.85422">
        <ele>362.4</ele>
        <time>2020-06-14T08:26:40.000Z</time>
      </trkpt>
      <trkpt lat="47.08256" lon="4.85422">
        <ele>362.4</ele>
        <time>2020-06-14T08:26:41.000Z</time>
      </trkpt>
      <trkpt lat="47.08256" lon="4.85422">
        <ele>362.2</ele>
        <time>2020-06-14T08:26:54.000Z</time>
      </trkpt>
      <trkpt lat="47.08258" lon="4.8542">
        <ele>362.3</ele>
        <time>2020-06-14T08:27:00.000Z</time>
      </trkpt>
      <trkpt lat="47.08258" lon="4.8542">
        <ele>362.4</ele>
        <time>2020-06-14T08:27:01.000Z</time>
      </trkpt>
      <trkpt lat="47.08258" lon="4.8542">
        <ele>362.5</ele>
        <time>2020-06-14T08:27:03.000Z</time>
      </trkpt>
      <trkpt lat="47.08258" lon="4.85419">
        <ele>362.5</ele>
        <time>2020-06-14T08:27:13.000Z</time>
      </trkpt>
      <trkpt lat="47.08264" lon="4.85411">
        <ele>363.3</ele>
        <time>2020-06-14T08:27:27.000Z</time>
      </trkpt>
      <trkpt lat="47.08263" lon="4.85412">
        <ele>363.3</ele>
        <time>2020-06-14T08:27:29.000Z</time>
      </trkpt>
      <trkpt lat="47.08271" lon="4.85404">
        <ele>362.4</ele>
        <time>2020-06-14T08:27:43.000Z</time>
      </trkpt>
      <trkpt lat="47.08269" lon="4.854">
        <ele>361.2</ele>
        <time>2020-06-14T08:27:53.000Z</time>
      </trkpt>
      <trkpt lat="47.08269" lon="4.854">
        <ele>360.9</ele>
        <time>2020-06-14T08:28:03.000Z</time>
      </trkpt>
      <trkpt lat="47.08269" lon="4.854">
        <ele>361.1</ele>
        <time>2020-06-14T08:28:09.000Z</time>
      </trkpt>
      <trkpt lat="47.08269" lon="4.854">
        <ele>361.1</ele>
        <time>2020-06-14T08:28:11.000Z</time>
      </trkpt>
      <trkpt lat="47.08267" lon="4.854">
        <ele>361.1</ele>
        <time>2020-06-14T08:28:17.000Z</time>
      </trkpt>
      <trkpt lat="47.08267" lon="4.854">
        <ele>361</ele>
        <time>2020-06-14T08:28:18.000Z</time>
      </trkpt>
      <trkpt lat="47.08267" lon="4.854">
        <ele>360.9</ele>
        <time>2020-06-14T08:28:20.000Z</time>
      </trkpt>
      <trkpt lat="47.08267" lon="4.854">
        <ele>360.8</ele>
        <time>2020-06-14T08:28:21.000Z</time>
      </trkpt>
      <trkpt lat="47.08271" lon="4.85405">
        <ele>362.1</ele>
        <time>2020-06-14T08:28:32.000Z</time>
      </trkpt>
      <trkpt lat="47.08271" lon="4.85404">
        <ele>362</ele>
        <time>2020-06-14T08:30:06.000Z</time>
      </trkpt>
      <trkpt lat="47.08271" lon="4.85404">
        <ele>361.9</ele>
        <time>2020-06-14T08:30:07.000Z</time>
      </trkpt>
      <trkpt lat="47.08271" lon="4.85404">
        <ele>362</ele>
        <time>2020-06-14T08:30:17.000Z</time>
      </trkpt>
      <trkpt lat="47.08278" lon="4.85394">
        <ele>360.9</ele>
        <time>2020-06-14T08:30:27.000Z</time>
      </trkpt>
      <trkpt lat="47.08279" lon="4.85381">
        <ele>358.6</ele>
        <time>2020-06-14T08:30:48.000Z</time>
      </trkpt>
      <trkpt lat="47.08286" lon="4.85373">
        <ele>356.9</ele>
        <time>2020-06-14T08:30:58.000Z</time>
      </trkpt>
      <trkpt lat="47.08295" lon="4.85368">
        <ele>356.4</ele>
        <time>2020-06-14T08:31:07.000Z</time>
      </trkpt>
      <trkpt lat="47.08305" lon="4.85361">
        <ele>355.9</ele>
        <time>2020-06-14T08:31:16.000Z</time>
      </trkpt>
      <trkpt lat="47.08314" lon="4.85354">
        <ele>354.6</ele>
        <time>2020-06-14T08:31:25.000Z</time>
      </trkpt>
      <trkpt lat="47.08321" lon="4.85346">
        <ele>353.4</ele>
        <time>2020-06-14T08:31:35.000Z</time>
      </trkpt>
      <trkpt lat="47.08327" lon="4.85335">
        <ele>352.8</ele>
        <time>2020-06-14T08:31:42.000Z</time>
      </trkpt>
      <trkpt lat="47.08332" lon="4.85322">
        <ele>351.4</ele>
        <time>2020-06-14T08:31:51.000Z</time>
      </trkpt>
      <trkpt lat="47.08338" lon="4.85311">
        <ele>350.3</ele>
        <time>2020-06-14T08:31:57.000Z</time>
      </trkpt>
      <trkpt lat="47.08342" lon="4.85298">
        <ele>349.4</ele>
        <time>2020-06-14T08:32:04.000Z</time>
      </trkpt>
      <trkpt lat="47.08337" lon="4.85285">
        <ele>346.6</ele>
        <time>2020-06-14T08:32:15.000Z</time>
      </trkpt>
      <trkpt lat="47.08329" lon="4.85277">
        <ele>344.3</ele>
        <time>2020-06-14T08:32:24.000Z</time>
      </trkpt>
      <trkpt lat="47.08321" lon="4.8527">
        <ele>341.7</ele>
        <time>2020-06-14T08:32:34.000Z</time>
      </trkpt>
      <trkpt lat="47.08312" lon="4.85264">
        <ele>339.2</ele>
        <time>2020-06-14T08:32:45.000Z</time>
      </trkpt>
      <trkpt lat="47.08303" lon="4.8526">
        <ele>337.5</ele>
        <time>2020-06-14T08:32:55.000Z</time>
      </trkpt>
      <trkpt lat="47.08292" lon="4.85258">
        <ele>336.3</ele>
        <time>2020-06-14T08:33:02.000Z</time>
      </trkpt>
      <trkpt lat="47.08298" lon="4.85247">
        <ele>334.4</ele>
        <time>2020-06-14T08:33:26.000Z</time>
      </trkpt>
      <trkpt lat="47.08306" lon="4.85241">
        <ele>334.4</ele>
        <time>2020-06-14T08:33:34.000Z</time>
      </trkpt>
      <trkpt lat="47.08315" lon="4.85234">
        <ele>335.3</ele>
        <time>2020-06-14T08:33:42.000Z</time>
      </trkpt>
      <trkpt lat="47.08324" lon="4.85229">
        <ele>336</ele>
        <time>2020-06-14T08:33:51.000Z</time>
      </trkpt>
      <trkpt lat="47.08333" lon="4.85223">
        <ele>336.1</ele>
        <time>2020-06-14T08:34:01.000Z</time>
      </trkpt>
      <trkpt lat="47.08333" lon="4.85222">
        <ele>336</ele>
        <time>2020-06-14T08:34:05.000Z</time>
      </trkpt>
      <trkpt lat="47.08333" lon="4.85222">
        <ele>336.7</ele>
        <time>2020-06-14T08:34:27.000Z</time>
      </trkpt>
      <trkpt lat="47.08342" lon="4.85217">
        <ele>336.6</ele>
        <time>2020-06-14T08:34:37.000Z</time>
      </trkpt>
      <trkpt lat="47.08351" lon="4.85212">
        <ele>336.5</ele>
        <time>2020-06-14T08:34:52.000Z</time>
      </trkpt>
      <trkpt lat="47.08359" lon="4.85207">
        <ele>336.9</ele>
        <time>2020-06-14T08:35:00.000Z</time>
      </trkpt>
      <trkpt lat="47.08367" lon="4.85202">
        <ele>336.4</ele>
        <time>2020-06-14T08:35:11.000Z</time>
      </trkpt>
      <trkpt lat="47.08367" lon="4.85202">
        <ele>336.3</ele>
        <time>2020-06-14T08:35:51.000Z</time>
      </trkpt>
      <trkpt lat="47.08367" lon="4.85202">
        <ele>335.8</ele>
        <time>2020-06-14T08:35:52.000Z</time>
      </trkpt>
      <trkpt lat="47.08367" lon="4.85202">
        <ele>337.2</ele>
        <time>2020-06-14T08:36:01.000Z</time>
      </trkpt>
      <trkpt lat="47.08367" lon="4.85201">
        <ele>336.7</ele>
        <time>2020-06-14T08:36:03.000Z</time>
      </trkpt>
      <trkpt lat="47.08367" lon="4.85201">
        <ele>336.9</ele>
        <time>2020-06-14T08:36:21.000Z</time>
      </trkpt>
      <trkpt lat="47.08368" lon="4.85201">
        <ele>336.9</ele>
        <time>2020-06-14T08:36:26.000Z</time>
      </trkpt>
      <trkpt lat="47.08369" lon="4.852">
        <ele>336.9</ele>
        <time>2020-06-14T08:36:28.000Z</time>
      </trkpt>
      <trkpt lat="47.08369" lon="4.852">
        <ele>337.1</ele>
        <time>2020-06-14T08:36:33.000Z</time>
      </trkpt>
      <trkpt lat="47.08369" lon="4.852">
        <ele>337.1</ele>
        <time>2020-06-14T08:36:36.000Z</time>
      </trkpt>
      <trkpt lat="47.08369" lon="4.85199">
        <ele>337</ele>
        <time>2020-06-14T08:36:42.000Z</time>
      </trkpt>
      <trkpt lat="47.0837" lon="4.85199">
        <ele>337.2</ele>
        <time>2020-06-14T08:36:45.000Z</time>
      </trkpt>
      <trkpt lat="47.0837" lon="4.85199">
        <ele>336.9</ele>
        <time>2020-06-14T08:36:50.000Z</time>
      </trkpt>
      <trkpt lat="47.0837" lon="4.85199">
        <ele>337.1</ele>
        <time>2020-06-14T08:36:55.000Z</time>
      </trkpt>
      <trkpt lat="47.0837" lon="4.85199">
        <ele>337.1</ele>
        <time>2020-06-14T08:36:57.000Z</time>
      </trkpt>
      <trkpt lat="47.0837" lon="4.85199">
        <ele>336.8</ele>
        <time>2020-06-14T08:37:00.000Z</time>
      </trkpt>
      <trkpt lat="47.0837" lon="4.85199">
        <ele>336.9</ele>
        <time>2020-06-14T08:37:01.000Z</time>
      </trkpt>
      <trkpt lat="47.0837" lon="4.85199">
        <ele>337</ele>
        <time>2020-06-14T08:37:02.000Z</time>
      </trkpt>
      <trkpt lat="47.0837" lon="4.85199">
        <ele>337.1</ele>
        <time>2020-06-14T08:37:05.000Z</time>
      </trkpt>
      <trkpt lat="47.0837" lon="4.85199">
        <ele>337</ele>
        <time>2020-06-14T08:37:07.000Z</time>
      </trkpt>
      <trkpt lat="47.0837" lon="4.85199">
        <ele>337.1</ele>
        <time>2020-06-14T08:37:08.000Z</time>
      </trkpt>
      <trkpt lat="47.0837" lon="4.85199">
        <ele>337.1</ele>
        <time>2020-06-14T08:37:24.000Z</time>
      </trkpt>
      <trkpt lat="47.0837" lon="4.85199">
        <ele>337.2</ele>
        <time>2020-06-14T08:37:26.000Z</time>
      </trkpt>
      <trkpt lat="47.0837" lon="4.85199">
        <ele>335.9</ele>
        <time>2020-06-14T08:37:27.000Z</time>
      </trkpt>
      <trkpt lat="47.0837" lon="4.85199">
        <ele>337</ele>
        <time>2020-06-14T08:37:28.000Z</time>
      </trkpt>
      <trkpt lat="47.0837" lon="4.85199">
        <ele>337.6</ele>
        <time>2020-06-14T08:37:29.000Z</time>
      </trkpt>
      <trkpt lat="47.0837" lon="4.85199">
        <ele>338.4</ele>
        <time>2020-06-14T08:37:30.000Z</time>
      </trkpt>
      <trkpt lat="47.0837" lon="4.85199">
        <ele>337.1</ele>
        <time>2020-06-14T08:37:32.000Z</time>
      </trkpt>
      <trkpt lat="47.08372" lon="4.85198">
        <ele>338.3</ele>
        <time>2020-06-14T08:37:41.000Z</time>
      </trkpt>
      <trkpt lat="47.08372" lon="4.85198">
        <ele>337.6</ele>
        <time>2020-06-14T08:37:43.000Z</time>
      </trkpt>
      <trkpt lat="47.08372" lon="4.85198">
        <ele>337.3</ele>
        <time>2020-06-14T08:37:44.000Z</time>
      </trkpt>
      <trkpt lat="47.08372" lon="4.85198">
        <ele>337</ele>
        <time>2020-06-14T08:37:45.000Z</time>
      </trkpt>
      <trkpt lat="47.08381" lon="4.85195">
        <ele>337.2</ele>
        <time>2020-06-14T08:37:58.000Z</time>
      </trkpt>
      <trkpt lat="47.0839" lon="4.8519">
        <ele>337.7</ele>
        <time>2020-06-14T08:38:07.000Z</time>
      </trkpt>
      <trkpt lat="47.08399" lon="4.85185">
        <ele>337.7</ele>
        <time>2020-06-14T08:38:15.000Z</time>
      </trkpt>
      <trkpt lat="47.08401" lon="4.85184">
        <ele>337.7</ele>
        <time>2020-06-14T08:38:21.000Z</time>
      </trkpt>
      <trkpt lat="47.08401" lon="4.85183">
        <ele>337.7</ele>
        <time>2020-06-14T08:38:41.000Z</time>
      </trkpt>
      <trkpt lat="47.08401" lon="4.85183">
        <ele>337.8</ele>
        <time>2020-06-14T08:38:44.000Z</time>
      </trkpt>
      <trkpt lat="47.08402" lon="4.85182">
        <ele>337.8</ele>
        <time>2020-06-14T08:38:45.000Z</time>
      </trkpt>
      <trkpt lat="47.08402" lon="4.85182">
        <ele>337.5</ele>
        <time>2020-06-14T08:38:47.000Z</time>
      </trkpt>
      <trkpt lat="47.08402" lon="4.85182">
        <ele>337.4</ele>
        <time>2020-06-14T08:38:49.000Z</time>
      </trkpt>
      <trkpt lat="47.08402" lon="4.85182">
        <ele>337.7</ele>
        <time>2020-06-14T08:38:50.000Z</time>
      </trkpt>
      <trkpt lat="47.08402" lon="4.85181">
        <ele>338</ele>
        <time>2020-06-14T08:38:52.000Z</time>
      </trkpt>
      <trkpt lat="47.08402" lon="4.85181">
        <ele>337.9</ele>
        <time>2020-06-14T08:38:53.000Z</time>
      </trkpt>
      <trkpt lat="47.08402" lon="4.85181">
        <ele>337.9</ele>
        <time>2020-06-14T08:38:57.000Z</time>
      </trkpt>
      <trkpt lat="47.08402" lon="4.85181">
        <ele>337.9</ele>
        <time>2020-06-14T08:38:58.000Z</time>
      </trkpt>
      <trkpt lat="47.08403" lon="4.85181">
        <ele>337.8</ele>
        <time>2020-06-14T08:38:59.000Z</time>
      </trkpt>
      <trkpt lat="47.08403" lon="4.8518">
        <ele>337.6</ele>
        <time>2020-06-14T08:39:02.000Z</time>
      </trkpt>
      <trkpt lat="47.08403" lon="4.8518">
        <ele>337.6</ele>
        <time>2020-06-14T08:39:04.000Z</time>
      </trkpt>
      <trkpt lat="47.08403" lon="4.8518">
        <ele>337.6</ele>
        <time>2020-06-14T08:39:05.000Z</time>
      </trkpt>
      <trkpt lat="47.08403" lon="4.8518">
        <ele>338.1</ele>
        <time>2020-06-14T08:39:12.000Z</time>
      </trkpt>
      <trkpt lat="47.08403" lon="4.8518">
        <ele>337.8</ele>
        <time>2020-06-14T08:39:13.000Z</time>
      </trkpt>
      <trkpt lat="47.08403" lon="4.85179">
        <ele>337.7</ele>
        <time>2020-06-14T08:39:16.000Z</time>
      </trkpt>
      <trkpt lat="47.08403" lon="4.85179">
        <ele>337.6</ele>
        <time>2020-06-14T08:39:17.000Z</time>
      </trkpt>
      <trkpt lat="47.08403" lon="4.85179">
        <ele>337.7</ele>
        <time>2020-06-14T08:39:20.000Z</time>
      </trkpt>
      <trkpt lat="47.08403" lon="4.85179">
        <ele>337.7</ele>
        <time>2020-06-14T08:39:22.000Z</time>
      </trkpt>
      <trkpt lat="47.08403" lon="4.85178">
        <ele>337.1</ele>
        <time>2020-06-14T08:42:31.000Z</time>
      </trkpt>
      <trkpt lat="47.08412" lon="4.85174">
        <ele>337.1</ele>
        <time>2020-06-14T08:42:40.000Z</time>
      </trkpt>
      <trkpt lat="47.08421" lon="4.85169">
        <ele>337.2</ele>
        <time>2020-06-14T08:42:47.000Z</time>
      </trkpt>
      <trkpt lat="47.0843" lon="4.85164">
        <ele>336.9</ele>
        <time>2020-06-14T08:42:54.000Z</time>
      </trkpt>
      <trkpt lat="47.08439" lon="4.85159">
        <ele>336.5</ele>
        <time>2020-06-14T08:43:03.000Z</time>
      </trkpt>
      <trkpt lat="47.08448" lon="4.85152">
        <ele>336.8</ele>
        <time>2020-06-14T08:43:11.000Z</time>
      </trkpt>
      <trkpt lat="47.08457" lon="4.85146">
        <ele>337.2</ele>
        <time>2020-06-14T08:43:19.000Z</time>
      </trkpt>
      <trkpt lat="47.08464" lon="4.85138">
        <ele>337.3</ele>
        <time>2020-06-14T08:43:28.000Z</time>
      </trkpt>
      <trkpt lat="47.08473" lon="4.85131">
        <ele>337.9</ele>
        <time>2020-06-14T08:43:37.000Z</time>
      </trkpt>
      <trkpt lat="47.08481" lon="4.85124">
        <ele>337.9</ele>
        <time>2020-06-14T08:43:44.000Z</time>
      </trkpt>
      <trkpt lat="47.08489" lon="4.85116">
        <ele>338.6</ele>
        <time>2020-06-14T08:43:51.000Z</time>
      </trkpt>
      <trkpt lat="47.08497" lon="4.85109">
        <ele>339.1</ele>
        <time>2020-06-14T08:43:59.000Z</time>
      </trkpt>
      <trkpt lat="47.08505" lon="4.85101">
        <ele>339.4</ele>
        <time>2020-06-14T08:44:07.000Z</time>
      </trkpt>
      <trkpt lat="47.08512" lon="4.85091">
        <ele>339.6</ele>
        <time>2020-06-14T08:44:15.000Z</time>
      </trkpt>
      <trkpt lat="47.08519" lon="4.85082">
        <ele>339.2</ele>
        <time>2020-06-14T08:44:23.000Z</time>
      </trkpt>
      <trkpt lat="47.08526" lon="4.85072">
        <ele>339.1</ele>
        <time>2020-06-14T08:44:32.000Z</time>
      </trkpt>
      <trkpt lat="47.08533" lon="4.85062">
        <ele>339.1</ele>
        <time>2020-06-14T08:44:39.000Z</time>
      </trkpt>
      <trkpt lat="47.0854" lon="4.85051">
        <ele>339.6</ele>
        <time>2020-06-14T08:44:47.000Z</time>
      </trkpt>
      <trkpt lat="47.08547" lon="4.85042">
        <ele>339.6</ele>
        <time>2020-06-14T08:44:54.000Z</time>
      </trkpt>
      <trkpt lat="47.08554" lon="4.85033">
        <ele>339.2</ele>
        <time>2020-06-14T08:45:02.000Z</time>
      </trkpt>
      <trkpt lat="47.08563" lon="4.85026">
        <ele>338.9</ele>
        <time>2020-06-14T08:45:10.000Z</time>
      </trkpt>
      <trkpt lat="47.08571" lon="4.85019">
        <ele>338.8</ele>
        <time>2020-06-14T08:45:18.000Z</time>
      </trkpt>
      <trkpt lat="47.08579" lon="4.85011">
        <ele>339.2</ele>
        <time>2020-06-14T08:45:26.000Z</time>
      </trkpt>
      <trkpt lat="47.08587" lon="4.85004">
        <ele>339.3</ele>
        <time>2020-06-14T08:45:34.000Z</time>
      </trkpt>
      <trkpt lat="47.08595" lon="4.84997">
        <ele>339.6</ele>
        <time>2020-06-14T08:45:41.000Z</time>
      </trkpt>
      <trkpt lat="47.08603" lon="4.84988">
        <ele>339.4</ele>
        <time>2020-06-14T08:45:49.000Z</time>
      </trkpt>
      <trkpt lat="47.08612" lon="4.8498">
        <ele>339.6</ele>
        <time>2020-06-14T08:45:57.000Z</time>
      </trkpt>
      <trkpt lat="47.08619" lon="4.84971">
        <ele>339.6</ele>
        <time>2020-06-14T08:46:04.000Z</time>
      </trkpt>
      <trkpt lat="47.08628" lon="4.84965">
        <ele>339.6</ele>
        <time>2020-06-14T08:46:12.000Z</time>
      </trkpt>
      <trkpt lat="47.08637" lon="4.84961">
        <ele>340.3</ele>
        <time>2020-06-14T08:46:21.000Z</time>
      </trkpt>
      <trkpt lat="47.08647" lon="4.84958">
        <ele>341.3</ele>
        <time>2020-06-14T08:46:30.000Z</time>
      </trkpt>
      <trkpt lat="47.08656" lon="4.84953">
        <ele>341.8</ele>
        <time>2020-06-14T08:46:38.000Z</time>
      </trkpt>
      <trkpt lat="47.08664" lon="4.84949">
        <ele>342.6</ele>
        <time>2020-06-14T08:46:46.000Z</time>
      </trkpt>
      <trkpt lat="47.08674" lon="4.84944">
        <ele>343.7</ele>
        <time>2020-06-14T08:47:00.000Z</time>
      </trkpt>
      <trkpt lat="47.08683" lon="4.84941">
        <ele>344</ele>
        <time>2020-06-14T08:47:08.000Z</time>
      </trkpt>
      <trkpt lat="47.08692" lon="4.84936">
        <ele>344.4</ele>
        <time>2020-06-14T08:47:15.000Z</time>
      </trkpt>
      <trkpt lat="47.08701" lon="4.84932">
        <ele>345.1</ele>
        <time>2020-06-14T08:47:24.000Z</time>
      </trkpt>
      <trkpt lat="47.0871" lon="4.84928">
        <ele>345.3</ele>
        <time>2020-06-14T08:47:32.000Z</time>
      </trkpt>
      <trkpt lat="47.08719" lon="4.84922">
        <ele>345.5</ele>
        <time>2020-06-14T08:47:39.000Z</time>
      </trkpt>
      <trkpt lat="47.08728" lon="4.84918">
        <ele>345.8</ele>
        <time>2020-06-14T08:47:47.000Z</time>
      </trkpt>
      <trkpt lat="47.08738" lon="4.84914">
        <ele>345.9</ele>
        <time>2020-06-14T08:47:54.000Z</time>
      </trkpt>
      <trkpt lat="47.08748" lon="4.8491">
        <ele>346.3</ele>
        <time>2020-06-14T08:48:01.000Z</time>
      </trkpt>
      <trkpt lat="47.08757" lon="4.84907">
        <ele>346.4</ele>
        <time>2020-06-14T08:48:09.000Z</time>
      </trkpt>
      <trkpt lat="47.08766" lon="4.84904">
        <ele>346.7</ele>
        <time>2020-06-14T08:48:18.000Z</time>
      </trkpt>
      <trkpt lat="47.08776" lon="4.849">
        <ele>346.5</ele>
        <time>2020-06-14T08:48:27.000Z</time>
      </trkpt>
      <trkpt lat="47.08786" lon="4.84898">
        <ele>346.8</ele>
        <time>2020-06-14T08:48:36.000Z</time>
      </trkpt>
      <trkpt lat="47.08796" lon="4.84895">
        <ele>346.8</ele>
        <time>2020-06-14T08:48:44.000Z</time>
      </trkpt>
      <trkpt lat="47.08805" lon="4.84892">
        <ele>347</ele>
        <time>2020-06-14T08:48:50.000Z</time>
      </trkpt>
      <trkpt lat="47.08814" lon="4.84889">
        <ele>346.6</ele>
        <time>2020-06-14T08:48:58.000Z</time>
      </trkpt>
      <trkpt lat="47.08823" lon="4.84887">
        <ele>346.4</ele>
        <time>2020-06-14T08:49:05.000Z</time>
      </trkpt>
      <trkpt lat="47.08833" lon="4.84886">
        <ele>346.1</ele>
        <time>2020-06-14T08:49:13.000Z</time>
      </trkpt>
      <trkpt lat="47.08842" lon="4.84884">
        <ele>346.4</ele>
        <time>2020-06-14T08:49:20.000Z</time>
      </trkpt>
      <trkpt lat="47.08851" lon="4.84886">
        <ele>346.5</ele>
        <time>2020-06-14T08:49:29.000Z</time>
      </trkpt>
      <trkpt lat="47.0886" lon="4.84889">
        <ele>346.3</ele>
        <time>2020-06-14T08:49:39.000Z</time>
      </trkpt>
      <trkpt lat="47.0887" lon="4.84889">
        <ele>346.7</ele>
        <time>2020-06-14T08:49:48.000Z</time>
      </trkpt>
      <trkpt lat="47.0888" lon="4.84888">
        <ele>347</ele>
        <time>2020-06-14T08:49:56.000Z</time>
      </trkpt>
      <trkpt lat="47.0889" lon="4.84886">
        <ele>347.4</ele>
        <time>2020-06-14T08:50:04.000Z</time>
      </trkpt>
      <trkpt lat="47.08899" lon="4.84884">
        <ele>347.3</ele>
        <time>2020-06-14T08:50:11.000Z</time>
      </trkpt>
      <trkpt lat="47.08908" lon="4.84881">
        <ele>347.8</ele>
        <time>2020-06-14T08:50:19.000Z</time>
      </trkpt>
      <trkpt lat="47.08918" lon="4.8488">
        <ele>348.2</ele>
        <time>2020-06-14T08:50:28.000Z</time>
      </trkpt>
      <trkpt lat="47.08927" lon="4.84878">
        <ele>348.9</ele>
        <time>2020-06-14T08:50:37.000Z</time>
      </trkpt>
      <trkpt lat="47.08937" lon="4.84876">
        <ele>349.5</ele>
        <time>2020-06-14T08:50:46.000Z</time>
      </trkpt>
      <trkpt lat="47.08946" lon="4.84873">
        <ele>349.7</ele>
        <time>2020-06-14T08:50:56.000Z</time>
      </trkpt>
      <trkpt lat="47.08955" lon="4.8487">
        <ele>350.3</ele>
        <time>2020-06-14T08:51:05.000Z</time>
      </trkpt>
      <trkpt lat="47.08964" lon="4.84867">
        <ele>350.3</ele>
        <time>2020-06-14T08:51:13.000Z</time>
      </trkpt>
      <trkpt lat="47.08974" lon="4.84865">
        <ele>350.8</ele>
        <time>2020-06-14T08:51:21.000Z</time>
      </trkpt>
      <trkpt lat="47.08984" lon="4.84863">
        <ele>351.3</ele>
        <time>2020-06-14T08:51:29.000Z</time>
      </trkpt>
      <trkpt lat="47.08993" lon="4.8486">
        <ele>351.8</ele>
        <time>2020-06-14T08:51:35.000Z</time>
      </trkpt>
      <trkpt lat="47.09003" lon="4.84858">
        <ele>352</ele>
        <time>2020-06-14T08:51:43.000Z</time>
      </trkpt>
      <trkpt lat="47.09012" lon="4.84857">
        <ele>352.3</ele>
        <time>2020-06-14T08:51:51.000Z</time>
      </trkpt>
      <trkpt lat="47.09021" lon="4.84855">
        <ele>353</ele>
        <time>2020-06-14T08:51:59.000Z</time>
      </trkpt>
      <trkpt lat="47.09031" lon="4.84853">
        <ele>353.1</ele>
        <time>2020-06-14T08:52:08.000Z</time>
      </trkpt>
      <trkpt lat="47.0904" lon="4.8485">
        <ele>353.7</ele>
        <time>2020-06-14T08:52:15.000Z</time>
      </trkpt>
      <trkpt lat="47.09049" lon="4.84848">
        <ele>353.7</ele>
        <time>2020-06-14T08:52:22.000Z</time>
      </trkpt>
      <trkpt lat="47.09059" lon="4.84847">
        <ele>354</ele>
        <time>2020-06-14T08:52:30.000Z</time>
      </trkpt>
      <trkpt lat="47.09069" lon="4.84843">
        <ele>354.6</ele>
        <time>2020-06-14T08:52:38.000Z</time>
      </trkpt>
      <trkpt lat="47.09078" lon="4.84841">
        <ele>354.9</ele>
        <time>2020-06-14T08:52:44.000Z</time>
      </trkpt>
      <trkpt lat="47.09088" lon="4.84841">
        <ele>355.4</ele>
        <time>2020-06-14T08:52:51.000Z</time>
      </trkpt>
      <trkpt lat="47.09098" lon="4.8484">
        <ele>355.7</ele>
        <time>2020-06-14T08:52:59.000Z</time>
      </trkpt>
      <trkpt lat="47.09108" lon="4.84841">
        <ele>355.9</ele>
        <time>2020-06-14T08:53:07.000Z</time>
      </trkpt>
      <trkpt lat="47.09117" lon="4.84843">
        <ele>356.6</ele>
        <time>2020-06-14T08:53:15.000Z</time>
      </trkpt>
      <trkpt lat="47.09127" lon="4.84848">
        <ele>357.9</ele>
        <time>2020-06-14T08:53:27.000Z</time>
      </trkpt>
      <trkpt lat="47.09136" lon="4.8485">
        <ele>358.8</ele>
        <time>2020-06-14T08:53:36.000Z</time>
      </trkpt>
      <trkpt lat="47.09145" lon="4.84855">
        <ele>359.8</ele>
        <time>2020-06-14T08:53:47.000Z</time>
      </trkpt>
      <trkpt lat="47.09154" lon="4.84858">
        <ele>360.9</ele>
        <time>2020-06-14T08:53:56.000Z</time>
      </trkpt>
      <trkpt lat="47.09164" lon="4.84861">
        <ele>361.8</ele>
        <time>2020-06-14T08:54:06.000Z</time>
      </trkpt>
      <trkpt lat="47.09173" lon="4.84865">
        <ele>362.5</ele>
        <time>2020-06-14T08:54:15.000Z</time>
      </trkpt>
      <trkpt lat="47.09182" lon="4.84869">
        <ele>363.5</ele>
        <time>2020-06-14T08:54:25.000Z</time>
      </trkpt>
      <trkpt lat="47.09191" lon="4.8487">
        <ele>364</ele>
        <time>2020-06-14T08:54:32.000Z</time>
      </trkpt>
      <trkpt lat="47.09201" lon="4.84872">
        <ele>364.7</ele>
        <time>2020-06-14T08:54:41.000Z</time>
      </trkpt>
      <trkpt lat="47.09211" lon="4.84874">
        <ele>365.5</ele>
        <time>2020-06-14T08:54:50.000Z</time>
      </trkpt>
      <trkpt lat="47.0922" lon="4.84875">
        <ele>366.2</ele>
        <time>2020-06-14T08:54:58.000Z</time>
      </trkpt>
      <trkpt lat="47.0923" lon="4.84875">
        <ele>366.8</ele>
        <time>2020-06-14T08:55:06.000Z</time>
      </trkpt>
      <trkpt lat="47.09239" lon="4.84875">
        <ele>366.7</ele>
        <time>2020-06-14T08:55:14.000Z</time>
      </trkpt>
      <trkpt lat="47.09249" lon="4.84874">
        <ele>366.8</ele>
        <time>2020-06-14T08:55:23.000Z</time>
      </trkpt>
      <trkpt lat="47.09259" lon="4.84873">
        <ele>367.1</ele>
        <time>2020-06-14T08:55:30.000Z</time>
      </trkpt>
      <trkpt lat="47.09269" lon="4.84873">
        <ele>367.4</ele>
        <time>2020-06-14T08:55:37.000Z</time>
      </trkpt>
      <trkpt lat="47.09278" lon="4.84872">
        <ele>367.8</ele>
        <time>2020-06-14T08:55:44.000Z</time>
      </trkpt>
      <trkpt lat="47.09288" lon="4.84872">
        <ele>368</ele>
        <time>2020-06-14T08:55:52.000Z</time>
      </trkpt>
      <trkpt lat="47.09298" lon="4.84872">
        <ele>368.4</ele>
        <time>2020-06-14T08:56:00.000Z</time>
      </trkpt>
      <trkpt lat="47.09307" lon="4.84871">
        <ele>368.7</ele>
        <time>2020-06-14T08:56:08.000Z</time>
      </trkpt>
      <trkpt lat="47.09317" lon="4.84871">
        <ele>368.6</ele>
        <time>2020-06-14T08:56:16.000Z</time>
      </trkpt>
      <trkpt lat="47.09326" lon="4.84871">
        <ele>369.2</ele>
        <time>2020-06-14T08:56:27.000Z</time>
      </trkpt>
      <trkpt lat="47.09336" lon="4.84871">
        <ele>369.3</ele>
        <time>2020-06-14T08:56:35.000Z</time>
      </trkpt>
      <trkpt lat="47.09345" lon="4.8487">
        <ele>369.4</ele>
        <time>2020-06-14T08:56:42.000Z</time>
      </trkpt>
      <trkpt lat="47.09355" lon="4.8487">
        <ele>370.2</ele>
        <time>2020-06-14T08:56:49.000Z</time>
      </trkpt>
      <trkpt lat="47.09365" lon="4.8487">
        <ele>370.8</ele>
        <time>2020-06-14T08:56:57.000Z</time>
      </trkpt>
      <trkpt lat="47.09375" lon="4.84871">
        <ele>371</ele>
        <time>2020-06-14T08:57:05.000Z</time>
      </trkpt>
      <trkpt lat="47.09384" lon="4.84872">
        <ele>370.9</ele>
        <time>2020-06-14T08:57:13.000Z</time>
      </trkpt>
      <trkpt lat="47.09394" lon="4.84873">
        <ele>371.1</ele>
        <time>2020-06-14T08:57:22.000Z</time>
      </trkpt>
      <trkpt lat="47.09404" lon="4.84875">
        <ele>371.2</ele>
        <time>2020-06-14T08:57:29.000Z</time>
      </trkpt>
      <trkpt lat="47.09413" lon="4.84877">
        <ele>371.5</ele>
        <time>2020-06-14T08:57:36.000Z</time>
      </trkpt>
      <trkpt lat="47.09422" lon="4.84879">
        <ele>371.6</ele>
        <time>2020-06-14T08:57:43.000Z</time>
      </trkpt>
      <trkpt lat="47.09431" lon="4.84882">
        <ele>371.8</ele>
        <time>2020-06-14T08:57:50.000Z</time>
      </trkpt>
      <trkpt lat="47.09441" lon="4.84887">
        <ele>371.8</ele>
        <time>2020-06-14T08:57:58.000Z</time>
      </trkpt>
      <trkpt lat="47.09449" lon="4.8489">
        <ele>371.8</ele>
        <time>2020-06-14T08:58:05.000Z</time>
      </trkpt>
      <trkpt lat="47.09459" lon="4.84893">
        <ele>371.9</ele>
        <time>2020-06-14T08:58:13.000Z</time>
      </trkpt>
      <trkpt lat="47.09468" lon="4.84896">
        <ele>371.9</ele>
        <time>2020-06-14T08:58:21.000Z</time>
      </trkpt>
      <trkpt lat="47.09477" lon="4.84898">
        <ele>372.2</ele>
        <time>2020-06-14T08:58:28.000Z</time>
      </trkpt>
      <trkpt lat="47.09487" lon="4.84901">
        <ele>372.4</ele>
        <time>2020-06-14T08:58:36.000Z</time>
      </trkpt>
      <trkpt lat="47.09497" lon="4.84904">
        <ele>372.4</ele>
        <time>2020-06-14T08:58:44.000Z</time>
      </trkpt>
      <trkpt lat="47.09506" lon="4.84905">
        <ele>372.6</ele>
        <time>2020-06-14T08:58:51.000Z</time>
      </trkpt>
      <trkpt lat="47.09515" lon="4.84908">
        <ele>372.5</ele>
        <time>2020-06-14T08:58:59.000Z</time>
      </trkpt>
      <trkpt lat="47.09525" lon="4.84912">
        <ele>372.3</ele>
        <time>2020-06-14T08:59:08.000Z</time>
      </trkpt>
      <trkpt lat="47.09534" lon="4.84916">
        <ele>372.1</ele>
        <time>2020-06-14T08:59:16.000Z</time>
      </trkpt>
      <trkpt lat="47.09544" lon="4.8492">
        <ele>372</ele>
        <time>2020-06-14T08:59:25.000Z</time>
      </trkpt>
      <trkpt lat="47.09553" lon="4.84925">
        <ele>371.7</ele>
        <time>2020-06-14T08:59:33.000Z</time>
      </trkpt>
      <trkpt lat="47.09562" lon="4.84931">
        <ele>371.8</ele>
        <time>2020-06-14T08:59:41.000Z</time>
      </trkpt>
      <trkpt lat="47.0957" lon="4.84936">
        <ele>372</ele>
        <time>2020-06-14T08:59:48.000Z</time>
      </trkpt>
      <trkpt lat="47.09579" lon="4.84942">
        <ele>371.9</ele>
        <time>2020-06-14T08:59:56.000Z</time>
      </trkpt>
      <trkpt lat="47.09588" lon="4.84949">
        <ele>372.1</ele>
        <time>2020-06-14T09:00:04.000Z</time>
      </trkpt>
      <trkpt lat="47.09596" lon="4.84957">
        <ele>372.2</ele>
        <time>2020-06-14T09:00:12.000Z</time>
      </trkpt>
      <trkpt lat="47.09604" lon="4.84965">
        <ele>372.8</ele>
        <time>2020-06-14T09:00:20.000Z</time>
      </trkpt>
      <trkpt lat="47.09612" lon="4.84973">
        <ele>373</ele>
        <time>2020-06-14T09:00:28.000Z</time>
      </trkpt>
      <trkpt lat="47.0962" lon="4.84981">
        <ele>372.9</ele>
        <time>2020-06-14T09:00:35.000Z</time>
      </trkpt>
      <trkpt lat="47.09627" lon="4.84988">
        <ele>373.2</ele>
        <time>2020-06-14T09:00:42.000Z</time>
      </trkpt>
      <trkpt lat="47.09635" lon="4.84998">
        <ele>373.2</ele>
        <time>2020-06-14T09:00:50.000Z</time>
      </trkpt>
      <trkpt lat="47.09642" lon="4.85007">
        <ele>373.3</ele>
        <time>2020-06-14T09:00:58.000Z</time>
      </trkpt>
      <trkpt lat="47.0965" lon="4.85016">
        <ele>373.5</ele>
        <time>2020-06-14T09:01:06.000Z</time>
      </trkpt>
      <trkpt lat="47.09658" lon="4.85024">
        <ele>373.7</ele>
        <time>2020-06-14T09:01:14.000Z</time>
      </trkpt>
      <trkpt lat="47.09665" lon="4.85035">
        <ele>374.2</ele>
        <time>2020-06-14T09:01:23.000Z</time>
      </trkpt>
      <trkpt lat="47.09672" lon="4.85043">
        <ele>374.3</ele>
        <time>2020-06-14T09:01:31.000Z</time>
      </trkpt>
      <trkpt lat="47.09679" lon="4.85052">
        <ele>374.3</ele>
        <time>2020-06-14T09:01:39.000Z</time>
      </trkpt>
      <trkpt lat="47.09686" lon="4.85062">
        <ele>374.8</ele>
        <time>2020-06-14T09:01:47.000Z</time>
      </trkpt>
      <trkpt lat="47.09692" lon="4.85074">
        <ele>375.2</ele>
        <time>2020-06-14T09:01:55.000Z</time>
      </trkpt>
      <trkpt lat="47.09696" lon="4.85085">
        <ele>375.3</ele>
        <time>2020-06-14T09:02:03.000Z</time>
      </trkpt>
      <trkpt lat="47.09704" lon="4.85094">
        <ele>375.6</ele>
        <time>2020-06-14T09:02:11.000Z</time>
      </trkpt>
      <trkpt lat="47.09711" lon="4.85103">
        <ele>376.3</ele>
        <time>2020-06-14T09:02:18.000Z</time>
      </trkpt>
      <trkpt lat="47.09716" lon="4.85115">
        <ele>376.4</ele>
        <time>2020-06-14T09:02:27.000Z</time>
      </trkpt>
      <trkpt lat="47.09718" lon="4.8512">
        <ele>376.4</ele>
        <time>2020-06-14T09:02:35.000Z</time>
      </trkpt>
      <trkpt lat="47.09719" lon="4.8512">
        <ele>376.3</ele>
        <time>2020-06-14T09:03:18.000Z</time>
      </trkpt>
      <trkpt lat="47.09719" lon="4.8512">
        <ele>376.3</ele>
        <time>2020-06-14T09:03:19.000Z</time>
      </trkpt>
      <trkpt lat="47.09719" lon="4.8512">
        <ele>376.4</ele>
        <time>2020-06-14T09:03:39.000Z</time>
      </trkpt>
      <trkpt lat="47.09719" lon="4.85121">
        <ele>376.5</ele>
        <time>2020-06-14T09:03:43.000Z</time>
      </trkpt>
      <trkpt lat="47.09719" lon="4.85121">
        <ele>376.2</ele>
        <time>2020-06-14T09:04:12.000Z</time>
      </trkpt>
      <trkpt lat="47.09725" lon="4.85132">
        <ele>376.5</ele>
        <time>2020-06-14T09:04:23.000Z</time>
      </trkpt>
      <trkpt lat="47.09731" lon="4.85136">
        <ele>376.5</ele>
        <time>2020-06-14T09:04:39.000Z</time>
      </trkpt>
      <trkpt lat="47.09731" lon="4.85136">
        <ele>376.6</ele>
        <time>2020-06-14T09:04:40.000Z</time>
      </trkpt>
      <trkpt lat="47.09737" lon="4.85147">
        <ele>376.4</ele>
        <time>2020-06-14T09:04:54.000Z</time>
      </trkpt>
      <trkpt lat="47.09744" lon="4.85158">
        <ele>376.4</ele>
        <time>2020-06-14T09:05:03.000Z</time>
      </trkpt>
      <trkpt lat="47.0975" lon="4.85169">
        <ele>376.2</ele>
        <time>2020-06-14T09:05:11.000Z</time>
      </trkpt>
      <trkpt lat="47.09758" lon="4.85176">
        <ele>376.5</ele>
        <time>2020-06-14T09:05:18.000Z</time>
      </trkpt>
      <trkpt lat="47.09764" lon="4.85187">
        <ele>376.3</ele>
        <time>2020-06-14T09:05:26.000Z</time>
      </trkpt>
      <trkpt lat="47.09767" lon="4.85192">
        <ele>376.8</ele>
        <time>2020-06-14T09:05:33.000Z</time>
      </trkpt>
      <trkpt lat="47.09767" lon="4.85193">
        <ele>376.8</ele>
        <time>2020-06-14T09:05:34.000Z</time>
      </trkpt>
      <trkpt lat="47.09767" lon="4.85193">
        <ele>376.6</ele>
        <time>2020-06-14T09:05:35.000Z</time>
      </trkpt>
      <trkpt lat="47.09768" lon="4.85192">
        <ele>376.4</ele>
        <time>2020-06-14T09:05:36.000Z</time>
      </trkpt>
      <trkpt lat="47.09768" lon="4.85192">
        <ele>376.4</ele>
        <time>2020-06-14T09:05:38.000Z</time>
      </trkpt>
      <trkpt lat="47.09768" lon="4.85192">
        <ele>376.4</ele>
        <time>2020-06-14T09:05:39.000Z</time>
      </trkpt>
      <trkpt lat="47.09767" lon="4.85195">
        <ele>376.3</ele>
        <time>2020-06-14T09:05:49.000Z</time>
      </trkpt>
      <trkpt lat="47.09767" lon="4.85195">
        <ele>376.3</ele>
        <time>2020-06-14T09:05:50.000Z</time>
      </trkpt>
      <trkpt lat="47.09774" lon="4.85204">
        <ele>376.2</ele>
        <time>2020-06-14T09:06:09.000Z</time>
      </trkpt>
      <trkpt lat="47.09783" lon="4.85211">
        <ele>376</ele>
        <time>2020-06-14T09:06:20.000Z</time>
      </trkpt>
      <trkpt lat="47.09789" lon="4.85221">
        <ele>376.2</ele>
        <time>2020-06-14T09:06:29.000Z</time>
      </trkpt>
      <trkpt lat="47.09795" lon="4.85231">
        <ele>376.3</ele>
        <time>2020-06-14T09:06:38.000Z</time>
      </trkpt>
      <trkpt lat="47.09804" lon="4.85238">
        <ele>376.6</ele>
        <time>2020-06-14T09:06:45.000Z</time>
      </trkpt>
      <trkpt lat="47.09812" lon="4.85246">
        <ele>377.1</ele>
        <time>2020-06-14T09:06:53.000Z</time>
      </trkpt>
      <trkpt lat="47.09819" lon="4.85254">
        <ele>377.3</ele>
        <time>2020-06-14T09:07:00.000Z</time>
      </trkpt>
      <trkpt lat="47.09828" lon="4.8526">
        <ele>377.9</ele>
        <time>2020-06-14T09:07:06.000Z</time>
      </trkpt>
      <trkpt lat="47.09837" lon="4.85265">
        <ele>378.3</ele>
        <time>2020-06-14T09:07:12.000Z</time>
      </trkpt>
      <trkpt lat="47.09847" lon="4.85268">
        <ele>378.9</ele>
        <time>2020-06-14T09:07:19.000Z</time>
      </trkpt>
      <trkpt lat="47.09856" lon="4.85267">
        <ele>379.1</ele>
        <time>2020-06-14T09:07:25.000Z</time>
      </trkpt>
      <trkpt lat="47.09865" lon="4.85269">
        <ele>379</ele>
        <time>2020-06-14T09:07:32.000Z</time>
      </trkpt>
      <trkpt lat="47.09875" lon="4.85271">
        <ele>379.1</ele>
        <time>2020-06-14T09:07:40.000Z</time>
      </trkpt>
      <trkpt lat="47.09885" lon="4.85273">
        <ele>379.1</ele>
        <time>2020-06-14T09:07:48.000Z</time>
      </trkpt>
      <trkpt lat="47.09895" lon="4.85276">
        <ele>378.8</ele>
        <time>2020-06-14T09:07:56.000Z</time>
      </trkpt>
      <trkpt lat="47.09904" lon="4.85279">
        <ele>379</ele>
        <time>2020-06-14T09:08:04.000Z</time>
      </trkpt>
      <trkpt lat="47.09914" lon="4.85282">
        <ele>378.7</ele>
        <time>2020-06-14T09:08:12.000Z</time>
      </trkpt>
      <trkpt lat="47.09924" lon="4.85285">
        <ele>378.7</ele>
        <time>2020-06-14T09:08:20.000Z</time>
      </trkpt>
      <trkpt lat="47.09929" lon="4.85286">
        <ele>378.5</ele>
        <time>2020-06-14T09:08:27.000Z</time>
      </trkpt>
      <trkpt lat="47.09929" lon="4.85286">
        <ele>379.3</ele>
        <time>2020-06-14T09:09:10.000Z</time>
      </trkpt>
      <trkpt lat="47.09939" lon="4.8529">
        <ele>379.1</ele>
        <time>2020-06-14T09:09:19.000Z</time>
      </trkpt>
      <trkpt lat="47.09948" lon="4.85294">
        <ele>379.1</ele>
        <time>2020-06-14T09:09:27.000Z</time>
      </trkpt>
      <trkpt lat="47.09957" lon="4.853">
        <ele>378.7</ele>
        <time>2020-06-14T09:09:35.000Z</time>
      </trkpt>
      <trkpt lat="47.09966" lon="4.85305">
        <ele>378.9</ele>
        <time>2020-06-14T09:09:42.000Z</time>
      </trkpt>
      <trkpt lat="47.09975" lon="4.8531">
        <ele>378.3</ele>
        <time>2020-06-14T09:09:50.000Z</time>
      </trkpt>
      <trkpt lat="47.09984" lon="4.85316">
        <ele>378.3</ele>
        <time>2020-06-14T09:09:58.000Z</time>
      </trkpt>
      <trkpt lat="47.09993" lon="4.85321">
        <ele>378</ele>
        <time>2020-06-14T09:10:05.000Z</time>
      </trkpt>
      <trkpt lat="47.10002" lon="4.85325">
        <ele>377.7</ele>
        <time>2020-06-14T09:10:12.000Z</time>
      </trkpt>
      <trkpt lat="47.10012" lon="4.85328">
        <ele>377.7</ele>
        <time>2020-06-14T09:10:20.000Z</time>
      </trkpt>
      <trkpt lat="47.10019" lon="4.85336">
        <ele>377.6</ele>
        <time>2020-06-14T09:10:27.000Z</time>
      </trkpt>
      <trkpt lat="47.10026" lon="4.85345">
        <ele>377.2</ele>
        <time>2020-06-14T09:10:34.000Z</time>
      </trkpt>
      <trkpt lat="47.10035" lon="4.8535">
        <ele>377.4</ele>
        <time>2020-06-14T09:10:42.000Z</time>
      </trkpt>
      <trkpt lat="47.10043" lon="4.85355">
        <ele>378</ele>
        <time>2020-06-14T09:10:50.000Z</time>
      </trkpt>
      <trkpt lat="47.10052" lon="4.85361">
        <ele>377.8</ele>
        <time>2020-06-14T09:10:59.000Z</time>
      </trkpt>
      <trkpt lat="47.10061" lon="4.85367">
        <ele>377.3</ele>
        <time>2020-06-14T09:11:07.000Z</time>
      </trkpt>
      <trkpt lat="47.10068" lon="4.85364">
        <ele>376.7</ele>
        <time>2020-06-14T09:11:23.000Z</time>
      </trkpt>
      <trkpt lat="47.10067" lon="4.85364">
        <ele>376.9</ele>
        <time>2020-06-14T09:11:27.000Z</time>
      </trkpt>
      <trkpt lat="47.10067" lon="4.85364">
        <ele>376.9</ele>
        <time>2020-06-14T09:11:28.000Z</time>
      </trkpt>
      <trkpt lat="47.10068" lon="4.85364">
        <ele>376.9</ele>
        <time>2020-06-14T09:11:29.000Z</time>
      </trkpt>
      <trkpt lat="47.10067" lon="4.85364">
        <ele>376.8</ele>
        <time>2020-06-14T09:11:31.000Z</time>
      </trkpt>
      <trkpt lat="47.10067" lon="4.85365">
        <ele>376.7</ele>
        <time>2020-06-14T09:11:44.000Z</time>
      </trkpt>
      <trkpt lat="47.10066" lon="4.85366">
        <ele>376.7</ele>
        <time>2020-06-14T09:11:49.000Z</time>
      </trkpt>
      <trkpt lat="47.10066" lon="4.85366">
        <ele>376.8</ele>
        <time>2020-06-14T09:12:19.000Z</time>
      </trkpt>
      <trkpt lat="47.10066" lon="4.85367">
        <ele>376.7</ele>
        <time>2020-06-14T09:12:21.000Z</time>
      </trkpt>
      <trkpt lat="47.10066" lon="4.85367">
        <ele>376.5</ele>
        <time>2020-06-14T09:12:23.000Z</time>
      </trkpt>
      <trkpt lat="47.10075" lon="4.85372">
        <ele>376.1</ele>
        <time>2020-06-14T09:12:34.000Z</time>
      </trkpt>
      <trkpt lat="47.10084" lon="4.85374">
        <ele>374.7</ele>
        <time>2020-06-14T09:12:43.000Z</time>
      </trkpt>
      <trkpt lat="47.10094" lon="4.85376">
        <ele>373.5</ele>
        <time>2020-06-14T09:12:51.000Z</time>
      </trkpt>
      <trkpt lat="47.10097" lon="4.85378">
        <ele>372.7</ele>
        <time>2020-06-14T09:12:56.000Z</time>
      </trkpt>
      <trkpt lat="47.10097" lon="4.85379">
        <ele>372.7</ele>
        <time>2020-06-14T09:12:57.000Z</time>
      </trkpt>
      <trkpt lat="47.10106" lon="4.8538">
        <ele>371.1</ele>
        <time>2020-06-14T09:13:05.000Z</time>
      </trkpt>
      <trkpt lat="47.10115" lon="4.8538">
        <ele>369.7</ele>
        <time>2020-06-14T09:13:13.000Z</time>
      </trkpt>
      <trkpt lat="47.10125" lon="4.8538">
        <ele>367.8</ele>
        <time>2020-06-14T09:13:24.000Z</time>
      </trkpt>
      <trkpt lat="47.10129" lon="4.8538">
        <ele>366.9</ele>
        <time>2020-06-14T09:13:31.000Z</time>
      </trkpt>
      <trkpt lat="47.10129" lon="4.85379">
        <ele>366.9</ele>
        <time>2020-06-14T09:13:32.000Z</time>
      </trkpt>
      <trkpt lat="47.10137" lon="4.85377">
        <ele>367.1</ele>
        <time>2020-06-14T09:13:58.000Z</time>
      </trkpt>
      <trkpt lat="47.10136" lon="4.85377">
        <ele>367.1</ele>
        <time>2020-06-14T09:14:00.000Z</time>
      </trkpt>
      <trkpt lat="47.10136" lon="4.85377">
        <ele>367.1</ele>
        <time>2020-06-14T09:14:02.000Z</time>
      </trkpt>
      <trkpt lat="47.10136" lon="4.85378">
        <ele>367</ele>
        <time>2020-06-14T09:14:03.000Z</time>
      </trkpt>
      <trkpt lat="47.10135" lon="4.85379">
        <ele>367.1</ele>
        <time>2020-06-14T09:14:07.000Z</time>
      </trkpt>
      <trkpt lat="47.10135" lon="4.85379">
        <ele>367.1</ele>
        <time>2020-06-14T09:14:08.000Z</time>
      </trkpt>
      <trkpt lat="47.10135" lon="4.85379">
        <ele>367.1</ele>
        <time>2020-06-14T09:14:09.000Z</time>
      </trkpt>
      <trkpt lat="47.10135" lon="4.85378">
        <ele>367.1</ele>
        <time>2020-06-14T09:14:10.000Z</time>
      </trkpt>
      <trkpt lat="47.10135" lon="4.85377">
        <ele>366.9</ele>
        <time>2020-06-14T09:14:14.000Z</time>
      </trkpt>
      <trkpt lat="47.10135" lon="4.85377">
        <ele>366.9</ele>
        <time>2020-06-14T09:14:15.000Z</time>
      </trkpt>
      <trkpt lat="47.10135" lon="4.85377">
        <ele>366.9</ele>
        <time>2020-06-14T09:14:16.000Z</time>
      </trkpt>
      <trkpt lat="47.10135" lon="4.85377">
        <ele>367.1</ele>
        <time>2020-06-14T09:14:17.000Z</time>
      </trkpt>
      <trkpt lat="47.10135" lon="4.85377">
        <ele>367</ele>
        <time>2020-06-14T09:14:19.000Z</time>
      </trkpt>
      <trkpt lat="47.10135" lon="4.85377">
        <ele>366.9</ele>
        <time>2020-06-14T09:14:20.000Z</time>
      </trkpt>
      <trkpt lat="47.10136" lon="4.85376">
        <ele>367.2</ele>
        <time>2020-06-14T09:14:25.000Z</time>
      </trkpt>
      <trkpt lat="47.10136" lon="4.85376">
        <ele>367.2</ele>
        <time>2020-06-14T09:14:26.000Z</time>
      </trkpt>
      <trkpt lat="47.10137" lon="4.85375">
        <ele>367.2</ele>
        <time>2020-06-14T09:14:30.000Z</time>
      </trkpt>
      <trkpt lat="47.10137" lon="4.85375">
        <ele>367.1</ele>
        <time>2020-06-14T09:14:31.000Z</time>
      </trkpt>
      <trkpt lat="47.10138" lon="4.85374">
        <ele>366.9</ele>
        <time>2020-06-14T09:14:37.000Z</time>
      </trkpt>
      <trkpt lat="47.10138" lon="4.85375">
        <ele>367</ele>
        <time>2020-06-14T09:14:38.000Z</time>
      </trkpt>
      <trkpt lat="47.10138" lon="4.85374">
        <ele>367.1</ele>
        <time>2020-06-14T09:14:39.000Z</time>
      </trkpt>
      <trkpt lat="47.10138" lon="4.85375">
        <ele>367.2</ele>
        <time>2020-06-14T09:14:40.000Z</time>
      </trkpt>
      <trkpt lat="47.10138" lon="4.85374">
        <ele>367.2</ele>
        <time>2020-06-14T09:14:42.000Z</time>
      </trkpt>
      <trkpt lat="47.10138" lon="4.85375">
        <ele>366.9</ele>
        <time>2020-06-14T09:14:43.000Z</time>
      </trkpt>
      <trkpt lat="47.10147" lon="4.85378">
        <ele>364.7</ele>
        <time>2020-06-14T09:14:55.000Z</time>
      </trkpt>
      <trkpt lat="47.10157" lon="4.85379">
        <ele>362</ele>
        <time>2020-06-14T09:15:10.000Z</time>
      </trkpt>
      <trkpt lat="47.10158" lon="4.85379">
        <ele>362.1</ele>
        <time>2020-06-14T09:15:15.000Z</time>
      </trkpt>
      <trkpt lat="47.10158" lon="4.8538">
        <ele>362.1</ele>
        <time>2020-06-14T09:15:16.000Z</time>
      </trkpt>
      <trkpt lat="47.10159" lon="4.85379">
        <ele>362.3</ele>
        <time>2020-06-14T09:15:20.000Z</time>
      </trkpt>
      <trkpt lat="47.10159" lon="4.85379">
        <ele>361.9</ele>
        <time>2020-06-14T09:15:22.000Z</time>
      </trkpt>
      <trkpt lat="47.10159" lon="4.85379">
        <ele>361.8</ele>
        <time>2020-06-14T09:15:23.000Z</time>
      </trkpt>
      <trkpt lat="47.10159" lon="4.85378">
        <ele>361.9</ele>
        <time>2020-06-14T09:15:24.000Z</time>
      </trkpt>
      <trkpt lat="47.10159" lon="4.85378">
        <ele>362.1</ele>
        <time>2020-06-14T09:15:25.000Z</time>
      </trkpt>
      <trkpt lat="47.10159" lon="4.85378">
        <ele>362.1</ele>
        <time>2020-06-14T09:15:27.000Z</time>
      </trkpt>
      <trkpt lat="47.10159" lon="4.85378">
        <ele>361.9</ele>
        <time>2020-06-14T09:15:30.000Z</time>
      </trkpt>
      <trkpt lat="47.10158" lon="4.85378">
        <ele>362</ele>
        <time>2020-06-14T09:15:35.000Z</time>
      </trkpt>
      <trkpt lat="47.10158" lon="4.85378">
        <ele>362.1</ele>
        <time>2020-06-14T09:15:36.000Z</time>
      </trkpt>
      <trkpt lat="47.10158" lon="4.85379">
        <ele>362</ele>
        <time>2020-06-14T09:15:37.000Z</time>
      </trkpt>
      <trkpt lat="47.10166" lon="4.85372">
        <ele>360.5</ele>
        <time>2020-06-14T09:15:54.000Z</time>
      </trkpt>
      <trkpt lat="47.10176" lon="4.8537">
        <ele>358.9</ele>
        <time>2020-06-14T09:16:03.000Z</time>
      </trkpt>
      <trkpt lat="47.10185" lon="4.8537">
        <ele>357.4</ele>
        <time>2020-06-14T09:16:11.000Z</time>
      </trkpt>
      <trkpt lat="47.10195" lon="4.85367">
        <ele>355.9</ele>
        <time>2020-06-14T09:16:19.000Z</time>
      </trkpt>
      <trkpt lat="47.10204" lon="4.85369">
        <ele>354.2</ele>
        <time>2020-06-14T09:16:30.000Z</time>
      </trkpt>
      <trkpt lat="47.10205" lon="4.85369">
        <ele>354.3</ele>
        <time>2020-06-14T09:16:34.000Z</time>
      </trkpt>
      <trkpt lat="47.10204" lon="4.85369">
        <ele>354.3</ele>
        <time>2020-06-14T09:16:35.000Z</time>
      </trkpt>
      <trkpt lat="47.10204" lon="4.85369">
        <ele>354.2</ele>
        <time>2020-06-14T09:16:36.000Z</time>
      </trkpt>
      <trkpt lat="47.10204" lon="4.8537">
        <ele>354.2</ele>
        <time>2020-06-14T09:16:37.000Z</time>
      </trkpt>
      <trkpt lat="47.10201" lon="4.85375">
        <ele>354.1</ele>
        <time>2020-06-14T09:16:55.000Z</time>
      </trkpt>
      <trkpt lat="47.10201" lon="4.85375">
        <ele>354.3</ele>
        <time>2020-06-14T09:16:58.000Z</time>
      </trkpt>
      <trkpt lat="47.10202" lon="4.85374">
        <ele>354.3</ele>
        <time>2020-06-14T09:17:05.000Z</time>
      </trkpt>
      <trkpt lat="47.10202" lon="4.85374">
        <ele>354.3</ele>
        <time>2020-06-14T09:17:07.000Z</time>
      </trkpt>
      <trkpt lat="47.10211" lon="4.85371">
        <ele>352.6</ele>
        <time>2020-06-14T09:17:19.000Z</time>
      </trkpt>
      <trkpt lat="47.1022" lon="4.8537">
        <ele>351.7</ele>
        <time>2020-06-14T09:17:26.000Z</time>
      </trkpt>
      <trkpt lat="47.10223" lon="4.85369">
        <ele>351</ele>
        <time>2020-06-14T09:17:32.000Z</time>
      </trkpt>
      <trkpt lat="47.10223" lon="4.85368">
        <ele>350.9</ele>
        <time>2020-06-14T09:17:33.000Z</time>
      </trkpt>
      <trkpt lat="47.1023" lon="4.8536">
        <ele>351.1</ele>
        <time>2020-06-14T09:17:54.000Z</time>
      </trkpt>
      <trkpt lat="47.10239" lon="4.85355">
        <ele>349.6</ele>
        <time>2020-06-14T09:18:06.000Z</time>
      </trkpt>
      <trkpt lat="47.10248" lon="4.85351">
        <ele>348.6</ele>
        <time>2020-06-14T09:18:12.000Z</time>
      </trkpt>
      <trkpt lat="47.10257" lon="4.85348">
        <ele>347.6</ele>
        <time>2020-06-14T09:18:16.000Z</time>
      </trkpt>
      <trkpt lat="47.10266" lon="4.85348">
        <ele>346.8</ele>
        <time>2020-06-14T09:18:26.000Z</time>
      </trkpt>
      <trkpt lat="47.10276" lon="4.85352">
        <ele>346</ele>
        <time>2020-06-14T09:18:39.000Z</time>
      </trkpt>
      <trkpt lat="47.10285" lon="4.85353">
        <ele>345.3</ele>
        <time>2020-06-14T09:18:48.000Z</time>
      </trkpt>
      <trkpt lat="47.10294" lon="4.85355">
        <ele>344.5</ele>
        <time>2020-06-14T09:18:55.000Z</time>
      </trkpt>
      <trkpt lat="47.10304" lon="4.85356">
        <ele>344</ele>
        <time>2020-06-14T09:19:02.000Z</time>
      </trkpt>
      <trkpt lat="47.10313" lon="4.85355">
        <ele>343.9</ele>
        <time>2020-06-14T09:19:08.000Z</time>
      </trkpt>
      <trkpt lat="47.10323" lon="4.85355">
        <ele>343.2</ele>
        <time>2020-06-14T09:19:15.000Z</time>
      </trkpt>
      <trkpt lat="47.10332" lon="4.85353">
        <ele>342.5</ele>
        <time>2020-06-14T09:19:23.000Z</time>
      </trkpt>
      <trkpt lat="47.10341" lon="4.85354">
        <ele>342.1</ele>
        <time>2020-06-14T09:19:30.000Z</time>
      </trkpt>
      <trkpt lat="47.1035" lon="4.85354">
        <ele>341.5</ele>
        <time>2020-06-14T09:19:40.000Z</time>
      </trkpt>
      <trkpt lat="47.10359" lon="4.85359">
        <ele>340.8</ele>
        <time>2020-06-14T09:19:50.000Z</time>
      </trkpt>
      <trkpt lat="47.10369" lon="4.8536">
        <ele>340.4</ele>
        <time>2020-06-14T09:20:00.000Z</time>
      </trkpt>
      <trkpt lat="47.10378" lon="4.85362">
        <ele>339.6</ele>
        <time>2020-06-14T09:20:08.000Z</time>
      </trkpt>
      <trkpt lat="47.10387" lon="4.85361">
        <ele>339.2</ele>
        <time>2020-06-14T09:20:16.000Z</time>
      </trkpt>
      <trkpt lat="47.10397" lon="4.85363">
        <ele>339</ele>
        <time>2020-06-14T09:20:23.000Z</time>
      </trkpt>
      <trkpt lat="47.10407" lon="4.85366">
        <ele>338.8</ele>
        <time>2020-06-14T09:20:31.000Z</time>
      </trkpt>
      <trkpt lat="47.10416" lon="4.85373">
        <ele>339.3</ele>
        <time>2020-06-14T09:20:42.000Z</time>
      </trkpt>
      <trkpt lat="47.10425" lon="4.85372">
        <ele>340</ele>
        <time>2020-06-14T09:20:48.000Z</time>
      </trkpt>
      <trkpt lat="47.10434" lon="4.85372">
        <ele>340.4</ele>
        <time>2020-06-14T09:20:52.000Z</time>
      </trkpt>
      <trkpt lat="47.10443" lon="4.85367">
        <ele>341</ele>
        <time>2020-06-14T09:20:59.000Z</time>
      </trkpt>
      <trkpt lat="47.10451" lon="4.85358">
        <ele>341.7</ele>
        <time>2020-06-14T09:21:09.000Z</time>
      </trkpt>
      <trkpt lat="47.10459" lon="4.8535">
        <ele>342.3</ele>
        <time>2020-06-14T09:21:17.000Z</time>
      </trkpt>
      <trkpt lat="47.10465" lon="4.85339">
        <ele>343.1</ele>
        <time>2020-06-14T09:21:29.000Z</time>
      </trkpt>
      <trkpt lat="47.10472" lon="4.85331">
        <ele>343</ele>
        <time>2020-06-14T09:21:39.000Z</time>
      </trkpt>
      <trkpt lat="47.10478" lon="4.85319">
        <ele>343.4</ele>
        <time>2020-06-14T09:21:48.000Z</time>
      </trkpt>
      <trkpt lat="47.10482" lon="4.85307">
        <ele>343.1</ele>
        <time>2020-06-14T09:21:56.000Z</time>
      </trkpt>
      <trkpt lat="47.10489" lon="4.85299">
        <ele>343</ele>
        <time>2020-06-14T09:22:03.000Z</time>
      </trkpt>
      <trkpt lat="47.10495" lon="4.85287">
        <ele>342.5</ele>
        <time>2020-06-14T09:22:14.000Z</time>
      </trkpt>
      <trkpt lat="47.10502" lon="4.85276">
        <ele>342.1</ele>
        <time>2020-06-14T09:22:21.000Z</time>
      </trkpt>
      <trkpt lat="47.10508" lon="4.85264">
        <ele>342.1</ele>
        <time>2020-06-14T09:22:29.000Z</time>
      </trkpt>
      <trkpt lat="47.10514" lon="4.85252">
        <ele>341.4</ele>
        <time>2020-06-14T09:22:37.000Z</time>
      </trkpt>
      <trkpt lat="47.10521" lon="4.85243">
        <ele>340.9</ele>
        <time>2020-06-14T09:22:43.000Z</time>
      </trkpt>
      <trkpt lat="47.10525" lon="4.85231">
        <ele>340.4</ele>
        <time>2020-06-14T09:22:50.000Z</time>
      </trkpt>
      <trkpt lat="47.1053" lon="4.85218">
        <ele>340.5</ele>
        <time>2020-06-14T09:22:57.000Z</time>
      </trkpt>
      <trkpt lat="47.10534" lon="4.85205">
        <ele>339.9</ele>
        <time>2020-06-14T09:23:06.000Z</time>
      </trkpt>
      <trkpt lat="47.10536" lon="4.85192">
        <ele>339.4</ele>
        <time>2020-06-14T09:23:17.000Z</time>
      </trkpt>
      <trkpt lat="47.10537" lon="4.85177">
        <ele>338.8</ele>
        <time>2020-06-14T09:23:23.000Z</time>
      </trkpt>
      <trkpt lat="47.1054" lon="4.85163">
        <ele>338.3</ele>
        <time>2020-06-14T09:23:30.000Z</time>
      </trkpt>
      <trkpt lat="47.10544" lon="4.8515">
        <ele>337.8</ele>
        <time>2020-06-14T09:23:36.000Z</time>
      </trkpt>
      <trkpt lat="47.10548" lon="4.85138">
        <ele>337.8</ele>
        <time>2020-06-14T09:23:42.000Z</time>
      </trkpt>
      <trkpt lat="47.10551" lon="4.85125">
        <ele>338.4</ele>
        <time>2020-06-14T09:23:50.000Z</time>
      </trkpt>
      <trkpt lat="47.10554" lon="4.85113">
        <ele>338.6</ele>
        <time>2020-06-14T09:23:58.000Z</time>
      </trkpt>
      <trkpt lat="47.1056" lon="4.85101">
        <ele>339.4</ele>
        <time>2020-06-14T09:24:06.000Z</time>
      </trkpt>
      <trkpt lat="47.10563" lon="4.85088">
        <ele>340.2</ele>
        <time>2020-06-14T09:24:16.000Z</time>
      </trkpt>
      <trkpt lat="47.10566" lon="4.85075">
        <ele>340.6</ele>
        <time>2020-06-14T09:24:27.000Z</time>
      </trkpt>
      <trkpt lat="47.10569" lon="4.85061">
        <ele>341.7</ele>
        <time>2020-06-14T09:24:37.000Z</time>
      </trkpt>
      <trkpt lat="47.10575" lon="4.8505">
        <ele>342.7</ele>
        <time>2020-06-14T09:24:46.000Z</time>
      </trkpt>
      <trkpt lat="47.10582" lon="4.85042">
        <ele>343.7</ele>
        <time>2020-06-14T09:24:56.000Z</time>
      </trkpt>
      <trkpt lat="47.10588" lon="4.85031">
        <ele>344.5</ele>
        <time>2020-06-14T09:25:04.000Z</time>
      </trkpt>
      <trkpt lat="47.10591" lon="4.85017">
        <ele>345.7</ele>
        <time>2020-06-14T09:25:14.000Z</time>
      </trkpt>
      <trkpt lat="47.10597" lon="4.85007">
        <ele>346.3</ele>
        <time>2020-06-14T09:25:23.000Z</time>
      </trkpt>
      <trkpt lat="47.10603" lon="4.84996">
        <ele>347.2</ele>
        <time>2020-06-14T09:25:33.000Z</time>
      </trkpt>
      <trkpt lat="47.10611" lon="4.84985">
        <ele>348.2</ele>
        <time>2020-06-14T09:25:43.000Z</time>
      </trkpt>
      <trkpt lat="47.10619" lon="4.84979">
        <ele>348.8</ele>
        <time>2020-06-14T09:25:51.000Z</time>
      </trkpt>
      <trkpt lat="47.10628" lon="4.84975">
        <ele>349.6</ele>
        <time>2020-06-14T09:25:58.000Z</time>
      </trkpt>
      <trkpt lat="47.10637" lon="4.84969">
        <ele>350.4</ele>
        <time>2020-06-14T09:26:10.000Z</time>
      </trkpt>
      <trkpt lat="47.10643" lon="4.84957">
        <ele>350.9</ele>
        <time>2020-06-14T09:26:20.000Z</time>
      </trkpt>
      <trkpt lat="47.10649" lon="4.84946">
        <ele>351.2</ele>
        <time>2020-06-14T09:26:27.000Z</time>
      </trkpt>
      <trkpt lat="47.10657" lon="4.84937">
        <ele>351.1</ele>
        <time>2020-06-14T09:26:36.000Z</time>
      </trkpt>
      <trkpt lat="47.10664" lon="4.84927">
        <ele>351.1</ele>
        <time>2020-06-14T09:26:44.000Z</time>
      </trkpt>
      <trkpt lat="47.10671" lon="4.84918">
        <ele>351.2</ele>
        <time>2020-06-14T09:26:52.000Z</time>
      </trkpt>
      <trkpt lat="47.10679" lon="4.8491">
        <ele>350.7</ele>
        <time>2020-06-14T09:27:01.000Z</time>
      </trkpt>
      <trkpt lat="47.10687" lon="4.84902">
        <ele>350.2</ele>
        <time>2020-06-14T09:27:12.000Z</time>
      </trkpt>
      <trkpt lat="47.10695" lon="4.84892">
        <ele>349.7</ele>
        <time>2020-06-14T09:27:21.000Z</time>
      </trkpt>
      <trkpt lat="47.107" lon="4.84878">
        <ele>349.2</ele>
        <time>2020-06-14T09:27:28.000Z</time>
      </trkpt>
      <trkpt lat="47.10707" lon="4.8487">
        <ele>348.8</ele>
        <time>2020-06-14T09:27:34.000Z</time>
      </trkpt>
      <trkpt lat="47.10715" lon="4.8486">
        <ele>348.1</ele>
        <time>2020-06-14T09:27:44.000Z</time>
      </trkpt>
      <trkpt lat="47.10721" lon="4.84849">
        <ele>347.8</ele>
        <time>2020-06-14T09:27:52.000Z</time>
      </trkpt>
      <trkpt lat="47.1073" lon="4.84845">
        <ele>347.3</ele>
        <time>2020-06-14T09:27:59.000Z</time>
      </trkpt>
      <trkpt lat="47.10737" lon="4.84835">
        <ele>347</ele>
        <time>2020-06-14T09:28:06.000Z</time>
      </trkpt>
      <trkpt lat="47.10744" lon="4.84824">
        <ele>346.3</ele>
        <time>2020-06-14T09:28:14.000Z</time>
      </trkpt>
      <trkpt lat="47.10751" lon="4.84816">
        <ele>346.1</ele>
        <time>2020-06-14T09:28:21.000Z</time>
      </trkpt>
      <trkpt lat="47.1076" lon="4.84811">
        <ele>345.8</ele>
        <time>2020-06-14T09:28:27.000Z</time>
      </trkpt>
      <trkpt lat="47.1077" lon="4.84807">
        <ele>345.2</ele>
        <time>2020-06-14T09:28:33.000Z</time>
      </trkpt>
      <trkpt lat="47.10779" lon="4.848">
        <ele>345</ele>
        <time>2020-06-14T09:28:41.000Z</time>
      </trkpt>
      <trkpt lat="47.10787" lon="4.84793">
        <ele>344.7</ele>
        <time>2020-06-14T09:28:48.000Z</time>
      </trkpt>
      <trkpt lat="47.10794" lon="4.84785">
        <ele>344.6</ele>
        <time>2020-06-14T09:28:55.000Z</time>
      </trkpt>
      <trkpt lat="47.10803" lon="4.84777">
        <ele>343.7</ele>
        <time>2020-06-14T09:29:03.000Z</time>
      </trkpt>
      <trkpt lat="47.10811" lon="4.8477">
        <ele>343.2</ele>
        <time>2020-06-14T09:29:11.000Z</time>
      </trkpt>
      <trkpt lat="47.10819" lon="4.84763">
        <ele>343</ele>
        <time>2020-06-14T09:29:19.000Z</time>
      </trkpt>
      <trkpt lat="47.10827" lon="4.84757">
        <ele>342.6</ele>
        <time>2020-06-14T09:29:27.000Z</time>
      </trkpt>
      <trkpt lat="47.10835" lon="4.84748">
        <ele>342.2</ele>
        <time>2020-06-14T09:29:35.000Z</time>
      </trkpt>
      <trkpt lat="47.10843" lon="4.84743">
        <ele>341.5</ele>
        <time>2020-06-14T09:29:46.000Z</time>
      </trkpt>
      <trkpt lat="47.10852" lon="4.84737">
        <ele>341</ele>
        <time>2020-06-14T09:29:55.000Z</time>
      </trkpt>
      <trkpt lat="47.1086" lon="4.84728">
        <ele>340.6</ele>
        <time>2020-06-14T09:30:02.000Z</time>
      </trkpt>
      <trkpt lat="47.10867" lon="4.8472">
        <ele>340.2</ele>
        <time>2020-06-14T09:30:10.000Z</time>
      </trkpt>
      <trkpt lat="47.10875" lon="4.84714">
        <ele>339.9</ele>
        <time>2020-06-14T09:30:20.000Z</time>
      </trkpt>
      <trkpt lat="47.10883" lon="4.84706">
        <ele>339.8</ele>
        <time>2020-06-14T09:30:30.000Z</time>
      </trkpt>
      <trkpt lat="47.10889" lon="4.84694">
        <ele>339.5</ele>
        <time>2020-06-14T09:30:34.000Z</time>
      </trkpt>
      <trkpt lat="47.10894" lon="4.84684">
        <ele>339.4</ele>
        <time>2020-06-14T09:30:45.000Z</time>
      </trkpt>
      <trkpt lat="47.10897" lon="4.84671">
        <ele>339.2</ele>
        <time>2020-06-14T09:30:54.000Z</time>
      </trkpt>
      <trkpt lat="47.10898" lon="4.84656">
        <ele>339.1</ele>
        <time>2020-06-14T09:31:04.000Z</time>
      </trkpt>
      <trkpt lat="47.109" lon="4.84642">
        <ele>338.8</ele>
        <time>2020-06-14T09:31:11.000Z</time>
      </trkpt>
      <trkpt lat="47.10901" lon="4.84628">
        <ele>338.7</ele>
        <time>2020-06-14T09:31:18.000Z</time>
      </trkpt>
      <trkpt lat="47.109" lon="4.84613">
        <ele>338.9</ele>
        <time>2020-06-14T09:31:28.000Z</time>
      </trkpt>
      <trkpt lat="47.10903" lon="4.84597">
        <ele>339</ele>
        <time>2020-06-14T09:31:32.000Z</time>
      </trkpt>
      <trkpt lat="47.10904" lon="4.84584">
        <ele>339.3</ele>
        <time>2020-06-14T09:31:39.000Z</time>
      </trkpt>
      <trkpt lat="47.10903" lon="4.8457">
        <ele>339.6</ele>
        <time>2020-06-14T09:31:48.000Z</time>
      </trkpt>
      <trkpt lat="47.10901" lon="4.84556">
        <ele>339.7</ele>
        <time>2020-06-14T09:31:57.000Z</time>
      </trkpt>
      <trkpt lat="47.10906" lon="4.84544">
        <ele>340.1</ele>
        <time>2020-06-14T09:32:05.000Z</time>
      </trkpt>
      <trkpt lat="47.10911" lon="4.84533">
        <ele>340.8</ele>
        <time>2020-06-14T09:32:14.000Z</time>
      </trkpt>
      <trkpt lat="47.10916" lon="4.84521">
        <ele>340.7</ele>
        <time>2020-06-14T09:32:23.000Z</time>
      </trkpt>
      <trkpt lat="47.10923" lon="4.84511">
        <ele>341</ele>
        <time>2020-06-14T09:32:31.000Z</time>
      </trkpt>
      <trkpt lat="47.10933" lon="4.84512">
        <ele>341.2</ele>
        <time>2020-06-14T09:32:38.000Z</time>
      </trkpt>
      <trkpt lat="47.10942" lon="4.84515">
        <ele>341.4</ele>
        <time>2020-06-14T09:32:43.000Z</time>
      </trkpt>
      <trkpt lat="47.10951" lon="4.84517">
        <ele>341.7</ele>
        <time>2020-06-14T09:32:50.000Z</time>
      </trkpt>
      <trkpt lat="47.1096" lon="4.84521">
        <ele>342.1</ele>
        <time>2020-06-14T09:32:59.000Z</time>
      </trkpt>
      <trkpt lat="47.1097" lon="4.8452">
        <ele>342.3</ele>
        <time>2020-06-14T09:33:06.000Z</time>
      </trkpt>
      <trkpt lat="47.10979" lon="4.8452">
        <ele>342.5</ele>
        <time>2020-06-14T09:33:13.000Z</time>
      </trkpt>
      <trkpt lat="47.10988" lon="4.84524">
        <ele>342.5</ele>
        <time>2020-06-14T09:33:21.000Z</time>
      </trkpt>
      <trkpt lat="47.10998" lon="4.84525">
        <ele>342.5</ele>
        <time>2020-06-14T09:33:28.000Z</time>
      </trkpt>
      <trkpt lat="47.11007" lon="4.84526">
        <ele>342.6</ele>
        <time>2020-06-14T09:33:36.000Z</time>
      </trkpt>
      <trkpt lat="47.11016" lon="4.84529">
        <ele>342.7</ele>
        <time>2020-06-14T09:33:43.000Z</time>
      </trkpt>
      <trkpt lat="47.11026" lon="4.84527">
        <ele>342.8</ele>
        <time>2020-06-14T09:33:50.000Z</time>
      </trkpt>
      <trkpt lat="47.11035" lon="4.8453">
        <ele>342.9</ele>
        <time>2020-06-14T09:33:59.000Z</time>
      </trkpt>
      <trkpt lat="47.11044" lon="4.84535">
        <ele>343</ele>
        <time>2020-06-14T09:34:12.000Z</time>
      </trkpt>
      <trkpt lat="47.11054" lon="4.84537">
        <ele>343.2</ele>
        <time>2020-06-14T09:34:22.000Z</time>
      </trkpt>
      <trkpt lat="47.11063" lon="4.84537">
        <ele>343.7</ele>
        <time>2020-06-14T09:34:30.000Z</time>
      </trkpt>
      <trkpt lat="47.11072" lon="4.84542">
        <ele>343.7</ele>
        <time>2020-06-14T09:34:40.000Z</time>
      </trkpt>
      <trkpt lat="47.11079" lon="4.84553">
        <ele>344</ele>
        <time>2020-06-14T09:34:47.000Z</time>
      </trkpt>
      <trkpt lat="47.11084" lon="4.84566">
        <ele>344.3</ele>
        <time>2020-06-14T09:34:54.000Z</time>
      </trkpt>
      <trkpt lat="47.11087" lon="4.84579">
        <ele>344.4</ele>
        <time>2020-06-14T09:35:00.000Z</time>
      </trkpt>
      <trkpt lat="47.11093" lon="4.8459">
        <ele>345.5</ele>
        <time>2020-06-14T09:35:16.000Z</time>
      </trkpt>
      <trkpt lat="47.11096" lon="4.84603">
        <ele>345.9</ele>
        <time>2020-06-14T09:35:26.000Z</time>
      </trkpt>
      <trkpt lat="47.11101" lon="4.84613">
        <ele>346.3</ele>
        <time>2020-06-14T09:35:31.000Z</time>
      </trkpt>
      <trkpt lat="47.11108" lon="4.84623">
        <ele>347.6</ele>
        <time>2020-06-14T09:35:40.000Z</time>
      </trkpt>
      <trkpt lat="47.11116" lon="4.84629">
        <ele>348.6</ele>
        <time>2020-06-14T09:35:49.000Z</time>
      </trkpt>
      <trkpt lat="47.11124" lon="4.84636">
        <ele>350.1</ele>
        <time>2020-06-14T09:36:00.000Z</time>
      </trkpt>
      <trkpt lat="47.1113" lon="4.84647">
        <ele>351.7</ele>
        <time>2020-06-14T09:36:10.000Z</time>
      </trkpt>
      <trkpt lat="47.11139" lon="4.84653">
        <ele>353.4</ele>
        <time>2020-06-14T09:36:22.000Z</time>
      </trkpt>
      <trkpt lat="47.11147" lon="4.84661">
        <ele>355.3</ele>
        <time>2020-06-14T09:36:35.000Z</time>
      </trkpt>
      <trkpt lat="47.1115" lon="4.84675">
        <ele>357.1</ele>
        <time>2020-06-14T09:36:45.000Z</time>
      </trkpt>
      <trkpt lat="47.11151" lon="4.84688">
        <ele>359.2</ele>
        <time>2020-06-14T09:36:57.000Z</time>
      </trkpt>
      <trkpt lat="47.11149" lon="4.84702">
        <ele>360.7</ele>
        <time>2020-06-14T09:37:07.000Z</time>
      </trkpt>
      <trkpt lat="47.11143" lon="4.84712">
        <ele>362.7</ele>
        <time>2020-06-14T09:37:20.000Z</time>
      </trkpt>
      <trkpt lat="47.11137" lon="4.84723">
        <ele>365.3</ele>
        <time>2020-06-14T09:37:36.000Z</time>
      </trkpt>
      <trkpt lat="47.11129" lon="4.84731">
        <ele>366.8</ele>
        <time>2020-06-14T09:37:47.000Z</time>
      </trkpt>
      <trkpt lat="47.11121" lon="4.84737">
        <ele>368.6</ele>
        <time>2020-06-14T09:37:59.000Z</time>
      </trkpt>
      <trkpt lat="47.11118" lon="4.8474">
        <ele>369.2</ele>
        <time>2020-06-14T09:38:06.000Z</time>
      </trkpt>
      <trkpt lat="47.11118" lon="4.8474">
        <ele>369.2</ele>
        <time>2020-06-14T09:38:07.000Z</time>
      </trkpt>
      <trkpt lat="47.11117" lon="4.8474">
        <ele>369.4</ele>
        <time>2020-06-14T09:38:09.000Z</time>
      </trkpt>
      <trkpt lat="47.11117" lon="4.8474">
        <ele>369.4</ele>
        <time>2020-06-14T09:38:10.000Z</time>
      </trkpt>
      <trkpt lat="47.11117" lon="4.8474">
        <ele>369.3</ele>
        <time>2020-06-14T09:38:11.000Z</time>
      </trkpt>
      <trkpt lat="47.11117" lon="4.8474">
        <ele>369.1</ele>
        <time>2020-06-14T09:38:16.000Z</time>
      </trkpt>
      <trkpt lat="47.11117" lon="4.8474">
        <ele>369</ele>
        <time>2020-06-14T09:38:17.000Z</time>
      </trkpt>
      <trkpt lat="47.11117" lon="4.8474">
        <ele>368.8</ele>
        <time>2020-06-14T09:38:18.000Z</time>
      </trkpt>
      <trkpt lat="47.11116" lon="4.84745">
        <ele>369.8</ele>
        <time>2020-06-14T09:38:28.000Z</time>
      </trkpt>
      <trkpt lat="47.11116" lon="4.84745">
        <ele>369.9</ele>
        <time>2020-06-14T09:38:35.000Z</time>
      </trkpt>
      <trkpt lat="47.11116" lon="4.84745">
        <ele>369.9</ele>
        <time>2020-06-14T09:38:36.000Z</time>
      </trkpt>
      <trkpt lat="47.11116" lon="4.84746">
        <ele>369.8</ele>
        <time>2020-06-14T09:38:38.000Z</time>
      </trkpt>
      <trkpt lat="47.11116" lon="4.84746">
        <ele>369.6</ele>
        <time>2020-06-14T09:38:40.000Z</time>
      </trkpt>
      <trkpt lat="47.11115" lon="4.84747">
        <ele>369.8</ele>
        <time>2020-06-14T09:38:42.000Z</time>
      </trkpt>
      <trkpt lat="47.11107" lon="4.84752">
        <ele>370.5</ele>
        <time>2020-06-14T09:38:59.000Z</time>
      </trkpt>
      <trkpt lat="47.11097" lon="4.84753">
        <ele>371.4</ele>
        <time>2020-06-14T09:39:07.000Z</time>
      </trkpt>
      <trkpt lat="47.11089" lon="4.84758">
        <ele>372.4</ele>
        <time>2020-06-14T09:39:17.000Z</time>
      </trkpt>
      <trkpt lat="47.11081" lon="4.84766">
        <ele>373.2</ele>
        <time>2020-06-14T09:39:27.000Z</time>
      </trkpt>
      <trkpt lat="47.11074" lon="4.84775">
        <ele>374.6</ele>
        <time>2020-06-14T09:39:38.000Z</time>
      </trkpt>
      <trkpt lat="47.11069" lon="4.84786">
        <ele>376.1</ele>
        <time>2020-06-14T09:39:49.000Z</time>
      </trkpt>
      <trkpt lat="47.11065" lon="4.84799">
        <ele>377.9</ele>
        <time>2020-06-14T09:40:01.000Z</time>
      </trkpt>
      <trkpt lat="47.11066" lon="4.84812">
        <ele>379.5</ele>
        <time>2020-06-14T09:40:13.000Z</time>
      </trkpt>
      <trkpt lat="47.11072" lon="4.84823">
        <ele>381.4</ele>
        <time>2020-06-14T09:40:26.000Z</time>
      </trkpt>
      <trkpt lat="47.11077" lon="4.84834">
        <ele>383</ele>
        <time>2020-06-14T09:40:40.000Z</time>
      </trkpt>
      <trkpt lat="47.11083" lon="4.84845">
        <ele>384.5</ele>
        <time>2020-06-14T09:40:52.000Z</time>
      </trkpt>
      <trkpt lat="47.11089" lon="4.84856">
        <ele>386.8</ele>
        <time>2020-06-14T09:41:04.000Z</time>
      </trkpt>
      <trkpt lat="47.11095" lon="4.84868">
        <ele>388.2</ele>
        <time>2020-06-14T09:41:16.000Z</time>
      </trkpt>
      <trkpt lat="47.11097" lon="4.84882">
        <ele>389.7</ele>
        <time>2020-06-14T09:41:28.000Z</time>
      </trkpt>
      <trkpt lat="47.11096" lon="4.84897">
        <ele>390.3</ele>
        <time>2020-06-14T09:41:37.000Z</time>
      </trkpt>
      <trkpt lat="47.11096" lon="4.84912">
        <ele>390.9</ele>
        <time>2020-06-14T09:41:46.000Z</time>
      </trkpt>
      <trkpt lat="47.11093" lon="4.84925">
        <ele>391</ele>
        <time>2020-06-14T09:41:55.000Z</time>
      </trkpt>
      <trkpt lat="47.11091" lon="4.84939">
        <ele>390.7</ele>
        <time>2020-06-14T09:42:05.000Z</time>
      </trkpt>
      <trkpt lat="47.11091" lon="4.84953">
        <ele>390.7</ele>
        <time>2020-06-14T09:42:15.000Z</time>
      </trkpt>
      <trkpt lat="47.11093" lon="4.84967">
        <ele>390.4</ele>
        <time>2020-06-14T09:42:24.000Z</time>
      </trkpt>
      <trkpt lat="47.11094" lon="4.84981">
        <ele>390.5</ele>
        <time>2020-06-14T09:42:32.000Z</time>
      </trkpt>
      <trkpt lat="47.11095" lon="4.84995">
        <ele>390.3</ele>
        <time>2020-06-14T09:42:40.000Z</time>
      </trkpt>
      <trkpt lat="47.11098" lon="4.85009">
        <ele>390.3</ele>
        <time>2020-06-14T09:42:48.000Z</time>
      </trkpt>
      <trkpt lat="47.111" lon="4.85022">
        <ele>390.1</ele>
        <time>2020-06-14T09:42:56.000Z</time>
      </trkpt>
      <trkpt lat="47.11102" lon="4.85036">
        <ele>390.3</ele>
        <time>2020-06-14T09:43:05.000Z</time>
      </trkpt>
      <trkpt lat="47.11104" lon="4.8505">
        <ele>390.2</ele>
        <time>2020-06-14T09:43:13.000Z</time>
      </trkpt>
      <trkpt lat="47.11104" lon="4.85063">
        <ele>389.6</ele>
        <time>2020-06-14T09:43:21.000Z</time>
      </trkpt>
      <trkpt lat="47.11105" lon="4.85078">
        <ele>389.3</ele>
        <time>2020-06-14T09:43:29.000Z</time>
      </trkpt>
      <trkpt lat="47.11105" lon="4.85092">
        <ele>389.1</ele>
        <time>2020-06-14T09:43:38.000Z</time>
      </trkpt>
      <trkpt lat="47.11105" lon="4.85106">
        <ele>388.7</ele>
        <time>2020-06-14T09:43:46.000Z</time>
      </trkpt>
      <trkpt lat="47.11105" lon="4.8512">
        <ele>388.2</ele>
        <time>2020-06-14T09:43:54.000Z</time>
      </trkpt>
      <trkpt lat="47.11105" lon="4.85135">
        <ele>387.6</ele>
        <time>2020-06-14T09:44:02.000Z</time>
      </trkpt>
      <trkpt lat="47.11104" lon="4.85148">
        <ele>387.4</ele>
        <time>2020-06-14T09:44:10.000Z</time>
      </trkpt>
      <trkpt lat="47.11102" lon="4.85162">
        <ele>387</ele>
        <time>2020-06-14T09:44:19.000Z</time>
      </trkpt>
      <trkpt lat="47.11102" lon="4.85175">
        <ele>386.8</ele>
        <time>2020-06-14T09:44:27.000Z</time>
      </trkpt>
      <trkpt lat="47.111" lon="4.8519">
        <ele>386.8</ele>
        <time>2020-06-14T09:44:35.000Z</time>
      </trkpt>
      <trkpt lat="47.111" lon="4.85204">
        <ele>386.8</ele>
        <time>2020-06-14T09:44:43.000Z</time>
      </trkpt>
      <trkpt lat="47.11109" lon="4.85209">
        <ele>387.5</ele>
        <time>2020-06-14T09:44:53.000Z</time>
      </trkpt>
      <trkpt lat="47.11118" lon="4.85212">
        <ele>388.5</ele>
        <time>2020-06-14T09:45:03.000Z</time>
      </trkpt>
      <trkpt lat="47.11126" lon="4.85219">
        <ele>389.8</ele>
        <time>2020-06-14T09:45:12.000Z</time>
      </trkpt>
      <trkpt lat="47.11134" lon="4.85228">
        <ele>390.4</ele>
        <time>2020-06-14T09:45:21.000Z</time>
      </trkpt>
      <trkpt lat="47.11142" lon="4.85236">
        <ele>391.7</ele>
        <time>2020-06-14T09:45:31.000Z</time>
      </trkpt>
      <trkpt lat="47.1115" lon="4.85243">
        <ele>393</ele>
        <time>2020-06-14T09:45:40.000Z</time>
      </trkpt>
      <trkpt lat="47.11159" lon="4.8525">
        <ele>394.1</ele>
        <time>2020-06-14T09:45:49.000Z</time>
      </trkpt>
      <trkpt lat="47.11167" lon="4.85256">
        <ele>395.1</ele>
        <time>2020-06-14T09:45:58.000Z</time>
      </trkpt>
      <trkpt lat="47.11175" lon="4.85262">
        <ele>396.1</ele>
        <time>2020-06-14T09:46:07.000Z</time>
      </trkpt>
      <trkpt lat="47.11183" lon="4.85268">
        <ele>397</ele>
        <time>2020-06-14T09:46:16.000Z</time>
      </trkpt>
      <trkpt lat="47.11192" lon="4.85273">
        <ele>397.9</ele>
        <time>2020-06-14T09:46:25.000Z</time>
      </trkpt>
      <trkpt lat="47.11201" lon="4.85279">
        <ele>399</ele>
        <time>2020-06-14T09:46:35.000Z</time>
      </trkpt>
      <trkpt lat="47.1121" lon="4.85285">
        <ele>400.1</ele>
        <time>2020-06-14T09:46:45.000Z</time>
      </trkpt>
      <trkpt lat="47.11219" lon="4.85289">
        <ele>401.3</ele>
        <time>2020-06-14T09:46:54.000Z</time>
      </trkpt>
      <trkpt lat="47.11228" lon="4.85293">
        <ele>402.4</ele>
        <time>2020-06-14T09:47:03.000Z</time>
      </trkpt>
      <trkpt lat="47.11237" lon="4.85296">
        <ele>403.3</ele>
        <time>2020-06-14T09:47:13.000Z</time>
      </trkpt>
      <trkpt lat="47.1124" lon="4.85297">
        <ele>403.8</ele>
        <time>2020-06-14T09:47:18.000Z</time>
      </trkpt>
      <trkpt lat="47.1124" lon="4.85296">
        <ele>403.9</ele>
        <time>2020-06-14T09:47:24.000Z</time>
      </trkpt>
      <trkpt lat="47.1125" lon="4.85298">
        <ele>405.1</ele>
        <time>2020-06-14T09:47:35.000Z</time>
      </trkpt>
      <trkpt lat="47.11259" lon="4.85299">
        <ele>405.9</ele>
        <time>2020-06-14T09:47:44.000Z</time>
      </trkpt>
      <trkpt lat="47.11269" lon="4.85298">
        <ele>407.1</ele>
        <time>2020-06-14T09:47:54.000Z</time>
      </trkpt>
      <trkpt lat="47.11278" lon="4.85295">
        <ele>407.5</ele>
        <time>2020-06-14T09:48:03.000Z</time>
      </trkpt>
      <trkpt lat="47.11287" lon="4.85291">
        <ele>408.1</ele>
        <time>2020-06-14T09:48:11.000Z</time>
      </trkpt>
      <trkpt lat="47.11296" lon="4.85288">
        <ele>408.7</ele>
        <time>2020-06-14T09:48:20.000Z</time>
      </trkpt>
      <trkpt lat="47.11305" lon="4.85286">
        <ele>409.4</ele>
        <time>2020-06-14T09:48:29.000Z</time>
      </trkpt>
      <trkpt lat="47.11315" lon="4.85285">
        <ele>409.7</ele>
        <time>2020-06-14T09:48:38.000Z</time>
      </trkpt>
      <trkpt lat="47.11324" lon="4.85284">
        <ele>410.3</ele>
        <time>2020-06-14T09:48:46.000Z</time>
      </trkpt>
      <trkpt lat="47.11334" lon="4.85284">
        <ele>410.8</ele>
        <time>2020-06-14T09:48:55.000Z</time>
      </trkpt>
      <trkpt lat="47.11343" lon="4.85284">
        <ele>411.5</ele>
        <time>2020-06-14T09:49:03.000Z</time>
      </trkpt>
      <trkpt lat="47.11352" lon="4.85285">
        <ele>412.2</ele>
        <time>2020-06-14T09:49:11.000Z</time>
      </trkpt>
      <trkpt lat="47.11362" lon="4.85286">
        <ele>412.5</ele>
        <time>2020-06-14T09:49:20.000Z</time>
      </trkpt>
      <trkpt lat="47.11372" lon="4.85287">
        <ele>413.4</ele>
        <time>2020-06-14T09:49:29.000Z</time>
      </trkpt>
      <trkpt lat="47.11375" lon="4.85288">
        <ele>414</ele>
        <time>2020-06-14T09:49:35.000Z</time>
      </trkpt>
      <trkpt lat="47.11375" lon="4.85288">
        <ele>413.6</ele>
        <time>2020-06-14T09:49:40.000Z</time>
      </trkpt>
      <trkpt lat="47.11385" lon="4.85289">
        <ele>414.5</ele>
        <time>2020-06-14T09:49:50.000Z</time>
      </trkpt>
      <trkpt lat="47.11395" lon="4.85291">
        <ele>415.3</ele>
        <time>2020-06-14T09:49:59.000Z</time>
      </trkpt>
      <trkpt lat="47.11404" lon="4.85292">
        <ele>416</ele>
        <time>2020-06-14T09:50:07.000Z</time>
      </trkpt>
      <trkpt lat="47.11414" lon="4.85293">
        <ele>416.5</ele>
        <time>2020-06-14T09:50:16.000Z</time>
      </trkpt>
      <trkpt lat="47.11424" lon="4.85294">
        <ele>417.4</ele>
        <time>2020-06-14T09:50:25.000Z</time>
      </trkpt>
      <trkpt lat="47.11433" lon="4.85296">
        <ele>418.3</ele>
        <time>2020-06-14T09:50:34.000Z</time>
      </trkpt>
      <trkpt lat="47.11442" lon="4.85299">
        <ele>418.8</ele>
        <time>2020-06-14T09:50:44.000Z</time>
      </trkpt>
      <trkpt lat="47.11452" lon="4.853">
        <ele>419.7</ele>
        <time>2020-06-14T09:50:55.000Z</time>
      </trkpt>
      <trkpt lat="47.11461" lon="4.85303">
        <ele>420.5</ele>
        <time>2020-06-14T09:51:03.000Z</time>
      </trkpt>
      <trkpt lat="47.1147" lon="4.85304">
        <ele>421.3</ele>
        <time>2020-06-14T09:51:12.000Z</time>
      </trkpt>
      <trkpt lat="47.11479" lon="4.85302">
        <ele>422.4</ele>
        <time>2020-06-14T09:51:22.000Z</time>
      </trkpt>
      <trkpt lat="47.11483" lon="4.85302">
        <ele>423</ele>
        <time>2020-06-14T09:51:29.000Z</time>
      </trkpt>
      <trkpt lat="47.11483" lon="4.85302">
        <ele>423.1</ele>
        <time>2020-06-14T09:51:32.000Z</time>
      </trkpt>
      <trkpt lat="47.11485" lon="4.853">
        <ele>423.4</ele>
        <time>2020-06-14T09:51:40.000Z</time>
      </trkpt>
      <trkpt lat="47.11485" lon="4.85299">
        <ele>423.4</ele>
        <time>2020-06-14T09:53:01.000Z</time>
      </trkpt>
      <trkpt lat="47.11485" lon="4.853">
        <ele>423.3</ele>
        <time>2020-06-14T09:53:03.000Z</time>
      </trkpt>
      <trkpt lat="47.11485" lon="4.85301">
        <ele>423.2</ele>
        <time>2020-06-14T09:53:04.000Z</time>
      </trkpt>
      <trkpt lat="47.11492" lon="4.8531">
        <ele>423.7</ele>
        <time>2020-06-14T09:53:13.000Z</time>
      </trkpt>
      <trkpt lat="47.115" lon="4.85319">
        <ele>424.6</ele>
        <time>2020-06-14T09:53:22.000Z</time>
      </trkpt>
      <trkpt lat="47.11507" lon="4.85328">
        <ele>424.9</ele>
        <time>2020-06-14T09:53:31.000Z</time>
      </trkpt>
      <trkpt lat="47.11514" lon="4.85338">
        <ele>425.2</ele>
        <time>2020-06-14T09:53:39.000Z</time>
      </trkpt>
      <trkpt lat="47.11521" lon="4.85346">
        <ele>425.6</ele>
        <time>2020-06-14T09:53:49.000Z</time>
      </trkpt>
      <trkpt lat="47.11521" lon="4.85347">
        <ele>425.8</ele>
        <time>2020-06-14T09:53:56.000Z</time>
      </trkpt>
      <trkpt lat="47.11528" lon="4.85357">
        <ele>426.3</ele>
        <time>2020-06-14T09:54:04.000Z</time>
      </trkpt>
      <trkpt lat="47.11535" lon="4.85366">
        <ele>426.7</ele>
        <time>2020-06-14T09:54:12.000Z</time>
      </trkpt>
      <trkpt lat="47.11542" lon="4.85374">
        <ele>426.7</ele>
        <time>2020-06-14T09:54:20.000Z</time>
      </trkpt>
      <trkpt lat="47.1155" lon="4.85383">
        <ele>426.9</ele>
        <time>2020-06-14T09:54:28.000Z</time>
      </trkpt>
      <trkpt lat="47.11557" lon="4.85392">
        <ele>427</ele>
        <time>2020-06-14T09:54:36.000Z</time>
      </trkpt>
      <trkpt lat="47.11565" lon="4.854">
        <ele>427.2</ele>
        <time>2020-06-14T09:54:44.000Z</time>
      </trkpt>
      <trkpt lat="47.11573" lon="4.85408">
        <ele>427.1</ele>
        <time>2020-06-14T09:54:52.000Z</time>
      </trkpt>
      <trkpt lat="47.11582" lon="4.85417">
        <ele>426.9</ele>
        <time>2020-06-14T09:55:00.000Z</time>
      </trkpt>
      <trkpt lat="47.1159" lon="4.85425">
        <ele>427</ele>
        <time>2020-06-14T09:55:08.000Z</time>
      </trkpt>
      <trkpt lat="47.11597" lon="4.85433">
        <ele>427</ele>
        <time>2020-06-14T09:55:16.000Z</time>
      </trkpt>
      <trkpt lat="47.11605" lon="4.8544">
        <ele>426.7</ele>
        <time>2020-06-14T09:55:24.000Z</time>
      </trkpt>
      <trkpt lat="47.11613" lon="4.85447">
        <ele>426.5</ele>
        <time>2020-06-14T09:55:32.000Z</time>
      </trkpt>
      <trkpt lat="47.11621" lon="4.85454">
        <ele>426.3</ele>
        <time>2020-06-14T09:55:41.000Z</time>
      </trkpt>
      <trkpt lat="47.11629" lon="4.85461">
        <ele>426.1</ele>
        <time>2020-06-14T09:55:49.000Z</time>
      </trkpt>
      <trkpt lat="47.11637" lon="4.85468">
        <ele>426.2</ele>
        <time>2020-06-14T09:55:57.000Z</time>
      </trkpt>
      <trkpt lat="47.11645" lon="4.85477">
        <ele>425.7</ele>
        <time>2020-06-14T09:56:05.000Z</time>
      </trkpt>
      <trkpt lat="47.11651" lon="4.85487">
        <ele>425.9</ele>
        <time>2020-06-14T09:56:13.000Z</time>
      </trkpt>
      <trkpt lat="47.1165" lon="4.85492">
        <ele>425.5</ele>
        <time>2020-06-14T09:56:20.000Z</time>
      </trkpt>
      <trkpt lat="47.1165" lon="4.85492">
        <ele>425.4</ele>
        <time>2020-06-14T09:59:21.000Z</time>
      </trkpt>
      <trkpt lat="47.1165" lon="4.85492">
        <ele>425.7</ele>
        <time>2020-06-14T09:59:23.000Z</time>
      </trkpt>
      <trkpt lat="47.1165" lon="4.85492">
        <ele>425.6</ele>
        <time>2020-06-14T09:59:24.000Z</time>
      </trkpt>
      <trkpt lat="47.1165" lon="4.85492">
        <ele>425.5</ele>
        <time>2020-06-14T09:59:25.000Z</time>
      </trkpt>
      <trkpt lat="47.1165" lon="4.85492">
        <ele>425.3</ele>
        <time>2020-06-14T09:59:27.000Z</time>
      </trkpt>
      <trkpt lat="47.1165" lon="4.85492">
        <ele>425.1</ele>
        <time>2020-06-14T09:59:28.000Z</time>
      </trkpt>
      <trkpt lat="47.1165" lon="4.85492">
        <ele>424.9</ele>
        <time>2020-06-14T09:59:30.000Z</time>
      </trkpt>
      <trkpt lat="47.11649" lon="4.85492">
        <ele>425.5</ele>
        <time>2020-06-14T09:59:33.000Z</time>
      </trkpt>
      <trkpt lat="47.11649" lon="4.85492">
        <ele>425.7</ele>
        <time>2020-06-14T10:00:17.000Z</time>
      </trkpt>
      <trkpt lat="47.11649" lon="4.85492">
        <ele>425.7</ele>
        <time>2020-06-14T10:00:18.000Z</time>
      </trkpt>
      <trkpt lat="47.11649" lon="4.85492">
        <ele>425.7</ele>
        <time>2020-06-14T10:00:26.000Z</time>
      </trkpt>
      <trkpt lat="47.1165" lon="4.85492">
        <ele>425.9</ele>
        <time>2020-06-14T10:00:28.000Z</time>
      </trkpt>
      <trkpt lat="47.11649" lon="4.85492">
        <ele>425.5</ele>
        <time>2020-06-14T10:01:58.000Z</time>
      </trkpt>
      <trkpt lat="47.11649" lon="4.85492">
        <ele>425.4</ele>
        <time>2020-06-14T10:02:02.000Z</time>
      </trkpt>
      <trkpt lat="47.11649" lon="4.85492">
        <ele>425.2</ele>
        <time>2020-06-14T10:05:02.000Z</time>
      </trkpt>
      <trkpt lat="47.11649" lon="4.85492">
        <ele>425.7</ele>
        <time>2020-06-14T10:05:04.000Z</time>
      </trkpt>
      <trkpt lat="47.11649" lon="4.85492">
        <ele>425.4</ele>
        <time>2020-06-14T10:05:07.000Z</time>
      </trkpt>
      <trkpt lat="47.11649" lon="4.85492">
        <ele>425.5</ele>
        <time>2020-06-14T10:05:08.000Z</time>
      </trkpt>
      <trkpt lat="47.11649" lon="4.85492">
        <ele>425.5</ele>
        <time>2020-06-14T10:05:09.000Z</time>
      </trkpt>
      <trkpt lat="47.11649" lon="4.85492">
        <ele>425.5</ele>
        <time>2020-06-14T10:05:11.000Z</time>
      </trkpt>
      <trkpt lat="47.11649" lon="4.85492">
        <ele>425.8</ele>
        <time>2020-06-14T10:05:46.000Z</time>
      </trkpt>
      <trkpt lat="47.11649" lon="4.85492">
        <ele>425.7</ele>
        <time>2020-06-14T10:05:47.000Z</time>
      </trkpt>
      <trkpt lat="47.11649" lon="4.85492">
        <ele>425.7</ele>
        <time>2020-06-14T10:05:53.000Z</time>
      </trkpt>
      <trkpt lat="47.11649" lon="4.85491">
        <ele>425.7</ele>
        <time>2020-06-14T10:05:54.000Z</time>
      </trkpt>
      <trkpt lat="47.11649" lon="4.85491">
        <ele>425.1</ele>
        <time>2020-06-14T10:05:56.000Z</time>
      </trkpt>
      <trkpt lat="47.11648" lon="4.85491">
        <ele>425.5</ele>
        <time>2020-06-14T10:06:01.000Z</time>
      </trkpt>
      <trkpt lat="47.11649" lon="4.85492">
        <ele>425.5</ele>
        <time>2020-06-14T10:06:02.000Z</time>
      </trkpt>
      <trkpt lat="47.11649" lon="4.85492">
        <ele>425.4</ele>
        <time>2020-06-14T10:06:03.000Z</time>
      </trkpt>
      <trkpt lat="47.11649" lon="4.85492">
        <ele>425.3</ele>
        <time>2020-06-14T10:06:05.000Z</time>
      </trkpt>
      <trkpt lat="47.11651" lon="4.85505">
        <ele>425.3</ele>
        <time>2020-06-14T10:06:18.000Z</time>
      </trkpt>
      <trkpt lat="47.11647" lon="4.85517">
        <ele>425.1</ele>
        <time>2020-06-14T10:06:26.000Z</time>
      </trkpt>
      <trkpt lat="47.11642" lon="4.85528">
        <ele>425.2</ele>
        <time>2020-06-14T10:06:33.000Z</time>
      </trkpt>
      <trkpt lat="47.11636" lon="4.8554">
        <ele>425.3</ele>
        <time>2020-06-14T10:06:42.000Z</time>
      </trkpt>
      <trkpt lat="47.11631" lon="4.85553">
        <ele>425.3</ele>
        <time>2020-06-14T10:06:50.000Z</time>
      </trkpt>
      <trkpt lat="47.11626" lon="4.85564">
        <ele>425.7</ele>
        <time>2020-06-14T10:06:58.000Z</time>
      </trkpt>
      <trkpt lat="47.1162" lon="4.85575">
        <ele>425.7</ele>
        <time>2020-06-14T10:07:07.000Z</time>
      </trkpt>
      <trkpt lat="47.11614" lon="4.85586">
        <ele>425.8</ele>
        <time>2020-06-14T10:07:15.000Z</time>
      </trkpt>
      <trkpt lat="47.11608" lon="4.85597">
        <ele>426.5</ele>
        <time>2020-06-14T10:07:24.000Z</time>
      </trkpt>
      <trkpt lat="47.11602" lon="4.85609">
        <ele>426.8</ele>
        <time>2020-06-14T10:07:33.000Z</time>
      </trkpt>
      <trkpt lat="47.11595" lon="4.85619">
        <ele>426.8</ele>
        <time>2020-06-14T10:07:43.000Z</time>
      </trkpt>
      <trkpt lat="47.11589" lon="4.85631">
        <ele>426.8</ele>
        <time>2020-06-14T10:07:52.000Z</time>
      </trkpt>
      <trkpt lat="47.11583" lon="4.85641">
        <ele>426.8</ele>
        <time>2020-06-14T10:08:00.000Z</time>
      </trkpt>
      <trkpt lat="47.11577" lon="4.85653">
        <ele>426.9</ele>
        <time>2020-06-14T10:08:08.000Z</time>
      </trkpt>
      <trkpt lat="47.11571" lon="4.85664">
        <ele>426.8</ele>
        <time>2020-06-14T10:08:16.000Z</time>
      </trkpt>
      <trkpt lat="47.11565" lon="4.85675">
        <ele>426.8</ele>
        <time>2020-06-14T10:08:24.000Z</time>
      </trkpt>
      <trkpt lat="47.11558" lon="4.85685">
        <ele>426.8</ele>
        <time>2020-06-14T10:08:32.000Z</time>
      </trkpt>
      <trkpt lat="47.11552" lon="4.85695">
        <ele>426.8</ele>
        <time>2020-06-14T10:08:40.000Z</time>
      </trkpt>
      <trkpt lat="47.11545" lon="4.85704">
        <ele>427</ele>
        <time>2020-06-14T10:08:48.000Z</time>
      </trkpt>
      <trkpt lat="47.11539" lon="4.85714">
        <ele>426.6</ele>
        <time>2020-06-14T10:08:56.000Z</time>
      </trkpt>
      <trkpt lat="47.11533" lon="4.85725">
        <ele>426.4</ele>
        <time>2020-06-14T10:09:04.000Z</time>
      </trkpt>
      <trkpt lat="47.11525" lon="4.85734">
        <ele>426.3</ele>
        <time>2020-06-14T10:09:13.000Z</time>
      </trkpt>
      <trkpt lat="47.11519" lon="4.85745">
        <ele>425.9</ele>
        <time>2020-06-14T10:09:21.000Z</time>
      </trkpt>
      <trkpt lat="47.11512" lon="4.85756">
        <ele>425.8</ele>
        <time>2020-06-14T10:09:29.000Z</time>
      </trkpt>
      <trkpt lat="47.1151" lon="4.85762">
        <ele>426.1</ele>
        <time>2020-06-14T10:09:37.000Z</time>
      </trkpt>
      <trkpt lat="47.11509" lon="4.85763">
        <ele>425.8</ele>
        <time>2020-06-14T10:09:40.000Z</time>
      </trkpt>
      <trkpt lat="47.11504" lon="4.85774">
        <ele>425.7</ele>
        <time>2020-06-14T10:09:49.000Z</time>
      </trkpt>
      <trkpt lat="47.11499" lon="4.85785">
        <ele>425.3</ele>
        <time>2020-06-14T10:10:01.000Z</time>
      </trkpt>
      <trkpt lat="47.11498" lon="4.85787">
        <ele>425.6</ele>
        <time>2020-06-14T10:10:11.000Z</time>
      </trkpt>
      <trkpt lat="47.11498" lon="4.85787">
        <ele>425.2</ele>
        <time>2020-06-14T10:10:35.000Z</time>
      </trkpt>
      <trkpt lat="47.11498" lon="4.85787">
        <ele>425.1</ele>
        <time>2020-06-14T10:10:36.000Z</time>
      </trkpt>
      <trkpt lat="47.11498" lon="4.85786">
        <ele>425.2</ele>
        <time>2020-06-14T10:10:40.000Z</time>
      </trkpt>
      <trkpt lat="47.11498" lon="4.85786">
        <ele>425.2</ele>
        <time>2020-06-14T10:10:41.000Z</time>
      </trkpt>
      <trkpt lat="47.11498" lon="4.85786">
        <ele>424.9</ele>
        <time>2020-06-14T10:11:33.000Z</time>
      </trkpt>
      <trkpt lat="47.11498" lon="4.85786">
        <ele>424.9</ele>
        <time>2020-06-14T10:11:34.000Z</time>
      </trkpt>
      <trkpt lat="47.11498" lon="4.85786">
        <ele>422.7</ele>
        <time>2020-06-14T10:11:57.000Z</time>
      </trkpt>
      <trkpt lat="47.11498" lon="4.85785">
        <ele>425.5</ele>
        <time>2020-06-14T10:12:01.000Z</time>
      </trkpt>
      <trkpt lat="47.11498" lon="4.85785">
        <ele>425.2</ele>
        <time>2020-06-14T10:12:02.000Z</time>
      </trkpt>
      <trkpt lat="47.11498" lon="4.85785">
        <ele>425.1</ele>
        <time>2020-06-14T10:12:03.000Z</time>
      </trkpt>
      <trkpt lat="47.11498" lon="4.85785">
        <ele>425.2</ele>
        <time>2020-06-14T10:12:06.000Z</time>
      </trkpt>
      <trkpt lat="47.11498" lon="4.85785">
        <ele>425.2</ele>
        <time>2020-06-14T10:12:07.000Z</time>
      </trkpt>
      <trkpt lat="47.11498" lon="4.85785">
        <ele>424.9</ele>
        <time>2020-06-14T10:12:08.000Z</time>
      </trkpt>
      <trkpt lat="47.11507" lon="4.85781">
        <ele>425.3</ele>
        <time>2020-06-14T10:12:23.000Z</time>
      </trkpt>
      <trkpt lat="47.11507" lon="4.85781">
        <ele>425.3</ele>
        <time>2020-06-14T10:12:24.000Z</time>
      </trkpt>
      <trkpt lat="47.11507" lon="4.85781">
        <ele>425.6</ele>
        <time>2020-06-14T10:12:37.000Z</time>
      </trkpt>
      <trkpt lat="47.11507" lon="4.85782">
        <ele>425.5</ele>
        <time>2020-06-14T10:12:41.000Z</time>
      </trkpt>
      <trkpt lat="47.11507" lon="4.85782">
        <ele>425.5</ele>
        <time>2020-06-14T10:13:21.000Z</time>
      </trkpt>
      <trkpt lat="47.11507" lon="4.85782">
        <ele>425.5</ele>
        <time>2020-06-14T10:13:22.000Z</time>
      </trkpt>
      <trkpt lat="47.11507" lon="4.85782">
        <ele>425.4</ele>
        <time>2020-06-14T10:13:27.000Z</time>
      </trkpt>
      <trkpt lat="47.11517" lon="4.85784">
        <ele>425.1</ele>
        <time>2020-06-14T10:13:36.000Z</time>
      </trkpt>
      <trkpt lat="47.11526" lon="4.85786">
        <ele>423.8</ele>
        <time>2020-06-14T10:13:45.000Z</time>
      </trkpt>
      <trkpt lat="47.11535" lon="4.85788">
        <ele>424</ele>
        <time>2020-06-14T10:13:53.000Z</time>
      </trkpt>
      <trkpt lat="47.11545" lon="4.85789">
        <ele>423.6</ele>
        <time>2020-06-14T10:14:01.000Z</time>
      </trkpt>
      <trkpt lat="47.11555" lon="4.85789">
        <ele>422.9</ele>
        <time>2020-06-14T10:14:09.000Z</time>
      </trkpt>
      <trkpt lat="47.11564" lon="4.85791">
        <ele>422.3</ele>
        <time>2020-06-14T10:14:17.000Z</time>
      </trkpt>
      <trkpt lat="47.11574" lon="4.85794">
        <ele>421.3</ele>
        <time>2020-06-14T10:14:26.000Z</time>
      </trkpt>
      <trkpt lat="47.11583" lon="4.85799">
        <ele>420.2</ele>
        <time>2020-06-14T10:14:34.000Z</time>
      </trkpt>
      <trkpt lat="47.11592" lon="4.85803">
        <ele>419.3</ele>
        <time>2020-06-14T10:14:41.000Z</time>
      </trkpt>
      <trkpt lat="47.116" lon="4.85809">
        <ele>418.6</ele>
        <time>2020-06-14T10:14:49.000Z</time>
      </trkpt>
      <trkpt lat="47.11609" lon="4.85815">
        <ele>417.8</ele>
        <time>2020-06-14T10:14:57.000Z</time>
      </trkpt>
      <trkpt lat="47.11618" lon="4.85821">
        <ele>416.8</ele>
        <time>2020-06-14T10:15:06.000Z</time>
      </trkpt>
      <trkpt lat="47.11627" lon="4.85826">
        <ele>415.8</ele>
        <time>2020-06-14T10:15:15.000Z</time>
      </trkpt>
      <trkpt lat="47.11635" lon="4.85832">
        <ele>415</ele>
        <time>2020-06-14T10:15:23.000Z</time>
      </trkpt>
      <trkpt lat="47.11643" lon="4.85838">
        <ele>414.1</ele>
        <time>2020-06-14T10:15:31.000Z</time>
      </trkpt>
      <trkpt lat="47.11652" lon="4.85845">
        <ele>413.2</ele>
        <time>2020-06-14T10:15:39.000Z</time>
      </trkpt>
      <trkpt lat="47.1166" lon="4.8585">
        <ele>412.2</ele>
        <time>2020-06-14T10:15:47.000Z</time>
      </trkpt>
      <trkpt lat="47.11669" lon="4.85856">
        <ele>411.4</ele>
        <time>2020-06-14T10:15:56.000Z</time>
      </trkpt>
      <trkpt lat="47.11678" lon="4.85861">
        <ele>410.5</ele>
        <time>2020-06-14T10:16:04.000Z</time>
      </trkpt>
      <trkpt lat="47.11687" lon="4.85866">
        <ele>408.9</ele>
        <time>2020-06-14T10:16:12.000Z</time>
      </trkpt>
      <trkpt lat="47.11695" lon="4.85871">
        <ele>407.8</ele>
        <time>2020-06-14T10:16:20.000Z</time>
      </trkpt>
      <trkpt lat="47.11704" lon="4.85876">
        <ele>406.9</ele>
        <time>2020-06-14T10:16:29.000Z</time>
      </trkpt>
      <trkpt lat="47.11713" lon="4.85883">
        <ele>405.3</ele>
        <time>2020-06-14T10:16:39.000Z</time>
      </trkpt>
      <trkpt lat="47.11722" lon="4.85888">
        <ele>404.3</ele>
        <time>2020-06-14T10:16:47.000Z</time>
      </trkpt>
      <trkpt lat="47.1173" lon="4.85893">
        <ele>403.3</ele>
        <time>2020-06-14T10:16:55.000Z</time>
      </trkpt>
      <trkpt lat="47.11738" lon="4.859">
        <ele>402.1</ele>
        <time>2020-06-14T10:17:04.000Z</time>
      </trkpt>
      <trkpt lat="47.11748" lon="4.85905">
        <ele>400.5</ele>
        <time>2020-06-14T10:17:13.000Z</time>
      </trkpt>
      <trkpt lat="47.11756" lon="4.85911">
        <ele>399.5</ele>
        <time>2020-06-14T10:17:21.000Z</time>
      </trkpt>
      <trkpt lat="47.11764" lon="4.85917">
        <ele>398.3</ele>
        <time>2020-06-14T10:17:30.000Z</time>
      </trkpt>
      <trkpt lat="47.11772" lon="4.85925">
        <ele>397.2</ele>
        <time>2020-06-14T10:17:39.000Z</time>
      </trkpt>
      <trkpt lat="47.11781" lon="4.85931">
        <ele>396.2</ele>
        <time>2020-06-14T10:17:48.000Z</time>
      </trkpt>
      <trkpt lat="47.11789" lon="4.85939">
        <ele>395.1</ele>
        <time>2020-06-14T10:17:57.000Z</time>
      </trkpt>
      <trkpt lat="47.11797" lon="4.85949">
        <ele>393.9</ele>
        <time>2020-06-14T10:18:06.000Z</time>
      </trkpt>
      <trkpt lat="47.11806" lon="4.85955">
        <ele>393.1</ele>
        <time>2020-06-14T10:18:14.000Z</time>
      </trkpt>
      <trkpt lat="47.11815" lon="4.85962">
        <ele>392</ele>
        <time>2020-06-14T10:18:22.000Z</time>
      </trkpt>
      <trkpt lat="47.11823" lon="4.8597">
        <ele>391.6</ele>
        <time>2020-06-14T10:18:30.000Z</time>
      </trkpt>
      <trkpt lat="47.11832" lon="4.85976">
        <ele>390.8</ele>
        <time>2020-06-14T10:18:38.000Z</time>
      </trkpt>
      <trkpt lat="47.11841" lon="4.85981">
        <ele>390.2</ele>
        <time>2020-06-14T10:18:48.000Z</time>
      </trkpt>
      <trkpt lat="47.1185" lon="4.85987">
        <ele>389.6</ele>
        <time>2020-06-14T10:18:57.000Z</time>
      </trkpt>
      <trkpt lat="47.11859" lon="4.85991">
        <ele>388.6</ele>
        <time>2020-06-14T10:19:07.000Z</time>
      </trkpt>
      <trkpt lat="47.11866" lon="4.85981">
        <ele>388.6</ele>
        <time>2020-06-14T10:19:15.000Z</time>
      </trkpt>
      <trkpt lat="47.11871" lon="4.85969">
        <ele>388.9</ele>
        <time>2020-06-14T10:19:23.000Z</time>
      </trkpt>
      <trkpt lat="47.11874" lon="4.85955">
        <ele>389.4</ele>
        <time>2020-06-14T10:19:33.000Z</time>
      </trkpt>
      <trkpt lat="47.11879" lon="4.85943">
        <ele>389.9</ele>
        <time>2020-06-14T10:19:42.000Z</time>
      </trkpt>
      <trkpt lat="47.11884" lon="4.85931">
        <ele>390</ele>
        <time>2020-06-14T10:19:49.000Z</time>
      </trkpt>
      <trkpt lat="47.1189" lon="4.85919">
        <ele>390.4</ele>
        <time>2020-06-14T10:19:57.000Z</time>
      </trkpt>
      <trkpt lat="47.11896" lon="4.85907">
        <ele>390.7</ele>
        <time>2020-06-14T10:20:06.000Z</time>
      </trkpt>
      <trkpt lat="47.11899" lon="4.85895">
        <ele>391</ele>
        <time>2020-06-14T10:20:14.000Z</time>
      </trkpt>
      <trkpt lat="47.11903" lon="4.85883">
        <ele>391.7</ele>
        <time>2020-06-14T10:20:23.000Z</time>
      </trkpt>
      <trkpt lat="47.11907" lon="4.85871">
        <ele>392</ele>
        <time>2020-06-14T10:20:31.000Z</time>
      </trkpt>
      <trkpt lat="47.11907" lon="4.85869">
        <ele>392.2</ele>
        <time>2020-06-14T10:20:36.000Z</time>
      </trkpt>
      <trkpt lat="47.11907" lon="4.8587">
        <ele>392</ele>
        <time>2020-06-14T10:20:37.000Z</time>
      </trkpt>
      <trkpt lat="47.11912" lon="4.85858">
        <ele>392.6</ele>
        <time>2020-06-14T10:20:49.000Z</time>
      </trkpt>
      <trkpt lat="47.11919" lon="4.85847">
        <ele>392.9</ele>
        <time>2020-06-14T10:21:00.000Z</time>
      </trkpt>
      <trkpt lat="47.11926" lon="4.85837">
        <ele>393.9</ele>
        <time>2020-06-14T10:21:13.000Z</time>
      </trkpt>
      <trkpt lat="47.11934" lon="4.85828">
        <ele>393.6</ele>
        <time>2020-06-14T10:21:24.000Z</time>
      </trkpt>
      <trkpt lat="47.11943" lon="4.85827">
        <ele>393.4</ele>
        <time>2020-06-14T10:21:34.000Z</time>
      </trkpt>
      <trkpt lat="47.11951" lon="4.85818">
        <ele>393.1</ele>
        <time>2020-06-14T10:21:41.000Z</time>
      </trkpt>
      <trkpt lat="47.11956" lon="4.85804">
        <ele>393</ele>
        <time>2020-06-14T10:21:47.000Z</time>
      </trkpt>
      <trkpt lat="47.11964" lon="4.85797">
        <ele>392.7</ele>
        <time>2020-06-14T10:21:53.000Z</time>
      </trkpt>
      <trkpt lat="47.11974" lon="4.858">
        <ele>392.2</ele>
        <time>2020-06-14T10:22:02.000Z</time>
      </trkpt>
      <trkpt lat="47.11978" lon="4.85812">
        <ele>391.2</ele>
        <time>2020-06-14T10:22:08.000Z</time>
      </trkpt>
      <trkpt lat="47.11984" lon="4.85823">
        <ele>390.4</ele>
        <time>2020-06-14T10:22:16.000Z</time>
      </trkpt>
      <trkpt lat="47.11992" lon="4.85831">
        <ele>389.8</ele>
        <time>2020-06-14T10:22:23.000Z</time>
      </trkpt>
      <trkpt lat="47.11998" lon="4.85841">
        <ele>389.1</ele>
        <time>2020-06-14T10:22:31.000Z</time>
      </trkpt>
      <trkpt lat="47.12006" lon="4.85849">
        <ele>388.5</ele>
        <time>2020-06-14T10:22:39.000Z</time>
      </trkpt>
      <trkpt lat="47.12015" lon="4.85852">
        <ele>386.6</ele>
        <time>2020-06-14T10:22:49.000Z</time>
      </trkpt>
      <trkpt lat="47.12021" lon="4.85862">
        <ele>385.6</ele>
        <time>2020-06-14T10:22:57.000Z</time>
      </trkpt>
      <trkpt lat="47.12029" lon="4.85868">
        <ele>384.3</ele>
        <time>2020-06-14T10:23:06.000Z</time>
      </trkpt>
      <trkpt lat="47.12036" lon="4.85878">
        <ele>382.6</ele>
        <time>2020-06-14T10:23:16.000Z</time>
      </trkpt>
      <trkpt lat="47.1204" lon="4.85882">
        <ele>381.9</ele>
        <time>2020-06-14T10:23:23.000Z</time>
      </trkpt>
      <trkpt lat="47.1204" lon="4.85883">
        <ele>382.1</ele>
        <time>2020-06-14T10:23:26.000Z</time>
      </trkpt>
      <trkpt lat="47.12048" lon="4.85892">
        <ele>380.8</ele>
        <time>2020-06-14T10:23:36.000Z</time>
      </trkpt>
      <trkpt lat="47.12056" lon="4.85902">
        <ele>379.5</ele>
        <time>2020-06-14T10:23:45.000Z</time>
      </trkpt>
      <trkpt lat="47.12063" lon="4.85911">
        <ele>378.4</ele>
        <time>2020-06-14T10:23:53.000Z</time>
      </trkpt>
      <trkpt lat="47.1207" lon="4.8592">
        <ele>377.2</ele>
        <time>2020-06-14T10:24:01.000Z</time>
      </trkpt>
      <trkpt lat="47.12077" lon="4.85929">
        <ele>376.3</ele>
        <time>2020-06-14T10:24:09.000Z</time>
      </trkpt>
      <trkpt lat="47.1208" lon="4.85933">
        <ele>375.6</ele>
        <time>2020-06-14T10:24:26.000Z</time>
      </trkpt>
      <trkpt lat="47.1208" lon="4.85933">
        <ele>375.4</ele>
        <time>2020-06-14T10:24:35.000Z</time>
      </trkpt>
      <trkpt lat="47.1208" lon="4.85933">
        <ele>375.4</ele>
        <time>2020-06-14T10:24:36.000Z</time>
      </trkpt>
      <trkpt lat="47.1208" lon="4.85933">
        <ele>375.7</ele>
        <time>2020-06-14T10:24:53.000Z</time>
      </trkpt>
      <trkpt lat="47.12079" lon="4.85932">
        <ele>375.6</ele>
        <time>2020-06-14T10:24:59.000Z</time>
      </trkpt>
      <trkpt lat="47.12079" lon="4.85932">
        <ele>375.6</ele>
        <time>2020-06-14T10:25:03.000Z</time>
      </trkpt>
      <trkpt lat="47.12079" lon="4.85932">
        <ele>375.8</ele>
        <time>2020-06-14T10:25:04.000Z</time>
      </trkpt>
      <trkpt lat="47.12079" lon="4.85932">
        <ele>375.5</ele>
        <time>2020-06-14T10:25:07.000Z</time>
      </trkpt>
      <trkpt lat="47.12079" lon="4.85932">
        <ele>375.5</ele>
        <time>2020-06-14T10:25:08.000Z</time>
      </trkpt>
      <trkpt lat="47.12079" lon="4.85931">
        <ele>375.7</ele>
        <time>2020-06-14T10:25:11.000Z</time>
      </trkpt>
      <trkpt lat="47.12079" lon="4.85931">
        <ele>375.7</ele>
        <time>2020-06-14T10:25:12.000Z</time>
      </trkpt>
      <trkpt lat="47.12078" lon="4.85931">
        <ele>375.7</ele>
        <time>2020-06-14T10:25:36.000Z</time>
      </trkpt>
      <trkpt lat="47.12078" lon="4.85931">
        <ele>375.5</ele>
        <time>2020-06-14T10:25:37.000Z</time>
      </trkpt>
      <trkpt lat="47.12078" lon="4.85931">
        <ele>375.5</ele>
        <time>2020-06-14T10:25:38.000Z</time>
      </trkpt>
      <trkpt lat="47.12078" lon="4.85931">
        <ele>375.6</ele>
        <time>2020-06-14T10:25:40.000Z</time>
      </trkpt>
      <trkpt lat="47.12078" lon="4.85931">
        <ele>375.6</ele>
        <time>2020-06-14T10:25:51.000Z</time>
      </trkpt>
      <trkpt lat="47.12078" lon="4.85931">
        <ele>375.6</ele>
        <time>2020-06-14T10:25:53.000Z</time>
      </trkpt>
      <trkpt lat="47.12078" lon="4.85931">
        <ele>375.7</ele>
        <time>2020-06-14T10:26:26.000Z</time>
      </trkpt>
      <trkpt lat="47.12078" lon="4.85931">
        <ele>375.7</ele>
        <time>2020-06-14T10:26:27.000Z</time>
      </trkpt>
      <trkpt lat="47.12078" lon="4.85931">
        <ele>375.6</ele>
        <time>2020-06-14T10:26:29.000Z</time>
      </trkpt>
      <trkpt lat="47.12078" lon="4.85931">
        <ele>375.7</ele>
        <time>2020-06-14T10:26:30.000Z</time>
      </trkpt>
      <trkpt lat="47.12078" lon="4.85931">
        <ele>375.8</ele>
        <time>2020-06-14T10:26:32.000Z</time>
      </trkpt>
      <trkpt lat="47.12078" lon="4.85931">
        <ele>375.7</ele>
        <time>2020-06-14T10:26:33.000Z</time>
      </trkpt>
      <trkpt lat="47.12078" lon="4.85931">
        <ele>375.6</ele>
        <time>2020-06-14T10:26:39.000Z</time>
      </trkpt>
      <trkpt lat="47.12077" lon="4.85931">
        <ele>375.7</ele>
        <time>2020-06-14T10:26:41.000Z</time>
      </trkpt>
      <trkpt lat="47.12077" lon="4.85931">
        <ele>376</ele>
        <time>2020-06-14T10:26:45.000Z</time>
      </trkpt>
      <trkpt lat="47.12077" lon="4.85931">
        <ele>376</ele>
        <time>2020-06-14T10:26:46.000Z</time>
      </trkpt>
      <trkpt lat="47.12077" lon="4.85932">
        <ele>375.9</ele>
        <time>2020-06-14T10:26:48.000Z</time>
      </trkpt>
      <trkpt lat="47.12077" lon="4.85931">
        <ele>375.6</ele>
        <time>2020-06-14T10:26:51.000Z</time>
      </trkpt>
      <trkpt lat="47.12077" lon="4.85931">
        <ele>375.9</ele>
        <time>2020-06-14T10:27:03.000Z</time>
      </trkpt>
      <trkpt lat="47.12076" lon="4.85931">
        <ele>375.8</ele>
        <time>2020-06-14T10:27:05.000Z</time>
      </trkpt>
      <trkpt lat="47.12076" lon="4.85931">
        <ele>375.9</ele>
        <time>2020-06-14T10:27:48.000Z</time>
      </trkpt>
      <trkpt lat="47.12076" lon="4.85931">
        <ele>375.8</ele>
        <time>2020-06-14T10:27:50.000Z</time>
      </trkpt>
      <trkpt lat="47.12076" lon="4.85931">
        <ele>375.6</ele>
        <time>2020-06-14T10:28:02.000Z</time>
      </trkpt>
      <trkpt lat="47.12076" lon="4.85931">
        <ele>375.6</ele>
        <time>2020-06-14T10:28:03.000Z</time>
      </trkpt>
      <trkpt lat="47.12076" lon="4.85931">
        <ele>375.6</ele>
        <time>2020-06-14T10:28:09.000Z</time>
      </trkpt>
      <trkpt lat="47.12076" lon="4.85931">
        <ele>375.5</ele>
        <time>2020-06-14T10:28:10.000Z</time>
      </trkpt>
      <trkpt lat="47.12076" lon="4.85931">
        <ele>375.7</ele>
        <time>2020-06-14T10:28:28.000Z</time>
      </trkpt>
      <trkpt lat="47.12076" lon="4.85931">
        <ele>375.5</ele>
        <time>2020-06-14T10:28:29.000Z</time>
      </trkpt>
      <trkpt lat="47.12076" lon="4.8593">
        <ele>375.7</ele>
        <time>2020-06-14T10:29:00.000Z</time>
      </trkpt>
      <trkpt lat="47.12076" lon="4.8593">
        <ele>375.6</ele>
        <time>2020-06-14T10:29:01.000Z</time>
      </trkpt>
      <trkpt lat="47.12075" lon="4.8593">
        <ele>375.6</ele>
        <time>2020-06-14T10:29:31.000Z</time>
      </trkpt>
      <trkpt lat="47.12075" lon="4.8593">
        <ele>375.7</ele>
        <time>2020-06-14T10:29:32.000Z</time>
      </trkpt>
      <trkpt lat="47.12075" lon="4.8593">
        <ele>375.7</ele>
        <time>2020-06-14T10:29:39.000Z</time>
      </trkpt>
      <trkpt lat="47.12075" lon="4.8593">
        <ele>375.7</ele>
        <time>2020-06-14T10:29:40.000Z</time>
      </trkpt>
      <trkpt lat="47.12075" lon="4.8593">
        <ele>375.6</ele>
        <time>2020-06-14T10:29:42.000Z</time>
      </trkpt>
      <trkpt lat="47.12075" lon="4.8593">
        <ele>375.7</ele>
        <time>2020-06-14T10:29:43.000Z</time>
      </trkpt>
      <trkpt lat="47.12075" lon="4.8593">
        <ele>375.6</ele>
        <time>2020-06-14T10:30:31.000Z</time>
      </trkpt>
      <trkpt lat="47.12075" lon="4.8593">
        <ele>375.6</ele>
        <time>2020-06-14T10:30:32.000Z</time>
      </trkpt>
      <trkpt lat="47.12076" lon="4.8593">
        <ele>375.6</ele>
        <time>2020-06-14T10:30:33.000Z</time>
      </trkpt>
      <trkpt lat="47.12076" lon="4.8593">
        <ele>375.6</ele>
        <time>2020-06-14T10:30:34.000Z</time>
      </trkpt>
      <trkpt lat="47.12076" lon="4.85931">
        <ele>375.9</ele>
        <time>2020-06-14T10:30:55.000Z</time>
      </trkpt>
      <trkpt lat="47.12076" lon="4.85931">
        <ele>375.8</ele>
        <time>2020-06-14T10:30:58.000Z</time>
      </trkpt>
      <trkpt lat="47.12076" lon="4.85931">
        <ele>375.7</ele>
        <time>2020-06-14T10:31:03.000Z</time>
      </trkpt>
      <trkpt lat="47.12076" lon="4.85931">
        <ele>375.7</ele>
        <time>2020-06-14T10:31:04.000Z</time>
      </trkpt>
      <trkpt lat="47.12076" lon="4.85932">
        <ele>375.9</ele>
        <time>2020-06-14T10:31:07.000Z</time>
      </trkpt>
      <trkpt lat="47.12083" lon="4.85943">
        <ele>374.5</ele>
        <time>2020-06-14T10:31:16.000Z</time>
      </trkpt>
      <trkpt lat="47.12089" lon="4.85952">
        <ele>373.2</ele>
        <time>2020-06-14T10:31:24.000Z</time>
      </trkpt>
      <trkpt lat="47.12097" lon="4.85962">
        <ele>372</ele>
        <time>2020-06-14T10:31:32.000Z</time>
      </trkpt>
      <trkpt lat="47.12104" lon="4.85971">
        <ele>370.9</ele>
        <time>2020-06-14T10:31:40.000Z</time>
      </trkpt>
      <trkpt lat="47.1211" lon="4.85981">
        <ele>370.1</ele>
        <time>2020-06-14T10:31:48.000Z</time>
      </trkpt>
      <trkpt lat="47.12117" lon="4.85991">
        <ele>368.8</ele>
        <time>2020-06-14T10:31:56.000Z</time>
      </trkpt>
      <trkpt lat="47.12124" lon="4.86">
        <ele>367.7</ele>
        <time>2020-06-14T10:32:04.000Z</time>
      </trkpt>
      <trkpt lat="47.12132" lon="4.86009">
        <ele>366.6</ele>
        <time>2020-06-14T10:32:12.000Z</time>
      </trkpt>
      <trkpt lat="47.12139" lon="4.86018">
        <ele>365.4</ele>
        <time>2020-06-14T10:32:21.000Z</time>
      </trkpt>
      <trkpt lat="47.12144" lon="4.86023">
        <ele>365.1</ele>
        <time>2020-06-14T10:32:31.000Z</time>
      </trkpt>
      <trkpt lat="47.12144" lon="4.86023">
        <ele>365.1</ele>
        <time>2020-06-14T10:32:41.000Z</time>
      </trkpt>
      <trkpt lat="47.12143" lon="4.86023">
        <ele>365.3</ele>
        <time>2020-06-14T10:32:43.000Z</time>
      </trkpt>
      <trkpt lat="47.12144" lon="4.86023">
        <ele>365.3</ele>
        <time>2020-06-14T10:32:44.000Z</time>
      </trkpt>
      <trkpt lat="47.12144" lon="4.86023">
        <ele>365.2</ele>
        <time>2020-06-14T10:32:45.000Z</time>
      </trkpt>
      <trkpt lat="47.12144" lon="4.86022">
        <ele>365.1</ele>
        <time>2020-06-14T10:32:48.000Z</time>
      </trkpt>
      <trkpt lat="47.12144" lon="4.86022">
        <ele>365.2</ele>
        <time>2020-06-14T10:32:50.000Z</time>
      </trkpt>
      <trkpt lat="47.12144" lon="4.86023">
        <ele>365</ele>
        <time>2020-06-14T10:33:14.000Z</time>
      </trkpt>
      <trkpt lat="47.12144" lon="4.86022">
        <ele>365.1</ele>
        <time>2020-06-14T10:33:16.000Z</time>
      </trkpt>
      <trkpt lat="47.12144" lon="4.86023">
        <ele>365.2</ele>
        <time>2020-06-14T10:33:53.000Z</time>
      </trkpt>
      <trkpt lat="47.12144" lon="4.86024">
        <ele>364.8</ele>
        <time>2020-06-14T10:33:59.000Z</time>
      </trkpt>
      <trkpt lat="47.12144" lon="4.86024">
        <ele>365.2</ele>
        <time>2020-06-14T10:34:01.000Z</time>
      </trkpt>
      <trkpt lat="47.12144" lon="4.86024">
        <ele>365.1</ele>
        <time>2020-06-14T10:34:02.000Z</time>
      </trkpt>
      <trkpt lat="47.12144" lon="4.86024">
        <ele>365.1</ele>
        <time>2020-06-14T10:34:06.000Z</time>
      </trkpt>
      <trkpt lat="47.12145" lon="4.86024">
        <ele>364.8</ele>
        <time>2020-06-14T10:34:08.000Z</time>
      </trkpt>
      <trkpt lat="47.12145" lon="4.86024">
        <ele>365</ele>
        <time>2020-06-14T10:34:15.000Z</time>
      </trkpt>
      <trkpt lat="47.12145" lon="4.86024">
        <ele>365</ele>
        <time>2020-06-14T10:34:16.000Z</time>
      </trkpt>
      <trkpt lat="47.12145" lon="4.86024">
        <ele>364.9</ele>
        <time>2020-06-14T10:34:17.000Z</time>
      </trkpt>
      <trkpt lat="47.12145" lon="4.86024">
        <ele>364.8</ele>
        <time>2020-06-14T10:34:18.000Z</time>
      </trkpt>
      <trkpt lat="47.12145" lon="4.86024">
        <ele>365</ele>
        <time>2020-06-14T10:34:23.000Z</time>
      </trkpt>
      <trkpt lat="47.12145" lon="4.86024">
        <ele>364.8</ele>
        <time>2020-06-14T10:34:24.000Z</time>
      </trkpt>
      <trkpt lat="47.12145" lon="4.86024">
        <ele>364.7</ele>
        <time>2020-06-14T10:34:28.000Z</time>
      </trkpt>
      <trkpt lat="47.12145" lon="4.86024">
        <ele>364.9</ele>
        <time>2020-06-14T10:34:30.000Z</time>
      </trkpt>
      <trkpt lat="47.12146" lon="4.86024">
        <ele>364.7</ele>
        <time>2020-06-14T10:34:53.000Z</time>
      </trkpt>
      <trkpt lat="47.12146" lon="4.86024">
        <ele>365</ele>
        <time>2020-06-14T10:34:55.000Z</time>
      </trkpt>
      <trkpt lat="47.12146" lon="4.86024">
        <ele>365</ele>
        <time>2020-06-14T10:34:56.000Z</time>
      </trkpt>
      <trkpt lat="47.12146" lon="4.86024">
        <ele>364.8</ele>
        <time>2020-06-14T10:34:57.000Z</time>
      </trkpt>
      <trkpt lat="47.12146" lon="4.86025">
        <ele>364.6</ele>
        <time>2020-06-14T10:35:06.000Z</time>
      </trkpt>
      <trkpt lat="47.12146" lon="4.86025">
        <ele>364.6</ele>
        <time>2020-06-14T10:35:07.000Z</time>
      </trkpt>
      <trkpt lat="47.12146" lon="4.86025">
        <ele>364.5</ele>
        <time>2020-06-14T10:35:23.000Z</time>
      </trkpt>
      <trkpt lat="47.12146" lon="4.86025">
        <ele>364.6</ele>
        <time>2020-06-14T10:35:24.000Z</time>
      </trkpt>
      <trkpt lat="47.12146" lon="4.86025">
        <ele>364.4</ele>
        <time>2020-06-14T10:35:38.000Z</time>
      </trkpt>
      <trkpt lat="47.12146" lon="4.86025">
        <ele>364.5</ele>
        <time>2020-06-14T10:35:40.000Z</time>
      </trkpt>
      <trkpt lat="47.12146" lon="4.86025">
        <ele>364.5</ele>
        <time>2020-06-14T10:35:42.000Z</time>
      </trkpt>
      <trkpt lat="47.12146" lon="4.86025">
        <ele>364.6</ele>
        <time>2020-06-14T10:35:43.000Z</time>
      </trkpt>
      <trkpt lat="47.12146" lon="4.86026">
        <ele>364.7</ele>
        <time>2020-06-14T10:35:50.000Z</time>
      </trkpt>
      <trkpt lat="47.12146" lon="4.86026">
        <ele>364.7</ele>
        <time>2020-06-14T10:35:51.000Z</time>
      </trkpt>
      <trkpt lat="47.12146" lon="4.86026">
        <ele>364.5</ele>
        <time>2020-06-14T10:35:58.000Z</time>
      </trkpt>
      <trkpt lat="47.12147" lon="4.86028">
        <ele>364.7</ele>
        <time>2020-06-14T10:36:05.000Z</time>
      </trkpt>
      <trkpt lat="47.12147" lon="4.86029">
        <ele>364.6</ele>
        <time>2020-06-14T10:36:11.000Z</time>
      </trkpt>
      <trkpt lat="47.12147" lon="4.86028">
        <ele>364.5</ele>
        <time>2020-06-14T10:36:12.000Z</time>
      </trkpt>
      <trkpt lat="47.12147" lon="4.86028">
        <ele>364.6</ele>
        <time>2020-06-14T10:36:19.000Z</time>
      </trkpt>
      <trkpt lat="47.12147" lon="4.86028">
        <ele>364.7</ele>
        <time>2020-06-14T10:36:20.000Z</time>
      </trkpt>
      <trkpt lat="47.12147" lon="4.86028">
        <ele>364.8</ele>
        <time>2020-06-14T10:36:21.000Z</time>
      </trkpt>
      <trkpt lat="47.12147" lon="4.86028">
        <ele>364.7</ele>
        <time>2020-06-14T10:36:22.000Z</time>
      </trkpt>
      <trkpt lat="47.12147" lon="4.86028">
        <ele>364.5</ele>
        <time>2020-06-14T10:36:27.000Z</time>
      </trkpt>
      <trkpt lat="47.12147" lon="4.86028">
        <ele>364.7</ele>
        <time>2020-06-14T10:36:30.000Z</time>
      </trkpt>
      <trkpt lat="47.12147" lon="4.86028">
        <ele>364.7</ele>
        <time>2020-06-14T10:36:31.000Z</time>
      </trkpt>
      <trkpt lat="47.12147" lon="4.86029">
        <ele>364.4</ele>
        <time>2020-06-14T10:36:38.000Z</time>
      </trkpt>
      <trkpt lat="47.12147" lon="4.86029">
        <ele>364.5</ele>
        <time>2020-06-14T10:36:41.000Z</time>
      </trkpt>
      <trkpt lat="47.12147" lon="4.86029">
        <ele>364.7</ele>
        <time>2020-06-14T10:36:42.000Z</time>
      </trkpt>
      <trkpt lat="47.12147" lon="4.86029">
        <ele>364.7</ele>
        <time>2020-06-14T10:36:45.000Z</time>
      </trkpt>
      <trkpt lat="47.12147" lon="4.8603">
        <ele>364.6</ele>
        <time>2020-06-14T10:36:49.000Z</time>
      </trkpt>
      <trkpt lat="47.12147" lon="4.8603">
        <ele>364.3</ele>
        <time>2020-06-14T10:36:52.000Z</time>
      </trkpt>
      <trkpt lat="47.12147" lon="4.8603">
        <ele>364.4</ele>
        <time>2020-06-14T10:36:54.000Z</time>
      </trkpt>
      <trkpt lat="47.12148" lon="4.8603">
        <ele>364.3</ele>
        <time>2020-06-14T10:36:55.000Z</time>
      </trkpt>
      <trkpt lat="47.12148" lon="4.8603">
        <ele>364.2</ele>
        <time>2020-06-14T10:36:59.000Z</time>
      </trkpt>
      <trkpt lat="47.12148" lon="4.8603">
        <ele>364.2</ele>
        <time>2020-06-14T10:37:09.000Z</time>
      </trkpt>
      <trkpt lat="47.12148" lon="4.8603">
        <ele>364.2</ele>
        <time>2020-06-14T10:37:11.000Z</time>
      </trkpt>
      <trkpt lat="47.12148" lon="4.86031">
        <ele>363.9</ele>
        <time>2020-06-14T10:37:20.000Z</time>
      </trkpt>
      <trkpt lat="47.12148" lon="4.86031">
        <ele>364</ele>
        <time>2020-06-14T10:37:24.000Z</time>
      </trkpt>
      <trkpt lat="47.12148" lon="4.86031">
        <ele>364.3</ele>
        <time>2020-06-14T10:37:29.000Z</time>
      </trkpt>
      <trkpt lat="47.12148" lon="4.86031">
        <ele>364.3</ele>
        <time>2020-06-14T10:37:30.000Z</time>
      </trkpt>
      <trkpt lat="47.12149" lon="4.86031">
        <ele>364.2</ele>
        <time>2020-06-14T10:37:40.000Z</time>
      </trkpt>
      <trkpt lat="47.12149" lon="4.86031">
        <ele>363.9</ele>
        <time>2020-06-14T10:37:42.000Z</time>
      </trkpt>
      <trkpt lat="47.12149" lon="4.86032">
        <ele>363.9</ele>
        <time>2020-06-14T10:37:44.000Z</time>
      </trkpt>
      <trkpt lat="47.12149" lon="4.86033">
        <ele>364.1</ele>
        <time>2020-06-14T10:37:48.000Z</time>
      </trkpt>
      <trkpt lat="47.12149" lon="4.86033">
        <ele>364.1</ele>
        <time>2020-06-14T10:37:49.000Z</time>
      </trkpt>
      <trkpt lat="47.12149" lon="4.86032">
        <ele>364.3</ele>
        <time>2020-06-14T10:37:51.000Z</time>
      </trkpt>
      <trkpt lat="47.12149" lon="4.86033">
        <ele>364.1</ele>
        <time>2020-06-14T10:37:53.000Z</time>
      </trkpt>
      <trkpt lat="47.12149" lon="4.86033">
        <ele>364</ele>
        <time>2020-06-14T10:37:54.000Z</time>
      </trkpt>
      <trkpt lat="47.12149" lon="4.86033">
        <ele>363.9</ele>
        <time>2020-06-14T10:37:56.000Z</time>
      </trkpt>
      <trkpt lat="47.12149" lon="4.86033">
        <ele>364.2</ele>
        <time>2020-06-14T10:37:58.000Z</time>
      </trkpt>
      <trkpt lat="47.12149" lon="4.86032">
        <ele>364</ele>
        <time>2020-06-14T10:38:00.000Z</time>
      </trkpt>
      <trkpt lat="47.12149" lon="4.86032">
        <ele>364.1</ele>
        <time>2020-06-14T10:38:01.000Z</time>
      </trkpt>
      <trkpt lat="47.12149" lon="4.86033">
        <ele>364.2</ele>
        <time>2020-06-14T10:38:03.000Z</time>
      </trkpt>
      <trkpt lat="47.12148" lon="4.86035">
        <ele>364.3</ele>
        <time>2020-06-14T10:38:15.000Z</time>
      </trkpt>
      <trkpt lat="47.12148" lon="4.86035">
        <ele>364.3</ele>
        <time>2020-06-14T10:38:16.000Z</time>
      </trkpt>
      <trkpt lat="47.12148" lon="4.86035">
        <ele>364.2</ele>
        <time>2020-06-14T10:38:19.000Z</time>
      </trkpt>
      <trkpt lat="47.12148" lon="4.86035">
        <ele>364.3</ele>
        <time>2020-06-14T10:38:20.000Z</time>
      </trkpt>
      <trkpt lat="47.12145" lon="4.86035">
        <ele>364</ele>
        <time>2020-06-14T10:38:25.000Z</time>
      </trkpt>
      <trkpt lat="47.12146" lon="4.86035">
        <ele>364</ele>
        <time>2020-06-14T10:38:26.000Z</time>
      </trkpt>
      <trkpt lat="47.12146" lon="4.86035">
        <ele>364</ele>
        <time>2020-06-14T10:38:28.000Z</time>
      </trkpt>
      <trkpt lat="47.12146" lon="4.86035">
        <ele>364.1</ele>
        <time>2020-06-14T10:38:34.000Z</time>
      </trkpt>
      <trkpt lat="47.12146" lon="4.86035">
        <ele>363.9</ele>
        <time>2020-06-14T10:38:35.000Z</time>
      </trkpt>
      <trkpt lat="47.12146" lon="4.86034">
        <ele>363.7</ele>
        <time>2020-06-14T10:39:23.000Z</time>
      </trkpt>
      <trkpt lat="47.1215" lon="4.86034">
        <ele>363.8</ele>
        <time>2020-06-14T10:39:32.000Z</time>
      </trkpt>
      <trkpt lat="47.1215" lon="4.86034">
        <ele>363.7</ele>
        <time>2020-06-14T10:39:37.000Z</time>
      </trkpt>
      <trkpt lat="47.12155" lon="4.86033">
        <ele>363.3</ele>
        <time>2020-06-14T10:39:48.000Z</time>
      </trkpt>
      <trkpt lat="47.12155" lon="4.86033">
        <ele>363.7</ele>
        <time>2020-06-14T10:39:53.000Z</time>
      </trkpt>
      <trkpt lat="47.12155" lon="4.86033">
        <ele>363.4</ele>
        <time>2020-06-14T10:39:54.000Z</time>
      </trkpt>
      <trkpt lat="47.12154" lon="4.86033">
        <ele>363.4</ele>
        <time>2020-06-14T10:39:57.000Z</time>
      </trkpt>
      <trkpt lat="47.12154" lon="4.86033">
        <ele>363.3</ele>
        <time>2020-06-14T10:39:58.000Z</time>
      </trkpt>
      <trkpt lat="47.12154" lon="4.86033">
        <ele>363.3</ele>
        <time>2020-06-14T10:39:59.000Z</time>
      </trkpt>
      <trkpt lat="47.12154" lon="4.86033">
        <ele>363.5</ele>
        <time>2020-06-14T10:40:01.000Z</time>
      </trkpt>
      <trkpt lat="47.12154" lon="4.86033">
        <ele>363.6</ele>
        <time>2020-06-14T10:40:15.000Z</time>
      </trkpt>
      <trkpt lat="47.12154" lon="4.86033">
        <ele>362.3</ele>
        <time>2020-06-14T10:40:18.000Z</time>
      </trkpt>
      <trkpt lat="47.12154" lon="4.86033">
        <ele>362.8</ele>
        <time>2020-06-14T10:40:19.000Z</time>
      </trkpt>
      <trkpt lat="47.12154" lon="4.86033">
        <ele>363.2</ele>
        <time>2020-06-14T10:40:20.000Z</time>
      </trkpt>
      <trkpt lat="47.12154" lon="4.86033">
        <ele>362.6</ele>
        <time>2020-06-14T10:40:22.000Z</time>
      </trkpt>
      <trkpt lat="47.12154" lon="4.86033">
        <ele>363.6</ele>
        <time>2020-06-14T10:40:23.000Z</time>
      </trkpt>
      <trkpt lat="47.12154" lon="4.86033">
        <ele>365.3</ele>
        <time>2020-06-14T10:40:25.000Z</time>
      </trkpt>
      <trkpt lat="47.12154" lon="4.86033">
        <ele>365.9</ele>
        <time>2020-06-14T10:40:26.000Z</time>
      </trkpt>
      <trkpt lat="47.12153" lon="4.86033">
        <ele>365.4</ele>
        <time>2020-06-14T10:40:27.000Z</time>
      </trkpt>
      <trkpt lat="47.12152" lon="4.86032">
        <ele>364</ele>
        <time>2020-06-14T10:40:30.000Z</time>
      </trkpt>
      <trkpt lat="47.12153" lon="4.86033">
        <ele>364.1</ele>
        <time>2020-06-14T10:40:53.000Z</time>
      </trkpt>
      <trkpt lat="47.12158" lon="4.86044">
        <ele>362.7</ele>
        <time>2020-06-14T10:41:06.000Z</time>
      </trkpt>
      <trkpt lat="47.12165" lon="4.86053">
        <ele>362.2</ele>
        <time>2020-06-14T10:41:15.000Z</time>
      </trkpt>
      <trkpt lat="47.12165" lon="4.86053">
        <ele>362.1</ele>
        <time>2020-06-14T10:41:16.000Z</time>
      </trkpt>
      <trkpt lat="47.12165" lon="4.86054">
        <ele>362.1</ele>
        <time>2020-06-14T10:41:23.000Z</time>
      </trkpt>
      <trkpt lat="47.12172" lon="4.86063">
        <ele>361.3</ele>
        <time>2020-06-14T10:41:31.000Z</time>
      </trkpt>
      <trkpt lat="47.1218" lon="4.86072">
        <ele>360.4</ele>
        <time>2020-06-14T10:41:39.000Z</time>
      </trkpt>
      <trkpt lat="47.12187" lon="4.86081">
        <ele>359.4</ele>
        <time>2020-06-14T10:41:47.000Z</time>
      </trkpt>
      <trkpt lat="47.12195" lon="4.8609">
        <ele>358.2</ele>
        <time>2020-06-14T10:41:55.000Z</time>
      </trkpt>
      <trkpt lat="47.12204" lon="4.86096">
        <ele>356.9</ele>
        <time>2020-06-14T10:42:03.000Z</time>
      </trkpt>
      <trkpt lat="47.12213" lon="4.86101">
        <ele>355.9</ele>
        <time>2020-06-14T10:42:12.000Z</time>
      </trkpt>
      <trkpt lat="47.12222" lon="4.861">
        <ele>355.9</ele>
        <time>2020-06-14T10:42:22.000Z</time>
      </trkpt>
      <trkpt lat="47.12229" lon="4.86091">
        <ele>356.1</ele>
        <time>2020-06-14T10:42:30.000Z</time>
      </trkpt>
      <trkpt lat="47.12235" lon="4.8608">
        <ele>356.4</ele>
        <time>2020-06-14T10:42:38.000Z</time>
      </trkpt>
      <trkpt lat="47.12241" lon="4.86068">
        <ele>356.7</ele>
        <time>2020-06-14T10:42:46.000Z</time>
      </trkpt>
      <trkpt lat="47.12245" lon="4.86057">
        <ele>357.1</ele>
        <time>2020-06-14T10:42:54.000Z</time>
      </trkpt>
      <trkpt lat="47.1225" lon="4.86044">
        <ele>357</ele>
        <time>2020-06-14T10:43:02.000Z</time>
      </trkpt>
      <trkpt lat="47.12255" lon="4.86032">
        <ele>356.8</ele>
        <time>2020-06-14T10:43:10.000Z</time>
      </trkpt>
      <trkpt lat="47.12259" lon="4.86019">
        <ele>356.5</ele>
        <time>2020-06-14T10:43:18.000Z</time>
      </trkpt>
      <trkpt lat="47.12257" lon="4.86005">
        <ele>356.7</ele>
        <time>2020-06-14T10:43:26.000Z</time>
      </trkpt>
      <trkpt lat="47.12258" lon="4.85991">
        <ele>356.9</ele>
        <time>2020-06-14T10:43:36.000Z</time>
      </trkpt>
      <trkpt lat="47.12262" lon="4.85979">
        <ele>357.3</ele>
        <time>2020-06-14T10:43:45.000Z</time>
      </trkpt>
      <trkpt lat="47.12268" lon="4.85967">
        <ele>357.7</ele>
        <time>2020-06-14T10:43:54.000Z</time>
      </trkpt>
      <trkpt lat="47.12273" lon="4.85955">
        <ele>357.7</ele>
        <time>2020-06-14T10:44:02.000Z</time>
      </trkpt>
      <trkpt lat="47.12279" lon="4.85945">
        <ele>357.7</ele>
        <time>2020-06-14T10:44:10.000Z</time>
      </trkpt>
      <trkpt lat="47.12283" lon="4.85933">
        <ele>358.1</ele>
        <time>2020-06-14T10:44:18.000Z</time>
      </trkpt>
      <trkpt lat="47.12289" lon="4.85922">
        <ele>358.6</ele>
        <time>2020-06-14T10:44:26.000Z</time>
      </trkpt>
      <trkpt lat="47.12294" lon="4.85911">
        <ele>358</ele>
        <time>2020-06-14T10:44:34.000Z</time>
      </trkpt>
      <trkpt lat="47.12301" lon="4.85902">
        <ele>356.7</ele>
        <time>2020-06-14T10:44:42.000Z</time>
      </trkpt>
      <trkpt lat="47.1231" lon="4.85894">
        <ele>354.6</ele>
        <time>2020-06-14T10:44:51.000Z</time>
      </trkpt>
      <trkpt lat="47.12319" lon="4.85886">
        <ele>353.3</ele>
        <time>2020-06-14T10:45:00.000Z</time>
      </trkpt>
      <trkpt lat="47.12328" lon="4.85891">
        <ele>351.7</ele>
        <time>2020-06-14T10:45:08.000Z</time>
      </trkpt>
      <trkpt lat="47.12331" lon="4.85894">
        <ele>351.2</ele>
        <time>2020-06-14T10:45:14.000Z</time>
      </trkpt>
      <trkpt lat="47.12331" lon="4.85895">
        <ele>351.1</ele>
        <time>2020-06-14T10:45:16.000Z</time>
      </trkpt>
      <trkpt lat="47.12329" lon="4.85908">
        <ele>350.7</ele>
        <time>2020-06-14T10:45:25.000Z</time>
      </trkpt>
      <trkpt lat="47.12327" lon="4.85921">
        <ele>350.3</ele>
        <time>2020-06-14T10:45:34.000Z</time>
      </trkpt>
      <trkpt lat="47.12324" lon="4.85935">
        <ele>349.8</ele>
        <time>2020-06-14T10:45:43.000Z</time>
      </trkpt>
      <trkpt lat="47.12321" lon="4.85948">
        <ele>349.4</ele>
        <time>2020-06-14T10:45:50.000Z</time>
      </trkpt>
      <trkpt lat="47.12318" lon="4.8596">
        <ele>348.8</ele>
        <time>2020-06-14T10:45:58.000Z</time>
      </trkpt>
      <trkpt lat="47.12313" lon="4.85973">
        <ele>347.8</ele>
        <time>2020-06-14T10:46:05.000Z</time>
      </trkpt>
      <trkpt lat="47.12308" lon="4.85984">
        <ele>347.8</ele>
        <time>2020-06-14T10:46:11.000Z</time>
      </trkpt>
      <trkpt lat="47.12305" lon="4.85998">
        <ele>347.2</ele>
        <time>2020-06-14T10:46:18.000Z</time>
      </trkpt>
      <trkpt lat="47.12308" lon="4.86011">
        <ele>347</ele>
        <time>2020-06-14T10:46:28.000Z</time>
      </trkpt>
      <trkpt lat="47.12307" lon="4.86025">
        <ele>346.4</ele>
        <time>2020-06-14T10:46:36.000Z</time>
      </trkpt>
      <trkpt lat="47.12303" lon="4.86038">
        <ele>346</ele>
        <time>2020-06-14T10:46:43.000Z</time>
      </trkpt>
      <trkpt lat="47.123" lon="4.86051">
        <ele>345.6</ele>
        <time>2020-06-14T10:46:50.000Z</time>
      </trkpt>
      <trkpt lat="47.12296" lon="4.86062">
        <ele>345.2</ele>
        <time>2020-06-14T10:46:57.000Z</time>
      </trkpt>
      <trkpt lat="47.12292" lon="4.86075">
        <ele>344.8</ele>
        <time>2020-06-14T10:47:05.000Z</time>
      </trkpt>
      <trkpt lat="47.12287" lon="4.86087">
        <ele>344.2</ele>
        <time>2020-06-14T10:47:13.000Z</time>
      </trkpt>
      <trkpt lat="47.12284" lon="4.86096">
        <ele>343.9</ele>
        <time>2020-06-14T10:47:22.000Z</time>
      </trkpt>
      <trkpt lat="47.12283" lon="4.86097">
        <ele>343.8</ele>
        <time>2020-06-14T10:47:44.000Z</time>
      </trkpt>
      <trkpt lat="47.12282" lon="4.86099">
        <ele>344</ele>
        <time>2020-06-14T10:47:49.000Z</time>
      </trkpt>
      <trkpt lat="47.12282" lon="4.86099">
        <ele>343.7</ele>
        <time>2020-06-14T10:48:12.000Z</time>
      </trkpt>
      <trkpt lat="47.12282" lon="4.86099">
        <ele>343.9</ele>
        <time>2020-06-14T10:48:13.000Z</time>
      </trkpt>
      <trkpt lat="47.12282" lon="4.861">
        <ele>343.5</ele>
        <time>2020-06-14T10:48:22.000Z</time>
      </trkpt>
      <trkpt lat="47.12282" lon="4.861">
        <ele>343.4</ele>
        <time>2020-06-14T10:48:23.000Z</time>
      </trkpt>
      <trkpt lat="47.12282" lon="4.861">
        <ele>343.6</ele>
        <time>2020-06-14T10:48:25.000Z</time>
      </trkpt>
      <trkpt lat="47.12282" lon="4.86101">
        <ele>343.7</ele>
        <time>2020-06-14T10:48:27.000Z</time>
      </trkpt>
      <trkpt lat="47.12282" lon="4.86102">
        <ele>343.7</ele>
        <time>2020-06-14T10:48:28.000Z</time>
      </trkpt>
      <trkpt lat="47.12282" lon="4.86102">
        <ele>343.6</ele>
        <time>2020-06-14T10:48:30.000Z</time>
      </trkpt>
      <trkpt lat="47.12282" lon="4.86102">
        <ele>343.6</ele>
        <time>2020-06-14T10:48:32.000Z</time>
      </trkpt>
      <trkpt lat="47.12282" lon="4.86103">
        <ele>343.7</ele>
        <time>2020-06-14T10:48:36.000Z</time>
      </trkpt>
      <trkpt lat="47.12282" lon="4.86104">
        <ele>343.7</ele>
        <time>2020-06-14T10:48:38.000Z</time>
      </trkpt>
      <trkpt lat="47.12282" lon="4.86104">
        <ele>343.7</ele>
        <time>2020-06-14T10:48:40.000Z</time>
      </trkpt>
      <trkpt lat="47.12282" lon="4.86105">
        <ele>343.8</ele>
        <time>2020-06-14T10:48:43.000Z</time>
      </trkpt>
      <trkpt lat="47.12282" lon="4.86105">
        <ele>343.6</ele>
        <time>2020-06-14T10:48:45.000Z</time>
      </trkpt>
      <trkpt lat="47.12282" lon="4.86105">
        <ele>343.6</ele>
        <time>2020-06-14T10:48:46.000Z</time>
      </trkpt>
      <trkpt lat="47.12283" lon="4.86106">
        <ele>343.6</ele>
        <time>2020-06-14T10:48:48.000Z</time>
      </trkpt>
      <trkpt lat="47.12283" lon="4.86106">
        <ele>343.6</ele>
        <time>2020-06-14T10:48:50.000Z</time>
      </trkpt>
      <trkpt lat="47.12283" lon="4.86106">
        <ele>343.6</ele>
        <time>2020-06-14T10:48:51.000Z</time>
      </trkpt>
      <trkpt lat="47.12283" lon="4.86107">
        <ele>343.8</ele>
        <time>2020-06-14T10:48:53.000Z</time>
      </trkpt>
      <trkpt lat="47.12283" lon="4.86107">
        <ele>343.7</ele>
        <time>2020-06-14T10:48:55.000Z</time>
      </trkpt>
      <trkpt lat="47.12283" lon="4.86107">
        <ele>343.6</ele>
        <time>2020-06-14T10:48:56.000Z</time>
      </trkpt>
      <trkpt lat="47.12283" lon="4.86107">
        <ele>343.6</ele>
        <time>2020-06-14T10:48:57.000Z</time>
      </trkpt>
      <trkpt lat="47.12283" lon="4.86108">
        <ele>343.6</ele>
        <time>2020-06-14T10:48:58.000Z</time>
      </trkpt>
      <trkpt lat="47.12283" lon="4.86108">
        <ele>343.6</ele>
        <time>2020-06-14T10:48:59.000Z</time>
      </trkpt>
      <trkpt lat="47.12283" lon="4.86108">
        <ele>343.7</ele>
        <time>2020-06-14T10:49:02.000Z</time>
      </trkpt>
      <trkpt lat="47.12283" lon="4.86108">
        <ele>343.6</ele>
        <time>2020-06-14T10:49:03.000Z</time>
      </trkpt>
      <trkpt lat="47.12283" lon="4.86109">
        <ele>343.5</ele>
        <time>2020-06-14T10:49:04.000Z</time>
      </trkpt>
      <trkpt lat="47.12283" lon="4.86109">
        <ele>343.7</ele>
        <time>2020-06-14T10:49:06.000Z</time>
      </trkpt>
      <trkpt lat="47.12283" lon="4.8611">
        <ele>343.7</ele>
        <time>2020-06-14T10:49:09.000Z</time>
      </trkpt>
      <trkpt lat="47.12283" lon="4.8611">
        <ele>343.7</ele>
        <time>2020-06-14T10:49:12.000Z</time>
      </trkpt>
      <trkpt lat="47.12283" lon="4.86111">
        <ele>343.8</ele>
        <time>2020-06-14T10:49:19.000Z</time>
      </trkpt>
      <trkpt lat="47.12283" lon="4.86111">
        <ele>343.7</ele>
        <time>2020-06-14T10:49:21.000Z</time>
      </trkpt>
      <trkpt lat="47.12283" lon="4.86111">
        <ele>343.6</ele>
        <time>2020-06-14T10:49:24.000Z</time>
      </trkpt>
      <trkpt lat="47.12283" lon="4.86111">
        <ele>343.6</ele>
        <time>2020-06-14T10:49:25.000Z</time>
      </trkpt>
      <trkpt lat="47.12283" lon="4.86111">
        <ele>343.4</ele>
        <time>2020-06-14T10:49:58.000Z</time>
      </trkpt>
      <trkpt lat="47.12283" lon="4.86111">
        <ele>343.4</ele>
        <time>2020-06-14T10:49:59.000Z</time>
      </trkpt>
      <trkpt lat="47.12282" lon="4.86111">
        <ele>343.5</ele>
        <time>2020-06-14T10:50:06.000Z</time>
      </trkpt>
      <trkpt lat="47.12282" lon="4.86111">
        <ele>343.4</ele>
        <time>2020-06-14T10:50:07.000Z</time>
      </trkpt>
      <trkpt lat="47.12282" lon="4.86111">
        <ele>344</ele>
        <time>2020-06-14T10:51:11.000Z</time>
      </trkpt>
      <trkpt lat="47.12277" lon="4.86123">
        <ele>343.2</ele>
        <time>2020-06-14T10:51:22.000Z</time>
      </trkpt>
      <trkpt lat="47.12272" lon="4.86135">
        <ele>343</ele>
        <time>2020-06-14T10:51:31.000Z</time>
      </trkpt>
      <trkpt lat="47.12267" lon="4.86148">
        <ele>342.7</ele>
        <time>2020-06-14T10:51:39.000Z</time>
      </trkpt>
      <trkpt lat="47.12262" lon="4.86161">
        <ele>342.2</ele>
        <time>2020-06-14T10:51:48.000Z</time>
      </trkpt>
      <trkpt lat="47.12257" lon="4.86172">
        <ele>341.6</ele>
        <time>2020-06-14T10:51:56.000Z</time>
      </trkpt>
      <trkpt lat="47.12253" lon="4.86186">
        <ele>341.4</ele>
        <time>2020-06-14T10:52:04.000Z</time>
      </trkpt>
      <trkpt lat="47.12248" lon="4.86198">
        <ele>340.5</ele>
        <time>2020-06-14T10:52:12.000Z</time>
      </trkpt>
      <trkpt lat="47.12243" lon="4.86211">
        <ele>340.1</ele>
        <time>2020-06-14T10:52:20.000Z</time>
      </trkpt>
      <trkpt lat="47.12237" lon="4.86222">
        <ele>339.6</ele>
        <time>2020-06-14T10:52:28.000Z</time>
      </trkpt>
      <trkpt lat="47.12232" lon="4.86234">
        <ele>339.4</ele>
        <time>2020-06-14T10:52:36.000Z</time>
      </trkpt>
      <trkpt lat="47.12227" lon="4.86245">
        <ele>339</ele>
        <time>2020-06-14T10:52:45.000Z</time>
      </trkpt>
      <trkpt lat="47.12222" lon="4.86257">
        <ele>338.3</ele>
        <time>2020-06-14T10:52:54.000Z</time>
      </trkpt>
      <trkpt lat="47.12216" lon="4.86267">
        <ele>338.1</ele>
        <time>2020-06-14T10:53:02.000Z</time>
      </trkpt>
      <trkpt lat="47.12211" lon="4.86278">
        <ele>337.2</ele>
        <time>2020-06-14T10:53:10.000Z</time>
      </trkpt>
      <trkpt lat="47.12206" lon="4.86289">
        <ele>336.7</ele>
        <time>2020-06-14T10:53:17.000Z</time>
      </trkpt>
      <trkpt lat="47.12201" lon="4.86301">
        <ele>336.5</ele>
        <time>2020-06-14T10:53:25.000Z</time>
      </trkpt>
      <trkpt lat="47.12196" lon="4.86313">
        <ele>335.6</ele>
        <time>2020-06-14T10:53:34.000Z</time>
      </trkpt>
      <trkpt lat="47.12191" lon="4.86325">
        <ele>335.2</ele>
        <time>2020-06-14T10:53:42.000Z</time>
      </trkpt>
      <trkpt lat="47.12187" lon="4.86338">
        <ele>334.6</ele>
        <time>2020-06-14T10:53:50.000Z</time>
      </trkpt>
      <trkpt lat="47.12183" lon="4.86349">
        <ele>334.1</ele>
        <time>2020-06-14T10:53:59.000Z</time>
      </trkpt>
      <trkpt lat="47.12173" lon="4.86351">
        <ele>333.3</ele>
        <time>2020-06-14T10:54:11.000Z</time>
      </trkpt>
      <trkpt lat="47.12164" lon="4.86347">
        <ele>333.6</ele>
        <time>2020-06-14T10:54:22.000Z</time>
      </trkpt>
      <trkpt lat="47.12162" lon="4.86333">
        <ele>334.7</ele>
        <time>2020-06-14T10:54:34.000Z</time>
      </trkpt>
      <trkpt lat="47.12166" lon="4.86345">
        <ele>333.6</ele>
        <time>2020-06-14T10:54:52.000Z</time>
      </trkpt>
      <trkpt lat="47.1217" lon="4.86358">
        <ele>332.4</ele>
        <time>2020-06-14T10:55:03.000Z</time>
      </trkpt>
      <trkpt lat="47.12167" lon="4.86371">
        <ele>331.6</ele>
        <time>2020-06-14T10:55:12.000Z</time>
      </trkpt>
      <trkpt lat="47.12165" lon="4.86386">
        <ele>331.6</ele>
        <time>2020-06-14T10:55:20.000Z</time>
      </trkpt>
      <trkpt lat="47.12161" lon="4.86398">
        <ele>331.3</ele>
        <time>2020-06-14T10:55:27.000Z</time>
      </trkpt>
      <trkpt lat="47.12156" lon="4.86412">
        <ele>331.1</ele>
        <time>2020-06-14T10:55:36.000Z</time>
      </trkpt>
      <trkpt lat="47.12152" lon="4.86423">
        <ele>330.7</ele>
        <time>2020-06-14T10:55:43.000Z</time>
      </trkpt>
      <trkpt lat="47.12148" lon="4.86437">
        <ele>330.5</ele>
        <time>2020-06-14T10:55:51.000Z</time>
      </trkpt>
      <trkpt lat="47.12149" lon="4.86452">
        <ele>330.2</ele>
        <time>2020-06-14T10:55:59.000Z</time>
      </trkpt>
      <trkpt lat="47.12145" lon="4.86465">
        <ele>329.7</ele>
        <time>2020-06-14T10:56:06.000Z</time>
      </trkpt>
      <trkpt lat="47.12142" lon="4.86477">
        <ele>329.7</ele>
        <time>2020-06-14T10:56:14.000Z</time>
      </trkpt>
      <trkpt lat="47.1214" lon="4.86491">
        <ele>329.5</ele>
        <time>2020-06-14T10:56:22.000Z</time>
      </trkpt>
      <trkpt lat="47.12138" lon="4.86506">
        <ele>329.2</ele>
        <time>2020-06-14T10:56:31.000Z</time>
      </trkpt>
      <trkpt lat="47.12134" lon="4.8652">
        <ele>329.1</ele>
        <time>2020-06-14T10:56:39.000Z</time>
      </trkpt>
      <trkpt lat="47.12131" lon="4.86534">
        <ele>328.4</ele>
        <time>2020-06-14T10:56:47.000Z</time>
      </trkpt>
      <trkpt lat="47.12128" lon="4.86547">
        <ele>328</ele>
        <time>2020-06-14T10:56:55.000Z</time>
      </trkpt>
      <trkpt lat="47.12125" lon="4.8656">
        <ele>327.8</ele>
        <time>2020-06-14T10:57:03.000Z</time>
      </trkpt>
      <trkpt lat="47.12123" lon="4.86574">
        <ele>327.4</ele>
        <time>2020-06-14T10:57:11.000Z</time>
      </trkpt>
      <trkpt lat="47.12119" lon="4.86588">
        <ele>327</ele>
        <time>2020-06-14T10:57:20.000Z</time>
      </trkpt>
      <trkpt lat="47.12116" lon="4.86602">
        <ele>326.8</ele>
        <time>2020-06-14T10:57:28.000Z</time>
      </trkpt>
      <trkpt lat="47.12114" lon="4.86615">
        <ele>326.2</ele>
        <time>2020-06-14T10:57:35.000Z</time>
      </trkpt>
      <trkpt lat="47.12111" lon="4.86628">
        <ele>325.8</ele>
        <time>2020-06-14T10:57:43.000Z</time>
      </trkpt>
      <trkpt lat="47.12108" lon="4.86641">
        <ele>325.5</ele>
        <time>2020-06-14T10:57:51.000Z</time>
      </trkpt>
      <trkpt lat="47.12105" lon="4.86655">
        <ele>324.9</ele>
        <time>2020-06-14T10:58:00.000Z</time>
      </trkpt>
      <trkpt lat="47.12102" lon="4.86669">
        <ele>324.8</ele>
        <time>2020-06-14T10:58:08.000Z</time>
      </trkpt>
      <trkpt lat="47.12099" lon="4.86683">
        <ele>324.7</ele>
        <time>2020-06-14T10:58:16.000Z</time>
      </trkpt>
      <trkpt lat="47.12097" lon="4.86696">
        <ele>324</ele>
        <time>2020-06-14T10:58:24.000Z</time>
      </trkpt>
      <trkpt lat="47.12095" lon="4.8671">
        <ele>323.4</ele>
        <time>2020-06-14T10:58:32.000Z</time>
      </trkpt>
      <trkpt lat="47.12092" lon="4.86723">
        <ele>323.2</ele>
        <time>2020-06-14T10:58:40.000Z</time>
      </trkpt>
      <trkpt lat="47.12089" lon="4.86737">
        <ele>322.8</ele>
        <time>2020-06-14T10:58:48.000Z</time>
      </trkpt>
      <trkpt lat="47.12087" lon="4.8675">
        <ele>322.3</ele>
        <time>2020-06-14T10:58:56.000Z</time>
      </trkpt>
      <trkpt lat="47.12085" lon="4.86763">
        <ele>322.1</ele>
        <time>2020-06-14T10:59:04.000Z</time>
      </trkpt>
      <trkpt lat="47.12084" lon="4.86777">
        <ele>321.5</ele>
        <time>2020-06-14T10:59:12.000Z</time>
      </trkpt>
      <trkpt lat="47.12082" lon="4.86791">
        <ele>321.2</ele>
        <time>2020-06-14T10:59:20.000Z</time>
      </trkpt>
      <trkpt lat="47.12081" lon="4.86805">
        <ele>320.5</ele>
        <time>2020-06-14T10:59:28.000Z</time>
      </trkpt>
      <trkpt lat="47.12079" lon="4.86819">
        <ele>320.6</ele>
        <time>2020-06-14T10:59:36.000Z</time>
      </trkpt>
      <trkpt lat="47.12078" lon="4.86834">
        <ele>320.2</ele>
        <time>2020-06-14T10:59:44.000Z</time>
      </trkpt>
      <trkpt lat="47.12076" lon="4.86847">
        <ele>319.9</ele>
        <time>2020-06-14T10:59:52.000Z</time>
      </trkpt>
      <trkpt lat="47.12074" lon="4.86861">
        <ele>319.5</ele>
        <time>2020-06-14T11:00:00.000Z</time>
      </trkpt>
      <trkpt lat="47.12073" lon="4.86875">
        <ele>319.3</ele>
        <time>2020-06-14T11:00:08.000Z</time>
      </trkpt>
      <trkpt lat="47.12072" lon="4.86888">
        <ele>319.3</ele>
        <time>2020-06-14T11:00:16.000Z</time>
      </trkpt>
      <trkpt lat="47.12072" lon="4.86902">
        <ele>319.1</ele>
        <time>2020-06-14T11:00:24.000Z</time>
      </trkpt>
      <trkpt lat="47.12072" lon="4.86916">
        <ele>318.6</ele>
        <time>2020-06-14T11:00:32.000Z</time>
      </trkpt>
      <trkpt lat="47.12073" lon="4.86929">
        <ele>318.3</ele>
        <time>2020-06-14T11:00:40.000Z</time>
      </trkpt>
      <trkpt lat="47.12074" lon="4.86943">
        <ele>317.7</ele>
        <time>2020-06-14T11:00:48.000Z</time>
      </trkpt>
      <trkpt lat="47.12073" lon="4.86958">
        <ele>317.4</ele>
        <time>2020-06-14T11:00:56.000Z</time>
      </trkpt>
      <trkpt lat="47.12073" lon="4.86972">
        <ele>317.3</ele>
        <time>2020-06-14T11:01:04.000Z</time>
      </trkpt>
      <trkpt lat="47.12074" lon="4.86987">
        <ele>316.7</ele>
        <time>2020-06-14T11:01:13.000Z</time>
      </trkpt>
      <trkpt lat="47.12074" lon="4.87001">
        <ele>316.3</ele>
        <time>2020-06-14T11:01:21.000Z</time>
      </trkpt>
      <trkpt lat="47.12074" lon="4.87015">
        <ele>315.9</ele>
        <time>2020-06-14T11:01:29.000Z</time>
      </trkpt>
      <trkpt lat="47.12076" lon="4.87029">
        <ele>315.6</ele>
        <time>2020-06-14T11:01:38.000Z</time>
      </trkpt>
      <trkpt lat="47.12077" lon="4.87043">
        <ele>315.4</ele>
        <time>2020-06-14T11:01:46.000Z</time>
      </trkpt>
      <trkpt lat="47.12078" lon="4.87058">
        <ele>315.2</ele>
        <time>2020-06-14T11:01:54.000Z</time>
      </trkpt>
      <trkpt lat="47.12075" lon="4.87071">
        <ele>315</ele>
        <time>2020-06-14T11:02:04.000Z</time>
      </trkpt>
      <trkpt lat="47.12078" lon="4.87084">
        <ele>314.3</ele>
        <time>2020-06-14T11:02:16.000Z</time>
      </trkpt>
      <trkpt lat="47.12078" lon="4.87088">
        <ele>314.6</ele>
        <time>2020-06-14T11:02:23.000Z</time>
      </trkpt>
      <trkpt lat="47.12078" lon="4.87088">
        <ele>314.4</ele>
        <time>2020-06-14T11:02:32.000Z</time>
      </trkpt>
      <trkpt lat="47.12078" lon="4.87088">
        <ele>314.4</ele>
        <time>2020-06-14T11:02:33.000Z</time>
      </trkpt>
      <trkpt lat="47.12077" lon="4.87089">
        <ele>314.5</ele>
        <time>2020-06-14T11:02:35.000Z</time>
      </trkpt>
      <trkpt lat="47.12076" lon="4.8709">
        <ele>314.7</ele>
        <time>2020-06-14T11:02:39.000Z</time>
      </trkpt>
      <trkpt lat="47.12076" lon="4.8709">
        <ele>314.5</ele>
        <time>2020-06-14T11:02:44.000Z</time>
      </trkpt>
      <trkpt lat="47.12074" lon="4.87077">
        <ele>314.8</ele>
        <time>2020-06-14T11:02:56.000Z</time>
      </trkpt>
      <trkpt lat="47.12065" lon="4.87071">
        <ele>315.4</ele>
        <time>2020-06-14T11:03:06.000Z</time>
      </trkpt>
      <trkpt lat="47.12056" lon="4.87074">
        <ele>315.8</ele>
        <time>2020-06-14T11:03:15.000Z</time>
      </trkpt>
      <trkpt lat="47.12048" lon="4.87081">
        <ele>316.2</ele>
        <time>2020-06-14T11:03:24.000Z</time>
      </trkpt>
      <trkpt lat="47.12042" lon="4.87091">
        <ele>316.5</ele>
        <time>2020-06-14T11:03:35.000Z</time>
      </trkpt>
      <trkpt lat="47.12038" lon="4.87097">
        <ele>317.5</ele>
        <time>2020-06-14T11:03:43.000Z</time>
      </trkpt>
      <trkpt lat="47.12039" lon="4.87096">
        <ele>317.4</ele>
        <time>2020-06-14T11:03:51.000Z</time>
      </trkpt>
      <trkpt lat="47.12039" lon="4.87095">
        <ele>317.4</ele>
        <time>2020-06-14T11:03:57.000Z</time>
      </trkpt>
      <trkpt lat="47.12039" lon="4.87096">
        <ele>317.3</ele>
        <time>2020-06-14T11:03:58.000Z</time>
      </trkpt>
      <trkpt lat="47.12039" lon="4.87097">
        <ele>317.3</ele>
        <time>2020-06-14T11:04:04.000Z</time>
      </trkpt>
      <trkpt lat="47.12038" lon="4.87097">
        <ele>317.5</ele>
        <time>2020-06-14T11:04:07.000Z</time>
      </trkpt>
      <trkpt lat="47.1204" lon="4.87101">
        <ele>317.7</ele>
        <time>2020-06-14T11:04:24.000Z</time>
      </trkpt>
      <trkpt lat="47.12041" lon="4.87101">
        <ele>317.7</ele>
        <time>2020-06-14T11:04:25.000Z</time>
      </trkpt>
      <trkpt lat="47.12041" lon="4.87101">
        <ele>317.7</ele>
        <time>2020-06-14T11:04:26.000Z</time>
      </trkpt>
      <trkpt lat="47.1204" lon="4.87101">
        <ele>317.8</ele>
        <time>2020-06-14T11:04:27.000Z</time>
      </trkpt>
      <trkpt lat="47.12039" lon="4.87105">
        <ele>317.6</ele>
        <time>2020-06-14T11:04:33.000Z</time>
      </trkpt>
      <trkpt lat="47.12039" lon="4.87105">
        <ele>317.7</ele>
        <time>2020-06-14T11:04:42.000Z</time>
      </trkpt>
      <trkpt lat="47.12039" lon="4.87105">
        <ele>317.8</ele>
        <time>2020-06-14T11:04:43.000Z</time>
      </trkpt>
      <trkpt lat="47.12039" lon="4.87106">
        <ele>317.8</ele>
        <time>2020-06-14T11:04:52.000Z</time>
      </trkpt>
      <trkpt lat="47.12037" lon="4.8712">
        <ele>318.1</ele>
        <time>2020-06-14T11:05:01.000Z</time>
      </trkpt>
      <trkpt lat="47.12039" lon="4.87133">
        <ele>318.9</ele>
        <time>2020-06-14T11:05:10.000Z</time>
      </trkpt>
      <trkpt lat="47.12043" lon="4.87147">
        <ele>319.2</ele>
        <time>2020-06-14T11:05:19.000Z</time>
      </trkpt>
      <trkpt lat="47.12045" lon="4.8716">
        <ele>319.8</ele>
        <time>2020-06-14T11:05:28.000Z</time>
      </trkpt>
      <trkpt lat="47.12049" lon="4.87173">
        <ele>320.7</ele>
        <time>2020-06-14T11:05:36.000Z</time>
      </trkpt>
      <trkpt lat="47.12054" lon="4.87184">
        <ele>321.3</ele>
        <time>2020-06-14T11:05:45.000Z</time>
      </trkpt>
      <trkpt lat="47.12059" lon="4.87196">
        <ele>322</ele>
        <time>2020-06-14T11:05:55.000Z</time>
      </trkpt>
      <trkpt lat="47.12065" lon="4.87208">
        <ele>322.6</ele>
        <time>2020-06-14T11:06:04.000Z</time>
      </trkpt>
      <trkpt lat="47.1207" lon="4.8722">
        <ele>323</ele>
        <time>2020-06-14T11:06:13.000Z</time>
      </trkpt>
      <trkpt lat="47.12074" lon="4.87232">
        <ele>323.9</ele>
        <time>2020-06-14T11:06:22.000Z</time>
      </trkpt>
      <trkpt lat="47.1208" lon="4.87243">
        <ele>324.5</ele>
        <time>2020-06-14T11:06:32.000Z</time>
      </trkpt>
      <trkpt lat="47.12087" lon="4.87253">
        <ele>324.7</ele>
        <time>2020-06-14T11:06:39.000Z</time>
      </trkpt>
      <trkpt lat="47.12092" lon="4.87265">
        <ele>325.3</ele>
        <time>2020-06-14T11:06:49.000Z</time>
      </trkpt>
      <trkpt lat="47.12098" lon="4.87276">
        <ele>326</ele>
        <time>2020-06-14T11:06:59.000Z</time>
      </trkpt>
      <trkpt lat="47.12103" lon="4.87288">
        <ele>326.5</ele>
        <time>2020-06-14T11:07:08.000Z</time>
      </trkpt>
      <trkpt lat="47.12107" lon="4.873">
        <ele>327.2</ele>
        <time>2020-06-14T11:07:16.000Z</time>
      </trkpt>
      <trkpt lat="47.1211" lon="4.87313">
        <ele>327.7</ele>
        <time>2020-06-14T11:07:25.000Z</time>
      </trkpt>
      <trkpt lat="47.12113" lon="4.87326">
        <ele>328.4</ele>
        <time>2020-06-14T11:07:34.000Z</time>
      </trkpt>
      <trkpt lat="47.12114" lon="4.8734">
        <ele>328.6</ele>
        <time>2020-06-14T11:07:42.000Z</time>
      </trkpt>
      <trkpt lat="47.12116" lon="4.87354">
        <ele>329.4</ele>
        <time>2020-06-14T11:07:51.000Z</time>
      </trkpt>
      <trkpt lat="47.12115" lon="4.87368">
        <ele>329.8</ele>
        <time>2020-06-14T11:08:01.000Z</time>
      </trkpt>
      <trkpt lat="47.12114" lon="4.87382">
        <ele>330.4</ele>
        <time>2020-06-14T11:08:10.000Z</time>
      </trkpt>
      <trkpt lat="47.12113" lon="4.87396">
        <ele>330.8</ele>
        <time>2020-06-14T11:08:17.000Z</time>
      </trkpt>
      <trkpt lat="47.1211" lon="4.8741">
        <ele>331.3</ele>
        <time>2020-06-14T11:08:27.000Z</time>
      </trkpt>
      <trkpt lat="47.12106" lon="4.87422">
        <ele>332.1</ele>
        <time>2020-06-14T11:08:36.000Z</time>
      </trkpt>
      <trkpt lat="47.121" lon="4.87435">
        <ele>332.4</ele>
        <time>2020-06-14T11:08:45.000Z</time>
      </trkpt>
      <trkpt lat="47.12096" lon="4.87447">
        <ele>333</ele>
        <time>2020-06-14T11:08:53.000Z</time>
      </trkpt>
      <trkpt lat="47.1209" lon="4.87458">
        <ele>333.7</ele>
        <time>2020-06-14T11:09:04.000Z</time>
      </trkpt>
      <trkpt lat="47.12089" lon="4.87472">
        <ele>334</ele>
        <time>2020-06-14T11:09:13.000Z</time>
      </trkpt>
      <trkpt lat="47.12084" lon="4.87485">
        <ele>334.6</ele>
        <time>2020-06-14T11:09:21.000Z</time>
      </trkpt>
      <trkpt lat="47.12081" lon="4.87498">
        <ele>335.7</ele>
        <time>2020-06-14T11:09:29.000Z</time>
      </trkpt>
      <trkpt lat="47.12079" lon="4.87512">
        <ele>335.5</ele>
        <time>2020-06-14T11:09:36.000Z</time>
      </trkpt>
      <trkpt lat="47.12079" lon="4.87526">
        <ele>335.6</ele>
        <time>2020-06-14T11:09:45.000Z</time>
      </trkpt>
      <trkpt lat="47.12073" lon="4.87536">
        <ele>336.8</ele>
        <time>2020-06-14T11:09:55.000Z</time>
      </trkpt>
      <trkpt lat="47.12066" lon="4.87546">
        <ele>337.3</ele>
        <time>2020-06-14T11:10:04.000Z</time>
      </trkpt>
      <trkpt lat="47.12061" lon="4.87558">
        <ele>339.5</ele>
        <time>2020-06-14T11:10:17.000Z</time>
      </trkpt>
      <trkpt lat="47.12055" lon="4.87569">
        <ele>340.8</ele>
        <time>2020-06-14T11:10:28.000Z</time>
      </trkpt>
      <trkpt lat="47.12053" lon="4.87572">
        <ele>341.3</ele>
        <time>2020-06-14T11:10:34.000Z</time>
      </trkpt>
      <trkpt lat="47.12052" lon="4.87572">
        <ele>341.5</ele>
        <time>2020-06-14T11:10:35.000Z</time>
      </trkpt>
      <trkpt lat="47.1205" lon="4.87585">
        <ele>342.7</ele>
        <time>2020-06-14T11:10:47.000Z</time>
      </trkpt>
      <trkpt lat="47.12045" lon="4.87596">
        <ele>343.9</ele>
        <time>2020-06-14T11:10:59.000Z</time>
      </trkpt>
      <trkpt lat="47.12037" lon="4.87605">
        <ele>345.3</ele>
        <time>2020-06-14T11:11:12.000Z</time>
      </trkpt>
      <trkpt lat="47.12032" lon="4.87616">
        <ele>346.5</ele>
        <time>2020-06-14T11:11:24.000Z</time>
      </trkpt>
      <trkpt lat="47.12032" lon="4.8763">
        <ele>348.3</ele>
        <time>2020-06-14T11:11:38.000Z</time>
      </trkpt>
      <trkpt lat="47.12032" lon="4.87643">
        <ele>349.3</ele>
        <time>2020-06-14T11:11:47.000Z</time>
      </trkpt>
      <trkpt lat="47.12035" lon="4.87656">
        <ele>351.2</ele>
        <time>2020-06-14T11:12:00.000Z</time>
      </trkpt>
      <trkpt lat="47.12042" lon="4.87665">
        <ele>353.5</ele>
        <time>2020-06-14T11:12:17.000Z</time>
      </trkpt>
      <trkpt lat="47.12052" lon="4.87663">
        <ele>354.4</ele>
        <time>2020-06-14T11:12:30.000Z</time>
      </trkpt>
      <trkpt lat="47.1206" lon="4.87655">
        <ele>354.3</ele>
        <time>2020-06-14T11:12:40.000Z</time>
      </trkpt>
      <trkpt lat="47.12069" lon="4.87659">
        <ele>355.1</ele>
        <time>2020-06-14T11:12:50.000Z</time>
      </trkpt>
      <trkpt lat="47.12073" lon="4.87671">
        <ele>357.1</ele>
        <time>2020-06-14T11:13:06.000Z</time>
      </trkpt>
      <trkpt lat="47.12076" lon="4.87685">
        <ele>358.3</ele>
        <time>2020-06-14T11:13:15.000Z</time>
      </trkpt>
      <trkpt lat="47.12079" lon="4.87698">
        <ele>359.1</ele>
        <time>2020-06-14T11:13:23.000Z</time>
      </trkpt>
      <trkpt lat="47.12082" lon="4.8771">
        <ele>359.8</ele>
        <time>2020-06-14T11:13:34.000Z</time>
      </trkpt>
      <trkpt lat="47.12085" lon="4.87723">
        <ele>360.6</ele>
        <time>2020-06-14T11:13:44.000Z</time>
      </trkpt>
      <trkpt lat="47.12083" lon="4.87737">
        <ele>361.1</ele>
        <time>2020-06-14T11:13:57.000Z</time>
      </trkpt>
      <trkpt lat="47.12085" lon="4.8775">
        <ele>361.2</ele>
        <time>2020-06-14T11:14:06.000Z</time>
      </trkpt>
      <trkpt lat="47.12086" lon="4.87764">
        <ele>361.4</ele>
        <time>2020-06-14T11:14:15.000Z</time>
      </trkpt>
      <trkpt lat="47.12084" lon="4.87779">
        <ele>361.5</ele>
        <time>2020-06-14T11:14:25.000Z</time>
      </trkpt>
      <trkpt lat="47.12084" lon="4.87793">
        <ele>361.2</ele>
        <time>2020-06-14T11:14:35.000Z</time>
      </trkpt>
      <trkpt lat="47.12084" lon="4.87806">
        <ele>361.4</ele>
        <time>2020-06-14T11:14:41.000Z</time>
      </trkpt>
      <trkpt lat="47.12081" lon="4.87819">
        <ele>361.6</ele>
        <time>2020-06-14T11:14:48.000Z</time>
      </trkpt>
      <trkpt lat="47.12079" lon="4.87832">
        <ele>361.2</ele>
        <time>2020-06-14T11:14:56.000Z</time>
      </trkpt>
      <trkpt lat="47.12078" lon="4.87845">
        <ele>361.2</ele>
        <time>2020-06-14T11:15:04.000Z</time>
      </trkpt>
      <trkpt lat="47.12076" lon="4.8786">
        <ele>361.1</ele>
        <time>2020-06-14T11:15:12.000Z</time>
      </trkpt>
      <trkpt lat="47.12075" lon="4.87874">
        <ele>360.8</ele>
        <time>2020-06-14T11:15:18.000Z</time>
      </trkpt>
      <trkpt lat="47.12074" lon="4.87888">
        <ele>360.6</ele>
        <time>2020-06-14T11:15:24.000Z</time>
      </trkpt>
      <trkpt lat="47.12076" lon="4.87902">
        <ele>360.3</ele>
        <time>2020-06-14T11:15:36.000Z</time>
      </trkpt>
      <trkpt lat="47.12079" lon="4.87916">
        <ele>359.1</ele>
        <time>2020-06-14T11:15:46.000Z</time>
      </trkpt>
      <trkpt lat="47.12074" lon="4.87927">
        <ele>359.8</ele>
        <time>2020-06-14T11:15:57.000Z</time>
      </trkpt>
      <trkpt lat="47.12067" lon="4.87937">
        <ele>360</ele>
        <time>2020-06-14T11:16:03.000Z</time>
      </trkpt>
      <trkpt lat="47.1206" lon="4.87949">
        <ele>360.1</ele>
        <time>2020-06-14T11:16:09.000Z</time>
      </trkpt>
      <trkpt lat="47.12053" lon="4.87958">
        <ele>360.5</ele>
        <time>2020-06-14T11:16:15.000Z</time>
      </trkpt>
      <trkpt lat="47.12046" lon="4.87969">
        <ele>360.9</ele>
        <time>2020-06-14T11:16:26.000Z</time>
      </trkpt>
      <trkpt lat="47.12038" lon="4.87978">
        <ele>360.9</ele>
        <time>2020-06-14T11:16:35.000Z</time>
      </trkpt>
      <trkpt lat="47.12033" lon="4.87989">
        <ele>361.6</ele>
        <time>2020-06-14T11:16:48.000Z</time>
      </trkpt>
      <trkpt lat="47.12025" lon="4.87998">
        <ele>361.9</ele>
        <time>2020-06-14T11:16:56.000Z</time>
      </trkpt>
      <trkpt lat="47.12018" lon="4.88006">
        <ele>362.6</ele>
        <time>2020-06-14T11:17:05.000Z</time>
      </trkpt>
      <trkpt lat="47.12011" lon="4.88015">
        <ele>363.6</ele>
        <time>2020-06-14T11:17:17.000Z</time>
      </trkpt>
      <trkpt lat="47.12006" lon="4.88027">
        <ele>364</ele>
        <time>2020-06-14T11:17:25.000Z</time>
      </trkpt>
      <trkpt lat="47.11998" lon="4.88036">
        <ele>363.9</ele>
        <time>2020-06-14T11:17:30.000Z</time>
      </trkpt>
      <trkpt lat="47.11991" lon="4.88044">
        <ele>365.1</ele>
        <time>2020-06-14T11:17:38.000Z</time>
      </trkpt>
      <trkpt lat="47.11984" lon="4.88052">
        <ele>365.6</ele>
        <time>2020-06-14T11:17:49.000Z</time>
      </trkpt>
      <trkpt lat="47.11976" lon="4.88062">
        <ele>366.5</ele>
        <time>2020-06-14T11:17:58.000Z</time>
      </trkpt>
      <trkpt lat="47.11969" lon="4.88071">
        <ele>366.8</ele>
        <time>2020-06-14T11:18:06.000Z</time>
      </trkpt>
      <trkpt lat="47.11962" lon="4.8808">
        <ele>367.9</ele>
        <time>2020-06-14T11:18:18.000Z</time>
      </trkpt>
      <trkpt lat="47.11954" lon="4.88089">
        <ele>368.9</ele>
        <time>2020-06-14T11:18:29.000Z</time>
      </trkpt>
      <trkpt lat="47.11948" lon="4.881">
        <ele>369.4</ele>
        <time>2020-06-14T11:18:43.000Z</time>
      </trkpt>
      <trkpt lat="47.11942" lon="4.88111">
        <ele>370</ele>
        <time>2020-06-14T11:18:53.000Z</time>
      </trkpt>
      <trkpt lat="47.11935" lon="4.88119">
        <ele>370.9</ele>
        <time>2020-06-14T11:19:04.000Z</time>
      </trkpt>
      <trkpt lat="47.11927" lon="4.8813">
        <ele>372</ele>
        <time>2020-06-14T11:19:16.000Z</time>
      </trkpt>
      <trkpt lat="47.1192" lon="4.88139">
        <ele>372</ele>
        <time>2020-06-14T11:19:24.000Z</time>
      </trkpt>
      <trkpt lat="47.11913" lon="4.88147">
        <ele>372.8</ele>
        <time>2020-06-14T11:19:34.000Z</time>
      </trkpt>
      <trkpt lat="47.11906" lon="4.88157">
        <ele>373.5</ele>
        <time>2020-06-14T11:19:47.000Z</time>
      </trkpt>
      <trkpt lat="47.119" lon="4.88167">
        <ele>374.5</ele>
        <time>2020-06-14T11:19:58.000Z</time>
      </trkpt>
      <trkpt lat="47.11893" lon="4.88177">
        <ele>375.6</ele>
        <time>2020-06-14T11:20:10.000Z</time>
      </trkpt>
      <trkpt lat="47.11886" lon="4.88185">
        <ele>376.3</ele>
        <time>2020-06-14T11:20:19.000Z</time>
      </trkpt>
      <trkpt lat="47.11879" lon="4.88195">
        <ele>376.6</ele>
        <time>2020-06-14T11:20:29.000Z</time>
      </trkpt>
      <trkpt lat="47.11872" lon="4.88203">
        <ele>377.3</ele>
        <time>2020-06-14T11:20:40.000Z</time>
      </trkpt>
      <trkpt lat="47.11864" lon="4.88211">
        <ele>378</ele>
        <time>2020-06-14T11:20:50.000Z</time>
      </trkpt>
      <trkpt lat="47.11858" lon="4.88222">
        <ele>378.5</ele>
        <time>2020-06-14T11:21:00.000Z</time>
      </trkpt>
      <trkpt lat="47.11851" lon="4.88231">
        <ele>379.1</ele>
        <time>2020-06-14T11:21:11.000Z</time>
      </trkpt>
      <trkpt lat="47.11845" lon="4.88243">
        <ele>379.5</ele>
        <time>2020-06-14T11:21:21.000Z</time>
      </trkpt>
      <trkpt lat="47.11838" lon="4.88252">
        <ele>379.8</ele>
        <time>2020-06-14T11:21:31.000Z</time>
      </trkpt>
      <trkpt lat="47.1183" lon="4.8826">
        <ele>380.4</ele>
        <time>2020-06-14T11:21:41.000Z</time>
      </trkpt>
      <trkpt lat="47.11822" lon="4.8827">
        <ele>381</ele>
        <time>2020-06-14T11:21:51.000Z</time>
      </trkpt>
      <trkpt lat="47.11815" lon="4.88279">
        <ele>381.1</ele>
        <time>2020-06-14T11:22:00.000Z</time>
      </trkpt>
      <trkpt lat="47.11809" lon="4.88288">
        <ele>381.8</ele>
        <time>2020-06-14T11:22:08.000Z</time>
      </trkpt>
      <trkpt lat="47.11802" lon="4.88297">
        <ele>382</ele>
        <time>2020-06-14T11:22:19.000Z</time>
      </trkpt>
      <trkpt lat="47.11796" lon="4.88308">
        <ele>382.3</ele>
        <time>2020-06-14T11:22:30.000Z</time>
      </trkpt>
      <trkpt lat="47.11789" lon="4.88317">
        <ele>382.4</ele>
        <time>2020-06-14T11:22:38.000Z</time>
      </trkpt>
      <trkpt lat="47.11781" lon="4.88321">
        <ele>382.5</ele>
        <time>2020-06-14T11:22:47.000Z</time>
      </trkpt>
      <trkpt lat="47.11781" lon="4.8832">
        <ele>382.6</ele>
        <time>2020-06-14T11:22:50.000Z</time>
      </trkpt>
      <trkpt lat="47.11781" lon="4.88321">
        <ele>382.8</ele>
        <time>2020-06-14T11:22:53.000Z</time>
      </trkpt>
      <trkpt lat="47.1178" lon="4.88324">
        <ele>382.5</ele>
        <time>2020-06-14T11:23:01.000Z</time>
      </trkpt>
      <trkpt lat="47.1178" lon="4.88324">
        <ele>382.6</ele>
        <time>2020-06-14T11:23:04.000Z</time>
      </trkpt>
      <trkpt lat="47.11779" lon="4.88324">
        <ele>382.9</ele>
        <time>2020-06-14T11:23:06.000Z</time>
      </trkpt>
      <trkpt lat="47.1178" lon="4.88324">
        <ele>382.7</ele>
        <time>2020-06-14T11:23:07.000Z</time>
      </trkpt>
      <trkpt lat="47.1178" lon="4.88324">
        <ele>382.8</ele>
        <time>2020-06-14T11:23:08.000Z</time>
      </trkpt>
      <trkpt lat="47.11779" lon="4.88325">
        <ele>382.9</ele>
        <time>2020-06-14T11:23:09.000Z</time>
      </trkpt>
      <trkpt lat="47.11779" lon="4.88325">
        <ele>383</ele>
        <time>2020-06-14T11:23:10.000Z</time>
      </trkpt>
      <trkpt lat="47.11779" lon="4.88324">
        <ele>382.9</ele>
        <time>2020-06-14T11:23:11.000Z</time>
      </trkpt>
      <trkpt lat="47.11779" lon="4.88324">
        <ele>382.7</ele>
        <time>2020-06-14T11:23:15.000Z</time>
      </trkpt>
      <trkpt lat="47.11778" lon="4.88324">
        <ele>382.9</ele>
        <time>2020-06-14T11:23:17.000Z</time>
      </trkpt>
      <trkpt lat="47.11778" lon="4.88324">
        <ele>383</ele>
        <time>2020-06-14T11:23:21.000Z</time>
      </trkpt>
      <trkpt lat="47.11778" lon="4.88324">
        <ele>383.2</ele>
        <time>2020-06-14T11:23:24.000Z</time>
      </trkpt>
      <trkpt lat="47.11778" lon="4.88324">
        <ele>383</ele>
        <time>2020-06-14T11:23:25.000Z</time>
      </trkpt>
      <trkpt lat="47.11778" lon="4.88324">
        <ele>383.2</ele>
        <time>2020-06-14T11:23:27.000Z</time>
      </trkpt>
      <trkpt lat="47.11778" lon="4.88324">
        <ele>383.2</ele>
        <time>2020-06-14T11:23:28.000Z</time>
      </trkpt>
      <trkpt lat="47.11778" lon="4.88324">
        <ele>383</ele>
        <time>2020-06-14T11:23:36.000Z</time>
      </trkpt>
      <trkpt lat="47.11778" lon="4.88324">
        <ele>383.3</ele>
        <time>2020-06-14T11:23:38.000Z</time>
      </trkpt>
      <trkpt lat="47.11778" lon="4.88324">
        <ele>382.9</ele>
        <time>2020-06-14T11:23:51.000Z</time>
      </trkpt>
      <trkpt lat="47.11778" lon="4.88324">
        <ele>383.1</ele>
        <time>2020-06-14T11:23:52.000Z</time>
      </trkpt>
      <trkpt lat="47.11778" lon="4.88325">
        <ele>382.8</ele>
        <time>2020-06-14T11:24:01.000Z</time>
      </trkpt>
      <trkpt lat="47.11778" lon="4.88325">
        <ele>382.8</ele>
        <time>2020-06-14T11:24:04.000Z</time>
      </trkpt>
      <trkpt lat="47.11778" lon="4.88325">
        <ele>382.8</ele>
        <time>2020-06-14T11:24:05.000Z</time>
      </trkpt>
      <trkpt lat="47.11778" lon="4.88325">
        <ele>382.6</ele>
        <time>2020-06-14T11:24:07.000Z</time>
      </trkpt>
      <trkpt lat="47.11777" lon="4.88325">
        <ele>382.6</ele>
        <time>2020-06-14T11:24:08.000Z</time>
      </trkpt>
      <trkpt lat="47.11777" lon="4.88325">
        <ele>382.5</ele>
        <time>2020-06-14T11:24:09.000Z</time>
      </trkpt>
      <trkpt lat="47.11777" lon="4.88325">
        <ele>382.6</ele>
        <time>2020-06-14T11:24:10.000Z</time>
      </trkpt>
      <trkpt lat="47.11771" lon="4.88315">
        <ele>383.3</ele>
        <time>2020-06-14T11:24:26.000Z</time>
      </trkpt>
      <trkpt lat="47.11765" lon="4.88304">
        <ele>384.1</ele>
        <time>2020-06-14T11:24:36.000Z</time>
      </trkpt>
      <trkpt lat="47.11758" lon="4.88294">
        <ele>384.4</ele>
        <time>2020-06-14T11:24:43.000Z</time>
      </trkpt>
      <trkpt lat="47.11751" lon="4.88286">
        <ele>384.6</ele>
        <time>2020-06-14T11:24:50.000Z</time>
      </trkpt>
      <trkpt lat="47.11744" lon="4.88275">
        <ele>385</ele>
        <time>2020-06-14T11:24:58.000Z</time>
      </trkpt>
      <trkpt lat="47.11738" lon="4.88264">
        <ele>385.3</ele>
        <time>2020-06-14T11:25:05.000Z</time>
      </trkpt>
      <trkpt lat="47.1173" lon="4.88254">
        <ele>385.2</ele>
        <time>2020-06-14T11:25:13.000Z</time>
      </trkpt>
      <trkpt lat="47.11723" lon="4.88244">
        <ele>385.6</ele>
        <time>2020-06-14T11:25:20.000Z</time>
      </trkpt>
      <trkpt lat="47.11716" lon="4.88234">
        <ele>385.7</ele>
        <time>2020-06-14T11:25:28.000Z</time>
      </trkpt>
      <trkpt lat="47.1171" lon="4.88224">
        <ele>385.6</ele>
        <time>2020-06-14T11:25:37.000Z</time>
      </trkpt>
      <trkpt lat="47.11705" lon="4.88213">
        <ele>385.4</ele>
        <time>2020-06-14T11:25:46.000Z</time>
      </trkpt>
      <trkpt lat="47.11697" lon="4.88204">
        <ele>385.8</ele>
        <time>2020-06-14T11:25:54.000Z</time>
      </trkpt>
      <trkpt lat="47.1169" lon="4.88194">
        <ele>385.8</ele>
        <time>2020-06-14T11:26:03.000Z</time>
      </trkpt>
      <trkpt lat="47.11683" lon="4.88185">
        <ele>385.4</ele>
        <time>2020-06-14T11:26:10.000Z</time>
      </trkpt>
      <trkpt lat="47.11677" lon="4.88175">
        <ele>385.5</ele>
        <time>2020-06-14T11:26:16.000Z</time>
      </trkpt>
      <trkpt lat="47.11671" lon="4.88164">
        <ele>385.8</ele>
        <time>2020-06-14T11:26:24.000Z</time>
      </trkpt>
      <trkpt lat="47.11664" lon="4.88154">
        <ele>385.6</ele>
        <time>2020-06-14T11:26:33.000Z</time>
      </trkpt>
      <trkpt lat="47.11658" lon="4.88143">
        <ele>385.7</ele>
        <time>2020-06-14T11:26:42.000Z</time>
      </trkpt>
      <trkpt lat="47.11651" lon="4.88133">
        <ele>385.7</ele>
        <time>2020-06-14T11:26:51.000Z</time>
      </trkpt>
      <trkpt lat="47.11645" lon="4.88122">
        <ele>385.4</ele>
        <time>2020-06-14T11:27:03.000Z</time>
      </trkpt>
      <trkpt lat="47.11638" lon="4.88112">
        <ele>385.7</ele>
        <time>2020-06-14T11:27:13.000Z</time>
      </trkpt>
      <trkpt lat="47.11632" lon="4.88102">
        <ele>385.3</ele>
        <time>2020-06-14T11:27:19.000Z</time>
      </trkpt>
      <trkpt lat="47.11626" lon="4.8809">
        <ele>385.3</ele>
        <time>2020-06-14T11:27:25.000Z</time>
      </trkpt>
      <trkpt lat="47.11619" lon="4.8808">
        <ele>385.3</ele>
        <time>2020-06-14T11:27:32.000Z</time>
      </trkpt>
      <trkpt lat="47.11615" lon="4.88068">
        <ele>385.3</ele>
        <time>2020-06-14T11:27:38.000Z</time>
      </trkpt>
      <trkpt lat="47.11618" lon="4.88054">
        <ele>385.3</ele>
        <time>2020-06-14T11:27:46.000Z</time>
      </trkpt>
      <trkpt lat="47.11616" lon="4.8804">
        <ele>385.1</ele>
        <time>2020-06-14T11:27:57.000Z</time>
      </trkpt>
      <trkpt lat="47.11608" lon="4.88033">
        <ele>385.2</ele>
        <time>2020-06-14T11:28:04.000Z</time>
      </trkpt>
      <trkpt lat="47.11599" lon="4.88027">
        <ele>385.7</ele>
        <time>2020-06-14T11:28:14.000Z</time>
      </trkpt>
      <trkpt lat="47.1159" lon="4.8802">
        <ele>385.7</ele>
        <time>2020-06-14T11:28:22.000Z</time>
      </trkpt>
      <trkpt lat="47.11581" lon="4.88014">
        <ele>386.1</ele>
        <time>2020-06-14T11:28:30.000Z</time>
      </trkpt>
      <trkpt lat="47.11573" lon="4.88009">
        <ele>386</ele>
        <time>2020-06-14T11:28:41.000Z</time>
      </trkpt>
      <trkpt lat="47.11563" lon="4.88004">
        <ele>386.4</ele>
        <time>2020-06-14T11:28:50.000Z</time>
      </trkpt>
      <trkpt lat="47.11554" lon="4.88001">
        <ele>386.3</ele>
        <time>2020-06-14T11:29:00.000Z</time>
      </trkpt>
      <trkpt lat="47.11545" lon="4.87999">
        <ele>386.5</ele>
        <time>2020-06-14T11:29:07.000Z</time>
      </trkpt>
      <trkpt lat="47.11535" lon="4.87996">
        <ele>386.6</ele>
        <time>2020-06-14T11:29:15.000Z</time>
      </trkpt>
      <trkpt lat="47.11525" lon="4.87992">
        <ele>386.5</ele>
        <time>2020-06-14T11:29:23.000Z</time>
      </trkpt>
      <trkpt lat="47.11517" lon="4.87989">
        <ele>386.5</ele>
        <time>2020-06-14T11:29:29.000Z</time>
      </trkpt>
      <trkpt lat="47.11508" lon="4.87984">
        <ele>386.4</ele>
        <time>2020-06-14T11:29:36.000Z</time>
      </trkpt>
      <trkpt lat="47.11499" lon="4.87978">
        <ele>386.6</ele>
        <time>2020-06-14T11:29:43.000Z</time>
      </trkpt>
      <trkpt lat="47.1149" lon="4.8797">
        <ele>386.4</ele>
        <time>2020-06-14T11:29:51.000Z</time>
      </trkpt>
      <trkpt lat="47.11482" lon="4.87964">
        <ele>386.6</ele>
        <time>2020-06-14T11:29:58.000Z</time>
      </trkpt>
      <trkpt lat="47.11473" lon="4.8796">
        <ele>386.5</ele>
        <time>2020-06-14T11:30:09.000Z</time>
      </trkpt>
      <trkpt lat="47.11464" lon="4.87957">
        <ele>386.3</ele>
        <time>2020-06-14T11:30:19.000Z</time>
      </trkpt>
      <trkpt lat="47.11455" lon="4.87952">
        <ele>386.4</ele>
        <time>2020-06-14T11:30:27.000Z</time>
      </trkpt>
      <trkpt lat="47.11446" lon="4.87947">
        <ele>386.3</ele>
        <time>2020-06-14T11:30:35.000Z</time>
      </trkpt>
      <trkpt lat="47.11438" lon="4.87941">
        <ele>386.6</ele>
        <time>2020-06-14T11:30:44.000Z</time>
      </trkpt>
      <trkpt lat="47.1143" lon="4.87932">
        <ele>386.7</ele>
        <time>2020-06-14T11:30:52.000Z</time>
      </trkpt>
      <trkpt lat="47.11422" lon="4.87925">
        <ele>386.4</ele>
        <time>2020-06-14T11:31:00.000Z</time>
      </trkpt>
      <trkpt lat="47.11414" lon="4.87917">
        <ele>386.3</ele>
        <time>2020-06-14T11:31:11.000Z</time>
      </trkpt>
      <trkpt lat="47.11406" lon="4.87908">
        <ele>386.5</ele>
        <time>2020-06-14T11:31:17.000Z</time>
      </trkpt>
      <trkpt lat="47.11398" lon="4.87899">
        <ele>386.2</ele>
        <time>2020-06-14T11:31:24.000Z</time>
      </trkpt>
      <trkpt lat="47.11391" lon="4.87889">
        <ele>386.6</ele>
        <time>2020-06-14T11:31:33.000Z</time>
      </trkpt>
      <trkpt lat="47.11385" lon="4.87879">
        <ele>386.4</ele>
        <time>2020-06-14T11:31:39.000Z</time>
      </trkpt>
      <trkpt lat="47.11377" lon="4.87869">
        <ele>386.5</ele>
        <time>2020-06-14T11:31:46.000Z</time>
      </trkpt>
      <trkpt lat="47.11369" lon="4.8786">
        <ele>386.7</ele>
        <time>2020-06-14T11:31:52.000Z</time>
      </trkpt>
      <trkpt lat="47.11361" lon="4.87851">
        <ele>386.9</ele>
        <time>2020-06-14T11:31:59.000Z</time>
      </trkpt>
      <trkpt lat="47.11355" lon="4.87841">
        <ele>386.8</ele>
        <time>2020-06-14T11:32:05.000Z</time>
      </trkpt>
      <trkpt lat="47.11348" lon="4.87831">
        <ele>386.3</ele>
        <time>2020-06-14T11:32:12.000Z</time>
      </trkpt>
      <trkpt lat="47.1134" lon="4.87823">
        <ele>385.7</ele>
        <time>2020-06-14T11:32:20.000Z</time>
      </trkpt>
      <trkpt lat="47.11331" lon="4.87815">
        <ele>385.5</ele>
        <time>2020-06-14T11:32:27.000Z</time>
      </trkpt>
      <trkpt lat="47.11323" lon="4.87806">
        <ele>385.1</ele>
        <time>2020-06-14T11:32:34.000Z</time>
      </trkpt>
      <trkpt lat="47.11317" lon="4.87794">
        <ele>385</ele>
        <time>2020-06-14T11:32:42.000Z</time>
      </trkpt>
      <trkpt lat="47.1131" lon="4.87784">
        <ele>384.5</ele>
        <time>2020-06-14T11:32:50.000Z</time>
      </trkpt>
      <trkpt lat="47.11304" lon="4.87773">
        <ele>384.6</ele>
        <time>2020-06-14T11:32:59.000Z</time>
      </trkpt>
      <trkpt lat="47.11298" lon="4.87763">
        <ele>384.4</ele>
        <time>2020-06-14T11:33:08.000Z</time>
      </trkpt>
      <trkpt lat="47.1129" lon="4.87754">
        <ele>384</ele>
        <time>2020-06-14T11:33:16.000Z</time>
      </trkpt>
      <trkpt lat="47.11285" lon="4.87742">
        <ele>384.1</ele>
        <time>2020-06-14T11:33:25.000Z</time>
      </trkpt>
      <trkpt lat="47.11282" lon="4.87755">
        <ele>383.3</ele>
        <time>2020-06-14T11:33:36.000Z</time>
      </trkpt>
      <trkpt lat="47.11279" lon="4.87769">
        <ele>382.8</ele>
        <time>2020-06-14T11:33:45.000Z</time>
      </trkpt>
      <trkpt lat="47.11275" lon="4.87782">
        <ele>382.5</ele>
        <time>2020-06-14T11:33:53.000Z</time>
      </trkpt>
      <trkpt lat="47.11274" lon="4.87796">
        <ele>381.9</ele>
        <time>2020-06-14T11:34:02.000Z</time>
      </trkpt>
      <trkpt lat="47.11271" lon="4.8781">
        <ele>381.7</ele>
        <time>2020-06-14T11:34:12.000Z</time>
      </trkpt>
      <trkpt lat="47.11268" lon="4.87823">
        <ele>381.3</ele>
        <time>2020-06-14T11:34:20.000Z</time>
      </trkpt>
      <trkpt lat="47.11266" lon="4.87836">
        <ele>380.5</ele>
        <time>2020-06-14T11:34:29.000Z</time>
      </trkpt>
      <trkpt lat="47.11256" lon="4.87839">
        <ele>379.9</ele>
        <time>2020-06-14T11:34:38.000Z</time>
      </trkpt>
      <trkpt lat="47.11246" lon="4.87837">
        <ele>379.3</ele>
        <time>2020-06-14T11:34:44.000Z</time>
      </trkpt>
      <trkpt lat="47.11236" lon="4.87835">
        <ele>379.1</ele>
        <time>2020-06-14T11:34:50.000Z</time>
      </trkpt>
      <trkpt lat="47.11228" lon="4.87829">
        <ele>378.6</ele>
        <time>2020-06-14T11:34:57.000Z</time>
      </trkpt>
      <trkpt lat="47.11219" lon="4.87823">
        <ele>378.1</ele>
        <time>2020-06-14T11:35:05.000Z</time>
      </trkpt>
      <trkpt lat="47.1121" lon="4.87815">
        <ele>377.3</ele>
        <time>2020-06-14T11:35:13.000Z</time>
      </trkpt>
      <trkpt lat="47.11201" lon="4.8781">
        <ele>377.1</ele>
        <time>2020-06-14T11:35:22.000Z</time>
      </trkpt>
      <trkpt lat="47.11199" lon="4.87808">
        <ele>376.9</ele>
        <time>2020-06-14T11:35:27.000Z</time>
      </trkpt>
      <trkpt lat="47.11198" lon="4.87808">
        <ele>376.8</ele>
        <time>2020-06-14T11:36:07.000Z</time>
      </trkpt>
      <trkpt lat="47.11196" lon="4.87807">
        <ele>376.7</ele>
        <time>2020-06-14T11:36:12.000Z</time>
      </trkpt>
      <trkpt lat="47.11196" lon="4.87806">
        <ele>376.7</ele>
        <time>2020-06-14T11:36:13.000Z</time>
      </trkpt>
      <trkpt lat="47.11196" lon="4.87806">
        <ele>376.8</ele>
        <time>2020-06-14T11:36:15.000Z</time>
      </trkpt>
      <trkpt lat="47.11196" lon="4.87806">
        <ele>377.1</ele>
        <time>2020-06-14T11:36:22.000Z</time>
      </trkpt>
      <trkpt lat="47.11196" lon="4.87806">
        <ele>377.2</ele>
        <time>2020-06-14T11:36:24.000Z</time>
      </trkpt>
      <trkpt lat="47.11196" lon="4.87807">
        <ele>377.4</ele>
        <time>2020-06-14T11:36:27.000Z</time>
      </trkpt>
      <trkpt lat="47.11196" lon="4.87807">
        <ele>377.3</ele>
        <time>2020-06-14T11:36:28.000Z</time>
      </trkpt>
      <trkpt lat="47.11196" lon="4.87806">
        <ele>377.1</ele>
        <time>2020-06-14T11:37:29.000Z</time>
      </trkpt>
      <trkpt lat="47.11198" lon="4.87805">
        <ele>377.5</ele>
        <time>2020-06-14T11:37:35.000Z</time>
      </trkpt>
      <trkpt lat="47.11198" lon="4.87805">
        <ele>378.4</ele>
        <time>2020-06-14T11:37:37.000Z</time>
      </trkpt>
    </trkseg>
  </trk>
</gpx>